<?xml version="1.0" encoding="UTF-8" standalone="no" ?>
<gpx xmlns="http://www.topografix.com/GPX/1/1" xmlns:xsi="http://www.w3.org/2001/XMLSchema-instance" xsi:schemaLocation="http://www.topografix.com/GPX/1/1 http://www.topografix.com/GPX/1/1/gpx.xsd" version="1.1" creator="VisuGPX - https://www.visugpx.com">
  <metadata>
    <name>Saint Maximin Ollieres pourcieux</name>
    <desc><![CDATA[Boucle de 30km, facile, faible dénivelé, au départ de St Maximin]]></desc>
  </metadata>
  <trk>
    <name><![CDATA[Ollieres pourcieux]]></name>
    <trkseg>
      <trkpt lat="43.44959" lon="5.86958">
        <ele>290.79998779297</ele>
        <time>2021-01-31T07:00:37.000Z</time>
      </trkpt>
      <trkpt lat="43.44958" lon="5.86958">
        <ele>291</ele>
        <time>2021-01-31T07:00:38.000Z</time>
      </trkpt>
      <trkpt lat="43.44959" lon="5.86958">
        <ele>291</ele>
        <time>2021-01-31T07:00:40.000Z</time>
      </trkpt>
      <trkpt lat="43.44961" lon="5.86956">
        <ele>291.39999389648</ele>
        <time>2021-01-31T07:00:42.000Z</time>
      </trkpt>
      <trkpt lat="43.44961" lon="5.86955">
        <ele>291.20001220703</ele>
        <time>2021-01-31T07:00:43.000Z</time>
      </trkpt>
      <trkpt lat="43.44962" lon="5.86946">
        <ele>291.39999389648</ele>
        <time>2021-01-31T07:00:47.000Z</time>
      </trkpt>
      <trkpt lat="43.44963" lon="5.86943">
        <ele>291.39999389648</ele>
        <time>2021-01-31T07:00:48.000Z</time>
      </trkpt>
      <trkpt lat="43.44964" lon="5.86941">
        <ele>291.39999389648</ele>
        <time>2021-01-31T07:00:49.000Z</time>
      </trkpt>
      <trkpt lat="43.44966" lon="5.86933">
        <ele>291.60000610352</ele>
        <time>2021-01-31T07:00:52.000Z</time>
      </trkpt>
      <trkpt lat="43.44966" lon="5.8693">
        <ele>291.79998779297</ele>
        <time>2021-01-31T07:00:53.000Z</time>
      </trkpt>
      <trkpt lat="43.4497" lon="5.86921">
        <ele>292.60000610352</ele>
        <time>2021-01-31T07:00:56.000Z</time>
      </trkpt>
      <trkpt lat="43.44978" lon="5.86904">
        <ele>292.79998779297</ele>
        <time>2021-01-31T07:01:02.000Z</time>
      </trkpt>
      <trkpt lat="43.44978" lon="5.869">
        <ele>292.79998779297</ele>
        <time>2021-01-31T07:01:03.000Z</time>
      </trkpt>
      <trkpt lat="43.44981" lon="5.86873">
        <ele>294</ele>
        <time>2021-01-31T07:01:10.000Z</time>
      </trkpt>
      <trkpt lat="43.44985" lon="5.86864">
        <ele>294.39999389648</ele>
        <time>2021-01-31T07:01:13.000Z</time>
      </trkpt>
      <trkpt lat="43.44987" lon="5.86858">
        <ele>294.60000610352</ele>
        <time>2021-01-31T07:01:15.000Z</time>
      </trkpt>
      <trkpt lat="43.4499" lon="5.86848">
        <ele>295</ele>
        <time>2021-01-31T07:01:18.000Z</time>
      </trkpt>
      <trkpt lat="43.44998" lon="5.86834">
        <ele>295</ele>
        <time>2021-01-31T07:01:22.000Z</time>
      </trkpt>
      <trkpt lat="43.45004" lon="5.86828">
        <ele>295</ele>
        <time>2021-01-31T07:01:24.000Z</time>
      </trkpt>
      <trkpt lat="43.45023" lon="5.86804">
        <ele>293.79998779297</ele>
        <time>2021-01-31T07:01:30.000Z</time>
      </trkpt>
      <trkpt lat="43.4503" lon="5.86796">
        <ele>293.60000610352</ele>
        <time>2021-01-31T07:01:32.000Z</time>
      </trkpt>
      <trkpt lat="43.45043" lon="5.8678">
        <ele>293</ele>
        <time>2021-01-31T07:01:36.000Z</time>
      </trkpt>
      <trkpt lat="43.4505" lon="5.86773">
        <ele>292.60000610352</ele>
        <time>2021-01-31T07:01:38.000Z</time>
      </trkpt>
      <trkpt lat="43.45056" lon="5.86764">
        <ele>292.39999389648</ele>
        <time>2021-01-31T07:01:40.000Z</time>
      </trkpt>
      <trkpt lat="43.45072" lon="5.86743">
        <ele>292.60000610352</ele>
        <time>2021-01-31T07:01:45.000Z</time>
      </trkpt>
      <trkpt lat="43.4508" lon="5.8673">
        <ele>292.79998779297</ele>
        <time>2021-01-31T07:01:48.000Z</time>
      </trkpt>
      <trkpt lat="43.4509" lon="5.86715">
        <ele>292.79998779297</ele>
        <time>2021-01-31T07:01:51.000Z</time>
      </trkpt>
      <trkpt lat="43.45106" lon="5.86689">
        <ele>293</ele>
        <time>2021-01-31T07:01:57.000Z</time>
      </trkpt>
      <trkpt lat="43.45109" lon="5.86685">
        <ele>293</ele>
        <time>2021-01-31T07:01:58.000Z</time>
      </trkpt>
      <trkpt lat="43.45123" lon="5.86662">
        <ele>292.20001220703</ele>
        <time>2021-01-31T07:02:03.000Z</time>
      </trkpt>
      <trkpt lat="43.45128" lon="5.86653">
        <ele>292</ele>
        <time>2021-01-31T07:02:05.000Z</time>
      </trkpt>
      <trkpt lat="43.4514" lon="5.86632">
        <ele>292.39999389648</ele>
        <time>2021-01-31T07:02:10.000Z</time>
      </trkpt>
      <trkpt lat="43.45143" lon="5.86623">
        <ele>292.39999389648</ele>
        <time>2021-01-31T07:02:12.000Z</time>
      </trkpt>
      <trkpt lat="43.45147" lon="5.86599">
        <ele>292.60000610352</ele>
        <time>2021-01-31T07:02:17.000Z</time>
      </trkpt>
      <trkpt lat="43.45158" lon="5.86586">
        <ele>292.39999389648</ele>
        <time>2021-01-31T07:02:21.000Z</time>
      </trkpt>
      <trkpt lat="43.45174" lon="5.8659">
        <ele>292.20001220703</ele>
        <time>2021-01-31T07:02:25.000Z</time>
      </trkpt>
      <trkpt lat="43.45178" lon="5.86594">
        <ele>292.20001220703</ele>
        <time>2021-01-31T07:02:26.000Z</time>
      </trkpt>
      <trkpt lat="43.45181" lon="5.86596">
        <ele>292.20001220703</ele>
        <time>2021-01-31T07:02:27.000Z</time>
      </trkpt>
      <trkpt lat="43.45185" lon="5.866">
        <ele>292.20001220703</ele>
        <time>2021-01-31T07:02:28.000Z</time>
      </trkpt>
      <trkpt lat="43.45189" lon="5.86604">
        <ele>292.20001220703</ele>
        <time>2021-01-31T07:02:29.000Z</time>
      </trkpt>
      <trkpt lat="43.45192" lon="5.86607">
        <ele>292.20001220703</ele>
        <time>2021-01-31T07:02:30.000Z</time>
      </trkpt>
      <trkpt lat="43.45196" lon="5.86612">
        <ele>292.20001220703</ele>
        <time>2021-01-31T07:02:31.000Z</time>
      </trkpt>
      <trkpt lat="43.45199" lon="5.86616">
        <ele>292</ele>
        <time>2021-01-31T07:02:32.000Z</time>
      </trkpt>
      <trkpt lat="43.45207" lon="5.86628">
        <ele>291.79998779297</ele>
        <time>2021-01-31T07:02:35.000Z</time>
      </trkpt>
      <trkpt lat="43.45211" lon="5.86631">
        <ele>291.60000610352</ele>
        <time>2021-01-31T07:02:36.000Z</time>
      </trkpt>
      <trkpt lat="43.45214" lon="5.86635">
        <ele>291.39999389648</ele>
        <time>2021-01-31T07:02:37.000Z</time>
      </trkpt>
      <trkpt lat="43.45228" lon="5.86649">
        <ele>291</ele>
        <time>2021-01-31T07:02:41.000Z</time>
      </trkpt>
      <trkpt lat="43.4524" lon="5.86661">
        <ele>291</ele>
        <time>2021-01-31T07:02:44.000Z</time>
      </trkpt>
      <trkpt lat="43.45244" lon="5.86665">
        <ele>291</ele>
        <time>2021-01-31T07:02:45.000Z</time>
      </trkpt>
      <trkpt lat="43.45248" lon="5.86668">
        <ele>290.79998779297</ele>
        <time>2021-01-31T07:02:46.000Z</time>
      </trkpt>
      <trkpt lat="43.45257" lon="5.86675">
        <ele>290.79998779297</ele>
        <time>2021-01-31T07:02:48.000Z</time>
      </trkpt>
      <trkpt lat="43.45261" lon="5.86679">
        <ele>290.60000610352</ele>
        <time>2021-01-31T07:02:49.000Z</time>
      </trkpt>
      <trkpt lat="43.45265" lon="5.86685">
        <ele>290.39999389648</ele>
        <time>2021-01-31T07:02:50.000Z</time>
      </trkpt>
      <trkpt lat="43.45268" lon="5.8669">
        <ele>290.20001220703</ele>
        <time>2021-01-31T07:02:51.000Z</time>
      </trkpt>
      <trkpt lat="43.45281" lon="5.86711">
        <ele>289.39999389648</ele>
        <time>2021-01-31T07:02:55.000Z</time>
      </trkpt>
      <trkpt lat="43.45293" lon="5.86729">
        <ele>289.20001220703</ele>
        <time>2021-01-31T07:02:59.000Z</time>
      </trkpt>
      <trkpt lat="43.45301" lon="5.86738">
        <ele>289</ele>
        <time>2021-01-31T07:03:03.000Z</time>
      </trkpt>
      <trkpt lat="43.45304" lon="5.86742">
        <ele>288.39999389648</ele>
        <time>2021-01-31T07:03:05.000Z</time>
      </trkpt>
      <trkpt lat="43.45314" lon="5.86751">
        <ele>287.79998779297</ele>
        <time>2021-01-31T07:03:10.000Z</time>
      </trkpt>
      <trkpt lat="43.4534" lon="5.86767">
        <ele>287.79998779297</ele>
        <time>2021-01-31T07:03:17.000Z</time>
      </trkpt>
      <trkpt lat="43.45348" lon="5.86765">
        <ele>287.60000610352</ele>
        <time>2021-01-31T07:03:19.000Z</time>
      </trkpt>
      <trkpt lat="43.45352" lon="5.86761">
        <ele>287.60000610352</ele>
        <time>2021-01-31T07:03:20.000Z</time>
      </trkpt>
      <trkpt lat="43.45355" lon="5.86756">
        <ele>287.79998779297</ele>
        <time>2021-01-31T07:03:21.000Z</time>
      </trkpt>
      <trkpt lat="43.45358" lon="5.86744">
        <ele>288</ele>
        <time>2021-01-31T07:03:23.000Z</time>
      </trkpt>
      <trkpt lat="43.45359" lon="5.86738">
        <ele>288</ele>
        <time>2021-01-31T07:03:24.000Z</time>
      </trkpt>
      <trkpt lat="43.45368" lon="5.86695">
        <ele>288.39999389648</ele>
        <time>2021-01-31T07:03:32.000Z</time>
      </trkpt>
      <trkpt lat="43.45385" lon="5.86672">
        <ele>288.39999389648</ele>
        <time>2021-01-31T07:03:38.000Z</time>
      </trkpt>
      <trkpt lat="43.45392" lon="5.86665">
        <ele>288.39999389648</ele>
        <time>2021-01-31T07:03:40.000Z</time>
      </trkpt>
      <trkpt lat="43.45417" lon="5.86644">
        <ele>288</ele>
        <time>2021-01-31T07:03:47.000Z</time>
      </trkpt>
      <trkpt lat="43.45421" lon="5.86642">
        <ele>288</ele>
        <time>2021-01-31T07:03:48.000Z</time>
      </trkpt>
      <trkpt lat="43.45424" lon="5.86638">
        <ele>288.20001220703</ele>
        <time>2021-01-31T07:03:49.000Z</time>
      </trkpt>
      <trkpt lat="43.45448" lon="5.86615">
        <ele>288.20001220703</ele>
        <time>2021-01-31T07:03:56.000Z</time>
      </trkpt>
      <trkpt lat="43.45479" lon="5.86584">
        <ele>288</ele>
        <time>2021-01-31T07:04:05.000Z</time>
      </trkpt>
      <trkpt lat="43.4549" lon="5.86564">
        <ele>288</ele>
        <time>2021-01-31T07:04:10.000Z</time>
      </trkpt>
      <trkpt lat="43.45502" lon="5.86521">
        <ele>287.60000610352</ele>
        <time>2021-01-31T07:04:18.000Z</time>
      </trkpt>
      <trkpt lat="43.45507" lon="5.86503">
        <ele>287.39999389648</ele>
        <time>2021-01-31T07:04:22.000Z</time>
      </trkpt>
      <trkpt lat="43.45511" lon="5.86489">
        <ele>287.20001220703</ele>
        <time>2021-01-31T07:04:25.000Z</time>
      </trkpt>
      <trkpt lat="43.45519" lon="5.86466">
        <ele>287.39999389648</ele>
        <time>2021-01-31T07:04:30.000Z</time>
      </trkpt>
      <trkpt lat="43.45522" lon="5.86456">
        <ele>287.60000610352</ele>
        <time>2021-01-31T07:04:32.000Z</time>
      </trkpt>
      <trkpt lat="43.45523" lon="5.8645">
        <ele>287.79998779297</ele>
        <time>2021-01-31T07:04:33.000Z</time>
      </trkpt>
      <trkpt lat="43.45527" lon="5.86434">
        <ele>287.79998779297</ele>
        <time>2021-01-31T07:04:36.000Z</time>
      </trkpt>
      <trkpt lat="43.45533" lon="5.86411">
        <ele>288</ele>
        <time>2021-01-31T07:04:40.000Z</time>
      </trkpt>
      <trkpt lat="43.45546" lon="5.86365">
        <ele>287.39999389648</ele>
        <time>2021-01-31T07:04:48.000Z</time>
      </trkpt>
      <trkpt lat="43.45547" lon="5.86359">
        <ele>287.39999389648</ele>
        <time>2021-01-31T07:04:49.000Z</time>
      </trkpt>
      <trkpt lat="43.45548" lon="5.86317">
        <ele>287.79998779297</ele>
        <time>2021-01-31T07:04:56.000Z</time>
      </trkpt>
      <trkpt lat="43.45548" lon="5.86311">
        <ele>287.79998779297</ele>
        <time>2021-01-31T07:04:57.000Z</time>
      </trkpt>
      <trkpt lat="43.45551" lon="5.86269">
        <ele>288</ele>
        <time>2021-01-31T07:05:04.000Z</time>
      </trkpt>
      <trkpt lat="43.45551" lon="5.86251">
        <ele>288</ele>
        <time>2021-01-31T07:05:07.000Z</time>
      </trkpt>
      <trkpt lat="43.45551" lon="5.86245">
        <ele>288</ele>
        <time>2021-01-31T07:05:08.000Z</time>
      </trkpt>
      <trkpt lat="43.45552" lon="5.86235">
        <ele>287.79998779297</ele>
        <time>2021-01-31T07:05:10.000Z</time>
      </trkpt>
      <trkpt lat="43.45552" lon="5.86229">
        <ele>287.60000610352</ele>
        <time>2021-01-31T07:05:11.000Z</time>
      </trkpt>
      <trkpt lat="43.4555" lon="5.86215">
        <ele>287.39999389648</ele>
        <time>2021-01-31T07:05:14.000Z</time>
      </trkpt>
      <trkpt lat="43.4555" lon="5.8621">
        <ele>287.39999389648</ele>
        <time>2021-01-31T07:05:15.000Z</time>
      </trkpt>
      <trkpt lat="43.45553" lon="5.86195">
        <ele>287.20001220703</ele>
        <time>2021-01-31T07:05:18.000Z</time>
      </trkpt>
      <trkpt lat="43.45555" lon="5.86189">
        <ele>287.20001220703</ele>
        <time>2021-01-31T07:05:20.000Z</time>
      </trkpt>
      <trkpt lat="43.45562" lon="5.86187">
        <ele>287</ele>
        <time>2021-01-31T07:05:22.000Z</time>
      </trkpt>
      <trkpt lat="43.4557" lon="5.86185">
        <ele>286.79998779297</ele>
        <time>2021-01-31T07:05:24.000Z</time>
      </trkpt>
      <trkpt lat="43.45596" lon="5.86175">
        <ele>287</ele>
        <time>2021-01-31T07:05:30.000Z</time>
      </trkpt>
      <trkpt lat="43.45607" lon="5.86172">
        <ele>286.60000610352</ele>
        <time>2021-01-31T07:05:33.000Z</time>
      </trkpt>
      <trkpt lat="43.45615" lon="5.8617">
        <ele>286.20001220703</ele>
        <time>2021-01-31T07:05:35.000Z</time>
      </trkpt>
      <trkpt lat="43.45628" lon="5.86168">
        <ele>286</ele>
        <time>2021-01-31T07:05:38.000Z</time>
      </trkpt>
      <trkpt lat="43.45636" lon="5.86168">
        <ele>286</ele>
        <time>2021-01-31T07:05:40.000Z</time>
      </trkpt>
      <trkpt lat="43.45646" lon="5.86158">
        <ele>285.79998779297</ele>
        <time>2021-01-31T07:05:43.000Z</time>
      </trkpt>
      <trkpt lat="43.45655" lon="5.86153">
        <ele>285.79998779297</ele>
        <time>2021-01-31T07:05:45.000Z</time>
      </trkpt>
      <trkpt lat="43.4566" lon="5.86151">
        <ele>285.79998779297</ele>
        <time>2021-01-31T07:05:46.000Z</time>
      </trkpt>
      <trkpt lat="43.45669" lon="5.86149">
        <ele>285.79998779297</ele>
        <time>2021-01-31T07:05:48.000Z</time>
      </trkpt>
      <trkpt lat="43.45678" lon="5.86147">
        <ele>285.79998779297</ele>
        <time>2021-01-31T07:05:50.000Z</time>
      </trkpt>
      <trkpt lat="43.45708" lon="5.86141">
        <ele>285.20001220703</ele>
        <time>2021-01-31T07:05:56.000Z</time>
      </trkpt>
      <trkpt lat="43.45713" lon="5.86139">
        <ele>285</ele>
        <time>2021-01-31T07:05:57.000Z</time>
      </trkpt>
      <trkpt lat="43.45717" lon="5.86138">
        <ele>284.79998779297</ele>
        <time>2021-01-31T07:05:58.000Z</time>
      </trkpt>
      <trkpt lat="43.45725" lon="5.86131">
        <ele>284.79998779297</ele>
        <time>2021-01-31T07:06:00.000Z</time>
      </trkpt>
      <trkpt lat="43.45728" lon="5.86127">
        <ele>284.79998779297</ele>
        <time>2021-01-31T07:06:01.000Z</time>
      </trkpt>
      <trkpt lat="43.45738" lon="5.86113">
        <ele>285.20001220703</ele>
        <time>2021-01-31T07:06:04.000Z</time>
      </trkpt>
      <trkpt lat="43.45749" lon="5.86098">
        <ele>285.39999389648</ele>
        <time>2021-01-31T07:06:08.000Z</time>
      </trkpt>
      <trkpt lat="43.45756" lon="5.86087">
        <ele>284.79998779297</ele>
        <time>2021-01-31T07:06:11.000Z</time>
      </trkpt>
      <trkpt lat="43.45763" lon="5.8608">
        <ele>284.60000610352</ele>
        <time>2021-01-31T07:06:13.000Z</time>
      </trkpt>
      <trkpt lat="43.45774" lon="5.86073">
        <ele>285</ele>
        <time>2021-01-31T07:06:15.000Z</time>
      </trkpt>
      <trkpt lat="43.45778" lon="5.86072">
        <ele>285</ele>
        <time>2021-01-31T07:06:17.000Z</time>
      </trkpt>
      <trkpt lat="43.45803" lon="5.86059">
        <ele>285</ele>
        <time>2021-01-31T07:06:24.000Z</time>
      </trkpt>
      <trkpt lat="43.45811" lon="5.86055">
        <ele>284.79998779297</ele>
        <time>2021-01-31T07:06:26.000Z</time>
      </trkpt>
      <trkpt lat="43.45814" lon="5.86053">
        <ele>284.79998779297</ele>
        <time>2021-01-31T07:06:27.000Z</time>
      </trkpt>
      <trkpt lat="43.45821" lon="5.86049">
        <ele>284.60000610352</ele>
        <time>2021-01-31T07:06:29.000Z</time>
      </trkpt>
      <trkpt lat="43.45831" lon="5.8604">
        <ele>284.79998779297</ele>
        <time>2021-01-31T07:06:32.000Z</time>
      </trkpt>
      <trkpt lat="43.45843" lon="5.86024">
        <ele>285</ele>
        <time>2021-01-31T07:06:36.000Z</time>
      </trkpt>
      <trkpt lat="43.45848" lon="5.86014">
        <ele>284.79998779297</ele>
        <time>2021-01-31T07:06:38.000Z</time>
      </trkpt>
      <trkpt lat="43.45851" lon="5.8601">
        <ele>284.79998779297</ele>
        <time>2021-01-31T07:06:39.000Z</time>
      </trkpt>
      <trkpt lat="43.45855" lon="5.86006">
        <ele>285</ele>
        <time>2021-01-31T07:06:40.000Z</time>
      </trkpt>
      <trkpt lat="43.45866" lon="5.85999">
        <ele>284.39999389648</ele>
        <time>2021-01-31T07:06:43.000Z</time>
      </trkpt>
      <trkpt lat="43.45873" lon="5.85995">
        <ele>284</ele>
        <time>2021-01-31T07:06:45.000Z</time>
      </trkpt>
      <trkpt lat="43.45877" lon="5.85995">
        <ele>284</ele>
        <time>2021-01-31T07:06:46.000Z</time>
      </trkpt>
      <trkpt lat="43.45881" lon="5.85996">
        <ele>284</ele>
        <time>2021-01-31T07:06:47.000Z</time>
      </trkpt>
      <trkpt lat="43.45889" lon="5.85996">
        <ele>284</ele>
        <time>2021-01-31T07:06:49.000Z</time>
      </trkpt>
      <trkpt lat="43.45892" lon="5.85996">
        <ele>284.20001220703</ele>
        <time>2021-01-31T07:06:50.000Z</time>
      </trkpt>
      <trkpt lat="43.45898" lon="5.85991">
        <ele>285</ele>
        <time>2021-01-31T07:06:52.000Z</time>
      </trkpt>
      <trkpt lat="43.45901" lon="5.85988">
        <ele>285.20001220703</ele>
        <time>2021-01-31T07:06:53.000Z</time>
      </trkpt>
      <trkpt lat="43.45905" lon="5.85973">
        <ele>286.20001220703</ele>
        <time>2021-01-31T07:06:56.000Z</time>
      </trkpt>
      <trkpt lat="43.45906" lon="5.85967">
        <ele>286.39999389648</ele>
        <time>2021-01-31T07:06:57.000Z</time>
      </trkpt>
      <trkpt lat="43.45911" lon="5.85957">
        <ele>287</ele>
        <time>2021-01-31T07:06:59.000Z</time>
      </trkpt>
      <trkpt lat="43.45918" lon="5.85943">
        <ele>286.79998779297</ele>
        <time>2021-01-31T07:07:02.000Z</time>
      </trkpt>
      <trkpt lat="43.45929" lon="5.85913">
        <ele>286.39999389648</ele>
        <time>2021-01-31T07:07:08.000Z</time>
      </trkpt>
      <trkpt lat="43.45932" lon="5.85908">
        <ele>286.20001220703</ele>
        <time>2021-01-31T07:07:09.000Z</time>
      </trkpt>
      <trkpt lat="43.45938" lon="5.85902">
        <ele>285.79998779297</ele>
        <time>2021-01-31T07:07:11.000Z</time>
      </trkpt>
      <trkpt lat="43.45942" lon="5.859">
        <ele>285.60000610352</ele>
        <time>2021-01-31T07:07:12.000Z</time>
      </trkpt>
      <trkpt lat="43.45947" lon="5.85899">
        <ele>285.39999389648</ele>
        <time>2021-01-31T07:07:13.000Z</time>
      </trkpt>
      <trkpt lat="43.45952" lon="5.85897">
        <ele>284.79998779297</ele>
        <time>2021-01-31T07:07:14.000Z</time>
      </trkpt>
      <trkpt lat="43.45965" lon="5.85896">
        <ele>284.20001220703</ele>
        <time>2021-01-31T07:07:17.000Z</time>
      </trkpt>
      <trkpt lat="43.45981" lon="5.85892">
        <ele>284</ele>
        <time>2021-01-31T07:07:21.000Z</time>
      </trkpt>
      <trkpt lat="43.45987" lon="5.85887">
        <ele>284.20001220703</ele>
        <time>2021-01-31T07:07:23.000Z</time>
      </trkpt>
      <trkpt lat="43.45995" lon="5.85873">
        <ele>284.60000610352</ele>
        <time>2021-01-31T07:07:26.000Z</time>
      </trkpt>
      <trkpt lat="43.45999" lon="5.85862">
        <ele>284.79998779297</ele>
        <time>2021-01-31T07:07:28.000Z</time>
      </trkpt>
      <trkpt lat="43.46002" lon="5.85851">
        <ele>285.39999389648</ele>
        <time>2021-01-31T07:07:30.000Z</time>
      </trkpt>
      <trkpt lat="43.46012" lon="5.85814">
        <ele>286.20001220703</ele>
        <time>2021-01-31T07:07:37.000Z</time>
      </trkpt>
      <trkpt lat="43.46016" lon="5.85798">
        <ele>285.79998779297</ele>
        <time>2021-01-31T07:07:40.000Z</time>
      </trkpt>
      <trkpt lat="43.46022" lon="5.85777">
        <ele>285.79998779297</ele>
        <time>2021-01-31T07:07:44.000Z</time>
      </trkpt>
      <trkpt lat="43.46023" lon="5.85772">
        <ele>285.79998779297</ele>
        <time>2021-01-31T07:07:45.000Z</time>
      </trkpt>
      <trkpt lat="43.46024" lon="5.85766">
        <ele>285.60000610352</ele>
        <time>2021-01-31T07:07:46.000Z</time>
      </trkpt>
      <trkpt lat="43.46026" lon="5.85761">
        <ele>285.39999389648</ele>
        <time>2021-01-31T07:07:47.000Z</time>
      </trkpt>
      <trkpt lat="43.4603" lon="5.85746">
        <ele>285.39999389648</ele>
        <time>2021-01-31T07:07:50.000Z</time>
      </trkpt>
      <trkpt lat="43.4604" lon="5.85711">
        <ele>285.79998779297</ele>
        <time>2021-01-31T07:07:57.000Z</time>
      </trkpt>
      <trkpt lat="43.4605" lon="5.857">
        <ele>285.60000610352</ele>
        <time>2021-01-31T07:08:00.000Z</time>
      </trkpt>
      <trkpt lat="43.46054" lon="5.85699">
        <ele>285.39999389648</ele>
        <time>2021-01-31T07:08:01.000Z</time>
      </trkpt>
      <trkpt lat="43.46059" lon="5.85699">
        <ele>285</ele>
        <time>2021-01-31T07:08:02.000Z</time>
      </trkpt>
      <trkpt lat="43.46071" lon="5.85703">
        <ele>284.20001220703</ele>
        <time>2021-01-31T07:08:05.000Z</time>
      </trkpt>
      <trkpt lat="43.46079" lon="5.85706">
        <ele>284</ele>
        <time>2021-01-31T07:08:07.000Z</time>
      </trkpt>
      <trkpt lat="43.46097" lon="5.85709">
        <ele>284.20001220703</ele>
        <time>2021-01-31T07:08:11.000Z</time>
      </trkpt>
      <trkpt lat="43.46106" lon="5.85709">
        <ele>284.60000610352</ele>
        <time>2021-01-31T07:08:13.000Z</time>
      </trkpt>
      <trkpt lat="43.46118" lon="5.85707">
        <ele>285.20001220703</ele>
        <time>2021-01-31T07:08:16.000Z</time>
      </trkpt>
      <trkpt lat="43.46122" lon="5.85705">
        <ele>285.20001220703</ele>
        <time>2021-01-31T07:08:17.000Z</time>
      </trkpt>
      <trkpt lat="43.46132" lon="5.857">
        <ele>285.20001220703</ele>
        <time>2021-01-31T07:08:20.000Z</time>
      </trkpt>
      <trkpt lat="43.46135" lon="5.85697">
        <ele>285.39999389648</ele>
        <time>2021-01-31T07:08:21.000Z</time>
      </trkpt>
      <trkpt lat="43.46141" lon="5.8569">
        <ele>285.60000610352</ele>
        <time>2021-01-31T07:08:23.000Z</time>
      </trkpt>
      <trkpt lat="43.46146" lon="5.85682">
        <ele>285.60000610352</ele>
        <time>2021-01-31T07:08:25.000Z</time>
      </trkpt>
      <trkpt lat="43.46152" lon="5.85675">
        <ele>285.60000610352</ele>
        <time>2021-01-31T07:08:27.000Z</time>
      </trkpt>
      <trkpt lat="43.46159" lon="5.85669">
        <ele>285.60000610352</ele>
        <time>2021-01-31T07:08:29.000Z</time>
      </trkpt>
      <trkpt lat="43.46164" lon="5.85666">
        <ele>285.39999389648</ele>
        <time>2021-01-31T07:08:30.000Z</time>
      </trkpt>
      <trkpt lat="43.46184" lon="5.85659">
        <ele>285.39999389648</ele>
        <time>2021-01-31T07:08:35.000Z</time>
      </trkpt>
      <trkpt lat="43.46192" lon="5.85657">
        <ele>285.39999389648</ele>
        <time>2021-01-31T07:08:37.000Z</time>
      </trkpt>
      <trkpt lat="43.46227" lon="5.85648">
        <ele>285.79998779297</ele>
        <time>2021-01-31T07:08:46.000Z</time>
      </trkpt>
      <trkpt lat="43.4625" lon="5.85643">
        <ele>286</ele>
        <time>2021-01-31T07:08:52.000Z</time>
      </trkpt>
      <trkpt lat="43.46257" lon="5.85641">
        <ele>286.20001220703</ele>
        <time>2021-01-31T07:08:54.000Z</time>
      </trkpt>
      <trkpt lat="43.4626" lon="5.8564">
        <ele>286.39999389648</ele>
        <time>2021-01-31T07:08:55.000Z</time>
      </trkpt>
      <trkpt lat="43.46266" lon="5.85635">
        <ele>286.79998779297</ele>
        <time>2021-01-31T07:08:57.000Z</time>
      </trkpt>
      <trkpt lat="43.46271" lon="5.85631">
        <ele>287.39999389648</ele>
        <time>2021-01-31T07:08:59.000Z</time>
      </trkpt>
      <trkpt lat="43.46274" lon="5.85628">
        <ele>287.79998779297</ele>
        <time>2021-01-31T07:09:00.000Z</time>
      </trkpt>
      <trkpt lat="43.4628" lon="5.8562">
        <ele>288.60000610352</ele>
        <time>2021-01-31T07:09:03.000Z</time>
      </trkpt>
      <trkpt lat="43.46287" lon="5.85611">
        <ele>289.60000610352</ele>
        <time>2021-01-31T07:09:06.000Z</time>
      </trkpt>
      <trkpt lat="43.46292" lon="5.85606">
        <ele>290.39999389648</ele>
        <time>2021-01-31T07:09:08.000Z</time>
      </trkpt>
      <trkpt lat="43.46298" lon="5.85601">
        <ele>290.79998779297</ele>
        <time>2021-01-31T07:09:10.000Z</time>
      </trkpt>
      <trkpt lat="43.46311" lon="5.85596">
        <ele>291.79998779297</ele>
        <time>2021-01-31T07:09:14.000Z</time>
      </trkpt>
      <trkpt lat="43.46314" lon="5.85595">
        <ele>292.20001220703</ele>
        <time>2021-01-31T07:09:15.000Z</time>
      </trkpt>
      <trkpt lat="43.46331" lon="5.856">
        <ele>293.20001220703</ele>
        <time>2021-01-31T07:09:20.000Z</time>
      </trkpt>
      <trkpt lat="43.46334" lon="5.85602">
        <ele>293.39999389648</ele>
        <time>2021-01-31T07:09:21.000Z</time>
      </trkpt>
      <trkpt lat="43.46357" lon="5.85618">
        <ele>292.79998779297</ele>
        <time>2021-01-31T07:09:28.000Z</time>
      </trkpt>
      <trkpt lat="43.4637" lon="5.85628">
        <ele>292.60000610352</ele>
        <time>2021-01-31T07:09:32.000Z</time>
      </trkpt>
      <trkpt lat="43.46389" lon="5.85638">
        <ele>292.79998779297</ele>
        <time>2021-01-31T07:09:37.000Z</time>
      </trkpt>
      <trkpt lat="43.46398" lon="5.85639">
        <ele>293</ele>
        <time>2021-01-31T07:09:39.000Z</time>
      </trkpt>
      <trkpt lat="43.46407" lon="5.85637">
        <ele>293</ele>
        <time>2021-01-31T07:09:41.000Z</time>
      </trkpt>
      <trkpt lat="43.46411" lon="5.85634">
        <ele>293</ele>
        <time>2021-01-31T07:09:42.000Z</time>
      </trkpt>
      <trkpt lat="43.46415" lon="5.85631">
        <ele>292.79998779297</ele>
        <time>2021-01-31T07:09:43.000Z</time>
      </trkpt>
      <trkpt lat="43.46422" lon="5.85622">
        <ele>292</ele>
        <time>2021-01-31T07:09:45.000Z</time>
      </trkpt>
      <trkpt lat="43.46426" lon="5.85616">
        <ele>291.39999389648</ele>
        <time>2021-01-31T07:09:46.000Z</time>
      </trkpt>
      <trkpt lat="43.46429" lon="5.8561">
        <ele>291</ele>
        <time>2021-01-31T07:09:47.000Z</time>
      </trkpt>
      <trkpt lat="43.46445" lon="5.85585">
        <ele>289.39999389648</ele>
        <time>2021-01-31T07:09:51.000Z</time>
      </trkpt>
      <trkpt lat="43.4645" lon="5.8558">
        <ele>288.79998779297</ele>
        <time>2021-01-31T07:09:52.000Z</time>
      </trkpt>
      <trkpt lat="43.46456" lon="5.85576">
        <ele>288.20001220703</ele>
        <time>2021-01-31T07:09:53.000Z</time>
      </trkpt>
      <trkpt lat="43.46467" lon="5.85569">
        <ele>287</ele>
        <time>2021-01-31T07:09:55.000Z</time>
      </trkpt>
      <trkpt lat="43.46479" lon="5.85561">
        <ele>286.20001220703</ele>
        <time>2021-01-31T07:09:57.000Z</time>
      </trkpt>
      <trkpt lat="43.46484" lon="5.85558">
        <ele>285.79998779297</ele>
        <time>2021-01-31T07:09:58.000Z</time>
      </trkpt>
      <trkpt lat="43.46495" lon="5.85551">
        <ele>285.39999389648</ele>
        <time>2021-01-31T07:10:00.000Z</time>
      </trkpt>
      <trkpt lat="43.46509" lon="5.85544">
        <ele>285.20001220703</ele>
        <time>2021-01-31T07:10:03.000Z</time>
      </trkpt>
      <trkpt lat="43.46526" lon="5.85536">
        <ele>285.20001220703</ele>
        <time>2021-01-31T07:10:07.000Z</time>
      </trkpt>
      <trkpt lat="43.46531" lon="5.85534">
        <ele>285.20001220703</ele>
        <time>2021-01-31T07:10:08.000Z</time>
      </trkpt>
      <trkpt lat="43.46535" lon="5.85532">
        <ele>285.20001220703</ele>
        <time>2021-01-31T07:10:09.000Z</time>
      </trkpt>
      <trkpt lat="43.46543" lon="5.85529">
        <ele>285.20001220703</ele>
        <time>2021-01-31T07:10:10.000Z</time>
      </trkpt>
      <trkpt lat="43.46543" lon="5.85529">
        <ele>285.20001220703</ele>
        <time>2021-01-31T07:10:11.000Z</time>
      </trkpt>
      <trkpt lat="43.4656" lon="5.85522">
        <ele>285.79998779297</ele>
        <time>2021-01-31T07:10:15.000Z</time>
      </trkpt>
      <trkpt lat="43.46576" lon="5.85515">
        <ele>285.79998779297</ele>
        <time>2021-01-31T07:10:19.000Z</time>
      </trkpt>
      <trkpt lat="43.46597" lon="5.85508">
        <ele>285.39999389648</ele>
        <time>2021-01-31T07:10:24.000Z</time>
      </trkpt>
      <trkpt lat="43.46606" lon="5.85505">
        <ele>285.39999389648</ele>
        <time>2021-01-31T07:10:26.000Z</time>
      </trkpt>
      <trkpt lat="43.4661" lon="5.85504">
        <ele>285.39999389648</ele>
        <time>2021-01-31T07:10:27.000Z</time>
      </trkpt>
      <trkpt lat="43.4663" lon="5.85495">
        <ele>285.20001220703</ele>
        <time>2021-01-31T07:10:32.000Z</time>
      </trkpt>
      <trkpt lat="43.46638" lon="5.85491">
        <ele>285.39999389648</ele>
        <time>2021-01-31T07:10:34.000Z</time>
      </trkpt>
      <trkpt lat="43.46641" lon="5.85488">
        <ele>285.60000610352</ele>
        <time>2021-01-31T07:10:35.000Z</time>
      </trkpt>
      <trkpt lat="43.46663" lon="5.85458">
        <ele>286.20001220703</ele>
        <time>2021-01-31T07:10:43.000Z</time>
      </trkpt>
      <trkpt lat="43.46681" lon="5.85423">
        <ele>286.60000610352</ele>
        <time>2021-01-31T07:10:51.000Z</time>
      </trkpt>
      <trkpt lat="43.46683" lon="5.85418">
        <ele>286.60000610352</ele>
        <time>2021-01-31T07:10:52.000Z</time>
      </trkpt>
      <trkpt lat="43.46687" lon="5.85408">
        <ele>287</ele>
        <time>2021-01-31T07:10:54.000Z</time>
      </trkpt>
      <trkpt lat="43.46692" lon="5.85399">
        <ele>287</ele>
        <time>2021-01-31T07:10:56.000Z</time>
      </trkpt>
      <trkpt lat="43.467" lon="5.85387">
        <ele>287</ele>
        <time>2021-01-31T07:10:59.000Z</time>
      </trkpt>
      <trkpt lat="43.46712" lon="5.85378">
        <ele>287</ele>
        <time>2021-01-31T07:11:02.000Z</time>
      </trkpt>
      <trkpt lat="43.46721" lon="5.85375">
        <ele>286.79998779297</ele>
        <time>2021-01-31T07:11:04.000Z</time>
      </trkpt>
      <trkpt lat="43.46726" lon="5.85374">
        <ele>286.79998779297</ele>
        <time>2021-01-31T07:11:05.000Z</time>
      </trkpt>
      <trkpt lat="43.4673" lon="5.85373">
        <ele>286.79998779297</ele>
        <time>2021-01-31T07:11:06.000Z</time>
      </trkpt>
      <trkpt lat="43.46757" lon="5.85367">
        <ele>286.39999389648</ele>
        <time>2021-01-31T07:11:13.000Z</time>
      </trkpt>
      <trkpt lat="43.46777" lon="5.85361">
        <ele>286.60000610352</ele>
        <time>2021-01-31T07:11:18.000Z</time>
      </trkpt>
      <trkpt lat="43.46785" lon="5.85359">
        <ele>286.79998779297</ele>
        <time>2021-01-31T07:11:20.000Z</time>
      </trkpt>
      <trkpt lat="43.46808" lon="5.85354">
        <ele>286.39999389648</ele>
        <time>2021-01-31T07:11:26.000Z</time>
      </trkpt>
      <trkpt lat="43.4682" lon="5.85352">
        <ele>286</ele>
        <time>2021-01-31T07:11:29.000Z</time>
      </trkpt>
      <trkpt lat="43.46845" lon="5.85346">
        <ele>286.79998779297</ele>
        <time>2021-01-31T07:11:35.000Z</time>
      </trkpt>
      <trkpt lat="43.46866" lon="5.85342">
        <ele>287</ele>
        <time>2021-01-31T07:11:40.000Z</time>
      </trkpt>
      <trkpt lat="43.46871" lon="5.85342">
        <ele>286.79998779297</ele>
        <time>2021-01-31T07:11:41.000Z</time>
      </trkpt>
      <trkpt lat="43.46892" lon="5.85339">
        <ele>286.79998779297</ele>
        <time>2021-01-31T07:11:46.000Z</time>
      </trkpt>
      <trkpt lat="43.46896" lon="5.85338">
        <ele>286.79998779297</ele>
        <time>2021-01-31T07:11:47.000Z</time>
      </trkpt>
      <trkpt lat="43.46908" lon="5.85333">
        <ele>287</ele>
        <time>2021-01-31T07:11:50.000Z</time>
      </trkpt>
      <trkpt lat="43.46919" lon="5.85323">
        <ele>287.39999389648</ele>
        <time>2021-01-31T07:11:53.000Z</time>
      </trkpt>
      <trkpt lat="43.46943" lon="5.85293">
        <ele>288</ele>
        <time>2021-01-31T07:12:01.000Z</time>
      </trkpt>
      <trkpt lat="43.46946" lon="5.85289">
        <ele>288</ele>
        <time>2021-01-31T07:12:02.000Z</time>
      </trkpt>
      <trkpt lat="43.46964" lon="5.85268">
        <ele>287</ele>
        <time>2021-01-31T07:12:07.000Z</time>
      </trkpt>
      <trkpt lat="43.4697" lon="5.85259">
        <ele>286.60000610352</ele>
        <time>2021-01-31T07:12:10.000Z</time>
      </trkpt>
      <trkpt lat="43.46982" lon="5.85244">
        <ele>286.79998779297</ele>
        <time>2021-01-31T07:12:14.000Z</time>
      </trkpt>
      <trkpt lat="43.4699" lon="5.85232">
        <ele>287</ele>
        <time>2021-01-31T07:12:17.000Z</time>
      </trkpt>
      <trkpt lat="43.47009" lon="5.85207">
        <ele>287.79998779297</ele>
        <time>2021-01-31T07:12:24.000Z</time>
      </trkpt>
      <trkpt lat="43.47034" lon="5.85177">
        <ele>287.60000610352</ele>
        <time>2021-01-31T07:12:33.000Z</time>
      </trkpt>
      <trkpt lat="43.47046" lon="5.85162">
        <ele>287.60000610352</ele>
        <time>2021-01-31T07:12:37.000Z</time>
      </trkpt>
      <trkpt lat="43.47054" lon="5.85151">
        <ele>287.60000610352</ele>
        <time>2021-01-31T07:12:40.000Z</time>
      </trkpt>
      <trkpt lat="43.47067" lon="5.85136">
        <ele>287.79998779297</ele>
        <time>2021-01-31T07:12:44.000Z</time>
      </trkpt>
      <trkpt lat="43.47071" lon="5.85134">
        <ele>287.79998779297</ele>
        <time>2021-01-31T07:12:45.000Z</time>
      </trkpt>
      <trkpt lat="43.47075" lon="5.85131">
        <ele>287.79998779297</ele>
        <time>2021-01-31T07:12:46.000Z</time>
      </trkpt>
      <trkpt lat="43.47087" lon="5.85126">
        <ele>287.79998779297</ele>
        <time>2021-01-31T07:12:49.000Z</time>
      </trkpt>
      <trkpt lat="43.47097" lon="5.85117">
        <ele>288</ele>
        <time>2021-01-31T07:12:52.000Z</time>
      </trkpt>
      <trkpt lat="43.47103" lon="5.85109">
        <ele>288.20001220703</ele>
        <time>2021-01-31T07:12:54.000Z</time>
      </trkpt>
      <trkpt lat="43.47119" lon="5.85085">
        <ele>288.60000610352</ele>
        <time>2021-01-31T07:13:00.000Z</time>
      </trkpt>
      <trkpt lat="43.47137" lon="5.85059">
        <ele>288.60000610352</ele>
        <time>2021-01-31T07:13:07.000Z</time>
      </trkpt>
      <trkpt lat="43.4714" lon="5.85054">
        <ele>288.60000610352</ele>
        <time>2021-01-31T07:13:08.000Z</time>
      </trkpt>
      <trkpt lat="43.47151" lon="5.85037">
        <ele>288.60000610352</ele>
        <time>2021-01-31T07:13:12.000Z</time>
      </trkpt>
      <trkpt lat="43.4716" lon="5.85025">
        <ele>288.60000610352</ele>
        <time>2021-01-31T07:13:15.000Z</time>
      </trkpt>
      <trkpt lat="43.4718" lon="5.84997">
        <ele>287.79998779297</ele>
        <time>2021-01-31T07:13:22.000Z</time>
      </trkpt>
      <trkpt lat="43.47205" lon="5.84957">
        <ele>287.60000610352</ele>
        <time>2021-01-31T07:13:31.000Z</time>
      </trkpt>
      <trkpt lat="43.47225" lon="5.84921">
        <ele>288</ele>
        <time>2021-01-31T07:13:39.000Z</time>
      </trkpt>
      <trkpt lat="43.4724" lon="5.84887">
        <ele>288.20001220703</ele>
        <time>2021-01-31T07:13:46.000Z</time>
      </trkpt>
      <trkpt lat="43.47247" lon="5.84873">
        <ele>288.39999389648</ele>
        <time>2021-01-31T07:13:49.000Z</time>
      </trkpt>
      <trkpt lat="43.47257" lon="5.84854">
        <ele>288.60000610352</ele>
        <time>2021-01-31T07:13:53.000Z</time>
      </trkpt>
      <trkpt lat="43.47262" lon="5.84845">
        <ele>288.39999389648</ele>
        <time>2021-01-31T07:13:55.000Z</time>
      </trkpt>
      <trkpt lat="43.47281" lon="5.84807">
        <ele>288.20001220703</ele>
        <time>2021-01-31T07:14:03.000Z</time>
      </trkpt>
      <trkpt lat="43.47296" lon="5.84775">
        <ele>289.20001220703</ele>
        <time>2021-01-31T07:14:10.000Z</time>
      </trkpt>
      <trkpt lat="43.47307" lon="5.84759">
        <ele>289.79998779297</ele>
        <time>2021-01-31T07:14:15.000Z</time>
      </trkpt>
      <trkpt lat="43.47315" lon="5.84753">
        <ele>289.39999389648</ele>
        <time>2021-01-31T07:14:17.000Z</time>
      </trkpt>
      <trkpt lat="43.47323" lon="5.84746">
        <ele>289.20001220703</ele>
        <time>2021-01-31T07:14:19.000Z</time>
      </trkpt>
      <trkpt lat="43.47335" lon="5.84728">
        <ele>289.39999389648</ele>
        <time>2021-01-31T07:14:23.000Z</time>
      </trkpt>
      <trkpt lat="43.47344" lon="5.84715">
        <ele>289.60000610352</ele>
        <time>2021-01-31T07:14:26.000Z</time>
      </trkpt>
      <trkpt lat="43.47355" lon="5.84697">
        <ele>290</ele>
        <time>2021-01-31T07:14:30.000Z</time>
      </trkpt>
      <trkpt lat="43.47358" lon="5.84693">
        <ele>290.20001220703</ele>
        <time>2021-01-31T07:14:31.000Z</time>
      </trkpt>
      <trkpt lat="43.47369" lon="5.84676">
        <ele>290.39999389648</ele>
        <time>2021-01-31T07:14:35.000Z</time>
      </trkpt>
      <trkpt lat="43.47384" lon="5.84653">
        <ele>290.20001220703</ele>
        <time>2021-01-31T07:14:40.000Z</time>
      </trkpt>
      <trkpt lat="43.47392" lon="5.8464">
        <ele>290.20001220703</ele>
        <time>2021-01-31T07:14:43.000Z</time>
      </trkpt>
      <trkpt lat="43.47404" lon="5.84618">
        <ele>290.20001220703</ele>
        <time>2021-01-31T07:14:48.000Z</time>
      </trkpt>
      <trkpt lat="43.47417" lon="5.84595">
        <ele>290</ele>
        <time>2021-01-31T07:14:53.000Z</time>
      </trkpt>
      <trkpt lat="43.47419" lon="5.84591">
        <ele>290</ele>
        <time>2021-01-31T07:14:54.000Z</time>
      </trkpt>
      <trkpt lat="43.47448" lon="5.84533">
        <ele>289.79998779297</ele>
        <time>2021-01-31T07:15:06.000Z</time>
      </trkpt>
      <trkpt lat="43.4745" lon="5.84528">
        <ele>289.79998779297</ele>
        <time>2021-01-31T07:15:07.000Z</time>
      </trkpt>
      <trkpt lat="43.47471" lon="5.84485">
        <ele>290.20001220703</ele>
        <time>2021-01-31T07:15:16.000Z</time>
      </trkpt>
      <trkpt lat="43.47488" lon="5.84456">
        <ele>289.39999389648</ele>
        <time>2021-01-31T07:15:23.000Z</time>
      </trkpt>
      <trkpt lat="43.47503" lon="5.84428">
        <ele>289.20001220703</ele>
        <time>2021-01-31T07:15:29.000Z</time>
      </trkpt>
      <trkpt lat="43.47505" lon="5.84423">
        <ele>289.20001220703</ele>
        <time>2021-01-31T07:15:30.000Z</time>
      </trkpt>
      <trkpt lat="43.47508" lon="5.84418">
        <ele>289.20001220703</ele>
        <time>2021-01-31T07:15:31.000Z</time>
      </trkpt>
      <trkpt lat="43.47516" lon="5.84397">
        <ele>289.20001220703</ele>
        <time>2021-01-31T07:15:35.000Z</time>
      </trkpt>
      <trkpt lat="43.47523" lon="5.8438">
        <ele>289.39999389648</ele>
        <time>2021-01-31T07:15:38.000Z</time>
      </trkpt>
      <trkpt lat="43.47525" lon="5.84375">
        <ele>289.39999389648</ele>
        <time>2021-01-31T07:15:39.000Z</time>
      </trkpt>
      <trkpt lat="43.47528" lon="5.84365">
        <ele>289.60000610352</ele>
        <time>2021-01-31T07:15:41.000Z</time>
      </trkpt>
      <trkpt lat="43.47539" lon="5.84333">
        <ele>289.79998779297</ele>
        <time>2021-01-31T07:15:47.000Z</time>
      </trkpt>
      <trkpt lat="43.47544" lon="5.84316">
        <ele>290.20001220703</ele>
        <time>2021-01-31T07:15:50.000Z</time>
      </trkpt>
      <trkpt lat="43.47555" lon="5.84286">
        <ele>290.79998779297</ele>
        <time>2021-01-31T07:15:56.000Z</time>
      </trkpt>
      <trkpt lat="43.4756" lon="5.84272">
        <ele>291.39999389648</ele>
        <time>2021-01-31T07:15:59.000Z</time>
      </trkpt>
      <trkpt lat="43.47571" lon="5.84259">
        <ele>292</ele>
        <time>2021-01-31T07:16:03.000Z</time>
      </trkpt>
      <trkpt lat="43.47581" lon="5.84253">
        <ele>292.60000610352</ele>
        <time>2021-01-31T07:16:06.000Z</time>
      </trkpt>
      <trkpt lat="43.47586" lon="5.84253">
        <ele>293.20001220703</ele>
        <time>2021-01-31T07:16:09.000Z</time>
      </trkpt>
      <trkpt lat="43.47594" lon="5.84254">
        <ele>293.79998779297</ele>
        <time>2021-01-31T07:16:12.000Z</time>
      </trkpt>
      <trkpt lat="43.47603" lon="5.84256">
        <ele>294.39999389648</ele>
        <time>2021-01-31T07:16:15.000Z</time>
      </trkpt>
      <trkpt lat="43.47608" lon="5.84258">
        <ele>294.79998779297</ele>
        <time>2021-01-31T07:16:17.000Z</time>
      </trkpt>
      <trkpt lat="43.47622" lon="5.84262">
        <ele>295.39999389648</ele>
        <time>2021-01-31T07:16:22.000Z</time>
      </trkpt>
      <trkpt lat="43.47625" lon="5.84261">
        <ele>295.39999389648</ele>
        <time>2021-01-31T07:16:23.000Z</time>
      </trkpt>
      <trkpt lat="43.47628" lon="5.8426">
        <ele>295.39999389648</ele>
        <time>2021-01-31T07:16:24.000Z</time>
      </trkpt>
      <trkpt lat="43.47633" lon="5.84258">
        <ele>295.39999389648</ele>
        <time>2021-01-31T07:16:26.000Z</time>
      </trkpt>
      <trkpt lat="43.47644" lon="5.84256">
        <ele>295.79998779297</ele>
        <time>2021-01-31T07:16:30.000Z</time>
      </trkpt>
      <trkpt lat="43.47647" lon="5.84257">
        <ele>296</ele>
        <time>2021-01-31T07:16:31.000Z</time>
      </trkpt>
      <trkpt lat="43.4766" lon="5.84271">
        <ele>295.60000610352</ele>
        <time>2021-01-31T07:16:37.000Z</time>
      </trkpt>
      <trkpt lat="43.47681" lon="5.84298">
        <ele>295</ele>
        <time>2021-01-31T07:16:45.000Z</time>
      </trkpt>
      <trkpt lat="43.47683" lon="5.84302">
        <ele>294.60000610352</ele>
        <time>2021-01-31T07:16:46.000Z</time>
      </trkpt>
      <trkpt lat="43.47702" lon="5.84329">
        <ele>293.79998779297</ele>
        <time>2021-01-31T07:16:52.000Z</time>
      </trkpt>
      <trkpt lat="43.47706" lon="5.84332">
        <ele>293.60000610352</ele>
        <time>2021-01-31T07:16:53.000Z</time>
      </trkpt>
      <trkpt lat="43.4771" lon="5.84335">
        <ele>293.39999389648</ele>
        <time>2021-01-31T07:16:54.000Z</time>
      </trkpt>
      <trkpt lat="43.47717" lon="5.84342">
        <ele>293.20001220703</ele>
        <time>2021-01-31T07:16:56.000Z</time>
      </trkpt>
      <trkpt lat="43.47727" lon="5.84354">
        <ele>293</ele>
        <time>2021-01-31T07:16:59.000Z</time>
      </trkpt>
      <trkpt lat="43.47734" lon="5.84361">
        <ele>293</ele>
        <time>2021-01-31T07:17:01.000Z</time>
      </trkpt>
      <trkpt lat="43.47744" lon="5.84374">
        <ele>292.79998779297</ele>
        <time>2021-01-31T07:17:04.000Z</time>
      </trkpt>
      <trkpt lat="43.47761" lon="5.84394">
        <ele>292.60000610352</ele>
        <time>2021-01-31T07:17:09.000Z</time>
      </trkpt>
      <trkpt lat="43.47771" lon="5.84406">
        <ele>292.39999389648</ele>
        <time>2021-01-31T07:17:12.000Z</time>
      </trkpt>
      <trkpt lat="43.47774" lon="5.84409">
        <ele>292.39999389648</ele>
        <time>2021-01-31T07:17:13.000Z</time>
      </trkpt>
      <trkpt lat="43.47786" lon="5.84424">
        <ele>292.39999389648</ele>
        <time>2021-01-31T07:17:17.000Z</time>
      </trkpt>
      <trkpt lat="43.47798" lon="5.84438">
        <ele>292.39999389648</ele>
        <time>2021-01-31T07:17:21.000Z</time>
      </trkpt>
      <trkpt lat="43.47818" lon="5.84471">
        <ele>292.60000610352</ele>
        <time>2021-01-31T07:17:29.000Z</time>
      </trkpt>
      <trkpt lat="43.47832" lon="5.84495">
        <ele>292.20001220703</ele>
        <time>2021-01-31T07:17:34.000Z</time>
      </trkpt>
      <trkpt lat="43.47837" lon="5.84504">
        <ele>292</ele>
        <time>2021-01-31T07:17:36.000Z</time>
      </trkpt>
      <trkpt lat="43.4784" lon="5.84509">
        <ele>292</ele>
        <time>2021-01-31T07:17:37.000Z</time>
      </trkpt>
      <trkpt lat="43.47846" lon="5.84522">
        <ele>292</ele>
        <time>2021-01-31T07:17:40.000Z</time>
      </trkpt>
      <trkpt lat="43.47849" lon="5.84526">
        <ele>292</ele>
        <time>2021-01-31T07:17:41.000Z</time>
      </trkpt>
      <trkpt lat="43.47852" lon="5.8453">
        <ele>292.20001220703</ele>
        <time>2021-01-31T07:17:42.000Z</time>
      </trkpt>
      <trkpt lat="43.47858" lon="5.84538">
        <ele>292</ele>
        <time>2021-01-31T07:17:44.000Z</time>
      </trkpt>
      <trkpt lat="43.47865" lon="5.84554">
        <ele>291.60000610352</ele>
        <time>2021-01-31T07:17:47.000Z</time>
      </trkpt>
      <trkpt lat="43.47866" lon="5.8456">
        <ele>291.60000610352</ele>
        <time>2021-01-31T07:17:48.000Z</time>
      </trkpt>
      <trkpt lat="43.47868" lon="5.84573">
        <ele>291.20001220703</ele>
        <time>2021-01-31T07:17:50.000Z</time>
      </trkpt>
      <trkpt lat="43.47868" lon="5.84583">
        <ele>290.79998779297</ele>
        <time>2021-01-31T07:17:52.000Z</time>
      </trkpt>
      <trkpt lat="43.47873" lon="5.84596">
        <ele>290.39999389648</ele>
        <time>2021-01-31T07:17:55.000Z</time>
      </trkpt>
      <trkpt lat="43.47877" lon="5.84606">
        <ele>290.20001220703</ele>
        <time>2021-01-31T07:17:57.000Z</time>
      </trkpt>
      <trkpt lat="43.47895" lon="5.84647">
        <ele>289.60000610352</ele>
        <time>2021-01-31T07:18:04.000Z</time>
      </trkpt>
      <trkpt lat="43.47895" lon="5.84647">
        <ele>289.60000610352</ele>
        <time>2021-01-31T07:18:05.000Z</time>
      </trkpt>
      <trkpt lat="43.4791" lon="5.84684">
        <ele>289.39999389648</ele>
        <time>2021-01-31T07:18:12.000Z</time>
      </trkpt>
      <trkpt lat="43.47914" lon="5.84694">
        <ele>289.20001220703</ele>
        <time>2021-01-31T07:18:14.000Z</time>
      </trkpt>
      <trkpt lat="43.47923" lon="5.84716">
        <ele>288.60000610352</ele>
        <time>2021-01-31T07:18:18.000Z</time>
      </trkpt>
      <trkpt lat="43.47928" lon="5.84728">
        <ele>288.39999389648</ele>
        <time>2021-01-31T07:18:20.000Z</time>
      </trkpt>
      <trkpt lat="43.47931" lon="5.84733">
        <ele>288.20001220703</ele>
        <time>2021-01-31T07:18:21.000Z</time>
      </trkpt>
      <trkpt lat="43.47935" lon="5.84744">
        <ele>288</ele>
        <time>2021-01-31T07:18:23.000Z</time>
      </trkpt>
      <trkpt lat="43.47937" lon="5.8475">
        <ele>287.79998779297</ele>
        <time>2021-01-31T07:18:24.000Z</time>
      </trkpt>
      <trkpt lat="43.47938" lon="5.84756">
        <ele>287.79998779297</ele>
        <time>2021-01-31T07:18:25.000Z</time>
      </trkpt>
      <trkpt lat="43.4794" lon="5.84761">
        <ele>287.79998779297</ele>
        <time>2021-01-31T07:18:26.000Z</time>
      </trkpt>
      <trkpt lat="43.47943" lon="5.8477">
        <ele>287.60000610352</ele>
        <time>2021-01-31T07:18:28.000Z</time>
      </trkpt>
      <trkpt lat="43.47952" lon="5.84793">
        <ele>288</ele>
        <time>2021-01-31T07:18:33.000Z</time>
      </trkpt>
      <trkpt lat="43.47965" lon="5.84827">
        <ele>288</ele>
        <time>2021-01-31T07:18:40.000Z</time>
      </trkpt>
      <trkpt lat="43.47981" lon="5.84867">
        <ele>288.20001220703</ele>
        <time>2021-01-31T07:18:48.000Z</time>
      </trkpt>
      <trkpt lat="43.47983" lon="5.84872">
        <ele>288.20001220703</ele>
        <time>2021-01-31T07:18:49.000Z</time>
      </trkpt>
      <trkpt lat="43.48" lon="5.84918">
        <ele>287.79998779297</ele>
        <time>2021-01-31T07:18:58.000Z</time>
      </trkpt>
      <trkpt lat="43.48002" lon="5.84923">
        <ele>287.79998779297</ele>
        <time>2021-01-31T07:18:59.000Z</time>
      </trkpt>
      <trkpt lat="43.48023" lon="5.84973">
        <ele>287.60000610352</ele>
        <time>2021-01-31T07:19:09.000Z</time>
      </trkpt>
      <trkpt lat="43.48034" lon="5.85004">
        <ele>287.60000610352</ele>
        <time>2021-01-31T07:19:15.000Z</time>
      </trkpt>
      <trkpt lat="43.48043" lon="5.85024">
        <ele>287.60000610352</ele>
        <time>2021-01-31T07:19:19.000Z</time>
      </trkpt>
      <trkpt lat="43.48045" lon="5.85029">
        <ele>287.60000610352</ele>
        <time>2021-01-31T07:19:20.000Z</time>
      </trkpt>
      <trkpt lat="43.48056" lon="5.85059">
        <ele>287.60000610352</ele>
        <time>2021-01-31T07:19:26.000Z</time>
      </trkpt>
      <trkpt lat="43.48058" lon="5.85063">
        <ele>287.60000610352</ele>
        <time>2021-01-31T07:19:27.000Z</time>
      </trkpt>
      <trkpt lat="43.48061" lon="5.85073">
        <ele>287.60000610352</ele>
        <time>2021-01-31T07:19:29.000Z</time>
      </trkpt>
      <trkpt lat="43.48072" lon="5.85102">
        <ele>287.60000610352</ele>
        <time>2021-01-31T07:19:35.000Z</time>
      </trkpt>
      <trkpt lat="43.48078" lon="5.85116">
        <ele>287.39999389648</ele>
        <time>2021-01-31T07:19:38.000Z</time>
      </trkpt>
      <trkpt lat="43.4808" lon="5.85121">
        <ele>287.20001220703</ele>
        <time>2021-01-31T07:19:39.000Z</time>
      </trkpt>
      <trkpt lat="43.48086" lon="5.85135">
        <ele>286.79998779297</ele>
        <time>2021-01-31T07:19:42.000Z</time>
      </trkpt>
      <trkpt lat="43.48089" lon="5.8514">
        <ele>286.79998779297</ele>
        <time>2021-01-31T07:19:43.000Z</time>
      </trkpt>
      <trkpt lat="43.48102" lon="5.85174">
        <ele>286.79998779297</ele>
        <time>2021-01-31T07:19:50.000Z</time>
      </trkpt>
      <trkpt lat="43.48106" lon="5.85183">
        <ele>286.79998779297</ele>
        <time>2021-01-31T07:19:52.000Z</time>
      </trkpt>
      <trkpt lat="43.48115" lon="5.85208">
        <ele>286.39999389648</ele>
        <time>2021-01-31T07:19:57.000Z</time>
      </trkpt>
      <trkpt lat="43.48119" lon="5.85222">
        <ele>286.60000610352</ele>
        <time>2021-01-31T07:20:00.000Z</time>
      </trkpt>
      <trkpt lat="43.48127" lon="5.85247">
        <ele>287</ele>
        <time>2021-01-31T07:20:06.000Z</time>
      </trkpt>
      <trkpt lat="43.4813" lon="5.85254">
        <ele>287</ele>
        <time>2021-01-31T07:20:08.000Z</time>
      </trkpt>
      <trkpt lat="43.48138" lon="5.85276">
        <ele>287</ele>
        <time>2021-01-31T07:20:13.000Z</time>
      </trkpt>
      <trkpt lat="43.48144" lon="5.8529">
        <ele>286.79998779297</ele>
        <time>2021-01-31T07:20:16.000Z</time>
      </trkpt>
      <trkpt lat="43.48148" lon="5.85299">
        <ele>287</ele>
        <time>2021-01-31T07:20:18.000Z</time>
      </trkpt>
      <trkpt lat="43.48152" lon="5.85308">
        <ele>287.20001220703</ele>
        <time>2021-01-31T07:20:20.000Z</time>
      </trkpt>
      <trkpt lat="43.48156" lon="5.85317">
        <ele>287.20001220703</ele>
        <time>2021-01-31T07:20:22.000Z</time>
      </trkpt>
      <trkpt lat="43.48158" lon="5.85321">
        <ele>287.20001220703</ele>
        <time>2021-01-31T07:20:23.000Z</time>
      </trkpt>
      <trkpt lat="43.48167" lon="5.85344">
        <ele>287</ele>
        <time>2021-01-31T07:20:28.000Z</time>
      </trkpt>
      <trkpt lat="43.48174" lon="5.85363">
        <ele>287</ele>
        <time>2021-01-31T07:20:32.000Z</time>
      </trkpt>
      <trkpt lat="43.48185" lon="5.85394">
        <ele>286.79998779297</ele>
        <time>2021-01-31T07:20:39.000Z</time>
      </trkpt>
      <trkpt lat="43.48186" lon="5.85399">
        <ele>286.79998779297</ele>
        <time>2021-01-31T07:20:40.000Z</time>
      </trkpt>
      <trkpt lat="43.48189" lon="5.85404">
        <ele>286.60000610352</ele>
        <time>2021-01-31T07:20:42.000Z</time>
      </trkpt>
      <trkpt lat="43.48192" lon="5.85404">
        <ele>286.60000610352</ele>
        <time>2021-01-31T07:20:43.000Z</time>
      </trkpt>
      <trkpt lat="43.48204" lon="5.85391">
        <ele>287.39999389648</ele>
        <time>2021-01-31T07:20:48.000Z</time>
      </trkpt>
      <trkpt lat="43.48217" lon="5.85377">
        <ele>287.20001220703</ele>
        <time>2021-01-31T07:20:53.000Z</time>
      </trkpt>
      <trkpt lat="43.48226" lon="5.85369">
        <ele>287.20001220703</ele>
        <time>2021-01-31T07:20:56.000Z</time>
      </trkpt>
      <trkpt lat="43.48229" lon="5.8537">
        <ele>287.20001220703</ele>
        <time>2021-01-31T07:20:57.000Z</time>
      </trkpt>
      <trkpt lat="43.4824" lon="5.85375">
        <ele>287.39999389648</ele>
        <time>2021-01-31T07:21:01.000Z</time>
      </trkpt>
      <trkpt lat="43.48256" lon="5.85372">
        <ele>288</ele>
        <time>2021-01-31T07:21:06.000Z</time>
      </trkpt>
      <trkpt lat="43.48259" lon="5.85371">
        <ele>288</ele>
        <time>2021-01-31T07:21:07.000Z</time>
      </trkpt>
      <trkpt lat="43.48263" lon="5.8537">
        <ele>288</ele>
        <time>2021-01-31T07:21:08.000Z</time>
      </trkpt>
      <trkpt lat="43.48271" lon="5.85368">
        <ele>288</ele>
        <time>2021-01-31T07:21:11.000Z</time>
      </trkpt>
      <trkpt lat="43.48277" lon="5.85367">
        <ele>288</ele>
        <time>2021-01-31T07:21:13.000Z</time>
      </trkpt>
      <trkpt lat="43.4828" lon="5.85367">
        <ele>288.20001220703</ele>
        <time>2021-01-31T07:21:14.000Z</time>
      </trkpt>
      <trkpt lat="43.48288" lon="5.85367">
        <ele>288.39999389648</ele>
        <time>2021-01-31T07:21:17.000Z</time>
      </trkpt>
      <trkpt lat="43.48302" lon="5.85366">
        <ele>288.39999389648</ele>
        <time>2021-01-31T07:21:22.000Z</time>
      </trkpt>
      <trkpt lat="43.48306" lon="5.85365">
        <ele>288.79998779297</ele>
        <time>2021-01-31T07:21:24.000Z</time>
      </trkpt>
      <trkpt lat="43.48313" lon="5.85365">
        <ele>289.20001220703</ele>
        <time>2021-01-31T07:21:27.000Z</time>
      </trkpt>
      <trkpt lat="43.48321" lon="5.85361">
        <ele>289.20001220703</ele>
        <time>2021-01-31T07:21:31.000Z</time>
      </trkpt>
      <trkpt lat="43.48324" lon="5.85347">
        <ele>289.60000610352</ele>
        <time>2021-01-31T07:21:35.000Z</time>
      </trkpt>
      <trkpt lat="43.48325" lon="5.85335">
        <ele>289.60000610352</ele>
        <time>2021-01-31T07:21:38.000Z</time>
      </trkpt>
      <trkpt lat="43.48325" lon="5.85331">
        <ele>289.79998779297</ele>
        <time>2021-01-31T07:21:39.000Z</time>
      </trkpt>
      <trkpt lat="43.48325" lon="5.85318">
        <ele>289.79998779297</ele>
        <time>2021-01-31T07:21:42.000Z</time>
      </trkpt>
      <trkpt lat="43.48326" lon="5.85306">
        <ele>290</ele>
        <time>2021-01-31T07:21:45.000Z</time>
      </trkpt>
      <trkpt lat="43.48327" lon="5.85298">
        <ele>290.20001220703</ele>
        <time>2021-01-31T07:21:47.000Z</time>
      </trkpt>
      <trkpt lat="43.48328" lon="5.85289">
        <ele>290.39999389648</ele>
        <time>2021-01-31T07:21:49.000Z</time>
      </trkpt>
      <trkpt lat="43.4833" lon="5.85276">
        <ele>290.60000610352</ele>
        <time>2021-01-31T07:21:52.000Z</time>
      </trkpt>
      <trkpt lat="43.48332" lon="5.85268">
        <ele>290.60000610352</ele>
        <time>2021-01-31T07:21:54.000Z</time>
      </trkpt>
      <trkpt lat="43.48334" lon="5.8526">
        <ele>290.60000610352</ele>
        <time>2021-01-31T07:21:56.000Z</time>
      </trkpt>
      <trkpt lat="43.48339" lon="5.85248">
        <ele>290.79998779297</ele>
        <time>2021-01-31T07:21:59.000Z</time>
      </trkpt>
      <trkpt lat="43.4834" lon="5.85244">
        <ele>290.79998779297</ele>
        <time>2021-01-31T07:22:00.000Z</time>
      </trkpt>
      <trkpt lat="43.48343" lon="5.85237">
        <ele>290.79998779297</ele>
        <time>2021-01-31T07:22:02.000Z</time>
      </trkpt>
      <trkpt lat="43.48345" lon="5.85229">
        <ele>291</ele>
        <time>2021-01-31T07:22:04.000Z</time>
      </trkpt>
      <trkpt lat="43.48349" lon="5.85217">
        <ele>291.39999389648</ele>
        <time>2021-01-31T07:22:07.000Z</time>
      </trkpt>
      <trkpt lat="43.48354" lon="5.85198">
        <ele>291.79998779297</ele>
        <time>2021-01-31T07:22:12.000Z</time>
      </trkpt>
      <trkpt lat="43.48357" lon="5.85169">
        <ele>292.39999389648</ele>
        <time>2021-01-31T07:22:19.000Z</time>
      </trkpt>
      <trkpt lat="43.48357" lon="5.85165">
        <ele>292.39999389648</ele>
        <time>2021-01-31T07:22:20.000Z</time>
      </trkpt>
      <trkpt lat="43.48358" lon="5.85156">
        <ele>292.39999389648</ele>
        <time>2021-01-31T07:22:22.000Z</time>
      </trkpt>
      <trkpt lat="43.48357" lon="5.85147">
        <ele>292.39999389648</ele>
        <time>2021-01-31T07:22:24.000Z</time>
      </trkpt>
      <trkpt lat="43.48358" lon="5.85143">
        <ele>292.60000610352</ele>
        <time>2021-01-31T07:22:25.000Z</time>
      </trkpt>
      <trkpt lat="43.48365" lon="5.85125">
        <ele>293</ele>
        <time>2021-01-31T07:22:30.000Z</time>
      </trkpt>
      <trkpt lat="43.48372" lon="5.85124">
        <ele>293.60000610352</ele>
        <time>2021-01-31T07:22:32.000Z</time>
      </trkpt>
      <trkpt lat="43.48378" lon="5.85125">
        <ele>294.20001220703</ele>
        <time>2021-01-31T07:22:34.000Z</time>
      </trkpt>
      <trkpt lat="43.48383" lon="5.85126">
        <ele>294.60000610352</ele>
        <time>2021-01-31T07:22:36.000Z</time>
      </trkpt>
      <trkpt lat="43.48395" lon="5.8513">
        <ele>295</ele>
        <time>2021-01-31T07:22:41.000Z</time>
      </trkpt>
      <trkpt lat="43.484" lon="5.8513">
        <ele>295</ele>
        <time>2021-01-31T07:22:43.000Z</time>
      </trkpt>
      <trkpt lat="43.48406" lon="5.85131">
        <ele>295.60000610352</ele>
        <time>2021-01-31T07:22:46.000Z</time>
      </trkpt>
      <trkpt lat="43.48409" lon="5.85131">
        <ele>295.79998779297</ele>
        <time>2021-01-31T07:22:47.000Z</time>
      </trkpt>
      <trkpt lat="43.48415" lon="5.85129">
        <ele>296.79998779297</ele>
        <time>2021-01-31T07:22:50.000Z</time>
      </trkpt>
      <trkpt lat="43.48422" lon="5.85129">
        <ele>297.20001220703</ele>
        <time>2021-01-31T07:22:53.000Z</time>
      </trkpt>
      <trkpt lat="43.48431" lon="5.85128">
        <ele>297.79998779297</ele>
        <time>2021-01-31T07:22:57.000Z</time>
      </trkpt>
      <trkpt lat="43.48433" lon="5.85129">
        <ele>297.79998779297</ele>
        <time>2021-01-31T07:22:58.000Z</time>
      </trkpt>
      <trkpt lat="43.48441" lon="5.85143">
        <ele>298.60000610352</ele>
        <time>2021-01-31T07:23:04.000Z</time>
      </trkpt>
      <trkpt lat="43.48443" lon="5.85149">
        <ele>299</ele>
        <time>2021-01-31T07:23:06.000Z</time>
      </trkpt>
      <trkpt lat="43.4845" lon="5.85157">
        <ele>299.60000610352</ele>
        <time>2021-01-31T07:23:10.000Z</time>
      </trkpt>
      <trkpt lat="43.48453" lon="5.85161">
        <ele>300</ele>
        <time>2021-01-31T07:23:12.000Z</time>
      </trkpt>
      <trkpt lat="43.48461" lon="5.8517">
        <ele>300.60000610352</ele>
        <time>2021-01-31T07:23:17.000Z</time>
      </trkpt>
      <trkpt lat="43.48469" lon="5.85176">
        <ele>300.79998779297</ele>
        <time>2021-01-31T07:23:21.000Z</time>
      </trkpt>
      <trkpt lat="43.48476" lon="5.85178">
        <ele>301</ele>
        <time>2021-01-31T07:23:24.000Z</time>
      </trkpt>
      <trkpt lat="43.48486" lon="5.85178">
        <ele>301.60000610352</ele>
        <time>2021-01-31T07:23:29.000Z</time>
      </trkpt>
      <trkpt lat="43.48489" lon="5.85176">
        <ele>301.79998779297</ele>
        <time>2021-01-31T07:23:31.000Z</time>
      </trkpt>
      <trkpt lat="43.48491" lon="5.85175">
        <ele>302</ele>
        <time>2021-01-31T07:23:32.000Z</time>
      </trkpt>
      <trkpt lat="43.48493" lon="5.85173">
        <ele>302.20001220703</ele>
        <time>2021-01-31T07:23:34.000Z</time>
      </trkpt>
      <trkpt lat="43.485" lon="5.85167">
        <ele>302.60000610352</ele>
        <time>2021-01-31T07:23:38.000Z</time>
      </trkpt>
      <trkpt lat="43.48509" lon="5.85158">
        <ele>303.20001220703</ele>
        <time>2021-01-31T07:23:43.000Z</time>
      </trkpt>
      <trkpt lat="43.48513" lon="5.85154">
        <ele>303.60000610352</ele>
        <time>2021-01-31T07:23:45.000Z</time>
      </trkpt>
      <trkpt lat="43.48522" lon="5.85152">
        <ele>304.39999389648</ele>
        <time>2021-01-31T07:23:49.000Z</time>
      </trkpt>
      <trkpt lat="43.48527" lon="5.85153">
        <ele>304.79998779297</ele>
        <time>2021-01-31T07:23:51.000Z</time>
      </trkpt>
      <trkpt lat="43.48538" lon="5.85158">
        <ele>305.39999389648</ele>
        <time>2021-01-31T07:23:56.000Z</time>
      </trkpt>
      <trkpt lat="43.48551" lon="5.85161">
        <ele>306.60000610352</ele>
        <time>2021-01-31T07:24:02.000Z</time>
      </trkpt>
      <trkpt lat="43.48553" lon="5.85161">
        <ele>306.60000610352</ele>
        <time>2021-01-31T07:24:03.000Z</time>
      </trkpt>
      <trkpt lat="43.48565" lon="5.85161">
        <ele>307.60000610352</ele>
        <time>2021-01-31T07:24:09.000Z</time>
      </trkpt>
      <trkpt lat="43.48571" lon="5.85159">
        <ele>307.79998779297</ele>
        <time>2021-01-31T07:24:12.000Z</time>
      </trkpt>
      <trkpt lat="43.48578" lon="5.85158">
        <ele>307.79998779297</ele>
        <time>2021-01-31T07:24:15.000Z</time>
      </trkpt>
      <trkpt lat="43.48585" lon="5.85159">
        <ele>308.20001220703</ele>
        <time>2021-01-31T07:24:18.000Z</time>
      </trkpt>
      <trkpt lat="43.48587" lon="5.8516">
        <ele>308.39999389648</ele>
        <time>2021-01-31T07:24:19.000Z</time>
      </trkpt>
      <trkpt lat="43.48589" lon="5.85163">
        <ele>308.79998779297</ele>
        <time>2021-01-31T07:24:21.000Z</time>
      </trkpt>
      <trkpt lat="43.48592" lon="5.85173">
        <ele>309.60000610352</ele>
        <time>2021-01-31T07:24:25.000Z</time>
      </trkpt>
      <trkpt lat="43.48592" lon="5.85176">
        <ele>310</ele>
        <time>2021-01-31T07:24:26.000Z</time>
      </trkpt>
      <trkpt lat="43.48592" lon="5.85197">
        <ele>310.79998779297</ele>
        <time>2021-01-31T07:24:33.000Z</time>
      </trkpt>
      <trkpt lat="43.48593" lon="5.852">
        <ele>311</ele>
        <time>2021-01-31T07:24:34.000Z</time>
      </trkpt>
      <trkpt lat="43.48596" lon="5.85216">
        <ele>311.20001220703</ele>
        <time>2021-01-31T07:24:40.000Z</time>
      </trkpt>
      <trkpt lat="43.48608" lon="5.85226">
        <ele>311.79998779297</ele>
        <time>2021-01-31T07:24:46.000Z</time>
      </trkpt>
      <trkpt lat="43.48611" lon="5.85226">
        <ele>312</ele>
        <time>2021-01-31T07:24:47.000Z</time>
      </trkpt>
      <trkpt lat="43.48624" lon="5.85227">
        <ele>312.60000610352</ele>
        <time>2021-01-31T07:24:52.000Z</time>
      </trkpt>
      <trkpt lat="43.48632" lon="5.8523">
        <ele>313.20001220703</ele>
        <time>2021-01-31T07:24:56.000Z</time>
      </trkpt>
      <trkpt lat="43.48633" lon="5.85235">
        <ele>313.79998779297</ele>
        <time>2021-01-31T07:24:58.000Z</time>
      </trkpt>
      <trkpt lat="43.48635" lon="5.85238">
        <ele>314.39999389648</ele>
        <time>2021-01-31T07:25:00.000Z</time>
      </trkpt>
      <trkpt lat="43.48638" lon="5.85247">
        <ele>315.39999389648</ele>
        <time>2021-01-31T07:25:04.000Z</time>
      </trkpt>
      <trkpt lat="43.48638" lon="5.8525">
        <ele>315.60000610352</ele>
        <time>2021-01-31T07:25:05.000Z</time>
      </trkpt>
      <trkpt lat="43.48644" lon="5.85265">
        <ele>316.39999389648</ele>
        <time>2021-01-31T07:25:12.000Z</time>
      </trkpt>
      <trkpt lat="43.48652" lon="5.85271">
        <ele>317.20001220703</ele>
        <time>2021-01-31T07:25:16.000Z</time>
      </trkpt>
      <trkpt lat="43.48661" lon="5.85275">
        <ele>317.20001220703</ele>
        <time>2021-01-31T07:25:20.000Z</time>
      </trkpt>
      <trkpt lat="43.48663" lon="5.85276">
        <ele>317.20001220703</ele>
        <time>2021-01-31T07:25:21.000Z</time>
      </trkpt>
      <trkpt lat="43.48665" lon="5.85276">
        <ele>317.20001220703</ele>
        <time>2021-01-31T07:25:22.000Z</time>
      </trkpt>
      <trkpt lat="43.48667" lon="5.85277">
        <ele>317.20001220703</ele>
        <time>2021-01-31T07:25:23.000Z</time>
      </trkpt>
      <trkpt lat="43.48672" lon="5.85278">
        <ele>317.20001220703</ele>
        <time>2021-01-31T07:25:25.000Z</time>
      </trkpt>
      <trkpt lat="43.48674" lon="5.85279">
        <ele>317.39999389648</ele>
        <time>2021-01-31T07:25:26.000Z</time>
      </trkpt>
      <trkpt lat="43.48676" lon="5.8528">
        <ele>317.39999389648</ele>
        <time>2021-01-31T07:25:27.000Z</time>
      </trkpt>
      <trkpt lat="43.48678" lon="5.8528">
        <ele>317.60000610352</ele>
        <time>2021-01-31T07:25:28.000Z</time>
      </trkpt>
      <trkpt lat="43.48689" lon="5.85278">
        <ele>318.39999389648</ele>
        <time>2021-01-31T07:25:33.000Z</time>
      </trkpt>
      <trkpt lat="43.48692" lon="5.85278">
        <ele>318.60000610352</ele>
        <time>2021-01-31T07:25:35.000Z</time>
      </trkpt>
      <trkpt lat="43.48702" lon="5.85275">
        <ele>319.39999389648</ele>
        <time>2021-01-31T07:25:40.000Z</time>
      </trkpt>
      <trkpt lat="43.48706" lon="5.85273">
        <ele>319.79998779297</ele>
        <time>2021-01-31T07:25:42.000Z</time>
      </trkpt>
      <trkpt lat="43.4871" lon="5.85273">
        <ele>320</ele>
        <time>2021-01-31T07:25:44.000Z</time>
      </trkpt>
      <trkpt lat="43.48717" lon="5.85272">
        <ele>320.20001220703</ele>
        <time>2021-01-31T07:25:47.000Z</time>
      </trkpt>
      <trkpt lat="43.48726" lon="5.85271">
        <ele>320.79998779297</ele>
        <time>2021-01-31T07:25:51.000Z</time>
      </trkpt>
      <trkpt lat="43.48731" lon="5.85269">
        <ele>321.20001220703</ele>
        <time>2021-01-31T07:25:54.000Z</time>
      </trkpt>
      <trkpt lat="43.48739" lon="5.85265">
        <ele>321.79998779297</ele>
        <time>2021-01-31T07:25:58.000Z</time>
      </trkpt>
      <trkpt lat="43.48741" lon="5.85265">
        <ele>321.79998779297</ele>
        <time>2021-01-31T07:25:59.000Z</time>
      </trkpt>
      <trkpt lat="43.48743" lon="5.85264">
        <ele>322</ele>
        <time>2021-01-31T07:26:00.000Z</time>
      </trkpt>
      <trkpt lat="43.48753" lon="5.85261">
        <ele>322.20001220703</ele>
        <time>2021-01-31T07:26:05.000Z</time>
      </trkpt>
      <trkpt lat="43.48766" lon="5.85262">
        <ele>323</ele>
        <time>2021-01-31T07:26:11.000Z</time>
      </trkpt>
      <trkpt lat="43.48777" lon="5.85266">
        <ele>323.39999389648</ele>
        <time>2021-01-31T07:26:16.000Z</time>
      </trkpt>
      <trkpt lat="43.48778" lon="5.85268">
        <ele>323.60000610352</ele>
        <time>2021-01-31T07:26:17.000Z</time>
      </trkpt>
      <trkpt lat="43.48782" lon="5.85269">
        <ele>324.20001220703</ele>
        <time>2021-01-31T07:26:19.000Z</time>
      </trkpt>
      <trkpt lat="43.4879" lon="5.85271">
        <ele>325.20001220703</ele>
        <time>2021-01-31T07:26:23.000Z</time>
      </trkpt>
      <trkpt lat="43.48792" lon="5.85272">
        <ele>325.39999389648</ele>
        <time>2021-01-31T07:26:24.000Z</time>
      </trkpt>
      <trkpt lat="43.48806" lon="5.85267">
        <ele>325.79998779297</ele>
        <time>2021-01-31T07:26:31.000Z</time>
      </trkpt>
      <trkpt lat="43.4882" lon="5.85263">
        <ele>326.39999389648</ele>
        <time>2021-01-31T07:26:37.000Z</time>
      </trkpt>
      <trkpt lat="43.48823" lon="5.85261">
        <ele>326.60000610352</ele>
        <time>2021-01-31T07:26:38.000Z</time>
      </trkpt>
      <trkpt lat="43.48833" lon="5.85261">
        <ele>327.20001220703</ele>
        <time>2021-01-31T07:26:44.000Z</time>
      </trkpt>
      <trkpt lat="43.48835" lon="5.85261">
        <ele>327.20001220703</ele>
        <time>2021-01-31T07:26:45.000Z</time>
      </trkpt>
      <trkpt lat="43.48839" lon="5.85258">
        <ele>327.20001220703</ele>
        <time>2021-01-31T07:26:48.000Z</time>
      </trkpt>
      <trkpt lat="43.48844" lon="5.85252">
        <ele>327.39999389648</ele>
        <time>2021-01-31T07:26:51.000Z</time>
      </trkpt>
      <trkpt lat="43.4885" lon="5.85235">
        <ele>328.60000610352</ele>
        <time>2021-01-31T07:26:57.000Z</time>
      </trkpt>
      <trkpt lat="43.48851" lon="5.85232">
        <ele>328.79998779297</ele>
        <time>2021-01-31T07:26:58.000Z</time>
      </trkpt>
      <trkpt lat="43.4886" lon="5.85212">
        <ele>329.20001220703</ele>
        <time>2021-01-31T07:27:05.000Z</time>
      </trkpt>
      <trkpt lat="43.48867" lon="5.85204">
        <ele>329.60000610352</ele>
        <time>2021-01-31T07:27:09.000Z</time>
      </trkpt>
      <trkpt lat="43.48872" lon="5.85199">
        <ele>330.20001220703</ele>
        <time>2021-01-31T07:27:12.000Z</time>
      </trkpt>
      <trkpt lat="43.48883" lon="5.85194">
        <ele>330.60000610352</ele>
        <time>2021-01-31T07:27:17.000Z</time>
      </trkpt>
      <trkpt lat="43.48888" lon="5.85195">
        <ele>330.79998779297</ele>
        <time>2021-01-31T07:27:19.000Z</time>
      </trkpt>
      <trkpt lat="43.48904" lon="5.85197">
        <ele>331.60000610352</ele>
        <time>2021-01-31T07:27:26.000Z</time>
      </trkpt>
      <trkpt lat="43.48906" lon="5.85198">
        <ele>331.60000610352</ele>
        <time>2021-01-31T07:27:27.000Z</time>
      </trkpt>
      <trkpt lat="43.48922" lon="5.85203">
        <ele>332.39999389648</ele>
        <time>2021-01-31T07:27:35.000Z</time>
      </trkpt>
      <trkpt lat="43.48929" lon="5.85202">
        <ele>332.60000610352</ele>
        <time>2021-01-31T07:27:39.000Z</time>
      </trkpt>
      <trkpt lat="43.48933" lon="5.852">
        <ele>332.79998779297</ele>
        <time>2021-01-31T07:27:41.000Z</time>
      </trkpt>
      <trkpt lat="43.48948" lon="5.85196">
        <ele>333.60000610352</ele>
        <time>2021-01-31T07:27:48.000Z</time>
      </trkpt>
      <trkpt lat="43.48949" lon="5.85196">
        <ele>333.60000610352</ele>
        <time>2021-01-31T07:27:49.000Z</time>
      </trkpt>
      <trkpt lat="43.4896" lon="5.85193">
        <ele>334</ele>
        <time>2021-01-31T07:27:54.000Z</time>
      </trkpt>
      <trkpt lat="43.48975" lon="5.85188">
        <ele>334.60000610352</ele>
        <time>2021-01-31T07:28:00.000Z</time>
      </trkpt>
      <trkpt lat="43.48978" lon="5.85189">
        <ele>334.79998779297</ele>
        <time>2021-01-31T07:28:01.000Z</time>
      </trkpt>
      <trkpt lat="43.4898" lon="5.85189">
        <ele>335</ele>
        <time>2021-01-31T07:28:02.000Z</time>
      </trkpt>
      <trkpt lat="43.48987" lon="5.85196">
        <ele>335.79998779297</ele>
        <time>2021-01-31T07:28:06.000Z</time>
      </trkpt>
      <trkpt lat="43.48989" lon="5.852">
        <ele>336</ele>
        <time>2021-01-31T07:28:08.000Z</time>
      </trkpt>
      <trkpt lat="43.48993" lon="5.85211">
        <ele>336.60000610352</ele>
        <time>2021-01-31T07:28:12.000Z</time>
      </trkpt>
      <trkpt lat="43.48995" lon="5.85213">
        <ele>336.79998779297</ele>
        <time>2021-01-31T07:28:13.000Z</time>
      </trkpt>
      <trkpt lat="43.48996" lon="5.85215">
        <ele>336.79998779297</ele>
        <time>2021-01-31T07:28:14.000Z</time>
      </trkpt>
      <trkpt lat="43.49003" lon="5.85223">
        <ele>337.39999389648</ele>
        <time>2021-01-31T07:28:19.000Z</time>
      </trkpt>
      <trkpt lat="43.49016" lon="5.85228">
        <ele>337.79998779297</ele>
        <time>2021-01-31T07:28:25.000Z</time>
      </trkpt>
      <trkpt lat="43.49019" lon="5.85229">
        <ele>337.79998779297</ele>
        <time>2021-01-31T07:28:26.000Z</time>
      </trkpt>
      <trkpt lat="43.49028" lon="5.85241">
        <ele>338.39999389648</ele>
        <time>2021-01-31T07:28:32.000Z</time>
      </trkpt>
      <trkpt lat="43.49034" lon="5.85247">
        <ele>338.79998779297</ele>
        <time>2021-01-31T07:28:35.000Z</time>
      </trkpt>
      <trkpt lat="43.4904" lon="5.85252">
        <ele>339.20001220703</ele>
        <time>2021-01-31T07:28:38.000Z</time>
      </trkpt>
      <trkpt lat="43.49055" lon="5.85255">
        <ele>339.79998779297</ele>
        <time>2021-01-31T07:28:44.000Z</time>
      </trkpt>
      <trkpt lat="43.49061" lon="5.85255">
        <ele>340</ele>
        <time>2021-01-31T07:28:47.000Z</time>
      </trkpt>
      <trkpt lat="43.49068" lon="5.85251">
        <ele>340</ele>
        <time>2021-01-31T07:28:50.000Z</time>
      </trkpt>
      <trkpt lat="43.4908" lon="5.85249">
        <ele>341.39999389648</ele>
        <time>2021-01-31T07:28:56.000Z</time>
      </trkpt>
      <trkpt lat="43.49087" lon="5.85245">
        <ele>342.39999389648</ele>
        <time>2021-01-31T07:29:00.000Z</time>
      </trkpt>
      <trkpt lat="43.49093" lon="5.85239">
        <ele>342.60000610352</ele>
        <time>2021-01-31T07:29:03.000Z</time>
      </trkpt>
      <trkpt lat="43.49102" lon="5.85231">
        <ele>342.60000610352</ele>
        <time>2021-01-31T07:29:08.000Z</time>
      </trkpt>
      <trkpt lat="43.49107" lon="5.85226">
        <ele>342.79998779297</ele>
        <time>2021-01-31T07:29:11.000Z</time>
      </trkpt>
      <trkpt lat="43.49112" lon="5.85224">
        <ele>343</ele>
        <time>2021-01-31T07:29:13.000Z</time>
      </trkpt>
      <trkpt lat="43.49115" lon="5.85221">
        <ele>343.20001220703</ele>
        <time>2021-01-31T07:29:15.000Z</time>
      </trkpt>
      <trkpt lat="43.49124" lon="5.85216">
        <ele>343.20001220703</ele>
        <time>2021-01-31T07:29:19.000Z</time>
      </trkpt>
      <trkpt lat="43.49126" lon="5.85214">
        <ele>343.20001220703</ele>
        <time>2021-01-31T07:29:20.000Z</time>
      </trkpt>
      <trkpt lat="43.49138" lon="5.85201">
        <ele>343.60000610352</ele>
        <time>2021-01-31T07:29:26.000Z</time>
      </trkpt>
      <trkpt lat="43.4914" lon="5.85199">
        <ele>344</ele>
        <time>2021-01-31T07:29:27.000Z</time>
      </trkpt>
      <trkpt lat="43.49146" lon="5.85192">
        <ele>344.60000610352</ele>
        <time>2021-01-31T07:29:30.000Z</time>
      </trkpt>
      <trkpt lat="43.49155" lon="5.85185">
        <ele>345</ele>
        <time>2021-01-31T07:29:35.000Z</time>
      </trkpt>
      <trkpt lat="43.49162" lon="5.85182">
        <ele>345.79998779297</ele>
        <time>2021-01-31T07:29:39.000Z</time>
      </trkpt>
      <trkpt lat="43.49167" lon="5.85175">
        <ele>346.39999389648</ele>
        <time>2021-01-31T07:29:43.000Z</time>
      </trkpt>
      <trkpt lat="43.49167" lon="5.85173">
        <ele>346.60000610352</ele>
        <time>2021-01-31T07:29:44.000Z</time>
      </trkpt>
      <trkpt lat="43.49166" lon="5.8517">
        <ele>347</ele>
        <time>2021-01-31T07:29:45.000Z</time>
      </trkpt>
      <trkpt lat="43.49165" lon="5.85168">
        <ele>347.20001220703</ele>
        <time>2021-01-31T07:29:46.000Z</time>
      </trkpt>
      <trkpt lat="43.49163" lon="5.85166">
        <ele>347.39999389648</ele>
        <time>2021-01-31T07:29:47.000Z</time>
      </trkpt>
      <trkpt lat="43.49155" lon="5.8516">
        <ele>348</ele>
        <time>2021-01-31T07:29:52.000Z</time>
      </trkpt>
      <trkpt lat="43.49153" lon="5.85159">
        <ele>348.20001220703</ele>
        <time>2021-01-31T07:29:53.000Z</time>
      </trkpt>
      <trkpt lat="43.4915" lon="5.85156">
        <ele>348.79998779297</ele>
        <time>2021-01-31T07:29:54.000Z</time>
      </trkpt>
      <trkpt lat="43.49149" lon="5.85155">
        <ele>349.39999389648</ele>
        <time>2021-01-31T07:29:56.000Z</time>
      </trkpt>
      <trkpt lat="43.49145" lon="5.85151">
        <ele>350.39999389648</ele>
        <time>2021-01-31T07:29:59.000Z</time>
      </trkpt>
      <trkpt lat="43.49144" lon="5.8515">
        <ele>350.60000610352</ele>
        <time>2021-01-31T07:30:00.000Z</time>
      </trkpt>
      <trkpt lat="43.4914" lon="5.85147">
        <ele>351.60000610352</ele>
        <time>2021-01-31T07:30:03.000Z</time>
      </trkpt>
      <trkpt lat="43.49137" lon="5.85141">
        <ele>352.79998779297</ele>
        <time>2021-01-31T07:30:07.000Z</time>
      </trkpt>
      <trkpt lat="43.49134" lon="5.85138">
        <ele>354</ele>
        <time>2021-01-31T07:30:10.000Z</time>
      </trkpt>
      <trkpt lat="43.49129" lon="5.85134">
        <ele>355</ele>
        <time>2021-01-31T07:30:15.000Z</time>
      </trkpt>
      <trkpt lat="43.49128" lon="5.85133">
        <ele>355</ele>
        <time>2021-01-31T07:30:16.000Z</time>
      </trkpt>
      <trkpt lat="43.49123" lon="5.85132">
        <ele>355.60000610352</ele>
        <time>2021-01-31T07:30:19.000Z</time>
      </trkpt>
      <trkpt lat="43.4912" lon="5.85132">
        <ele>356</ele>
        <time>2021-01-31T07:30:21.000Z</time>
      </trkpt>
      <trkpt lat="43.49118" lon="5.85132">
        <ele>356.20001220703</ele>
        <time>2021-01-31T07:30:22.000Z</time>
      </trkpt>
      <trkpt lat="43.49116" lon="5.85132">
        <ele>356.39999389648</ele>
        <time>2021-01-31T07:30:23.000Z</time>
      </trkpt>
      <trkpt lat="43.49112" lon="5.85131">
        <ele>357.20001220703</ele>
        <time>2021-01-31T07:30:26.000Z</time>
      </trkpt>
      <trkpt lat="43.4911" lon="5.8513">
        <ele>357.60000610352</ele>
        <time>2021-01-31T07:30:27.000Z</time>
      </trkpt>
      <trkpt lat="43.49104" lon="5.85126">
        <ele>358.20001220703</ele>
        <time>2021-01-31T07:30:31.000Z</time>
      </trkpt>
      <trkpt lat="43.49101" lon="5.85125">
        <ele>358.39999389648</ele>
        <time>2021-01-31T07:30:33.000Z</time>
      </trkpt>
      <trkpt lat="43.49095" lon="5.85122">
        <ele>358.79998779297</ele>
        <time>2021-01-31T07:30:37.000Z</time>
      </trkpt>
      <trkpt lat="43.49089" lon="5.85117">
        <ele>359.39999389648</ele>
        <time>2021-01-31T07:30:41.000Z</time>
      </trkpt>
      <trkpt lat="43.49086" lon="5.85111">
        <ele>359.79998779297</ele>
        <time>2021-01-31T07:30:44.000Z</time>
      </trkpt>
      <trkpt lat="43.49083" lon="5.85101">
        <ele>360.60000610352</ele>
        <time>2021-01-31T07:30:49.000Z</time>
      </trkpt>
      <trkpt lat="43.49083" lon="5.85096">
        <ele>360.79998779297</ele>
        <time>2021-01-31T07:30:51.000Z</time>
      </trkpt>
      <trkpt lat="43.49084" lon="5.85093">
        <ele>361</ele>
        <time>2021-01-31T07:30:52.000Z</time>
      </trkpt>
      <trkpt lat="43.49083" lon="5.85087">
        <ele>361.39999389648</ele>
        <time>2021-01-31T07:30:55.000Z</time>
      </trkpt>
      <trkpt lat="43.49082" lon="5.85085">
        <ele>361.60000610352</ele>
        <time>2021-01-31T07:30:56.000Z</time>
      </trkpt>
      <trkpt lat="43.49081" lon="5.85083">
        <ele>361.79998779297</ele>
        <time>2021-01-31T07:30:57.000Z</time>
      </trkpt>
      <trkpt lat="43.49076" lon="5.85077">
        <ele>362.39999389648</ele>
        <time>2021-01-31T07:31:01.000Z</time>
      </trkpt>
      <trkpt lat="43.49075" lon="5.85076">
        <ele>362.79998779297</ele>
        <time>2021-01-31T07:31:02.000Z</time>
      </trkpt>
      <trkpt lat="43.49069" lon="5.8507">
        <ele>363.39999389648</ele>
        <time>2021-01-31T07:31:07.000Z</time>
      </trkpt>
      <trkpt lat="43.49064" lon="5.85066">
        <ele>363.79998779297</ele>
        <time>2021-01-31T07:31:10.000Z</time>
      </trkpt>
      <trkpt lat="43.49061" lon="5.85061">
        <ele>364</ele>
        <time>2021-01-31T07:31:13.000Z</time>
      </trkpt>
      <trkpt lat="43.49059" lon="5.85057">
        <ele>364</ele>
        <time>2021-01-31T07:31:15.000Z</time>
      </trkpt>
      <trkpt lat="43.49057" lon="5.85046">
        <ele>364.79998779297</ele>
        <time>2021-01-31T07:31:20.000Z</time>
      </trkpt>
      <trkpt lat="43.49057" lon="5.8504">
        <ele>365.20001220703</ele>
        <time>2021-01-31T07:31:23.000Z</time>
      </trkpt>
      <trkpt lat="43.49058" lon="5.85035">
        <ele>365.79998779297</ele>
        <time>2021-01-31T07:31:26.000Z</time>
      </trkpt>
      <trkpt lat="43.49059" lon="5.85033">
        <ele>366</ele>
        <time>2021-01-31T07:31:27.000Z</time>
      </trkpt>
      <trkpt lat="43.4906" lon="5.85026">
        <ele>366.20001220703</ele>
        <time>2021-01-31T07:31:30.000Z</time>
      </trkpt>
      <trkpt lat="43.4906" lon="5.85024">
        <ele>366.20001220703</ele>
        <time>2021-01-31T07:31:31.000Z</time>
      </trkpt>
      <trkpt lat="43.49064" lon="5.85012">
        <ele>367</ele>
        <time>2021-01-31T07:31:36.000Z</time>
      </trkpt>
      <trkpt lat="43.49067" lon="5.85003">
        <ele>367</ele>
        <time>2021-01-31T07:31:40.000Z</time>
      </trkpt>
      <trkpt lat="43.49077" lon="5.84988">
        <ele>367</ele>
        <time>2021-01-31T07:31:48.000Z</time>
      </trkpt>
      <trkpt lat="43.49079" lon="5.84986">
        <ele>367.20001220703</ele>
        <time>2021-01-31T07:31:51.000Z</time>
      </trkpt>
      <trkpt lat="43.49078" lon="5.84986">
        <ele>367.39999389648</ele>
        <time>2021-01-31T07:31:53.000Z</time>
      </trkpt>
      <trkpt lat="43.49078" lon="5.84986">
        <ele>367.39999389648</ele>
        <time>2021-01-31T07:31:54.000Z</time>
      </trkpt>
      <trkpt lat="43.49077" lon="5.84988">
        <ele>368</ele>
        <time>2021-01-31T07:32:01.000Z</time>
      </trkpt>
      <trkpt lat="43.49077" lon="5.84988">
        <ele>368</ele>
        <time>2021-01-31T07:32:02.000Z</time>
      </trkpt>
      <trkpt lat="43.49077" lon="5.84988">
        <ele>368.20001220703</ele>
        <time>2021-01-31T07:32:08.000Z</time>
      </trkpt>
      <trkpt lat="43.49078" lon="5.84987">
        <ele>368.20001220703</ele>
        <time>2021-01-31T07:32:11.000Z</time>
      </trkpt>
      <trkpt lat="43.49078" lon="5.84987">
        <ele>367.79998779297</ele>
        <time>2021-01-31T07:32:16.000Z</time>
      </trkpt>
      <trkpt lat="43.49078" lon="5.84986">
        <ele>367.60000610352</ele>
        <time>2021-01-31T07:32:18.000Z</time>
      </trkpt>
      <trkpt lat="43.49077" lon="5.84984">
        <ele>367.60000610352</ele>
        <time>2021-01-31T07:32:23.000Z</time>
      </trkpt>
      <trkpt lat="43.49078" lon="5.84983">
        <ele>367.60000610352</ele>
        <time>2021-01-31T07:32:25.000Z</time>
      </trkpt>
      <trkpt lat="43.49079" lon="5.84981">
        <ele>367.39999389648</ele>
        <time>2021-01-31T07:32:34.000Z</time>
      </trkpt>
      <trkpt lat="43.49078" lon="5.84982">
        <ele>367.20001220703</ele>
        <time>2021-01-31T07:32:41.000Z</time>
      </trkpt>
      <trkpt lat="43.49078" lon="5.84982">
        <ele>367.20001220703</ele>
        <time>2021-01-31T07:32:42.000Z</time>
      </trkpt>
      <trkpt lat="43.49078" lon="5.84982">
        <ele>367.20001220703</ele>
        <time>2021-01-31T07:32:43.000Z</time>
      </trkpt>
      <trkpt lat="43.49079" lon="5.84982">
        <ele>367</ele>
        <time>2021-01-31T07:32:45.000Z</time>
      </trkpt>
      <trkpt lat="43.49079" lon="5.84982">
        <ele>367.20001220703</ele>
        <time>2021-01-31T07:32:47.000Z</time>
      </trkpt>
      <trkpt lat="43.4908" lon="5.84982">
        <ele>367.39999389648</ele>
        <time>2021-01-31T07:32:49.000Z</time>
      </trkpt>
      <trkpt lat="43.49079" lon="5.84982">
        <ele>367.60000610352</ele>
        <time>2021-01-31T07:32:56.000Z</time>
      </trkpt>
      <trkpt lat="43.49077" lon="5.84982">
        <ele>367.60000610352</ele>
        <time>2021-01-31T07:33:04.000Z</time>
      </trkpt>
      <trkpt lat="43.49076" lon="5.84983">
        <ele>367.60000610352</ele>
        <time>2021-01-31T07:33:07.000Z</time>
      </trkpt>
      <trkpt lat="43.49076" lon="5.84983">
        <ele>367.60000610352</ele>
        <time>2021-01-31T07:33:14.000Z</time>
      </trkpt>
      <trkpt lat="43.49076" lon="5.84984">
        <ele>367.60000610352</ele>
        <time>2021-01-31T07:33:16.000Z</time>
      </trkpt>
      <trkpt lat="43.49076" lon="5.84984">
        <ele>367.60000610352</ele>
        <time>2021-01-31T07:33:22.000Z</time>
      </trkpt>
      <trkpt lat="43.49076" lon="5.84984">
        <ele>367.60000610352</ele>
        <time>2021-01-31T07:33:25.000Z</time>
      </trkpt>
      <trkpt lat="43.49077" lon="5.84983">
        <ele>367.60000610352</ele>
        <time>2021-01-31T07:33:31.000Z</time>
      </trkpt>
      <trkpt lat="43.49078" lon="5.84983">
        <ele>367.60000610352</ele>
        <time>2021-01-31T07:33:32.000Z</time>
      </trkpt>
      <trkpt lat="43.49085" lon="5.84977">
        <ele>366.79998779297</ele>
        <time>2021-01-31T07:33:37.000Z</time>
      </trkpt>
      <trkpt lat="43.49086" lon="5.84975">
        <ele>366.20001220703</ele>
        <time>2021-01-31T07:33:38.000Z</time>
      </trkpt>
      <trkpt lat="43.49091" lon="5.84968">
        <ele>365.60000610352</ele>
        <time>2021-01-31T07:33:41.000Z</time>
      </trkpt>
      <trkpt lat="43.491" lon="5.84952">
        <ele>365.20001220703</ele>
        <time>2021-01-31T07:33:46.000Z</time>
      </trkpt>
      <trkpt lat="43.49103" lon="5.84949">
        <ele>365.20001220703</ele>
        <time>2021-01-31T07:33:47.000Z</time>
      </trkpt>
      <trkpt lat="43.49117" lon="5.84931">
        <ele>365.79998779297</ele>
        <time>2021-01-31T07:33:54.000Z</time>
      </trkpt>
      <trkpt lat="43.4913" lon="5.84927">
        <ele>366.20001220703</ele>
        <time>2021-01-31T07:33:59.000Z</time>
      </trkpt>
      <trkpt lat="43.49149" lon="5.84923">
        <ele>366.60000610352</ele>
        <time>2021-01-31T07:34:07.000Z</time>
      </trkpt>
      <trkpt lat="43.49151" lon="5.84923">
        <ele>367</ele>
        <time>2021-01-31T07:34:08.000Z</time>
      </trkpt>
      <trkpt lat="43.49159" lon="5.84922">
        <ele>367.79998779297</ele>
        <time>2021-01-31T07:34:11.000Z</time>
      </trkpt>
      <trkpt lat="43.49166" lon="5.84919">
        <ele>367.79998779297</ele>
        <time>2021-01-31T07:34:14.000Z</time>
      </trkpt>
      <trkpt lat="43.49183" lon="5.84911">
        <ele>368.60000610352</ele>
        <time>2021-01-31T07:34:21.000Z</time>
      </trkpt>
      <trkpt lat="43.49185" lon="5.8491">
        <ele>368.79998779297</ele>
        <time>2021-01-31T07:34:22.000Z</time>
      </trkpt>
      <trkpt lat="43.49198" lon="5.84903">
        <ele>369.39999389648</ele>
        <time>2021-01-31T07:34:28.000Z</time>
      </trkpt>
      <trkpt lat="43.49202" lon="5.84901">
        <ele>370</ele>
        <time>2021-01-31T07:34:30.000Z</time>
      </trkpt>
      <trkpt lat="43.49215" lon="5.84901">
        <ele>371.20001220703</ele>
        <time>2021-01-31T07:34:35.000Z</time>
      </trkpt>
      <trkpt lat="43.49229" lon="5.84913">
        <ele>372</ele>
        <time>2021-01-31T07:34:42.000Z</time>
      </trkpt>
      <trkpt lat="43.49231" lon="5.84914">
        <ele>372.20001220703</ele>
        <time>2021-01-31T07:34:43.000Z</time>
      </trkpt>
      <trkpt lat="43.49245" lon="5.84927">
        <ele>372.79998779297</ele>
        <time>2021-01-31T07:34:50.000Z</time>
      </trkpt>
      <trkpt lat="43.49251" lon="5.84934">
        <ele>373.39999389648</ele>
        <time>2021-01-31T07:34:54.000Z</time>
      </trkpt>
      <trkpt lat="43.49256" lon="5.8494">
        <ele>373.60000610352</ele>
        <time>2021-01-31T07:34:57.000Z</time>
      </trkpt>
      <trkpt lat="43.49267" lon="5.84954">
        <ele>374.39999389648</ele>
        <time>2021-01-31T07:35:04.000Z</time>
      </trkpt>
      <trkpt lat="43.49269" lon="5.84956">
        <ele>374.39999389648</ele>
        <time>2021-01-31T07:35:05.000Z</time>
      </trkpt>
      <trkpt lat="43.49288" lon="5.84965">
        <ele>375</ele>
        <time>2021-01-31T07:35:12.000Z</time>
      </trkpt>
      <trkpt lat="43.49308" lon="5.84978">
        <ele>375.39999389648</ele>
        <time>2021-01-31T07:35:20.000Z</time>
      </trkpt>
      <trkpt lat="43.4932" lon="5.84986">
        <ele>376.60000610352</ele>
        <time>2021-01-31T07:35:25.000Z</time>
      </trkpt>
      <trkpt lat="43.49326" lon="5.84992">
        <ele>376.79998779297</ele>
        <time>2021-01-31T07:35:28.000Z</time>
      </trkpt>
      <trkpt lat="43.49341" lon="5.85001">
        <ele>376.79998779297</ele>
        <time>2021-01-31T07:35:35.000Z</time>
      </trkpt>
      <trkpt lat="43.4935" lon="5.85003">
        <ele>377.60000610352</ele>
        <time>2021-01-31T07:35:39.000Z</time>
      </trkpt>
      <trkpt lat="43.4936" lon="5.85006">
        <ele>378.39999389648</ele>
        <time>2021-01-31T07:35:43.000Z</time>
      </trkpt>
      <trkpt lat="43.49367" lon="5.85007">
        <ele>378.60000610352</ele>
        <time>2021-01-31T07:35:46.000Z</time>
      </trkpt>
      <trkpt lat="43.49379" lon="5.85008">
        <ele>379.79998779297</ele>
        <time>2021-01-31T07:35:50.000Z</time>
      </trkpt>
      <trkpt lat="43.49379" lon="5.85008">
        <ele>379.79998779297</ele>
        <time>2021-01-31T07:35:51.000Z</time>
      </trkpt>
      <trkpt lat="43.49388" lon="5.85009">
        <ele>380.79998779297</ele>
        <time>2021-01-31T07:35:55.000Z</time>
      </trkpt>
      <trkpt lat="43.49398" lon="5.85011">
        <ele>381.20001220703</ele>
        <time>2021-01-31T07:35:59.000Z</time>
      </trkpt>
      <trkpt lat="43.49414" lon="5.85013">
        <ele>382</ele>
        <time>2021-01-31T07:36:06.000Z</time>
      </trkpt>
      <trkpt lat="43.49416" lon="5.85014">
        <ele>382.20001220703</ele>
        <time>2021-01-31T07:36:07.000Z</time>
      </trkpt>
      <trkpt lat="43.49429" lon="5.85018">
        <ele>382.60000610352</ele>
        <time>2021-01-31T07:36:13.000Z</time>
      </trkpt>
      <trkpt lat="43.49441" lon="5.85024">
        <ele>383</ele>
        <time>2021-01-31T07:36:18.000Z</time>
      </trkpt>
      <trkpt lat="43.49447" lon="5.8503">
        <ele>383</ele>
        <time>2021-01-31T07:36:21.000Z</time>
      </trkpt>
      <trkpt lat="43.49464" lon="5.85039">
        <ele>383.39999389648</ele>
        <time>2021-01-31T07:36:28.000Z</time>
      </trkpt>
      <trkpt lat="43.4948" lon="5.85048">
        <ele>383.79998779297</ele>
        <time>2021-01-31T07:36:35.000Z</time>
      </trkpt>
      <trkpt lat="43.49485" lon="5.85051">
        <ele>384</ele>
        <time>2021-01-31T07:36:37.000Z</time>
      </trkpt>
      <trkpt lat="43.49501" lon="5.85059">
        <ele>384.39999389648</ele>
        <time>2021-01-31T07:36:43.000Z</time>
      </trkpt>
      <trkpt lat="43.49517" lon="5.85069">
        <ele>384.79998779297</ele>
        <time>2021-01-31T07:36:50.000Z</time>
      </trkpt>
      <trkpt lat="43.49532" lon="5.8508">
        <ele>384.79998779297</ele>
        <time>2021-01-31T07:36:56.000Z</time>
      </trkpt>
      <trkpt lat="43.49561" lon="5.85092">
        <ele>384</ele>
        <time>2021-01-31T07:37:02.000Z</time>
      </trkpt>
      <trkpt lat="43.49583" lon="5.85103">
        <ele>384.20001220703</ele>
        <time>2021-01-31T07:37:08.000Z</time>
      </trkpt>
      <trkpt lat="43.49605" lon="5.85113">
        <ele>385</ele>
        <time>2021-01-31T07:37:15.000Z</time>
      </trkpt>
      <trkpt lat="43.49613" lon="5.85118">
        <ele>385.20001220703</ele>
        <time>2021-01-31T07:37:18.000Z</time>
      </trkpt>
      <trkpt lat="43.49629" lon="5.85124">
        <ele>385.79998779297</ele>
        <time>2021-01-31T07:37:23.000Z</time>
      </trkpt>
      <trkpt lat="43.49637" lon="5.85128">
        <ele>386.39999389648</ele>
        <time>2021-01-31T07:37:26.000Z</time>
      </trkpt>
      <trkpt lat="43.49649" lon="5.85134">
        <ele>386.79998779297</ele>
        <time>2021-01-31T07:37:30.000Z</time>
      </trkpt>
      <trkpt lat="43.49653" lon="5.85135">
        <ele>386.79998779297</ele>
        <time>2021-01-31T07:37:31.000Z</time>
      </trkpt>
      <trkpt lat="43.49662" lon="5.85139">
        <ele>386.79998779297</ele>
        <time>2021-01-31T07:37:34.000Z</time>
      </trkpt>
      <trkpt lat="43.49673" lon="5.85143">
        <ele>387.20001220703</ele>
        <time>2021-01-31T07:37:38.000Z</time>
      </trkpt>
      <trkpt lat="43.49695" lon="5.85154">
        <ele>387.60000610352</ele>
        <time>2021-01-31T07:37:46.000Z</time>
      </trkpt>
      <trkpt lat="43.49718" lon="5.8516">
        <ele>388.39999389648</ele>
        <time>2021-01-31T07:37:54.000Z</time>
      </trkpt>
      <trkpt lat="43.49722" lon="5.85162">
        <ele>388.60000610352</ele>
        <time>2021-01-31T07:37:57.000Z</time>
      </trkpt>
      <trkpt lat="43.49727" lon="5.85163">
        <ele>389.20001220703</ele>
        <time>2021-01-31T07:38:00.000Z</time>
      </trkpt>
      <trkpt lat="43.49742" lon="5.85169">
        <ele>389.79998779297</ele>
        <time>2021-01-31T07:38:06.000Z</time>
      </trkpt>
      <trkpt lat="43.49762" lon="5.85173">
        <ele>389.60000610352</ele>
        <time>2021-01-31T07:38:14.000Z</time>
      </trkpt>
      <trkpt lat="43.49783" lon="5.85173">
        <ele>389.79998779297</ele>
        <time>2021-01-31T07:38:22.000Z</time>
      </trkpt>
      <trkpt lat="43.49805" lon="5.85179">
        <ele>390.39999389648</ele>
        <time>2021-01-31T07:38:30.000Z</time>
      </trkpt>
      <trkpt lat="43.49814" lon="5.85182">
        <ele>391</ele>
        <time>2021-01-31T07:38:34.000Z</time>
      </trkpt>
      <trkpt lat="43.49821" lon="5.8518">
        <ele>391.39999389648</ele>
        <time>2021-01-31T07:38:37.000Z</time>
      </trkpt>
      <trkpt lat="43.49837" lon="5.85178">
        <ele>392</ele>
        <time>2021-01-31T07:38:43.000Z</time>
      </trkpt>
      <trkpt lat="43.49855" lon="5.85179">
        <ele>393</ele>
        <time>2021-01-31T07:38:50.000Z</time>
      </trkpt>
      <trkpt lat="43.49857" lon="5.8518">
        <ele>393</ele>
        <time>2021-01-31T07:38:51.000Z</time>
      </trkpt>
      <trkpt lat="43.4987" lon="5.85183">
        <ele>393.60000610352</ele>
        <time>2021-01-31T07:38:56.000Z</time>
      </trkpt>
      <trkpt lat="43.49887" lon="5.85188">
        <ele>393.60000610352</ele>
        <time>2021-01-31T07:39:03.000Z</time>
      </trkpt>
      <trkpt lat="43.49896" lon="5.85192">
        <ele>394.20001220703</ele>
        <time>2021-01-31T07:39:07.000Z</time>
      </trkpt>
      <trkpt lat="43.49904" lon="5.85193">
        <ele>394.79998779297</ele>
        <time>2021-01-31T07:39:10.000Z</time>
      </trkpt>
      <trkpt lat="43.49922" lon="5.85192">
        <ele>394.79998779297</ele>
        <time>2021-01-31T07:39:17.000Z</time>
      </trkpt>
      <trkpt lat="43.4994" lon="5.85194">
        <ele>395.20001220703</ele>
        <time>2021-01-31T07:39:24.000Z</time>
      </trkpt>
      <trkpt lat="43.49954" lon="5.8519">
        <ele>395.60000610352</ele>
        <time>2021-01-31T07:39:29.000Z</time>
      </trkpt>
      <trkpt lat="43.49962" lon="5.85191">
        <ele>396.20001220703</ele>
        <time>2021-01-31T07:39:32.000Z</time>
      </trkpt>
      <trkpt lat="43.49973" lon="5.85193">
        <ele>396.79998779297</ele>
        <time>2021-01-31T07:39:36.000Z</time>
      </trkpt>
      <trkpt lat="43.49976" lon="5.85193">
        <ele>396.79998779297</ele>
        <time>2021-01-31T07:39:37.000Z</time>
      </trkpt>
      <trkpt lat="43.49996" lon="5.85202">
        <ele>397.39999389648</ele>
        <time>2021-01-31T07:39:45.000Z</time>
      </trkpt>
      <trkpt lat="43.50006" lon="5.85206">
        <ele>398.60000610352</ele>
        <time>2021-01-31T07:39:48.000Z</time>
      </trkpt>
      <trkpt lat="43.50018" lon="5.85211">
        <ele>399.60000610352</ele>
        <time>2021-01-31T07:39:54.000Z</time>
      </trkpt>
      <trkpt lat="43.50025" lon="5.85214">
        <ele>399.79998779297</ele>
        <time>2021-01-31T07:39:57.000Z</time>
      </trkpt>
      <trkpt lat="43.50037" lon="5.85218">
        <ele>400.60000610352</ele>
        <time>2021-01-31T07:40:02.000Z</time>
      </trkpt>
      <trkpt lat="43.50039" lon="5.85219">
        <ele>400.79998779297</ele>
        <time>2021-01-31T07:40:03.000Z</time>
      </trkpt>
      <trkpt lat="43.50052" lon="5.85218">
        <ele>401.79998779297</ele>
        <time>2021-01-31T07:40:09.000Z</time>
      </trkpt>
      <trkpt lat="43.50053" lon="5.85216">
        <ele>402</ele>
        <time>2021-01-31T07:40:10.000Z</time>
      </trkpt>
      <trkpt lat="43.50056" lon="5.85217">
        <ele>403</ele>
        <time>2021-01-31T07:40:12.000Z</time>
      </trkpt>
      <trkpt lat="43.50064" lon="5.85216">
        <ele>404</ele>
        <time>2021-01-31T07:40:16.000Z</time>
      </trkpt>
      <trkpt lat="43.50067" lon="5.85215">
        <ele>404.60000610352</ele>
        <time>2021-01-31T07:40:18.000Z</time>
      </trkpt>
      <trkpt lat="43.50073" lon="5.85217">
        <ele>405.20001220703</ele>
        <time>2021-01-31T07:40:21.000Z</time>
      </trkpt>
      <trkpt lat="43.50078" lon="5.85217">
        <ele>405.39999389648</ele>
        <time>2021-01-31T07:40:23.000Z</time>
      </trkpt>
      <trkpt lat="43.50085" lon="5.85218">
        <ele>406.20001220703</ele>
        <time>2021-01-31T07:40:26.000Z</time>
      </trkpt>
      <trkpt lat="43.50097" lon="5.85219">
        <ele>406.79998779297</ele>
        <time>2021-01-31T07:40:31.000Z</time>
      </trkpt>
      <trkpt lat="43.50105" lon="5.85221">
        <ele>407.20001220703</ele>
        <time>2021-01-31T07:40:35.000Z</time>
      </trkpt>
      <trkpt lat="43.50109" lon="5.85221">
        <ele>407.39999389648</ele>
        <time>2021-01-31T07:40:37.000Z</time>
      </trkpt>
      <trkpt lat="43.50119" lon="5.85219">
        <ele>408.39999389648</ele>
        <time>2021-01-31T07:40:42.000Z</time>
      </trkpt>
      <trkpt lat="43.50121" lon="5.85217">
        <ele>408.60000610352</ele>
        <time>2021-01-31T07:40:43.000Z</time>
      </trkpt>
      <trkpt lat="43.50125" lon="5.85209">
        <ele>409.39999389648</ele>
        <time>2021-01-31T07:40:46.000Z</time>
      </trkpt>
      <trkpt lat="43.50129" lon="5.85199">
        <ele>409.79998779297</ele>
        <time>2021-01-31T07:40:50.000Z</time>
      </trkpt>
      <trkpt lat="43.50134" lon="5.85189">
        <ele>410.39999389648</ele>
        <time>2021-01-31T07:40:54.000Z</time>
      </trkpt>
      <trkpt lat="43.5014" lon="5.85184">
        <ele>410.60000610352</ele>
        <time>2021-01-31T07:40:57.000Z</time>
      </trkpt>
      <trkpt lat="43.50154" lon="5.8518">
        <ele>410.79998779297</ele>
        <time>2021-01-31T07:41:02.000Z</time>
      </trkpt>
      <trkpt lat="43.50171" lon="5.85187">
        <ele>411</ele>
        <time>2021-01-31T07:41:09.000Z</time>
      </trkpt>
      <trkpt lat="43.50187" lon="5.85193">
        <ele>411</ele>
        <time>2021-01-31T07:41:16.000Z</time>
      </trkpt>
      <trkpt lat="43.502" lon="5.852">
        <ele>411.39999389648</ele>
        <time>2021-01-31T07:41:22.000Z</time>
      </trkpt>
      <trkpt lat="43.50217" lon="5.85214">
        <ele>411.79998779297</ele>
        <time>2021-01-31T07:41:29.000Z</time>
      </trkpt>
      <trkpt lat="43.50237" lon="5.8523">
        <ele>411.79998779297</ele>
        <time>2021-01-31T07:41:36.000Z</time>
      </trkpt>
      <trkpt lat="43.50253" lon="5.8525">
        <ele>412</ele>
        <time>2021-01-31T07:41:42.000Z</time>
      </trkpt>
      <trkpt lat="43.50265" lon="5.85254">
        <ele>412</ele>
        <time>2021-01-31T07:41:46.000Z</time>
      </trkpt>
      <trkpt lat="43.50278" lon="5.85255">
        <ele>412.60000610352</ele>
        <time>2021-01-31T07:41:50.000Z</time>
      </trkpt>
      <trkpt lat="43.50284" lon="5.85257">
        <ele>413.20001220703</ele>
        <time>2021-01-31T07:41:52.000Z</time>
      </trkpt>
      <trkpt lat="43.5029" lon="5.85259">
        <ele>413.79998779297</ele>
        <time>2021-01-31T07:41:54.000Z</time>
      </trkpt>
      <trkpt lat="43.50302" lon="5.85263">
        <ele>414.20001220703</ele>
        <time>2021-01-31T07:41:59.000Z</time>
      </trkpt>
      <trkpt lat="43.50315" lon="5.85266">
        <ele>414.79998779297</ele>
        <time>2021-01-31T07:42:04.000Z</time>
      </trkpt>
      <trkpt lat="43.50317" lon="5.85266">
        <ele>415</ele>
        <time>2021-01-31T07:42:05.000Z</time>
      </trkpt>
      <trkpt lat="43.50328" lon="5.85262">
        <ele>415.79998779297</ele>
        <time>2021-01-31T07:42:10.000Z</time>
      </trkpt>
      <trkpt lat="43.50331" lon="5.85257">
        <ele>416</ele>
        <time>2021-01-31T07:42:12.000Z</time>
      </trkpt>
      <trkpt lat="43.50336" lon="5.85244">
        <ele>417.39999389648</ele>
        <time>2021-01-31T07:42:17.000Z</time>
      </trkpt>
      <trkpt lat="43.50337" lon="5.85228">
        <ele>418.39999389648</ele>
        <time>2021-01-31T07:42:22.000Z</time>
      </trkpt>
      <trkpt lat="43.50336" lon="5.85224">
        <ele>418.39999389648</ele>
        <time>2021-01-31T07:42:23.000Z</time>
      </trkpt>
      <trkpt lat="43.50333" lon="5.8521">
        <ele>418.79998779297</ele>
        <time>2021-01-31T07:42:27.000Z</time>
      </trkpt>
      <trkpt lat="43.50332" lon="5.85203">
        <ele>418.79998779297</ele>
        <time>2021-01-31T07:42:29.000Z</time>
      </trkpt>
      <trkpt lat="43.50331" lon="5.85184">
        <ele>418.79998779297</ele>
        <time>2021-01-31T07:42:35.000Z</time>
      </trkpt>
      <trkpt lat="43.50331" lon="5.8518">
        <ele>418.79998779297</ele>
        <time>2021-01-31T07:42:36.000Z</time>
      </trkpt>
      <trkpt lat="43.5033" lon="5.85169">
        <ele>419.60000610352</ele>
        <time>2021-01-31T07:42:40.000Z</time>
      </trkpt>
      <trkpt lat="43.5033" lon="5.85164">
        <ele>419.79998779297</ele>
        <time>2021-01-31T07:42:42.000Z</time>
      </trkpt>
      <trkpt lat="43.50327" lon="5.85151">
        <ele>420</ele>
        <time>2021-01-31T07:42:48.000Z</time>
      </trkpt>
      <trkpt lat="43.50325" lon="5.85135">
        <ele>420.39999389648</ele>
        <time>2021-01-31T07:42:56.000Z</time>
      </trkpt>
      <trkpt lat="43.50327" lon="5.85126">
        <ele>420.60000610352</ele>
        <time>2021-01-31T07:43:00.000Z</time>
      </trkpt>
      <trkpt lat="43.50328" lon="5.85121">
        <ele>420.60000610352</ele>
        <time>2021-01-31T07:43:02.000Z</time>
      </trkpt>
      <trkpt lat="43.50327" lon="5.851">
        <ele>420.20001220703</ele>
        <time>2021-01-31T07:43:09.000Z</time>
      </trkpt>
      <trkpt lat="43.5033" lon="5.8508">
        <ele>420.20001220703</ele>
        <time>2021-01-31T07:43:15.000Z</time>
      </trkpt>
      <trkpt lat="43.50327" lon="5.85063">
        <ele>419.39999389648</ele>
        <time>2021-01-31T07:43:20.000Z</time>
      </trkpt>
      <trkpt lat="43.50325" lon="5.85053">
        <ele>419.39999389648</ele>
        <time>2021-01-31T07:43:23.000Z</time>
      </trkpt>
      <trkpt lat="43.50334" lon="5.85035">
        <ele>419.20001220703</ele>
        <time>2021-01-31T07:43:29.000Z</time>
      </trkpt>
      <trkpt lat="43.50345" lon="5.85023">
        <ele>419.60000610352</ele>
        <time>2021-01-31T07:43:36.000Z</time>
      </trkpt>
      <trkpt lat="43.50353" lon="5.85006">
        <ele>419.39999389648</ele>
        <time>2021-01-31T07:43:43.000Z</time>
      </trkpt>
      <trkpt lat="43.50357" lon="5.84995">
        <ele>419.39999389648</ele>
        <time>2021-01-31T07:43:46.000Z</time>
      </trkpt>
      <trkpt lat="43.5036" lon="5.84994">
        <ele>419.20001220703</ele>
        <time>2021-01-31T07:43:48.000Z</time>
      </trkpt>
      <trkpt lat="43.50376" lon="5.84994">
        <ele>419.20001220703</ele>
        <time>2021-01-31T07:43:54.000Z</time>
      </trkpt>
      <trkpt lat="43.50395" lon="5.84998">
        <ele>419.79998779297</ele>
        <time>2021-01-31T07:44:01.000Z</time>
      </trkpt>
      <trkpt lat="43.50417" lon="5.84999">
        <ele>420</ele>
        <time>2021-01-31T07:44:09.000Z</time>
      </trkpt>
      <trkpt lat="43.50433" lon="5.84996">
        <ele>420.60000610352</ele>
        <time>2021-01-31T07:44:15.000Z</time>
      </trkpt>
      <trkpt lat="43.50436" lon="5.84996">
        <ele>420.60000610352</ele>
        <time>2021-01-31T07:44:16.000Z</time>
      </trkpt>
      <trkpt lat="43.50445" lon="5.84997">
        <ele>420.79998779297</ele>
        <time>2021-01-31T07:44:21.000Z</time>
      </trkpt>
      <trkpt lat="43.5046" lon="5.85005">
        <ele>421</ele>
        <time>2021-01-31T07:44:27.000Z</time>
      </trkpt>
      <trkpt lat="43.50479" lon="5.85011">
        <ele>421.39999389648</ele>
        <time>2021-01-31T07:44:34.000Z</time>
      </trkpt>
      <trkpt lat="43.50495" lon="5.85016">
        <ele>421.39999389648</ele>
        <time>2021-01-31T07:44:39.000Z</time>
      </trkpt>
      <trkpt lat="43.50501" lon="5.8502">
        <ele>421.20001220703</ele>
        <time>2021-01-31T07:44:41.000Z</time>
      </trkpt>
      <trkpt lat="43.50518" lon="5.85026">
        <ele>419.79998779297</ele>
        <time>2021-01-31T07:44:47.000Z</time>
      </trkpt>
      <trkpt lat="43.50524" lon="5.85019">
        <ele>419.39999389648</ele>
        <time>2021-01-31T07:44:50.000Z</time>
      </trkpt>
      <trkpt lat="43.50528" lon="5.85014">
        <ele>419</ele>
        <time>2021-01-31T07:44:52.000Z</time>
      </trkpt>
      <trkpt lat="43.50538" lon="5.85009">
        <ele>418.79998779297</ele>
        <time>2021-01-31T07:44:56.000Z</time>
      </trkpt>
      <trkpt lat="43.50544" lon="5.84999">
        <ele>419.20001220703</ele>
        <time>2021-01-31T07:45:00.000Z</time>
      </trkpt>
      <trkpt lat="43.50543" lon="5.84976">
        <ele>418.79998779297</ele>
        <time>2021-01-31T07:45:05.000Z</time>
      </trkpt>
      <trkpt lat="43.50543" lon="5.84956">
        <ele>418.20001220703</ele>
        <time>2021-01-31T07:45:09.000Z</time>
      </trkpt>
      <trkpt lat="43.50544" lon="5.84948">
        <ele>418</ele>
        <time>2021-01-31T07:45:11.000Z</time>
      </trkpt>
      <trkpt lat="43.50548" lon="5.84918">
        <ele>418</ele>
        <time>2021-01-31T07:45:18.000Z</time>
      </trkpt>
      <trkpt lat="43.50551" lon="5.84884">
        <ele>417.39999389648</ele>
        <time>2021-01-31T07:45:25.000Z</time>
      </trkpt>
      <trkpt lat="43.50553" lon="5.84875">
        <ele>417.20001220703</ele>
        <time>2021-01-31T07:45:27.000Z</time>
      </trkpt>
      <trkpt lat="43.50555" lon="5.84849">
        <ele>417.20001220703</ele>
        <time>2021-01-31T07:45:32.000Z</time>
      </trkpt>
      <trkpt lat="43.50556" lon="5.84819">
        <ele>416.39999389648</ele>
        <time>2021-01-31T07:45:38.000Z</time>
      </trkpt>
      <trkpt lat="43.50555" lon="5.84812">
        <ele>416.20001220703</ele>
        <time>2021-01-31T07:45:39.000Z</time>
      </trkpt>
      <trkpt lat="43.50553" lon="5.84808">
        <ele>416</ele>
        <time>2021-01-31T07:45:40.000Z</time>
      </trkpt>
      <trkpt lat="43.50543" lon="5.84801">
        <ele>415</ele>
        <time>2021-01-31T07:45:42.000Z</time>
      </trkpt>
      <trkpt lat="43.50522" lon="5.84786">
        <ele>414.79998779297</ele>
        <time>2021-01-31T07:45:49.000Z</time>
      </trkpt>
      <trkpt lat="43.50511" lon="5.84776">
        <ele>414.20001220703</ele>
        <time>2021-01-31T07:45:52.000Z</time>
      </trkpt>
      <trkpt lat="43.50509" lon="5.84771">
        <ele>414</ele>
        <time>2021-01-31T07:45:53.000Z</time>
      </trkpt>
      <trkpt lat="43.50507" lon="5.84767">
        <ele>413.79998779297</ele>
        <time>2021-01-31T07:45:54.000Z</time>
      </trkpt>
      <trkpt lat="43.50506" lon="5.84756">
        <ele>413.39999389648</ele>
        <time>2021-01-31T07:45:56.000Z</time>
      </trkpt>
      <trkpt lat="43.50509" lon="5.84745">
        <ele>413.39999389648</ele>
        <time>2021-01-31T07:45:58.000Z</time>
      </trkpt>
      <trkpt lat="43.50516" lon="5.84711">
        <ele>413</ele>
        <time>2021-01-31T07:46:04.000Z</time>
      </trkpt>
      <trkpt lat="43.50517" lon="5.847">
        <ele>412.20001220703</ele>
        <time>2021-01-31T07:46:06.000Z</time>
      </trkpt>
      <trkpt lat="43.50515" lon="5.84685">
        <ele>411.60000610352</ele>
        <time>2021-01-31T07:46:08.000Z</time>
      </trkpt>
      <trkpt lat="43.50513" lon="5.84678">
        <ele>411.39999389648</ele>
        <time>2021-01-31T07:46:09.000Z</time>
      </trkpt>
      <trkpt lat="43.50505" lon="5.84657">
        <ele>410.60000610352</ele>
        <time>2021-01-31T07:46:12.000Z</time>
      </trkpt>
      <trkpt lat="43.505" lon="5.84635">
        <ele>409.39999389648</ele>
        <time>2021-01-31T07:46:15.000Z</time>
      </trkpt>
      <trkpt lat="43.50497" lon="5.84626">
        <ele>409.20001220703</ele>
        <time>2021-01-31T07:46:16.000Z</time>
      </trkpt>
      <trkpt lat="43.50491" lon="5.8461">
        <ele>408.39999389648</ele>
        <time>2021-01-31T07:46:18.000Z</time>
      </trkpt>
      <trkpt lat="43.50485" lon="5.84596">
        <ele>408</ele>
        <time>2021-01-31T07:46:20.000Z</time>
      </trkpt>
      <trkpt lat="43.50477" lon="5.84582">
        <ele>407.20001220703</ele>
        <time>2021-01-31T07:46:22.000Z</time>
      </trkpt>
      <trkpt lat="43.50465" lon="5.84565">
        <ele>406</ele>
        <time>2021-01-31T07:46:25.000Z</time>
      </trkpt>
      <trkpt lat="43.50459" lon="5.84561">
        <ele>405.60000610352</ele>
        <time>2021-01-31T07:46:26.000Z</time>
      </trkpt>
      <trkpt lat="43.50454" lon="5.84557">
        <ele>405.20001220703</ele>
        <time>2021-01-31T07:46:27.000Z</time>
      </trkpt>
      <trkpt lat="43.50441" lon="5.84552">
        <ele>405</ele>
        <time>2021-01-31T07:46:29.000Z</time>
      </trkpt>
      <trkpt lat="43.50436" lon="5.8455">
        <ele>404.60000610352</ele>
        <time>2021-01-31T07:46:30.000Z</time>
      </trkpt>
      <trkpt lat="43.50418" lon="5.84538">
        <ele>403.60000610352</ele>
        <time>2021-01-31T07:46:33.000Z</time>
      </trkpt>
      <trkpt lat="43.50413" lon="5.84534">
        <ele>403.20001220703</ele>
        <time>2021-01-31T07:46:34.000Z</time>
      </trkpt>
      <trkpt lat="43.50403" lon="5.84525">
        <ele>402.60000610352</ele>
        <time>2021-01-31T07:46:36.000Z</time>
      </trkpt>
      <trkpt lat="43.50394" lon="5.84514">
        <ele>402.60000610352</ele>
        <time>2021-01-31T07:46:38.000Z</time>
      </trkpt>
      <trkpt lat="43.50387" lon="5.84502">
        <ele>402.20001220703</ele>
        <time>2021-01-31T07:46:40.000Z</time>
      </trkpt>
      <trkpt lat="43.5038" lon="5.84483">
        <ele>401.79998779297</ele>
        <time>2021-01-31T07:46:43.000Z</time>
      </trkpt>
      <trkpt lat="43.50379" lon="5.84478">
        <ele>401.39999389648</ele>
        <time>2021-01-31T07:46:44.000Z</time>
      </trkpt>
      <trkpt lat="43.50378" lon="5.84472">
        <ele>401.39999389648</ele>
        <time>2021-01-31T07:46:45.000Z</time>
      </trkpt>
      <trkpt lat="43.50377" lon="5.84447">
        <ele>400.60000610352</ele>
        <time>2021-01-31T07:46:50.000Z</time>
      </trkpt>
      <trkpt lat="43.50376" lon="5.84435">
        <ele>400.39999389648</ele>
        <time>2021-01-31T07:46:52.000Z</time>
      </trkpt>
      <trkpt lat="43.50374" lon="5.8443">
        <ele>400.20001220703</ele>
        <time>2021-01-31T07:46:53.000Z</time>
      </trkpt>
      <trkpt lat="43.50371" lon="5.84418">
        <ele>399.79998779297</ele>
        <time>2021-01-31T07:46:55.000Z</time>
      </trkpt>
      <trkpt lat="43.50367" lon="5.84408">
        <ele>400</ele>
        <time>2021-01-31T07:46:57.000Z</time>
      </trkpt>
      <trkpt lat="43.50363" lon="5.84386">
        <ele>399.60000610352</ele>
        <time>2021-01-31T07:47:02.000Z</time>
      </trkpt>
      <trkpt lat="43.50374" lon="5.84376">
        <ele>399.60000610352</ele>
        <time>2021-01-31T07:47:06.000Z</time>
      </trkpt>
      <trkpt lat="43.5039" lon="5.84367">
        <ele>400.60000610352</ele>
        <time>2021-01-31T07:47:13.000Z</time>
      </trkpt>
      <trkpt lat="43.50399" lon="5.84353">
        <ele>401</ele>
        <time>2021-01-31T07:47:19.000Z</time>
      </trkpt>
      <trkpt lat="43.50402" lon="5.84343">
        <ele>401.39999389648</ele>
        <time>2021-01-31T07:47:22.000Z</time>
      </trkpt>
      <trkpt lat="43.50404" lon="5.84328">
        <ele>401.79998779297</ele>
        <time>2021-01-31T07:47:26.000Z</time>
      </trkpt>
      <trkpt lat="43.50404" lon="5.84305">
        <ele>402.39999389648</ele>
        <time>2021-01-31T07:47:32.000Z</time>
      </trkpt>
      <trkpt lat="43.50405" lon="5.84301">
        <ele>402.39999389648</ele>
        <time>2021-01-31T07:47:33.000Z</time>
      </trkpt>
      <trkpt lat="43.50405" lon="5.84277">
        <ele>403.20001220703</ele>
        <time>2021-01-31T07:47:40.000Z</time>
      </trkpt>
      <trkpt lat="43.50404" lon="5.8427">
        <ele>403.79998779297</ele>
        <time>2021-01-31T07:47:41.000Z</time>
      </trkpt>
      <trkpt lat="43.50403" lon="5.84244">
        <ele>404.60000610352</ele>
        <time>2021-01-31T07:47:49.000Z</time>
      </trkpt>
      <trkpt lat="43.50403" lon="5.84241">
        <ele>404.79998779297</ele>
        <time>2021-01-31T07:47:50.000Z</time>
      </trkpt>
      <trkpt lat="43.50407" lon="5.84214">
        <ele>405.60000610352</ele>
        <time>2021-01-31T07:47:58.000Z</time>
      </trkpt>
      <trkpt lat="43.50408" lon="5.84211">
        <ele>405.39999389648</ele>
        <time>2021-01-31T07:47:59.000Z</time>
      </trkpt>
      <trkpt lat="43.50412" lon="5.84189">
        <ele>405.39999389648</ele>
        <time>2021-01-31T07:48:06.000Z</time>
      </trkpt>
      <trkpt lat="43.50415" lon="5.84175">
        <ele>406</ele>
        <time>2021-01-31T07:48:10.000Z</time>
      </trkpt>
      <trkpt lat="43.5042" lon="5.84163">
        <ele>406.39999389648</ele>
        <time>2021-01-31T07:48:14.000Z</time>
      </trkpt>
      <trkpt lat="43.5043" lon="5.84143">
        <ele>407</ele>
        <time>2021-01-31T07:48:21.000Z</time>
      </trkpt>
      <trkpt lat="43.50431" lon="5.8414">
        <ele>407</ele>
        <time>2021-01-31T07:48:22.000Z</time>
      </trkpt>
      <trkpt lat="43.50445" lon="5.84119">
        <ele>408</ele>
        <time>2021-01-31T07:48:30.000Z</time>
      </trkpt>
      <trkpt lat="43.50455" lon="5.84103">
        <ele>409</ele>
        <time>2021-01-31T07:48:36.000Z</time>
      </trkpt>
      <trkpt lat="43.50456" lon="5.84101">
        <ele>409.20001220703</ele>
        <time>2021-01-31T07:48:37.000Z</time>
      </trkpt>
      <trkpt lat="43.50467" lon="5.84085">
        <ele>410.20001220703</ele>
        <time>2021-01-31T07:48:44.000Z</time>
      </trkpt>
      <trkpt lat="43.50469" lon="5.84083">
        <ele>410.39999389648</ele>
        <time>2021-01-31T07:48:45.000Z</time>
      </trkpt>
      <trkpt lat="43.50483" lon="5.84067">
        <ele>411</ele>
        <time>2021-01-31T07:48:52.000Z</time>
      </trkpt>
      <trkpt lat="43.50487" lon="5.84063">
        <ele>411.20001220703</ele>
        <time>2021-01-31T07:48:54.000Z</time>
      </trkpt>
      <trkpt lat="43.50499" lon="5.84055">
        <ele>412</ele>
        <time>2021-01-31T07:48:59.000Z</time>
      </trkpt>
      <trkpt lat="43.50503" lon="5.84052">
        <ele>412.39999389648</ele>
        <time>2021-01-31T07:49:01.000Z</time>
      </trkpt>
      <trkpt lat="43.50515" lon="5.84041">
        <ele>413</ele>
        <time>2021-01-31T07:49:07.000Z</time>
      </trkpt>
      <trkpt lat="43.5053" lon="5.84029">
        <ele>413</ele>
        <time>2021-01-31T07:49:13.000Z</time>
      </trkpt>
      <trkpt lat="43.50543" lon="5.84014">
        <ele>413.20001220703</ele>
        <time>2021-01-31T07:49:20.000Z</time>
      </trkpt>
      <trkpt lat="43.50548" lon="5.84008">
        <ele>413.39999389648</ele>
        <time>2021-01-31T07:49:23.000Z</time>
      </trkpt>
      <trkpt lat="43.50555" lon="5.84">
        <ele>413.79998779297</ele>
        <time>2021-01-31T07:49:27.000Z</time>
      </trkpt>
      <trkpt lat="43.50574" lon="5.83987">
        <ele>414.20001220703</ele>
        <time>2021-01-31T07:49:36.000Z</time>
      </trkpt>
      <trkpt lat="43.50583" lon="5.83982">
        <ele>414.39999389648</ele>
        <time>2021-01-31T07:49:39.000Z</time>
      </trkpt>
      <trkpt lat="43.5059" lon="5.83977">
        <ele>414.79998779297</ele>
        <time>2021-01-31T07:49:42.000Z</time>
      </trkpt>
      <trkpt lat="43.50604" lon="5.83969">
        <ele>415.20001220703</ele>
        <time>2021-01-31T07:49:48.000Z</time>
      </trkpt>
      <trkpt lat="43.50612" lon="5.83966">
        <ele>415.60000610352</ele>
        <time>2021-01-31T07:49:51.000Z</time>
      </trkpt>
      <trkpt lat="43.50625" lon="5.83959">
        <ele>415.79998779297</ele>
        <time>2021-01-31T07:49:56.000Z</time>
      </trkpt>
      <trkpt lat="43.50642" lon="5.83951">
        <ele>416.60000610352</ele>
        <time>2021-01-31T07:50:02.000Z</time>
      </trkpt>
      <trkpt lat="43.50647" lon="5.83948">
        <ele>416.79998779297</ele>
        <time>2021-01-31T07:50:04.000Z</time>
      </trkpt>
      <trkpt lat="43.50669" lon="5.83943">
        <ele>417.39999389648</ele>
        <time>2021-01-31T07:50:12.000Z</time>
      </trkpt>
      <trkpt lat="43.50691" lon="5.83938">
        <ele>416.79998779297</ele>
        <time>2021-01-31T07:50:19.000Z</time>
      </trkpt>
      <trkpt lat="43.50715" lon="5.8394">
        <ele>417</ele>
        <time>2021-01-31T07:50:26.000Z</time>
      </trkpt>
      <trkpt lat="43.50729" lon="5.83952">
        <ele>417</ele>
        <time>2021-01-31T07:50:31.000Z</time>
      </trkpt>
      <trkpt lat="43.5074" lon="5.83969">
        <ele>417.60000610352</ele>
        <time>2021-01-31T07:50:37.000Z</time>
      </trkpt>
      <trkpt lat="43.50741" lon="5.83973">
        <ele>417.79998779297</ele>
        <time>2021-01-31T07:50:38.000Z</time>
      </trkpt>
      <trkpt lat="43.50745" lon="5.83983">
        <ele>418.39999389648</ele>
        <time>2021-01-31T07:50:41.000Z</time>
      </trkpt>
      <trkpt lat="43.50751" lon="5.83991">
        <ele>418.60000610352</ele>
        <time>2021-01-31T07:50:44.000Z</time>
      </trkpt>
      <trkpt lat="43.50753" lon="5.83994">
        <ele>418.79998779297</ele>
        <time>2021-01-31T07:50:45.000Z</time>
      </trkpt>
      <trkpt lat="43.50765" lon="5.84019">
        <ele>419</ele>
        <time>2021-01-31T07:50:53.000Z</time>
      </trkpt>
      <trkpt lat="43.5077" lon="5.84033">
        <ele>419.79998779297</ele>
        <time>2021-01-31T07:50:57.000Z</time>
      </trkpt>
      <trkpt lat="43.50773" lon="5.84039">
        <ele>419.79998779297</ele>
        <time>2021-01-31T07:50:59.000Z</time>
      </trkpt>
      <trkpt lat="43.50783" lon="5.84065">
        <ele>419.79998779297</ele>
        <time>2021-01-31T07:51:06.000Z</time>
      </trkpt>
      <trkpt lat="43.50794" lon="5.84089">
        <ele>420.20001220703</ele>
        <time>2021-01-31T07:51:13.000Z</time>
      </trkpt>
      <trkpt lat="43.50812" lon="5.84096">
        <ele>420.20001220703</ele>
        <time>2021-01-31T07:51:18.000Z</time>
      </trkpt>
      <trkpt lat="43.50839" lon="5.84097">
        <ele>420.39999389648</ele>
        <time>2021-01-31T07:51:26.000Z</time>
      </trkpt>
      <trkpt lat="43.50845" lon="5.84099">
        <ele>420.20001220703</ele>
        <time>2021-01-31T07:51:28.000Z</time>
      </trkpt>
      <trkpt lat="43.50862" lon="5.84109">
        <ele>420.60000610352</ele>
        <time>2021-01-31T07:51:34.000Z</time>
      </trkpt>
      <trkpt lat="43.50876" lon="5.84119">
        <ele>420.39999389648</ele>
        <time>2021-01-31T07:51:40.000Z</time>
      </trkpt>
      <trkpt lat="43.50884" lon="5.84118">
        <ele>420.79998779297</ele>
        <time>2021-01-31T07:51:43.000Z</time>
      </trkpt>
      <trkpt lat="43.50896" lon="5.84117">
        <ele>421.20001220703</ele>
        <time>2021-01-31T07:51:47.000Z</time>
      </trkpt>
      <trkpt lat="43.50914" lon="5.8412">
        <ele>421.79998779297</ele>
        <time>2021-01-31T07:51:53.000Z</time>
      </trkpt>
      <trkpt lat="43.50918" lon="5.84122">
        <ele>421.79998779297</ele>
        <time>2021-01-31T07:51:54.000Z</time>
      </trkpt>
      <trkpt lat="43.50921" lon="5.84123">
        <ele>422</ele>
        <time>2021-01-31T07:51:55.000Z</time>
      </trkpt>
      <trkpt lat="43.50938" lon="5.8413">
        <ele>422.79998779297</ele>
        <time>2021-01-31T07:52:01.000Z</time>
      </trkpt>
      <trkpt lat="43.5094" lon="5.84131">
        <ele>423</ele>
        <time>2021-01-31T07:52:02.000Z</time>
      </trkpt>
      <trkpt lat="43.50957" lon="5.84137">
        <ele>423.39999389648</ele>
        <time>2021-01-31T07:52:08.000Z</time>
      </trkpt>
      <trkpt lat="43.50974" lon="5.84141">
        <ele>424</ele>
        <time>2021-01-31T07:52:14.000Z</time>
      </trkpt>
      <trkpt lat="43.50977" lon="5.84141">
        <ele>424.39999389648</ele>
        <time>2021-01-31T07:52:15.000Z</time>
      </trkpt>
      <trkpt lat="43.50994" lon="5.84135">
        <ele>424.79998779297</ele>
        <time>2021-01-31T07:52:21.000Z</time>
      </trkpt>
      <trkpt lat="43.51008" lon="5.84116">
        <ele>424.79998779297</ele>
        <time>2021-01-31T07:52:28.000Z</time>
      </trkpt>
      <trkpt lat="43.51011" lon="5.84106">
        <ele>425.20001220703</ele>
        <time>2021-01-31T07:52:31.000Z</time>
      </trkpt>
      <trkpt lat="43.51011" lon="5.84095">
        <ele>425.60000610352</ele>
        <time>2021-01-31T07:52:34.000Z</time>
      </trkpt>
      <trkpt lat="43.51017" lon="5.84073">
        <ele>426.39999389648</ele>
        <time>2021-01-31T07:52:40.000Z</time>
      </trkpt>
      <trkpt lat="43.51032" lon="5.84046">
        <ele>427.20001220703</ele>
        <time>2021-01-31T07:52:49.000Z</time>
      </trkpt>
      <trkpt lat="43.51036" lon="5.84042">
        <ele>427.39999389648</ele>
        <time>2021-01-31T07:52:51.000Z</time>
      </trkpt>
      <trkpt lat="43.51045" lon="5.84036">
        <ele>428.39999389648</ele>
        <time>2021-01-31T07:52:55.000Z</time>
      </trkpt>
      <trkpt lat="43.51047" lon="5.84034">
        <ele>428.60000610352</ele>
        <time>2021-01-31T07:52:56.000Z</time>
      </trkpt>
      <trkpt lat="43.51059" lon="5.8403">
        <ele>429.60000610352</ele>
        <time>2021-01-31T07:53:01.000Z</time>
      </trkpt>
      <trkpt lat="43.51063" lon="5.84028">
        <ele>429.79998779297</ele>
        <time>2021-01-31T07:53:03.000Z</time>
      </trkpt>
      <trkpt lat="43.51075" lon="5.84024">
        <ele>430.60000610352</ele>
        <time>2021-01-31T07:53:08.000Z</time>
      </trkpt>
      <trkpt lat="43.5108" lon="5.84022">
        <ele>431</ele>
        <time>2021-01-31T07:53:10.000Z</time>
      </trkpt>
      <trkpt lat="43.51096" lon="5.84015">
        <ele>431.79998779297</ele>
        <time>2021-01-31T07:53:17.000Z</time>
      </trkpt>
      <trkpt lat="43.51098" lon="5.84013">
        <ele>432</ele>
        <time>2021-01-31T07:53:18.000Z</time>
      </trkpt>
      <trkpt lat="43.51113" lon="5.84005">
        <ele>432.39999389648</ele>
        <time>2021-01-31T07:53:25.000Z</time>
      </trkpt>
      <trkpt lat="43.51125" lon="5.84006">
        <ele>433</ele>
        <time>2021-01-31T07:53:30.000Z</time>
      </trkpt>
      <trkpt lat="43.51128" lon="5.84007">
        <ele>433.20001220703</ele>
        <time>2021-01-31T07:53:31.000Z</time>
      </trkpt>
      <trkpt lat="43.51136" lon="5.84017">
        <ele>433.39999389648</ele>
        <time>2021-01-31T07:53:36.000Z</time>
      </trkpt>
      <trkpt lat="43.51154" lon="5.84029">
        <ele>434</ele>
        <time>2021-01-31T07:53:45.000Z</time>
      </trkpt>
      <trkpt lat="43.51157" lon="5.8403">
        <ele>434</ele>
        <time>2021-01-31T07:53:46.000Z</time>
      </trkpt>
      <trkpt lat="43.51171" lon="5.84028">
        <ele>434.60000610352</ele>
        <time>2021-01-31T07:53:51.000Z</time>
      </trkpt>
      <trkpt lat="43.5119" lon="5.84023">
        <ele>434.20001220703</ele>
        <time>2021-01-31T07:53:58.000Z</time>
      </trkpt>
      <trkpt lat="43.5121" lon="5.84019">
        <ele>433.39999389648</ele>
        <time>2021-01-31T07:54:06.000Z</time>
      </trkpt>
      <trkpt lat="43.51229" lon="5.84015">
        <ele>433.20001220703</ele>
        <time>2021-01-31T07:54:13.000Z</time>
      </trkpt>
      <trkpt lat="43.51231" lon="5.84014">
        <ele>433</ele>
        <time>2021-01-31T07:54:14.000Z</time>
      </trkpt>
      <trkpt lat="43.51243" lon="5.84011">
        <ele>432</ele>
        <time>2021-01-31T07:54:18.000Z</time>
      </trkpt>
      <trkpt lat="43.5125" lon="5.84011">
        <ele>432</ele>
        <time>2021-01-31T07:54:20.000Z</time>
      </trkpt>
      <trkpt lat="43.51265" lon="5.84013">
        <ele>431.39999389648</ele>
        <time>2021-01-31T07:54:25.000Z</time>
      </trkpt>
      <trkpt lat="43.51283" lon="5.84008">
        <ele>431.39999389648</ele>
        <time>2021-01-31T07:54:31.000Z</time>
      </trkpt>
      <trkpt lat="43.51303" lon="5.84004">
        <ele>431.60000610352</ele>
        <time>2021-01-31T07:54:38.000Z</time>
      </trkpt>
      <trkpt lat="43.5131" lon="5.8401">
        <ele>431.60000610352</ele>
        <time>2021-01-31T07:54:42.000Z</time>
      </trkpt>
      <trkpt lat="43.51323" lon="5.84023">
        <ele>432.20001220703</ele>
        <time>2021-01-31T07:54:49.000Z</time>
      </trkpt>
      <trkpt lat="43.51333" lon="5.84028">
        <ele>432.39999389648</ele>
        <time>2021-01-31T07:54:54.000Z</time>
      </trkpt>
      <trkpt lat="43.51339" lon="5.84029">
        <ele>432.39999389648</ele>
        <time>2021-01-31T07:54:56.000Z</time>
      </trkpt>
      <trkpt lat="43.51348" lon="5.84029">
        <ele>433</ele>
        <time>2021-01-31T07:55:00.000Z</time>
      </trkpt>
      <trkpt lat="43.51353" lon="5.8403">
        <ele>433.39999389648</ele>
        <time>2021-01-31T07:55:02.000Z</time>
      </trkpt>
      <trkpt lat="43.51366" lon="5.84035">
        <ele>434.20001220703</ele>
        <time>2021-01-31T07:55:08.000Z</time>
      </trkpt>
      <trkpt lat="43.51369" lon="5.84035">
        <ele>434.20001220703</ele>
        <time>2021-01-31T07:55:09.000Z</time>
      </trkpt>
      <trkpt lat="43.51383" lon="5.84035">
        <ele>434.79998779297</ele>
        <time>2021-01-31T07:55:16.000Z</time>
      </trkpt>
      <trkpt lat="43.5139" lon="5.84035">
        <ele>435.20001220703</ele>
        <time>2021-01-31T07:55:19.000Z</time>
      </trkpt>
      <trkpt lat="43.51397" lon="5.84032">
        <ele>435.60000610352</ele>
        <time>2021-01-31T07:55:23.000Z</time>
      </trkpt>
      <trkpt lat="43.5141" lon="5.84023">
        <ele>435.20001220703</ele>
        <time>2021-01-31T07:55:30.000Z</time>
      </trkpt>
      <trkpt lat="43.51421" lon="5.84008">
        <ele>434.79998779297</ele>
        <time>2021-01-31T07:55:36.000Z</time>
      </trkpt>
      <trkpt lat="43.5143" lon="5.83987">
        <ele>434.79998779297</ele>
        <time>2021-01-31T07:55:43.000Z</time>
      </trkpt>
      <trkpt lat="43.51443" lon="5.83978">
        <ele>434.39999389648</ele>
        <time>2021-01-31T07:55:48.000Z</time>
      </trkpt>
      <trkpt lat="43.51451" lon="5.83976">
        <ele>434.20001220703</ele>
        <time>2021-01-31T07:55:51.000Z</time>
      </trkpt>
      <trkpt lat="43.51465" lon="5.83977">
        <ele>433.20001220703</ele>
        <time>2021-01-31T07:55:56.000Z</time>
      </trkpt>
      <trkpt lat="43.51468" lon="5.83977">
        <ele>433</ele>
        <time>2021-01-31T07:55:57.000Z</time>
      </trkpt>
      <trkpt lat="43.51482" lon="5.83976">
        <ele>432.20001220703</ele>
        <time>2021-01-31T07:56:03.000Z</time>
      </trkpt>
      <trkpt lat="43.51483" lon="5.83975">
        <ele>432</ele>
        <time>2021-01-31T07:56:04.000Z</time>
      </trkpt>
      <trkpt lat="43.51491" lon="5.83971">
        <ele>431.20001220703</ele>
        <time>2021-01-31T07:56:09.000Z</time>
      </trkpt>
      <trkpt lat="43.51493" lon="5.8397">
        <ele>431</ele>
        <time>2021-01-31T07:56:10.000Z</time>
      </trkpt>
      <trkpt lat="43.51493" lon="5.8397">
        <ele>431</ele>
        <time>2021-01-31T07:56:11.000Z</time>
      </trkpt>
      <trkpt lat="43.51493" lon="5.83971">
        <ele>430.79998779297</ele>
        <time>2021-01-31T07:56:14.000Z</time>
      </trkpt>
      <trkpt lat="43.51496" lon="5.83973">
        <ele>430.39999389648</ele>
        <time>2021-01-31T07:56:22.000Z</time>
      </trkpt>
      <trkpt lat="43.51497" lon="5.83975">
        <ele>430</ele>
        <time>2021-01-31T07:56:27.000Z</time>
      </trkpt>
      <trkpt lat="43.51497" lon="5.83974">
        <ele>429.79998779297</ele>
        <time>2021-01-31T07:56:28.000Z</time>
      </trkpt>
      <trkpt lat="43.51497" lon="5.83975">
        <ele>429.79998779297</ele>
        <time>2021-01-31T07:56:29.000Z</time>
      </trkpt>
      <trkpt lat="43.51498" lon="5.83965">
        <ele>429.79998779297</ele>
        <time>2021-01-31T07:56:37.000Z</time>
      </trkpt>
      <trkpt lat="43.51499" lon="5.83962">
        <ele>429.60000610352</ele>
        <time>2021-01-31T07:56:40.000Z</time>
      </trkpt>
      <trkpt lat="43.51502" lon="5.83961">
        <ele>429.60000610352</ele>
        <time>2021-01-31T07:56:43.000Z</time>
      </trkpt>
      <trkpt lat="43.51509" lon="5.8396">
        <ele>429.20001220703</ele>
        <time>2021-01-31T07:56:48.000Z</time>
      </trkpt>
      <trkpt lat="43.51511" lon="5.83962">
        <ele>429</ele>
        <time>2021-01-31T07:56:51.000Z</time>
      </trkpt>
      <trkpt lat="43.51513" lon="5.83962">
        <ele>429</ele>
        <time>2021-01-31T07:56:52.000Z</time>
      </trkpt>
      <trkpt lat="43.51516" lon="5.8396">
        <ele>428.79998779297</ele>
        <time>2021-01-31T07:56:54.000Z</time>
      </trkpt>
      <trkpt lat="43.51526" lon="5.83949">
        <ele>428.20001220703</ele>
        <time>2021-01-31T07:57:01.000Z</time>
      </trkpt>
      <trkpt lat="43.51538" lon="5.83939">
        <ele>428</ele>
        <time>2021-01-31T07:57:08.000Z</time>
      </trkpt>
      <trkpt lat="43.5154" lon="5.83934">
        <ele>427.79998779297</ele>
        <time>2021-01-31T07:57:10.000Z</time>
      </trkpt>
      <trkpt lat="43.51545" lon="5.83922">
        <ele>426.60000610352</ele>
        <time>2021-01-31T07:57:14.000Z</time>
      </trkpt>
      <trkpt lat="43.5154" lon="5.83904">
        <ele>425.60000610352</ele>
        <time>2021-01-31T07:57:18.000Z</time>
      </trkpt>
      <trkpt lat="43.51534" lon="5.83883">
        <ele>425.39999389648</ele>
        <time>2021-01-31T07:57:24.000Z</time>
      </trkpt>
      <trkpt lat="43.51528" lon="5.83851">
        <ele>424.60000610352</ele>
        <time>2021-01-31T07:57:31.000Z</time>
      </trkpt>
      <trkpt lat="43.51527" lon="5.83847">
        <ele>424.60000610352</ele>
        <time>2021-01-31T07:57:33.000Z</time>
      </trkpt>
      <trkpt lat="43.51525" lon="5.83822">
        <ele>424.60000610352</ele>
        <time>2021-01-31T07:57:39.000Z</time>
      </trkpt>
      <trkpt lat="43.51531" lon="5.83798">
        <ele>424.60000610352</ele>
        <time>2021-01-31T07:57:45.000Z</time>
      </trkpt>
      <trkpt lat="43.51542" lon="5.83772">
        <ele>424.60000610352</ele>
        <time>2021-01-31T07:57:52.000Z</time>
      </trkpt>
      <trkpt lat="43.51549" lon="5.83764">
        <ele>424</ele>
        <time>2021-01-31T07:57:55.000Z</time>
      </trkpt>
      <trkpt lat="43.51553" lon="5.83758">
        <ele>423.39999389648</ele>
        <time>2021-01-31T07:57:57.000Z</time>
      </trkpt>
      <trkpt lat="43.51557" lon="5.83751">
        <ele>423.20001220703</ele>
        <time>2021-01-31T07:57:59.000Z</time>
      </trkpt>
      <trkpt lat="43.51567" lon="5.83733">
        <ele>423.39999389648</ele>
        <time>2021-01-31T07:58:05.000Z</time>
      </trkpt>
      <trkpt lat="43.51576" lon="5.83716">
        <ele>423.60000610352</ele>
        <time>2021-01-31T07:58:11.000Z</time>
      </trkpt>
      <trkpt lat="43.51588" lon="5.8369">
        <ele>423.60000610352</ele>
        <time>2021-01-31T07:58:19.000Z</time>
      </trkpt>
      <trkpt lat="43.51597" lon="5.83675">
        <ele>424</ele>
        <time>2021-01-31T07:58:24.000Z</time>
      </trkpt>
      <trkpt lat="43.51606" lon="5.83667">
        <ele>424</ele>
        <time>2021-01-31T07:58:30.000Z</time>
      </trkpt>
      <trkpt lat="43.51607" lon="5.83667">
        <ele>423.79998779297</ele>
        <time>2021-01-31T07:58:31.000Z</time>
      </trkpt>
      <trkpt lat="43.51613" lon="5.83661">
        <ele>423.79998779297</ele>
        <time>2021-01-31T07:58:36.000Z</time>
      </trkpt>
      <trkpt lat="43.51617" lon="5.83652">
        <ele>423.20001220703</ele>
        <time>2021-01-31T07:58:41.000Z</time>
      </trkpt>
      <trkpt lat="43.51617" lon="5.8365">
        <ele>423</ele>
        <time>2021-01-31T07:58:42.000Z</time>
      </trkpt>
      <trkpt lat="43.51617" lon="5.83646">
        <ele>422.79998779297</ele>
        <time>2021-01-31T07:58:44.000Z</time>
      </trkpt>
      <trkpt lat="43.51616" lon="5.83643">
        <ele>422.20001220703</ele>
        <time>2021-01-31T07:58:46.000Z</time>
      </trkpt>
      <trkpt lat="43.51615" lon="5.83639">
        <ele>422</ele>
        <time>2021-01-31T07:58:49.000Z</time>
      </trkpt>
      <trkpt lat="43.51614" lon="5.83639">
        <ele>422</ele>
        <time>2021-01-31T07:58:50.000Z</time>
      </trkpt>
      <trkpt lat="43.51612" lon="5.83636">
        <ele>422</ele>
        <time>2021-01-31T07:58:52.000Z</time>
      </trkpt>
      <trkpt lat="43.51601" lon="5.83627">
        <ele>421.20001220703</ele>
        <time>2021-01-31T07:58:58.000Z</time>
      </trkpt>
      <trkpt lat="43.51588" lon="5.8361">
        <ele>420.20001220703</ele>
        <time>2021-01-31T07:59:06.000Z</time>
      </trkpt>
      <trkpt lat="43.51587" lon="5.83604">
        <ele>420</ele>
        <time>2021-01-31T07:59:08.000Z</time>
      </trkpt>
      <trkpt lat="43.51584" lon="5.83588">
        <ele>419.60000610352</ele>
        <time>2021-01-31T07:59:13.000Z</time>
      </trkpt>
      <trkpt lat="43.51583" lon="5.83579">
        <ele>419.39999389648</ele>
        <time>2021-01-31T07:59:16.000Z</time>
      </trkpt>
      <trkpt lat="43.51583" lon="5.83569">
        <ele>419.20001220703</ele>
        <time>2021-01-31T07:59:19.000Z</time>
      </trkpt>
      <trkpt lat="43.51582" lon="5.83562">
        <ele>419</ele>
        <time>2021-01-31T07:59:21.000Z</time>
      </trkpt>
      <trkpt lat="43.51582" lon="5.83559">
        <ele>419</ele>
        <time>2021-01-31T07:59:22.000Z</time>
      </trkpt>
      <trkpt lat="43.51583" lon="5.83554">
        <ele>419</ele>
        <time>2021-01-31T07:59:24.000Z</time>
      </trkpt>
      <trkpt lat="43.51594" lon="5.83541">
        <ele>419</ele>
        <time>2021-01-31T07:59:30.000Z</time>
      </trkpt>
      <trkpt lat="43.51606" lon="5.83529">
        <ele>418</ele>
        <time>2021-01-31T07:59:37.000Z</time>
      </trkpt>
      <trkpt lat="43.51608" lon="5.83528">
        <ele>418</ele>
        <time>2021-01-31T07:59:38.000Z</time>
      </trkpt>
      <trkpt lat="43.51624" lon="5.83517">
        <ele>417</ele>
        <time>2021-01-31T07:59:45.000Z</time>
      </trkpt>
      <trkpt lat="43.51628" lon="5.83515">
        <ele>417</ele>
        <time>2021-01-31T07:59:47.000Z</time>
      </trkpt>
      <trkpt lat="43.51638" lon="5.83506">
        <ele>416.79998779297</ele>
        <time>2021-01-31T07:59:52.000Z</time>
      </trkpt>
      <trkpt lat="43.51649" lon="5.83494">
        <ele>416.79998779297</ele>
        <time>2021-01-31T07:59:58.000Z</time>
      </trkpt>
      <trkpt lat="43.5166" lon="5.8348">
        <ele>416.39999389648</ele>
        <time>2021-01-31T08:00:04.000Z</time>
      </trkpt>
      <trkpt lat="43.51669" lon="5.83468">
        <ele>417</ele>
        <time>2021-01-31T08:00:09.000Z</time>
      </trkpt>
      <trkpt lat="43.5167" lon="5.83467">
        <ele>417</ele>
        <time>2021-01-31T08:00:10.000Z</time>
      </trkpt>
      <trkpt lat="43.51675" lon="5.83461">
        <ele>417.39999389648</ele>
        <time>2021-01-31T08:00:16.000Z</time>
      </trkpt>
      <trkpt lat="43.51676" lon="5.83457">
        <ele>417.20001220703</ele>
        <time>2021-01-31T08:00:20.000Z</time>
      </trkpt>
      <trkpt lat="43.51677" lon="5.83454">
        <ele>417.39999389648</ele>
        <time>2021-01-31T08:00:22.000Z</time>
      </trkpt>
      <trkpt lat="43.51673" lon="5.83439">
        <ele>417.60000610352</ele>
        <time>2021-01-31T08:00:28.000Z</time>
      </trkpt>
      <trkpt lat="43.51673" lon="5.83421">
        <ele>417.20001220703</ele>
        <time>2021-01-31T08:00:34.000Z</time>
      </trkpt>
      <trkpt lat="43.51668" lon="5.83399">
        <ele>416.39999389648</ele>
        <time>2021-01-31T08:00:40.000Z</time>
      </trkpt>
      <trkpt lat="43.51664" lon="5.83385">
        <ele>415.79998779297</ele>
        <time>2021-01-31T08:00:44.000Z</time>
      </trkpt>
      <trkpt lat="43.51663" lon="5.83382">
        <ele>415.39999389648</ele>
        <time>2021-01-31T08:00:45.000Z</time>
      </trkpt>
      <trkpt lat="43.51661" lon="5.83379">
        <ele>415.20001220703</ele>
        <time>2021-01-31T08:00:46.000Z</time>
      </trkpt>
      <trkpt lat="43.51655" lon="5.83371">
        <ele>414.79998779297</ele>
        <time>2021-01-31T08:00:49.000Z</time>
      </trkpt>
      <trkpt lat="43.51649" lon="5.83365">
        <ele>414.20001220703</ele>
        <time>2021-01-31T08:00:52.000Z</time>
      </trkpt>
      <trkpt lat="43.5164" lon="5.83361">
        <ele>413.79998779297</ele>
        <time>2021-01-31T08:00:56.000Z</time>
      </trkpt>
      <trkpt lat="43.51635" lon="5.83361">
        <ele>413.60000610352</ele>
        <time>2021-01-31T08:00:58.000Z</time>
      </trkpt>
      <trkpt lat="43.51618" lon="5.83363">
        <ele>413</ele>
        <time>2021-01-31T08:01:04.000Z</time>
      </trkpt>
      <trkpt lat="43.51612" lon="5.83363">
        <ele>412.60000610352</ele>
        <time>2021-01-31T08:01:06.000Z</time>
      </trkpt>
      <trkpt lat="43.51607" lon="5.83363">
        <ele>412.20001220703</ele>
        <time>2021-01-31T08:01:08.000Z</time>
      </trkpt>
      <trkpt lat="43.51601" lon="5.83365">
        <ele>412</ele>
        <time>2021-01-31T08:01:10.000Z</time>
      </trkpt>
      <trkpt lat="43.51587" lon="5.83369">
        <ele>412</ele>
        <time>2021-01-31T08:01:16.000Z</time>
      </trkpt>
      <trkpt lat="43.51578" lon="5.8337">
        <ele>411.79998779297</ele>
        <time>2021-01-31T08:01:19.000Z</time>
      </trkpt>
      <trkpt lat="43.51575" lon="5.8337">
        <ele>411.60000610352</ele>
        <time>2021-01-31T08:01:20.000Z</time>
      </trkpt>
      <trkpt lat="43.5157" lon="5.83371">
        <ele>411.20001220703</ele>
        <time>2021-01-31T08:01:22.000Z</time>
      </trkpt>
      <trkpt lat="43.5155" lon="5.83364">
        <ele>410.39999389648</ele>
        <time>2021-01-31T08:01:27.000Z</time>
      </trkpt>
      <trkpt lat="43.5155" lon="5.83364">
        <ele>410.39999389648</ele>
        <time>2021-01-31T08:01:28.000Z</time>
      </trkpt>
      <trkpt lat="43.51532" lon="5.83345">
        <ele>410</ele>
        <time>2021-01-31T08:01:34.000Z</time>
      </trkpt>
      <trkpt lat="43.51523" lon="5.83321">
        <ele>409.60000610352</ele>
        <time>2021-01-31T08:01:40.000Z</time>
      </trkpt>
      <trkpt lat="43.51523" lon="5.83317">
        <ele>409.39999389648</ele>
        <time>2021-01-31T08:01:41.000Z</time>
      </trkpt>
      <trkpt lat="43.51521" lon="5.83293">
        <ele>408.79998779297</ele>
        <time>2021-01-31T08:01:47.000Z</time>
      </trkpt>
      <trkpt lat="43.51521" lon="5.83275">
        <ele>408.60000610352</ele>
        <time>2021-01-31T08:01:51.000Z</time>
      </trkpt>
      <trkpt lat="43.51521" lon="5.83266">
        <ele>408.60000610352</ele>
        <time>2021-01-31T08:01:53.000Z</time>
      </trkpt>
      <trkpt lat="43.51522" lon="5.83241">
        <ele>408.39999389648</ele>
        <time>2021-01-31T08:01:58.000Z</time>
      </trkpt>
      <trkpt lat="43.51522" lon="5.83227">
        <ele>408.39999389648</ele>
        <time>2021-01-31T08:02:01.000Z</time>
      </trkpt>
      <trkpt lat="43.51513" lon="5.83208">
        <ele>407.79998779297</ele>
        <time>2021-01-31T08:02:06.000Z</time>
      </trkpt>
      <trkpt lat="43.51498" lon="5.83191">
        <ele>407.39999389648</ele>
        <time>2021-01-31T08:02:12.000Z</time>
      </trkpt>
      <trkpt lat="43.51491" lon="5.83189">
        <ele>407.20001220703</ele>
        <time>2021-01-31T08:02:15.000Z</time>
      </trkpt>
      <trkpt lat="43.51488" lon="5.83191">
        <ele>407.20001220703</ele>
        <time>2021-01-31T08:02:16.000Z</time>
      </trkpt>
      <trkpt lat="43.51469" lon="5.83205">
        <ele>406.60000610352</ele>
        <time>2021-01-31T08:02:22.000Z</time>
      </trkpt>
      <trkpt lat="43.51452" lon="5.83218">
        <ele>406.60000610352</ele>
        <time>2021-01-31T08:02:27.000Z</time>
      </trkpt>
      <trkpt lat="43.51442" lon="5.83223">
        <ele>406.60000610352</ele>
        <time>2021-01-31T08:02:30.000Z</time>
      </trkpt>
      <trkpt lat="43.51421" lon="5.83228">
        <ele>406.39999389648</ele>
        <time>2021-01-31T08:02:36.000Z</time>
      </trkpt>
      <trkpt lat="43.51407" lon="5.83219">
        <ele>406.20001220703</ele>
        <time>2021-01-31T08:02:41.000Z</time>
      </trkpt>
      <trkpt lat="43.51405" lon="5.83215">
        <ele>406.20001220703</ele>
        <time>2021-01-31T08:02:42.000Z</time>
      </trkpt>
      <trkpt lat="43.51401" lon="5.83199">
        <ele>406</ele>
        <time>2021-01-31T08:02:46.000Z</time>
      </trkpt>
      <trkpt lat="43.51397" lon="5.83174">
        <ele>405.79998779297</ele>
        <time>2021-01-31T08:02:52.000Z</time>
      </trkpt>
      <trkpt lat="43.51387" lon="5.83157">
        <ele>405.79998779297</ele>
        <time>2021-01-31T08:02:57.000Z</time>
      </trkpt>
      <trkpt lat="43.51373" lon="5.83141">
        <ele>405.39999389648</ele>
        <time>2021-01-31T08:03:04.000Z</time>
      </trkpt>
      <trkpt lat="43.51362" lon="5.83135">
        <ele>405.20001220703</ele>
        <time>2021-01-31T08:03:09.000Z</time>
      </trkpt>
      <trkpt lat="43.51354" lon="5.83133">
        <ele>405</ele>
        <time>2021-01-31T08:03:12.000Z</time>
      </trkpt>
      <trkpt lat="43.51335" lon="5.83127">
        <ele>404.60000610352</ele>
        <time>2021-01-31T08:03:19.000Z</time>
      </trkpt>
      <trkpt lat="43.51315" lon="5.83118">
        <ele>404.20001220703</ele>
        <time>2021-01-31T08:03:26.000Z</time>
      </trkpt>
      <trkpt lat="43.51312" lon="5.83115">
        <ele>404.20001220703</ele>
        <time>2021-01-31T08:03:27.000Z</time>
      </trkpt>
      <trkpt lat="43.51294" lon="5.83102">
        <ele>403.79998779297</ele>
        <time>2021-01-31T08:03:33.000Z</time>
      </trkpt>
      <trkpt lat="43.51272" lon="5.8309">
        <ele>403.39999389648</ele>
        <time>2021-01-31T08:03:41.000Z</time>
      </trkpt>
      <trkpt lat="43.51258" lon="5.8309">
        <ele>403.20001220703</ele>
        <time>2021-01-31T08:03:45.000Z</time>
      </trkpt>
      <trkpt lat="43.51249" lon="5.8309">
        <ele>403.20001220703</ele>
        <time>2021-01-31T08:03:48.000Z</time>
      </trkpt>
      <trkpt lat="43.51246" lon="5.8309">
        <ele>403</ele>
        <time>2021-01-31T08:03:49.000Z</time>
      </trkpt>
      <trkpt lat="43.51224" lon="5.83098">
        <ele>402.79998779297</ele>
        <time>2021-01-31T08:03:57.000Z</time>
      </trkpt>
      <trkpt lat="43.51206" lon="5.831">
        <ele>402.39999389648</ele>
        <time>2021-01-31T08:04:03.000Z</time>
      </trkpt>
      <trkpt lat="43.51186" lon="5.83101">
        <ele>402.20001220703</ele>
        <time>2021-01-31T08:04:08.000Z</time>
      </trkpt>
      <trkpt lat="43.51182" lon="5.831">
        <ele>402</ele>
        <time>2021-01-31T08:04:09.000Z</time>
      </trkpt>
      <trkpt lat="43.51162" lon="5.83095">
        <ele>401.79998779297</ele>
        <time>2021-01-31T08:04:15.000Z</time>
      </trkpt>
      <trkpt lat="43.51148" lon="5.83095">
        <ele>401.60000610352</ele>
        <time>2021-01-31T08:04:19.000Z</time>
      </trkpt>
      <trkpt lat="43.51145" lon="5.83095">
        <ele>401.39999389648</ele>
        <time>2021-01-31T08:04:20.000Z</time>
      </trkpt>
      <trkpt lat="43.51128" lon="5.83101">
        <ele>401</ele>
        <time>2021-01-31T08:04:26.000Z</time>
      </trkpt>
      <trkpt lat="43.51125" lon="5.83103">
        <ele>401</ele>
        <time>2021-01-31T08:04:27.000Z</time>
      </trkpt>
      <trkpt lat="43.51112" lon="5.83119">
        <ele>400.60000610352</ele>
        <time>2021-01-31T08:04:32.000Z</time>
      </trkpt>
      <trkpt lat="43.5111" lon="5.83124">
        <ele>400.60000610352</ele>
        <time>2021-01-31T08:04:33.000Z</time>
      </trkpt>
      <trkpt lat="43.51105" lon="5.83147">
        <ele>400.20001220703</ele>
        <time>2021-01-31T08:04:39.000Z</time>
      </trkpt>
      <trkpt lat="43.51101" lon="5.83157">
        <ele>400</ele>
        <time>2021-01-31T08:04:42.000Z</time>
      </trkpt>
      <trkpt lat="43.51096" lon="5.83168">
        <ele>399.79998779297</ele>
        <time>2021-01-31T08:04:45.000Z</time>
      </trkpt>
      <trkpt lat="43.5108" lon="5.83179">
        <ele>399.39999389648</ele>
        <time>2021-01-31T08:04:51.000Z</time>
      </trkpt>
      <trkpt lat="43.51071" lon="5.83179">
        <ele>399.20001220703</ele>
        <time>2021-01-31T08:04:54.000Z</time>
      </trkpt>
      <trkpt lat="43.51065" lon="5.83177">
        <ele>399</ele>
        <time>2021-01-31T08:04:56.000Z</time>
      </trkpt>
      <trkpt lat="43.51063" lon="5.83175">
        <ele>398.79998779297</ele>
        <time>2021-01-31T08:04:57.000Z</time>
      </trkpt>
      <trkpt lat="43.51046" lon="5.83166">
        <ele>398.39999389648</ele>
        <time>2021-01-31T08:05:03.000Z</time>
      </trkpt>
      <trkpt lat="43.51043" lon="5.83165">
        <ele>398.39999389648</ele>
        <time>2021-01-31T08:05:04.000Z</time>
      </trkpt>
      <trkpt lat="43.51029" lon="5.83161">
        <ele>398</ele>
        <time>2021-01-31T08:05:09.000Z</time>
      </trkpt>
      <trkpt lat="43.51023" lon="5.83159">
        <ele>397.79998779297</ele>
        <time>2021-01-31T08:05:11.000Z</time>
      </trkpt>
      <trkpt lat="43.51002" lon="5.83154">
        <ele>397.20001220703</ele>
        <time>2021-01-31T08:05:18.000Z</time>
      </trkpt>
      <trkpt lat="43.50995" lon="5.8315">
        <ele>396.79998779297</ele>
        <time>2021-01-31T08:05:21.000Z</time>
      </trkpt>
      <trkpt lat="43.50985" lon="5.83151">
        <ele>396.60000610352</ele>
        <time>2021-01-31T08:05:24.000Z</time>
      </trkpt>
      <trkpt lat="43.50956" lon="5.8316">
        <ele>396</ele>
        <time>2021-01-31T08:05:32.000Z</time>
      </trkpt>
      <trkpt lat="43.50953" lon="5.8316">
        <ele>395.79998779297</ele>
        <time>2021-01-31T08:05:33.000Z</time>
      </trkpt>
      <trkpt lat="43.50944" lon="5.83163">
        <ele>395.60000610352</ele>
        <time>2021-01-31T08:05:36.000Z</time>
      </trkpt>
      <trkpt lat="43.5094" lon="5.83164">
        <ele>395.60000610352</ele>
        <time>2021-01-31T08:05:37.000Z</time>
      </trkpt>
      <trkpt lat="43.5093" lon="5.83163">
        <ele>395.20001220703</ele>
        <time>2021-01-31T08:05:40.000Z</time>
      </trkpt>
      <trkpt lat="43.50925" lon="5.83159">
        <ele>395.20001220703</ele>
        <time>2021-01-31T08:05:42.000Z</time>
      </trkpt>
      <trkpt lat="43.50924" lon="5.83157">
        <ele>395</ele>
        <time>2021-01-31T08:05:43.000Z</time>
      </trkpt>
      <trkpt lat="43.50922" lon="5.83148">
        <ele>394.79998779297</ele>
        <time>2021-01-31T08:05:45.000Z</time>
      </trkpt>
      <trkpt lat="43.50923" lon="5.83144">
        <ele>394.79998779297</ele>
        <time>2021-01-31T08:05:46.000Z</time>
      </trkpt>
      <trkpt lat="43.50928" lon="5.8311">
        <ele>394.20001220703</ele>
        <time>2021-01-31T08:05:53.000Z</time>
      </trkpt>
      <trkpt lat="43.50935" lon="5.83096">
        <ele>393.79998779297</ele>
        <time>2021-01-31T08:05:57.000Z</time>
      </trkpt>
      <trkpt lat="43.50939" lon="5.83089">
        <ele>393.60000610352</ele>
        <time>2021-01-31T08:05:59.000Z</time>
      </trkpt>
      <trkpt lat="43.50938" lon="5.83068">
        <ele>393.20001220703</ele>
        <time>2021-01-31T08:06:04.000Z</time>
      </trkpt>
      <trkpt lat="43.5093" lon="5.83048">
        <ele>392.79998779297</ele>
        <time>2021-01-31T08:06:09.000Z</time>
      </trkpt>
      <trkpt lat="43.50916" lon="5.83033">
        <ele>392.39999389648</ele>
        <time>2021-01-31T08:06:14.000Z</time>
      </trkpt>
      <trkpt lat="43.50899" lon="5.8302">
        <ele>392</ele>
        <time>2021-01-31T08:06:19.000Z</time>
      </trkpt>
      <trkpt lat="43.5089" lon="5.83011">
        <ele>391.79998779297</ele>
        <time>2021-01-31T08:06:22.000Z</time>
      </trkpt>
      <trkpt lat="43.5088" lon="5.83002">
        <ele>391.39999389648</ele>
        <time>2021-01-31T08:06:26.000Z</time>
      </trkpt>
      <trkpt lat="43.50867" lon="5.82993">
        <ele>391</ele>
        <time>2021-01-31T08:06:31.000Z</time>
      </trkpt>
      <trkpt lat="43.5086" lon="5.82991">
        <ele>390.79998779297</ele>
        <time>2021-01-31T08:06:34.000Z</time>
      </trkpt>
      <trkpt lat="43.50858" lon="5.82991">
        <ele>390.60000610352</ele>
        <time>2021-01-31T08:06:35.000Z</time>
      </trkpt>
      <trkpt lat="43.50845" lon="5.82996">
        <ele>390.20001220703</ele>
        <time>2021-01-31T08:06:40.000Z</time>
      </trkpt>
      <trkpt lat="43.50828" lon="5.83002">
        <ele>389.79998779297</ele>
        <time>2021-01-31T08:06:46.000Z</time>
      </trkpt>
      <trkpt lat="43.50825" lon="5.83002">
        <ele>389.60000610352</ele>
        <time>2021-01-31T08:06:47.000Z</time>
      </trkpt>
      <trkpt lat="43.50805" lon="5.83005">
        <ele>389</ele>
        <time>2021-01-31T08:06:54.000Z</time>
      </trkpt>
      <trkpt lat="43.50794" lon="5.83003">
        <ele>388.60000610352</ele>
        <time>2021-01-31T08:06:58.000Z</time>
      </trkpt>
      <trkpt lat="43.50786" lon="5.83">
        <ele>388.39999389648</ele>
        <time>2021-01-31T08:07:01.000Z</time>
      </trkpt>
      <trkpt lat="43.5077" lon="5.8299">
        <ele>388</ele>
        <time>2021-01-31T08:07:06.000Z</time>
      </trkpt>
      <trkpt lat="43.50756" lon="5.82982">
        <ele>387.60000610352</ele>
        <time>2021-01-31T08:07:10.000Z</time>
      </trkpt>
      <trkpt lat="43.50744" lon="5.82971">
        <ele>387.20001220703</ele>
        <time>2021-01-31T08:07:14.000Z</time>
      </trkpt>
      <trkpt lat="43.5074" lon="5.82968">
        <ele>387.20001220703</ele>
        <time>2021-01-31T08:07:15.000Z</time>
      </trkpt>
      <trkpt lat="43.50736" lon="5.82964">
        <ele>387</ele>
        <time>2021-01-31T08:07:17.000Z</time>
      </trkpt>
      <trkpt lat="43.50719" lon="5.82954">
        <ele>386.60000610352</ele>
        <time>2021-01-31T08:07:23.000Z</time>
      </trkpt>
      <trkpt lat="43.50717" lon="5.82954">
        <ele>386.60000610352</ele>
        <time>2021-01-31T08:07:24.000Z</time>
      </trkpt>
      <trkpt lat="43.50703" lon="5.82955">
        <ele>386</ele>
        <time>2021-01-31T08:07:30.000Z</time>
      </trkpt>
      <trkpt lat="43.50684" lon="5.82961">
        <ele>385.79998779297</ele>
        <time>2021-01-31T08:07:35.000Z</time>
      </trkpt>
      <trkpt lat="43.50669" lon="5.82964">
        <ele>385.60000610352</ele>
        <time>2021-01-31T08:07:38.000Z</time>
      </trkpt>
      <trkpt lat="43.50655" lon="5.82966">
        <ele>385.20001220703</ele>
        <time>2021-01-31T08:07:42.000Z</time>
      </trkpt>
      <trkpt lat="43.50642" lon="5.8297">
        <ele>385</ele>
        <time>2021-01-31T08:07:46.000Z</time>
      </trkpt>
      <trkpt lat="43.50635" lon="5.82976">
        <ele>384.79998779297</ele>
        <time>2021-01-31T08:07:49.000Z</time>
      </trkpt>
      <trkpt lat="43.5062" lon="5.82983">
        <ele>384.39999389648</ele>
        <time>2021-01-31T08:07:54.000Z</time>
      </trkpt>
      <trkpt lat="43.50615" lon="5.82985">
        <ele>384.39999389648</ele>
        <time>2021-01-31T08:07:56.000Z</time>
      </trkpt>
      <trkpt lat="43.50606" lon="5.82992">
        <ele>384</ele>
        <time>2021-01-31T08:08:02.000Z</time>
      </trkpt>
      <trkpt lat="43.50605" lon="5.82995">
        <ele>383.79998779297</ele>
        <time>2021-01-31T08:08:04.000Z</time>
      </trkpt>
      <trkpt lat="43.50605" lon="5.83004">
        <ele>383.60000610352</ele>
        <time>2021-01-31T08:08:08.000Z</time>
      </trkpt>
      <trkpt lat="43.50606" lon="5.83009">
        <ele>383.39999389648</ele>
        <time>2021-01-31T08:08:10.000Z</time>
      </trkpt>
      <trkpt lat="43.50606" lon="5.8302">
        <ele>383.20001220703</ele>
        <time>2021-01-31T08:08:14.000Z</time>
      </trkpt>
      <trkpt lat="43.50605" lon="5.83025">
        <ele>379.20001220703</ele>
        <time>2021-01-31T08:08:16.000Z</time>
      </trkpt>
      <trkpt lat="43.50605" lon="5.83027">
        <ele>377.20001220703</ele>
        <time>2021-01-31T08:08:17.000Z</time>
      </trkpt>
      <trkpt lat="43.50605" lon="5.8303">
        <ele>376.20001220703</ele>
        <time>2021-01-31T08:08:18.000Z</time>
      </trkpt>
      <trkpt lat="43.50604" lon="5.83035">
        <ele>375.20001220703</ele>
        <time>2021-01-31T08:08:20.000Z</time>
      </trkpt>
      <trkpt lat="43.50603" lon="5.83037">
        <ele>374.79998779297</ele>
        <time>2021-01-31T08:08:21.000Z</time>
      </trkpt>
      <trkpt lat="43.50603" lon="5.8304">
        <ele>374.60000610352</ele>
        <time>2021-01-31T08:08:22.000Z</time>
      </trkpt>
      <trkpt lat="43.506" lon="5.83045">
        <ele>374.39999389648</ele>
        <time>2021-01-31T08:08:24.000Z</time>
      </trkpt>
      <trkpt lat="43.506" lon="5.83048">
        <ele>374.39999389648</ele>
        <time>2021-01-31T08:08:25.000Z</time>
      </trkpt>
      <trkpt lat="43.50596" lon="5.83055">
        <ele>374.20001220703</ele>
        <time>2021-01-31T08:08:27.000Z</time>
      </trkpt>
      <trkpt lat="43.50591" lon="5.83065">
        <ele>374</ele>
        <time>2021-01-31T08:08:30.000Z</time>
      </trkpt>
      <trkpt lat="43.5059" lon="5.83077">
        <ele>373.20001220703</ele>
        <time>2021-01-31T08:08:33.000Z</time>
      </trkpt>
      <trkpt lat="43.50587" lon="5.83086">
        <ele>373</ele>
        <time>2021-01-31T08:08:36.000Z</time>
      </trkpt>
      <trkpt lat="43.50586" lon="5.83089">
        <ele>372.79998779297</ele>
        <time>2021-01-31T08:08:37.000Z</time>
      </trkpt>
      <trkpt lat="43.50585" lon="5.83093">
        <ele>372.79998779297</ele>
        <time>2021-01-31T08:08:38.000Z</time>
      </trkpt>
      <trkpt lat="43.50584" lon="5.83101">
        <ele>372.39999389648</ele>
        <time>2021-01-31T08:08:40.000Z</time>
      </trkpt>
      <trkpt lat="43.50581" lon="5.83107">
        <ele>372.20001220703</ele>
        <time>2021-01-31T08:08:42.000Z</time>
      </trkpt>
      <trkpt lat="43.50579" lon="5.83114">
        <ele>372</ele>
        <time>2021-01-31T08:08:44.000Z</time>
      </trkpt>
      <trkpt lat="43.50576" lon="5.83126">
        <ele>371.79998779297</ele>
        <time>2021-01-31T08:08:47.000Z</time>
      </trkpt>
      <trkpt lat="43.50572" lon="5.83138">
        <ele>371.39999389648</ele>
        <time>2021-01-31T08:08:50.000Z</time>
      </trkpt>
      <trkpt lat="43.50568" lon="5.83161">
        <ele>370.79998779297</ele>
        <time>2021-01-31T08:08:55.000Z</time>
      </trkpt>
      <trkpt lat="43.50566" lon="5.83166">
        <ele>370.79998779297</ele>
        <time>2021-01-31T08:08:56.000Z</time>
      </trkpt>
      <trkpt lat="43.5056" lon="5.83183">
        <ele>370</ele>
        <time>2021-01-31T08:09:00.000Z</time>
      </trkpt>
      <trkpt lat="43.50555" lon="5.83191">
        <ele>369.79998779297</ele>
        <time>2021-01-31T08:09:02.000Z</time>
      </trkpt>
      <trkpt lat="43.50548" lon="5.83193">
        <ele>369.60000610352</ele>
        <time>2021-01-31T08:09:04.000Z</time>
      </trkpt>
      <trkpt lat="43.50533" lon="5.83197">
        <ele>369.39999389648</ele>
        <time>2021-01-31T08:09:08.000Z</time>
      </trkpt>
      <trkpt lat="43.50512" lon="5.83192">
        <ele>368.79998779297</ele>
        <time>2021-01-31T08:09:14.000Z</time>
      </trkpt>
      <trkpt lat="43.50506" lon="5.83187">
        <ele>368.79998779297</ele>
        <time>2021-01-31T08:09:16.000Z</time>
      </trkpt>
      <trkpt lat="43.50497" lon="5.83177">
        <ele>368.39999389648</ele>
        <time>2021-01-31T08:09:19.000Z</time>
      </trkpt>
      <trkpt lat="43.50494" lon="5.83153">
        <ele>368</ele>
        <time>2021-01-31T08:09:24.000Z</time>
      </trkpt>
      <trkpt lat="43.50502" lon="5.83134">
        <ele>367.79998779297</ele>
        <time>2021-01-31T08:09:29.000Z</time>
      </trkpt>
      <trkpt lat="43.50515" lon="5.83116">
        <ele>367.60000610352</ele>
        <time>2021-01-31T08:09:35.000Z</time>
      </trkpt>
      <trkpt lat="43.50528" lon="5.83091">
        <ele>366.60000610352</ele>
        <time>2021-01-31T08:09:42.000Z</time>
      </trkpt>
      <trkpt lat="43.50527" lon="5.83085">
        <ele>366.60000610352</ele>
        <time>2021-01-31T08:09:43.000Z</time>
      </trkpt>
      <trkpt lat="43.50521" lon="5.83066">
        <ele>366.39999389648</ele>
        <time>2021-01-31T08:09:47.000Z</time>
      </trkpt>
      <trkpt lat="43.50506" lon="5.83049">
        <ele>365.79998779297</ele>
        <time>2021-01-31T08:09:52.000Z</time>
      </trkpt>
      <trkpt lat="43.50503" lon="5.83046">
        <ele>365.60000610352</ele>
        <time>2021-01-31T08:09:53.000Z</time>
      </trkpt>
      <trkpt lat="43.50495" lon="5.83042">
        <ele>365.60000610352</ele>
        <time>2021-01-31T08:09:55.000Z</time>
      </trkpt>
      <trkpt lat="43.50483" lon="5.83034">
        <ele>365.20001220703</ele>
        <time>2021-01-31T08:09:59.000Z</time>
      </trkpt>
      <trkpt lat="43.50463" lon="5.83017">
        <ele>364.79998779297</ele>
        <time>2021-01-31T08:10:05.000Z</time>
      </trkpt>
      <trkpt lat="43.50449" lon="5.83006">
        <ele>364.39999389648</ele>
        <time>2021-01-31T08:10:09.000Z</time>
      </trkpt>
      <trkpt lat="43.50442" lon="5.83">
        <ele>364.20001220703</ele>
        <time>2021-01-31T08:10:11.000Z</time>
      </trkpt>
      <trkpt lat="43.50426" lon="5.82984">
        <ele>363.79998779297</ele>
        <time>2021-01-31T08:10:16.000Z</time>
      </trkpt>
      <trkpt lat="43.50422" lon="5.82982">
        <ele>363.79998779297</ele>
        <time>2021-01-31T08:10:17.000Z</time>
      </trkpt>
      <trkpt lat="43.50417" lon="5.82975">
        <ele>363.20001220703</ele>
        <time>2021-01-31T08:10:19.000Z</time>
      </trkpt>
      <trkpt lat="43.50408" lon="5.82964">
        <ele>362.60000610352</ele>
        <time>2021-01-31T08:10:22.000Z</time>
      </trkpt>
      <trkpt lat="43.50392" lon="5.82947">
        <ele>362.20001220703</ele>
        <time>2021-01-31T08:10:27.000Z</time>
      </trkpt>
      <trkpt lat="43.50384" lon="5.82936">
        <ele>362</ele>
        <time>2021-01-31T08:10:30.000Z</time>
      </trkpt>
      <trkpt lat="43.5037" lon="5.82917">
        <ele>362</ele>
        <time>2021-01-31T08:10:35.000Z</time>
      </trkpt>
      <trkpt lat="43.50363" lon="5.82904">
        <ele>362.20001220703</ele>
        <time>2021-01-31T08:10:38.000Z</time>
      </trkpt>
      <trkpt lat="43.50353" lon="5.8288">
        <ele>361.79998779297</ele>
        <time>2021-01-31T08:10:44.000Z</time>
      </trkpt>
      <trkpt lat="43.50337" lon="5.82861">
        <ele>361.39999389648</ele>
        <time>2021-01-31T08:10:50.000Z</time>
      </trkpt>
      <trkpt lat="43.50325" lon="5.82845">
        <ele>361.20001220703</ele>
        <time>2021-01-31T08:10:56.000Z</time>
      </trkpt>
      <trkpt lat="43.50313" lon="5.82834">
        <ele>361.20001220703</ele>
        <time>2021-01-31T08:11:02.000Z</time>
      </trkpt>
      <trkpt lat="43.503" lon="5.82822">
        <ele>361.20001220703</ele>
        <time>2021-01-31T08:11:08.000Z</time>
      </trkpt>
      <trkpt lat="43.50294" lon="5.82817">
        <ele>361.20001220703</ele>
        <time>2021-01-31T08:11:11.000Z</time>
      </trkpt>
      <trkpt lat="43.50287" lon="5.82812">
        <ele>361.39999389648</ele>
        <time>2021-01-31T08:11:14.000Z</time>
      </trkpt>
      <trkpt lat="43.50276" lon="5.82801">
        <ele>361.60000610352</ele>
        <time>2021-01-31T08:11:18.000Z</time>
      </trkpt>
      <trkpt lat="43.50274" lon="5.82799">
        <ele>361.60000610352</ele>
        <time>2021-01-31T08:11:20.000Z</time>
      </trkpt>
      <trkpt lat="43.5026" lon="5.82787">
        <ele>362.20001220703</ele>
        <time>2021-01-31T08:11:26.000Z</time>
      </trkpt>
      <trkpt lat="43.50257" lon="5.82786">
        <ele>362.39999389648</ele>
        <time>2021-01-31T08:11:27.000Z</time>
      </trkpt>
      <trkpt lat="43.50255" lon="5.82785">
        <ele>362.60000610352</ele>
        <time>2021-01-31T08:11:28.000Z</time>
      </trkpt>
      <trkpt lat="43.50253" lon="5.82784">
        <ele>362.79998779297</ele>
        <time>2021-01-31T08:11:29.000Z</time>
      </trkpt>
      <trkpt lat="43.50251" lon="5.82783">
        <ele>363</ele>
        <time>2021-01-31T08:11:30.000Z</time>
      </trkpt>
      <trkpt lat="43.50248" lon="5.82782">
        <ele>363.39999389648</ele>
        <time>2021-01-31T08:11:31.000Z</time>
      </trkpt>
      <trkpt lat="43.50242" lon="5.8278">
        <ele>363.60000610352</ele>
        <time>2021-01-31T08:11:33.000Z</time>
      </trkpt>
      <trkpt lat="43.50234" lon="5.82777">
        <ele>364</ele>
        <time>2021-01-31T08:11:36.000Z</time>
      </trkpt>
      <trkpt lat="43.50225" lon="5.8277">
        <ele>364.60000610352</ele>
        <time>2021-01-31T08:11:39.000Z</time>
      </trkpt>
      <trkpt lat="43.50209" lon="5.8276">
        <ele>365</ele>
        <time>2021-01-31T08:11:45.000Z</time>
      </trkpt>
      <trkpt lat="43.50203" lon="5.82758">
        <ele>365.20001220703</ele>
        <time>2021-01-31T08:11:47.000Z</time>
      </trkpt>
      <trkpt lat="43.50194" lon="5.82755">
        <ele>365.60000610352</ele>
        <time>2021-01-31T08:11:50.000Z</time>
      </trkpt>
      <trkpt lat="43.50183" lon="5.82754">
        <ele>366.39999389648</ele>
        <time>2021-01-31T08:11:54.000Z</time>
      </trkpt>
      <trkpt lat="43.5018" lon="5.82753">
        <ele>366.60000610352</ele>
        <time>2021-01-31T08:11:55.000Z</time>
      </trkpt>
      <trkpt lat="43.50166" lon="5.82752">
        <ele>367.39999389648</ele>
        <time>2021-01-31T08:12:00.000Z</time>
      </trkpt>
      <trkpt lat="43.50163" lon="5.82752">
        <ele>367.60000610352</ele>
        <time>2021-01-31T08:12:01.000Z</time>
      </trkpt>
      <trkpt lat="43.5016" lon="5.82752">
        <ele>367.79998779297</ele>
        <time>2021-01-31T08:12:02.000Z</time>
      </trkpt>
      <trkpt lat="43.50158" lon="5.82752">
        <ele>368</ele>
        <time>2021-01-31T08:12:03.000Z</time>
      </trkpt>
      <trkpt lat="43.50155" lon="5.82752">
        <ele>368.20001220703</ele>
        <time>2021-01-31T08:12:04.000Z</time>
      </trkpt>
      <trkpt lat="43.50152" lon="5.82752">
        <ele>368.20001220703</ele>
        <time>2021-01-31T08:12:05.000Z</time>
      </trkpt>
      <trkpt lat="43.50148" lon="5.82753">
        <ele>368.20001220703</ele>
        <time>2021-01-31T08:12:07.000Z</time>
      </trkpt>
      <trkpt lat="43.50144" lon="5.82755">
        <ele>368.20001220703</ele>
        <time>2021-01-31T08:12:09.000Z</time>
      </trkpt>
      <trkpt lat="43.50135" lon="5.82761">
        <ele>368.39999389648</ele>
        <time>2021-01-31T08:12:12.000Z</time>
      </trkpt>
      <trkpt lat="43.50127" lon="5.82769">
        <ele>368.79998779297</ele>
        <time>2021-01-31T08:12:15.000Z</time>
      </trkpt>
      <trkpt lat="43.50117" lon="5.82778">
        <ele>368.79998779297</ele>
        <time>2021-01-31T08:12:18.000Z</time>
      </trkpt>
      <trkpt lat="43.50095" lon="5.82782">
        <ele>368</ele>
        <time>2021-01-31T08:12:23.000Z</time>
      </trkpt>
      <trkpt lat="43.50076" lon="5.82778">
        <ele>367.79998779297</ele>
        <time>2021-01-31T08:12:28.000Z</time>
      </trkpt>
      <trkpt lat="43.50072" lon="5.82778">
        <ele>367.79998779297</ele>
        <time>2021-01-31T08:12:29.000Z</time>
      </trkpt>
      <trkpt lat="43.50068" lon="5.82778">
        <ele>367.79998779297</ele>
        <time>2021-01-31T08:12:30.000Z</time>
      </trkpt>
      <trkpt lat="43.50053" lon="5.82782">
        <ele>367.20001220703</ele>
        <time>2021-01-31T08:12:34.000Z</time>
      </trkpt>
      <trkpt lat="43.50045" lon="5.82788">
        <ele>366.60000610352</ele>
        <time>2021-01-31T08:12:36.000Z</time>
      </trkpt>
      <trkpt lat="43.50037" lon="5.82796">
        <ele>366</ele>
        <time>2021-01-31T08:12:38.000Z</time>
      </trkpt>
      <trkpt lat="43.50025" lon="5.82813">
        <ele>365.39999389648</ele>
        <time>2021-01-31T08:12:42.000Z</time>
      </trkpt>
      <trkpt lat="43.50018" lon="5.82821">
        <ele>365.39999389648</ele>
        <time>2021-01-31T08:12:44.000Z</time>
      </trkpt>
      <trkpt lat="43.50014" lon="5.82824">
        <ele>365.39999389648</ele>
        <time>2021-01-31T08:12:45.000Z</time>
      </trkpt>
      <trkpt lat="43.49997" lon="5.8283">
        <ele>365.39999389648</ele>
        <time>2021-01-31T08:12:49.000Z</time>
      </trkpt>
      <trkpt lat="43.49989" lon="5.82833">
        <ele>365.60000610352</ele>
        <time>2021-01-31T08:12:51.000Z</time>
      </trkpt>
      <trkpt lat="43.49985" lon="5.82834">
        <ele>365.60000610352</ele>
        <time>2021-01-31T08:12:52.000Z</time>
      </trkpt>
      <trkpt lat="43.49969" lon="5.82841">
        <ele>365.39999389648</ele>
        <time>2021-01-31T08:12:57.000Z</time>
      </trkpt>
      <trkpt lat="43.49952" lon="5.8285">
        <ele>365.60000610352</ele>
        <time>2021-01-31T08:13:03.000Z</time>
      </trkpt>
      <trkpt lat="43.49941" lon="5.82856">
        <ele>366</ele>
        <time>2021-01-31T08:13:06.000Z</time>
      </trkpt>
      <trkpt lat="43.49924" lon="5.82866">
        <ele>365.79998779297</ele>
        <time>2021-01-31T08:13:08.000Z</time>
      </trkpt>
      <trkpt lat="43.49897" lon="5.82876">
        <ele>364.20001220703</ele>
        <time>2021-01-31T08:13:13.000Z</time>
      </trkpt>
      <trkpt lat="43.49893" lon="5.82878">
        <ele>364</ele>
        <time>2021-01-31T08:13:14.000Z</time>
      </trkpt>
      <trkpt lat="43.49888" lon="5.8288">
        <ele>363.79998779297</ele>
        <time>2021-01-31T08:13:15.000Z</time>
      </trkpt>
      <trkpt lat="43.49873" lon="5.82889">
        <ele>364</ele>
        <time>2021-01-31T08:13:18.000Z</time>
      </trkpt>
      <trkpt lat="43.49848" lon="5.829">
        <ele>365</ele>
        <time>2021-01-31T08:13:24.000Z</time>
      </trkpt>
      <trkpt lat="43.49841" lon="5.82901">
        <ele>365.39999389648</ele>
        <time>2021-01-31T08:13:26.000Z</time>
      </trkpt>
      <trkpt lat="43.49821" lon="5.8291">
        <ele>365.79998779297</ele>
        <time>2021-01-31T08:13:31.000Z</time>
      </trkpt>
      <trkpt lat="43.49813" lon="5.82914">
        <ele>365.79998779297</ele>
        <time>2021-01-31T08:13:33.000Z</time>
      </trkpt>
      <trkpt lat="43.49803" lon="5.82916">
        <ele>365.79998779297</ele>
        <time>2021-01-31T08:13:35.000Z</time>
      </trkpt>
      <trkpt lat="43.49798" lon="5.82917">
        <ele>365.79998779297</ele>
        <time>2021-01-31T08:13:36.000Z</time>
      </trkpt>
      <trkpt lat="43.49793" lon="5.82917">
        <ele>365.79998779297</ele>
        <time>2021-01-31T08:13:37.000Z</time>
      </trkpt>
      <trkpt lat="43.49789" lon="5.82917">
        <ele>365.79998779297</ele>
        <time>2021-01-31T08:13:38.000Z</time>
      </trkpt>
      <trkpt lat="43.49784" lon="5.82917">
        <ele>365.60000610352</ele>
        <time>2021-01-31T08:13:39.000Z</time>
      </trkpt>
      <trkpt lat="43.49768" lon="5.82917">
        <ele>365</ele>
        <time>2021-01-31T08:13:42.000Z</time>
      </trkpt>
      <trkpt lat="43.49748" lon="5.82924">
        <ele>364.20001220703</ele>
        <time>2021-01-31T08:13:46.000Z</time>
      </trkpt>
      <trkpt lat="43.49743" lon="5.82925">
        <ele>364</ele>
        <time>2021-01-31T08:13:47.000Z</time>
      </trkpt>
      <trkpt lat="43.49739" lon="5.82924">
        <ele>364</ele>
        <time>2021-01-31T08:13:48.000Z</time>
      </trkpt>
      <trkpt lat="43.49729" lon="5.82919">
        <ele>363.79998779297</ele>
        <time>2021-01-31T08:13:50.000Z</time>
      </trkpt>
      <trkpt lat="43.49724" lon="5.82915">
        <ele>363.79998779297</ele>
        <time>2021-01-31T08:13:51.000Z</time>
      </trkpt>
      <trkpt lat="43.49709" lon="5.82905">
        <ele>363.39999389648</ele>
        <time>2021-01-31T08:13:54.000Z</time>
      </trkpt>
      <trkpt lat="43.49699" lon="5.82899">
        <ele>363</ele>
        <time>2021-01-31T08:13:56.000Z</time>
      </trkpt>
      <trkpt lat="43.49694" lon="5.82896">
        <ele>362.79998779297</ele>
        <time>2021-01-31T08:13:57.000Z</time>
      </trkpt>
      <trkpt lat="43.49685" lon="5.82894">
        <ele>362.60000610352</ele>
        <time>2021-01-31T08:13:59.000Z</time>
      </trkpt>
      <trkpt lat="43.4967" lon="5.82893">
        <ele>362.39999389648</ele>
        <time>2021-01-31T08:14:02.000Z</time>
      </trkpt>
      <trkpt lat="43.49657" lon="5.82892">
        <ele>362</ele>
        <time>2021-01-31T08:14:05.000Z</time>
      </trkpt>
      <trkpt lat="43.49645" lon="5.82892">
        <ele>361.79998779297</ele>
        <time>2021-01-31T08:14:08.000Z</time>
      </trkpt>
      <trkpt lat="43.49618" lon="5.82892">
        <ele>361</ele>
        <time>2021-01-31T08:14:14.000Z</time>
      </trkpt>
      <trkpt lat="43.49613" lon="5.82892">
        <ele>360.60000610352</ele>
        <time>2021-01-31T08:14:15.000Z</time>
      </trkpt>
      <trkpt lat="43.496" lon="5.82895">
        <ele>359.79998779297</ele>
        <time>2021-01-31T08:14:18.000Z</time>
      </trkpt>
      <trkpt lat="43.49587" lon="5.82897">
        <ele>359</ele>
        <time>2021-01-31T08:14:21.000Z</time>
      </trkpt>
      <trkpt lat="43.49576" lon="5.82899">
        <ele>358.39999389648</ele>
        <time>2021-01-31T08:14:23.000Z</time>
      </trkpt>
      <trkpt lat="43.4956" lon="5.82903">
        <ele>357.60000610352</ele>
        <time>2021-01-31T08:14:26.000Z</time>
      </trkpt>
      <trkpt lat="43.49554" lon="5.82904">
        <ele>357.39999389648</ele>
        <time>2021-01-31T08:14:27.000Z</time>
      </trkpt>
      <trkpt lat="43.49549" lon="5.82905">
        <ele>357.20001220703</ele>
        <time>2021-01-31T08:14:28.000Z</time>
      </trkpt>
      <trkpt lat="43.49531" lon="5.82906">
        <ele>356.20001220703</ele>
        <time>2021-01-31T08:14:32.000Z</time>
      </trkpt>
      <trkpt lat="43.49527" lon="5.82906">
        <ele>355.79998779297</ele>
        <time>2021-01-31T08:14:33.000Z</time>
      </trkpt>
      <trkpt lat="43.49519" lon="5.82902">
        <ele>355</ele>
        <time>2021-01-31T08:14:35.000Z</time>
      </trkpt>
      <trkpt lat="43.49516" lon="5.82898">
        <ele>354.60000610352</ele>
        <time>2021-01-31T08:14:36.000Z</time>
      </trkpt>
      <trkpt lat="43.49511" lon="5.82889">
        <ele>353.39999389648</ele>
        <time>2021-01-31T08:14:38.000Z</time>
      </trkpt>
      <trkpt lat="43.49503" lon="5.82885">
        <ele>352.39999389648</ele>
        <time>2021-01-31T08:14:40.000Z</time>
      </trkpt>
      <trkpt lat="43.49498" lon="5.82884">
        <ele>352</ele>
        <time>2021-01-31T08:14:41.000Z</time>
      </trkpt>
      <trkpt lat="43.49488" lon="5.82883">
        <ele>351.20001220703</ele>
        <time>2021-01-31T08:14:43.000Z</time>
      </trkpt>
      <trkpt lat="43.49478" lon="5.82878">
        <ele>350.39999389648</ele>
        <time>2021-01-31T08:14:45.000Z</time>
      </trkpt>
      <trkpt lat="43.49473" lon="5.82874">
        <ele>350</ele>
        <time>2021-01-31T08:14:46.000Z</time>
      </trkpt>
      <trkpt lat="43.49463" lon="5.82863">
        <ele>348.79998779297</ele>
        <time>2021-01-31T08:14:48.000Z</time>
      </trkpt>
      <trkpt lat="43.49453" lon="5.8285">
        <ele>347.79998779297</ele>
        <time>2021-01-31T08:14:50.000Z</time>
      </trkpt>
      <trkpt lat="43.49448" lon="5.82844">
        <ele>347.20001220703</ele>
        <time>2021-01-31T08:14:51.000Z</time>
      </trkpt>
      <trkpt lat="43.49444" lon="5.82837">
        <ele>346</ele>
        <time>2021-01-31T08:14:52.000Z</time>
      </trkpt>
      <trkpt lat="43.49439" lon="5.8283">
        <ele>344.60000610352</ele>
        <time>2021-01-31T08:14:53.000Z</time>
      </trkpt>
      <trkpt lat="43.49433" lon="5.82824">
        <ele>343.20001220703</ele>
        <time>2021-01-31T08:14:54.000Z</time>
      </trkpt>
      <trkpt lat="43.49428" lon="5.82817">
        <ele>341.79998779297</ele>
        <time>2021-01-31T08:14:55.000Z</time>
      </trkpt>
      <trkpt lat="43.49422" lon="5.82809">
        <ele>340.79998779297</ele>
        <time>2021-01-31T08:14:56.000Z</time>
      </trkpt>
      <trkpt lat="43.49416" lon="5.82801">
        <ele>339.79998779297</ele>
        <time>2021-01-31T08:14:57.000Z</time>
      </trkpt>
      <trkpt lat="43.4941" lon="5.82794">
        <ele>338.39999389648</ele>
        <time>2021-01-31T08:14:58.000Z</time>
      </trkpt>
      <trkpt lat="43.49403" lon="5.82786">
        <ele>337.20001220703</ele>
        <time>2021-01-31T08:14:59.000Z</time>
      </trkpt>
      <trkpt lat="43.49389" lon="5.82769">
        <ele>335.79998779297</ele>
        <time>2021-01-31T08:15:01.000Z</time>
      </trkpt>
      <trkpt lat="43.49382" lon="5.82762">
        <ele>334.79998779297</ele>
        <time>2021-01-31T08:15:02.000Z</time>
      </trkpt>
      <trkpt lat="43.49375" lon="5.82755">
        <ele>333.20001220703</ele>
        <time>2021-01-31T08:15:03.000Z</time>
      </trkpt>
      <trkpt lat="43.49369" lon="5.82751">
        <ele>332</ele>
        <time>2021-01-31T08:15:04.000Z</time>
      </trkpt>
      <trkpt lat="43.49363" lon="5.82747">
        <ele>331</ele>
        <time>2021-01-31T08:15:05.000Z</time>
      </trkpt>
      <trkpt lat="43.49358" lon="5.82745">
        <ele>330</ele>
        <time>2021-01-31T08:15:06.000Z</time>
      </trkpt>
      <trkpt lat="43.49348" lon="5.82745">
        <ele>327.79998779297</ele>
        <time>2021-01-31T08:15:07.000Z</time>
      </trkpt>
      <trkpt lat="43.49348" lon="5.82745">
        <ele>327.79998779297</ele>
        <time>2021-01-31T08:15:08.000Z</time>
      </trkpt>
      <trkpt lat="43.49344" lon="5.82746">
        <ele>326.79998779297</ele>
        <time>2021-01-31T08:15:09.000Z</time>
      </trkpt>
      <trkpt lat="43.4934" lon="5.82746">
        <ele>326.20001220703</ele>
        <time>2021-01-31T08:15:10.000Z</time>
      </trkpt>
      <trkpt lat="43.49327" lon="5.82748">
        <ele>325.60000610352</ele>
        <time>2021-01-31T08:15:13.000Z</time>
      </trkpt>
      <trkpt lat="43.49314" lon="5.82738">
        <ele>325.60000610352</ele>
        <time>2021-01-31T08:15:17.000Z</time>
      </trkpt>
      <trkpt lat="43.49311" lon="5.82734">
        <ele>325.39999389648</ele>
        <time>2021-01-31T08:15:18.000Z</time>
      </trkpt>
      <trkpt lat="43.49305" lon="5.82728">
        <ele>325</ele>
        <time>2021-01-31T08:15:20.000Z</time>
      </trkpt>
      <trkpt lat="43.49301" lon="5.82728">
        <ele>324.79998779297</ele>
        <time>2021-01-31T08:15:21.000Z</time>
      </trkpt>
      <trkpt lat="43.49288" lon="5.8274">
        <ele>324</ele>
        <time>2021-01-31T08:15:25.000Z</time>
      </trkpt>
      <trkpt lat="43.49285" lon="5.82744">
        <ele>324</ele>
        <time>2021-01-31T08:15:26.000Z</time>
      </trkpt>
      <trkpt lat="43.49266" lon="5.82763">
        <ele>324.20001220703</ele>
        <time>2021-01-31T08:15:32.000Z</time>
      </trkpt>
      <trkpt lat="43.4925" lon="5.82777">
        <ele>324.39999389648</ele>
        <time>2021-01-31T08:15:37.000Z</time>
      </trkpt>
      <trkpt lat="43.49247" lon="5.8278">
        <ele>324.39999389648</ele>
        <time>2021-01-31T08:15:38.000Z</time>
      </trkpt>
      <trkpt lat="43.49236" lon="5.82787">
        <ele>324</ele>
        <time>2021-01-31T08:15:41.000Z</time>
      </trkpt>
      <trkpt lat="43.49225" lon="5.82797">
        <ele>323.39999389648</ele>
        <time>2021-01-31T08:15:44.000Z</time>
      </trkpt>
      <trkpt lat="43.49221" lon="5.828">
        <ele>323.20001220703</ele>
        <time>2021-01-31T08:15:45.000Z</time>
      </trkpt>
      <trkpt lat="43.49216" lon="5.82803">
        <ele>323.20001220703</ele>
        <time>2021-01-31T08:15:46.000Z</time>
      </trkpt>
      <trkpt lat="43.49212" lon="5.82806">
        <ele>323</ele>
        <time>2021-01-31T08:15:47.000Z</time>
      </trkpt>
      <trkpt lat="43.49208" lon="5.82808">
        <ele>322.79998779297</ele>
        <time>2021-01-31T08:15:48.000Z</time>
      </trkpt>
      <trkpt lat="43.49199" lon="5.82811">
        <ele>322.60000610352</ele>
        <time>2021-01-31T08:15:50.000Z</time>
      </trkpt>
      <trkpt lat="43.4919" lon="5.82813">
        <ele>322.20001220703</ele>
        <time>2021-01-31T08:15:52.000Z</time>
      </trkpt>
      <trkpt lat="43.49181" lon="5.82815">
        <ele>322</ele>
        <time>2021-01-31T08:15:54.000Z</time>
      </trkpt>
      <trkpt lat="43.49176" lon="5.82816">
        <ele>321.79998779297</ele>
        <time>2021-01-31T08:15:55.000Z</time>
      </trkpt>
      <trkpt lat="43.49167" lon="5.82817">
        <ele>321.60000610352</ele>
        <time>2021-01-31T08:15:57.000Z</time>
      </trkpt>
      <trkpt lat="43.49163" lon="5.82818">
        <ele>321.60000610352</ele>
        <time>2021-01-31T08:15:58.000Z</time>
      </trkpt>
      <trkpt lat="43.49158" lon="5.82818">
        <ele>321.60000610352</ele>
        <time>2021-01-31T08:15:59.000Z</time>
      </trkpt>
      <trkpt lat="43.49126" lon="5.82817">
        <ele>320.60000610352</ele>
        <time>2021-01-31T08:16:05.000Z</time>
      </trkpt>
      <trkpt lat="43.49106" lon="5.82811">
        <ele>319</ele>
        <time>2021-01-31T08:16:07.000Z</time>
      </trkpt>
      <trkpt lat="43.49094" lon="5.82805">
        <ele>318.39999389648</ele>
        <time>2021-01-31T08:16:10.000Z</time>
      </trkpt>
      <trkpt lat="43.49081" lon="5.82799">
        <ele>318</ele>
        <time>2021-01-31T08:16:12.000Z</time>
      </trkpt>
      <trkpt lat="43.49061" lon="5.82791">
        <ele>316.79998779297</ele>
        <time>2021-01-31T08:16:15.000Z</time>
      </trkpt>
      <trkpt lat="43.49054" lon="5.82789">
        <ele>316.60000610352</ele>
        <time>2021-01-31T08:16:16.000Z</time>
      </trkpt>
      <trkpt lat="43.49036" lon="5.82788">
        <ele>316</ele>
        <time>2021-01-31T08:16:19.000Z</time>
      </trkpt>
      <trkpt lat="43.4903" lon="5.8279">
        <ele>315.79998779297</ele>
        <time>2021-01-31T08:16:20.000Z</time>
      </trkpt>
      <trkpt lat="43.49025" lon="5.82792">
        <ele>315.60000610352</ele>
        <time>2021-01-31T08:16:21.000Z</time>
      </trkpt>
      <trkpt lat="43.49006" lon="5.82807">
        <ele>314.79998779297</ele>
        <time>2021-01-31T08:16:25.000Z</time>
      </trkpt>
      <trkpt lat="43.49002" lon="5.8281">
        <ele>314.60000610352</ele>
        <time>2021-01-31T08:16:26.000Z</time>
      </trkpt>
      <trkpt lat="43.48971" lon="5.82825">
        <ele>315</ele>
        <time>2021-01-31T08:16:32.000Z</time>
      </trkpt>
      <trkpt lat="43.48929" lon="5.82831">
        <ele>314.79998779297</ele>
        <time>2021-01-31T08:16:39.000Z</time>
      </trkpt>
      <trkpt lat="43.489" lon="5.82833">
        <ele>314.60000610352</ele>
        <time>2021-01-31T08:16:44.000Z</time>
      </trkpt>
      <trkpt lat="43.48861" lon="5.82834">
        <ele>314.39999389648</ele>
        <time>2021-01-31T08:16:51.000Z</time>
      </trkpt>
      <trkpt lat="43.48824" lon="5.8284">
        <ele>314.60000610352</ele>
        <time>2021-01-31T08:16:58.000Z</time>
      </trkpt>
      <trkpt lat="43.48793" lon="5.82852">
        <ele>314.20001220703</ele>
        <time>2021-01-31T08:17:05.000Z</time>
      </trkpt>
      <trkpt lat="43.48766" lon="5.82863">
        <ele>314.20001220703</ele>
        <time>2021-01-31T08:17:11.000Z</time>
      </trkpt>
      <trkpt lat="43.48754" lon="5.82867">
        <ele>313.60000610352</ele>
        <time>2021-01-31T08:17:12.000Z</time>
      </trkpt>
      <trkpt lat="43.48754" lon="5.82867">
        <ele>313.60000610352</ele>
        <time>2021-01-31T08:17:13.000Z</time>
      </trkpt>
      <trkpt lat="43.48736" lon="5.82877">
        <ele>312.39999389648</ele>
        <time>2021-01-31T08:17:16.000Z</time>
      </trkpt>
      <trkpt lat="43.48709" lon="5.829">
        <ele>312</ele>
        <time>2021-01-31T08:17:21.000Z</time>
      </trkpt>
      <trkpt lat="43.48691" lon="5.82916">
        <ele>312</ele>
        <time>2021-01-31T08:17:25.000Z</time>
      </trkpt>
      <trkpt lat="43.48672" lon="5.82932">
        <ele>312.20001220703</ele>
        <time>2021-01-31T08:17:29.000Z</time>
      </trkpt>
      <trkpt lat="43.48642" lon="5.82952">
        <ele>311.79998779297</ele>
        <time>2021-01-31T08:17:35.000Z</time>
      </trkpt>
      <trkpt lat="43.48635" lon="5.82955">
        <ele>311.60000610352</ele>
        <time>2021-01-31T08:17:36.000Z</time>
      </trkpt>
      <trkpt lat="43.48629" lon="5.82959">
        <ele>311.39999389648</ele>
        <time>2021-01-31T08:17:37.000Z</time>
      </trkpt>
      <trkpt lat="43.48611" lon="5.82967">
        <ele>311</ele>
        <time>2021-01-31T08:17:40.000Z</time>
      </trkpt>
      <trkpt lat="43.48591" lon="5.82975">
        <ele>310.20001220703</ele>
        <time>2021-01-31T08:17:43.000Z</time>
      </trkpt>
      <trkpt lat="43.4857" lon="5.82982">
        <ele>309.20001220703</ele>
        <time>2021-01-31T08:17:46.000Z</time>
      </trkpt>
      <trkpt lat="43.48542" lon="5.82992">
        <ele>308.20001220703</ele>
        <time>2021-01-31T08:17:50.000Z</time>
      </trkpt>
      <trkpt lat="43.48536" lon="5.82997">
        <ele>308</ele>
        <time>2021-01-31T08:17:51.000Z</time>
      </trkpt>
      <trkpt lat="43.48514" lon="5.83016">
        <ele>308.20001220703</ele>
        <time>2021-01-31T08:17:55.000Z</time>
      </trkpt>
      <trkpt lat="43.48509" lon="5.8302">
        <ele>308.39999389648</ele>
        <time>2021-01-31T08:17:56.000Z</time>
      </trkpt>
      <trkpt lat="43.48492" lon="5.83041">
        <ele>309</ele>
        <time>2021-01-31T08:18:00.000Z</time>
      </trkpt>
      <trkpt lat="43.48488" lon="5.83048">
        <ele>309.20001220703</ele>
        <time>2021-01-31T08:18:01.000Z</time>
      </trkpt>
      <trkpt lat="43.48484" lon="5.83054">
        <ele>309.20001220703</ele>
        <time>2021-01-31T08:18:02.000Z</time>
      </trkpt>
      <trkpt lat="43.48462" lon="5.83103">
        <ele>308.20001220703</ele>
        <time>2021-01-31T08:18:09.000Z</time>
      </trkpt>
      <trkpt lat="43.48459" lon="5.83111">
        <ele>308.20001220703</ele>
        <time>2021-01-31T08:18:10.000Z</time>
      </trkpt>
      <trkpt lat="43.48449" lon="5.8314">
        <ele>308</ele>
        <time>2021-01-31T08:18:14.000Z</time>
      </trkpt>
      <trkpt lat="43.48446" lon="5.83145">
        <ele>308</ele>
        <time>2021-01-31T08:18:15.000Z</time>
      </trkpt>
      <trkpt lat="43.48431" lon="5.83161">
        <ele>308.39999389648</ele>
        <time>2021-01-31T08:18:19.000Z</time>
      </trkpt>
      <trkpt lat="43.48427" lon="5.83163">
        <ele>308.60000610352</ele>
        <time>2021-01-31T08:18:20.000Z</time>
      </trkpt>
      <trkpt lat="43.48419" lon="5.83165">
        <ele>309.20001220703</ele>
        <time>2021-01-31T08:18:22.000Z</time>
      </trkpt>
      <trkpt lat="43.48407" lon="5.83164">
        <ele>309.79998779297</ele>
        <time>2021-01-31T08:18:25.000Z</time>
      </trkpt>
      <trkpt lat="43.48398" lon="5.83159">
        <ele>310.20001220703</ele>
        <time>2021-01-31T08:18:27.000Z</time>
      </trkpt>
      <trkpt lat="43.48395" lon="5.83155">
        <ele>310.20001220703</ele>
        <time>2021-01-31T08:18:28.000Z</time>
      </trkpt>
      <trkpt lat="43.48391" lon="5.83151">
        <ele>310.39999389648</ele>
        <time>2021-01-31T08:18:29.000Z</time>
      </trkpt>
      <trkpt lat="43.48372" lon="5.83125">
        <ele>309.60000610352</ele>
        <time>2021-01-31T08:18:34.000Z</time>
      </trkpt>
      <trkpt lat="43.48361" lon="5.83117">
        <ele>309.20001220703</ele>
        <time>2021-01-31T08:18:36.000Z</time>
      </trkpt>
      <trkpt lat="43.48352" lon="5.83112">
        <ele>309</ele>
        <time>2021-01-31T08:18:38.000Z</time>
      </trkpt>
      <trkpt lat="43.48347" lon="5.83112">
        <ele>308.79998779297</ele>
        <time>2021-01-31T08:18:39.000Z</time>
      </trkpt>
      <trkpt lat="43.48332" lon="5.83115">
        <ele>308.20001220703</ele>
        <time>2021-01-31T08:18:42.000Z</time>
      </trkpt>
      <trkpt lat="43.48305" lon="5.83132">
        <ele>307.60000610352</ele>
        <time>2021-01-31T08:18:47.000Z</time>
      </trkpt>
      <trkpt lat="43.48285" lon="5.83143">
        <ele>307.60000610352</ele>
        <time>2021-01-31T08:18:51.000Z</time>
      </trkpt>
      <trkpt lat="43.48279" lon="5.83145">
        <ele>307.60000610352</ele>
        <time>2021-01-31T08:18:52.000Z</time>
      </trkpt>
      <trkpt lat="43.48267" lon="5.83146">
        <ele>307.39999389648</ele>
        <time>2021-01-31T08:18:54.000Z</time>
      </trkpt>
      <trkpt lat="43.48263" lon="5.83145">
        <ele>307.20001220703</ele>
        <time>2021-01-31T08:18:55.000Z</time>
      </trkpt>
      <trkpt lat="43.48258" lon="5.83143">
        <ele>307</ele>
        <time>2021-01-31T08:18:56.000Z</time>
      </trkpt>
      <trkpt lat="43.48252" lon="5.83141">
        <ele>306.79998779297</ele>
        <time>2021-01-31T08:18:57.000Z</time>
      </trkpt>
      <trkpt lat="43.48243" lon="5.83136">
        <ele>307</ele>
        <time>2021-01-31T08:18:59.000Z</time>
      </trkpt>
      <trkpt lat="43.48241" lon="5.83132">
        <ele>307</ele>
        <time>2021-01-31T08:19:00.000Z</time>
      </trkpt>
      <trkpt lat="43.48241" lon="5.83127">
        <ele>307.20001220703</ele>
        <time>2021-01-31T08:19:01.000Z</time>
      </trkpt>
      <trkpt lat="43.48243" lon="5.83119">
        <ele>307.39999389648</ele>
        <time>2021-01-31T08:19:03.000Z</time>
      </trkpt>
      <trkpt lat="43.48247" lon="5.83088">
        <ele>308</ele>
        <time>2021-01-31T08:19:09.000Z</time>
      </trkpt>
      <trkpt lat="43.48246" lon="5.83082">
        <ele>308.20001220703</ele>
        <time>2021-01-31T08:19:10.000Z</time>
      </trkpt>
      <trkpt lat="43.4824" lon="5.83055">
        <ele>309</ele>
        <time>2021-01-31T08:19:14.000Z</time>
      </trkpt>
      <trkpt lat="43.48236" lon="5.83046">
        <ele>309.39999389648</ele>
        <time>2021-01-31T08:19:17.000Z</time>
      </trkpt>
      <trkpt lat="43.48234" lon="5.83029">
        <ele>309.79998779297</ele>
        <time>2021-01-31T08:19:20.000Z</time>
      </trkpt>
      <trkpt lat="43.48234" lon="5.83019">
        <ele>309.79998779297</ele>
        <time>2021-01-31T08:19:22.000Z</time>
      </trkpt>
      <trkpt lat="43.48232" lon="5.82998">
        <ele>310.79998779297</ele>
        <time>2021-01-31T08:19:26.000Z</time>
      </trkpt>
      <trkpt lat="43.48233" lon="5.82987">
        <ele>311.39999389648</ele>
        <time>2021-01-31T08:19:28.000Z</time>
      </trkpt>
      <trkpt lat="43.48237" lon="5.82959">
        <ele>311.39999389648</ele>
        <time>2021-01-31T08:19:32.000Z</time>
      </trkpt>
      <trkpt lat="43.48239" lon="5.82953">
        <ele>311.39999389648</ele>
        <time>2021-01-31T08:19:33.000Z</time>
      </trkpt>
      <trkpt lat="43.48242" lon="5.82947">
        <ele>311.20001220703</ele>
        <time>2021-01-31T08:19:34.000Z</time>
      </trkpt>
      <trkpt lat="43.48248" lon="5.82936">
        <ele>310.79998779297</ele>
        <time>2021-01-31T08:19:36.000Z</time>
      </trkpt>
      <trkpt lat="43.48252" lon="5.82932">
        <ele>310.79998779297</ele>
        <time>2021-01-31T08:19:37.000Z</time>
      </trkpt>
      <trkpt lat="43.48276" lon="5.82909">
        <ele>310.60000610352</ele>
        <time>2021-01-31T08:19:43.000Z</time>
      </trkpt>
      <trkpt lat="43.48281" lon="5.82902">
        <ele>311.20001220703</ele>
        <time>2021-01-31T08:19:45.000Z</time>
      </trkpt>
      <trkpt lat="43.48293" lon="5.82889">
        <ele>311.39999389648</ele>
        <time>2021-01-31T08:19:49.000Z</time>
      </trkpt>
      <trkpt lat="43.48299" lon="5.82881">
        <ele>311.20001220703</ele>
        <time>2021-01-31T08:19:51.000Z</time>
      </trkpt>
      <trkpt lat="43.48301" lon="5.82876">
        <ele>311.20001220703</ele>
        <time>2021-01-31T08:19:52.000Z</time>
      </trkpt>
      <trkpt lat="43.48305" lon="5.82865">
        <ele>311.20001220703</ele>
        <time>2021-01-31T08:19:54.000Z</time>
      </trkpt>
      <trkpt lat="43.48306" lon="5.82859">
        <ele>311.20001220703</ele>
        <time>2021-01-31T08:19:55.000Z</time>
      </trkpt>
      <trkpt lat="43.48308" lon="5.82846">
        <ele>311.20001220703</ele>
        <time>2021-01-31T08:19:57.000Z</time>
      </trkpt>
      <trkpt lat="43.48306" lon="5.82838">
        <ele>311.20001220703</ele>
        <time>2021-01-31T08:19:58.000Z</time>
      </trkpt>
      <trkpt lat="43.48304" lon="5.8283">
        <ele>311</ele>
        <time>2021-01-31T08:19:59.000Z</time>
      </trkpt>
      <trkpt lat="43.48297" lon="5.82796">
        <ele>310.60000610352</ele>
        <time>2021-01-31T08:20:04.000Z</time>
      </trkpt>
      <trkpt lat="43.48289" lon="5.82759">
        <ele>310.20001220703</ele>
        <time>2021-01-31T08:20:10.000Z</time>
      </trkpt>
      <trkpt lat="43.48287" lon="5.82747">
        <ele>309.79998779297</ele>
        <time>2021-01-31T08:20:12.000Z</time>
      </trkpt>
      <trkpt lat="43.48286" lon="5.82741">
        <ele>309.60000610352</ele>
        <time>2021-01-31T08:20:13.000Z</time>
      </trkpt>
      <trkpt lat="43.4828" lon="5.82707">
        <ele>309.79998779297</ele>
        <time>2021-01-31T08:20:19.000Z</time>
      </trkpt>
      <trkpt lat="43.48277" lon="5.82696">
        <ele>310.20001220703</ele>
        <time>2021-01-31T08:20:21.000Z</time>
      </trkpt>
      <trkpt lat="43.48275" lon="5.82686">
        <ele>310.20001220703</ele>
        <time>2021-01-31T08:20:23.000Z</time>
      </trkpt>
      <trkpt lat="43.48271" lon="5.82666">
        <ele>310.79998779297</ele>
        <time>2021-01-31T08:20:27.000Z</time>
      </trkpt>
      <trkpt lat="43.4827" lon="5.82656">
        <ele>311.60000610352</ele>
        <time>2021-01-31T08:20:29.000Z</time>
      </trkpt>
      <trkpt lat="43.48269" lon="5.82647">
        <ele>312</ele>
        <time>2021-01-31T08:20:31.000Z</time>
      </trkpt>
      <trkpt lat="43.4827" lon="5.82623">
        <ele>312.79998779297</ele>
        <time>2021-01-31T08:20:36.000Z</time>
      </trkpt>
      <trkpt lat="43.48271" lon="5.82619">
        <ele>313.20001220703</ele>
        <time>2021-01-31T08:20:37.000Z</time>
      </trkpt>
      <trkpt lat="43.48272" lon="5.8261">
        <ele>314.39999389648</ele>
        <time>2021-01-31T08:20:39.000Z</time>
      </trkpt>
      <trkpt lat="43.48278" lon="5.82592">
        <ele>315.20001220703</ele>
        <time>2021-01-31T08:20:43.000Z</time>
      </trkpt>
      <trkpt lat="43.48297" lon="5.82562">
        <ele>315.20001220703</ele>
        <time>2021-01-31T08:20:51.000Z</time>
      </trkpt>
      <trkpt lat="43.483" lon="5.82558">
        <ele>315.60000610352</ele>
        <time>2021-01-31T08:20:52.000Z</time>
      </trkpt>
      <trkpt lat="43.48311" lon="5.82544">
        <ele>315.79998779297</ele>
        <time>2021-01-31T08:20:56.000Z</time>
      </trkpt>
      <trkpt lat="43.48321" lon="5.82534">
        <ele>316.20001220703</ele>
        <time>2021-01-31T08:20:59.000Z</time>
      </trkpt>
      <trkpt lat="43.48324" lon="5.82531">
        <ele>316.20001220703</ele>
        <time>2021-01-31T08:21:00.000Z</time>
      </trkpt>
      <trkpt lat="43.48327" lon="5.82527">
        <ele>316.39999389648</ele>
        <time>2021-01-31T08:21:01.000Z</time>
      </trkpt>
      <trkpt lat="43.48336" lon="5.82512">
        <ele>316.39999389648</ele>
        <time>2021-01-31T08:21:05.000Z</time>
      </trkpt>
      <trkpt lat="43.48343" lon="5.82493">
        <ele>316.39999389648</ele>
        <time>2021-01-31T08:21:09.000Z</time>
      </trkpt>
      <trkpt lat="43.48348" lon="5.82462">
        <ele>316</ele>
        <time>2021-01-31T08:21:15.000Z</time>
      </trkpt>
      <trkpt lat="43.48348" lon="5.82401">
        <ele>316.60000610352</ele>
        <time>2021-01-31T08:21:26.000Z</time>
      </trkpt>
      <trkpt lat="43.48348" lon="5.82371">
        <ele>317.60000610352</ele>
        <time>2021-01-31T08:21:32.000Z</time>
      </trkpt>
      <trkpt lat="43.48351" lon="5.82355">
        <ele>318.39999389648</ele>
        <time>2021-01-31T08:21:36.000Z</time>
      </trkpt>
      <trkpt lat="43.48353" lon="5.82351">
        <ele>318.79998779297</ele>
        <time>2021-01-31T08:21:37.000Z</time>
      </trkpt>
      <trkpt lat="43.48357" lon="5.8234">
        <ele>319.79998779297</ele>
        <time>2021-01-31T08:21:40.000Z</time>
      </trkpt>
      <trkpt lat="43.48358" lon="5.82332">
        <ele>320.60000610352</ele>
        <time>2021-01-31T08:21:42.000Z</time>
      </trkpt>
      <trkpt lat="43.48358" lon="5.82329">
        <ele>321</ele>
        <time>2021-01-31T08:21:43.000Z</time>
      </trkpt>
      <trkpt lat="43.48355" lon="5.82316">
        <ele>322</ele>
        <time>2021-01-31T08:21:46.000Z</time>
      </trkpt>
      <trkpt lat="43.48352" lon="5.82313">
        <ele>322</ele>
        <time>2021-01-31T08:21:47.000Z</time>
      </trkpt>
      <trkpt lat="43.48349" lon="5.8231">
        <ele>321.79998779297</ele>
        <time>2021-01-31T08:21:48.000Z</time>
      </trkpt>
      <trkpt lat="43.48341" lon="5.82304">
        <ele>321</ele>
        <time>2021-01-31T08:21:50.000Z</time>
      </trkpt>
      <trkpt lat="43.48337" lon="5.82298">
        <ele>320.60000610352</ele>
        <time>2021-01-31T08:21:51.000Z</time>
      </trkpt>
      <trkpt lat="43.48334" lon="5.8229">
        <ele>320</ele>
        <time>2021-01-31T08:21:52.000Z</time>
      </trkpt>
      <trkpt lat="43.48333" lon="5.82282">
        <ele>319</ele>
        <time>2021-01-31T08:21:53.000Z</time>
      </trkpt>
      <trkpt lat="43.48332" lon="5.82275">
        <ele>318</ele>
        <time>2021-01-31T08:21:54.000Z</time>
      </trkpt>
      <trkpt lat="43.48331" lon="5.82261">
        <ele>316.79998779297</ele>
        <time>2021-01-31T08:21:56.000Z</time>
      </trkpt>
      <trkpt lat="43.4833" lon="5.82255">
        <ele>316.39999389648</ele>
        <time>2021-01-31T08:21:57.000Z</time>
      </trkpt>
      <trkpt lat="43.48328" lon="5.82227">
        <ele>317</ele>
        <time>2021-01-31T08:22:03.000Z</time>
      </trkpt>
      <trkpt lat="43.48327" lon="5.8221">
        <ele>317.79998779297</ele>
        <time>2021-01-31T08:22:07.000Z</time>
      </trkpt>
      <trkpt lat="43.48327" lon="5.82198">
        <ele>319</ele>
        <time>2021-01-31T08:22:10.000Z</time>
      </trkpt>
      <trkpt lat="43.48327" lon="5.82189">
        <ele>319.60000610352</ele>
        <time>2021-01-31T08:22:12.000Z</time>
      </trkpt>
      <trkpt lat="43.48326" lon="5.82181">
        <ele>320</ele>
        <time>2021-01-31T08:22:14.000Z</time>
      </trkpt>
      <trkpt lat="43.48326" lon="5.82174">
        <ele>320.20001220703</ele>
        <time>2021-01-31T08:22:16.000Z</time>
      </trkpt>
      <trkpt lat="43.48327" lon="5.82167">
        <ele>320.79998779297</ele>
        <time>2021-01-31T08:22:18.000Z</time>
      </trkpt>
      <trkpt lat="43.48326" lon="5.82163">
        <ele>321.20001220703</ele>
        <time>2021-01-31T08:22:19.000Z</time>
      </trkpt>
      <trkpt lat="43.48327" lon="5.8216">
        <ele>321.39999389648</ele>
        <time>2021-01-31T08:22:20.000Z</time>
      </trkpt>
      <trkpt lat="43.48326" lon="5.82146">
        <ele>322.39999389648</ele>
        <time>2021-01-31T08:22:24.000Z</time>
      </trkpt>
      <trkpt lat="43.48326" lon="5.82136">
        <ele>323</ele>
        <time>2021-01-31T08:22:27.000Z</time>
      </trkpt>
      <trkpt lat="43.48325" lon="5.82122">
        <ele>323.39999389648</ele>
        <time>2021-01-31T08:22:31.000Z</time>
      </trkpt>
      <trkpt lat="43.48323" lon="5.82103">
        <ele>323.20001220703</ele>
        <time>2021-01-31T08:22:36.000Z</time>
      </trkpt>
      <trkpt lat="43.48325" lon="5.82062">
        <ele>323.60000610352</ele>
        <time>2021-01-31T08:22:47.000Z</time>
      </trkpt>
      <trkpt lat="43.48325" lon="5.82046">
        <ele>324.60000610352</ele>
        <time>2021-01-31T08:22:51.000Z</time>
      </trkpt>
      <trkpt lat="43.48327" lon="5.82033">
        <ele>325.39999389648</ele>
        <time>2021-01-31T08:22:55.000Z</time>
      </trkpt>
      <trkpt lat="43.48328" lon="5.8203">
        <ele>325.79998779297</ele>
        <time>2021-01-31T08:22:56.000Z</time>
      </trkpt>
      <trkpt lat="43.48328" lon="5.82017">
        <ele>327</ele>
        <time>2021-01-31T08:23:01.000Z</time>
      </trkpt>
      <trkpt lat="43.48329" lon="5.82011">
        <ele>327.79998779297</ele>
        <time>2021-01-31T08:23:03.000Z</time>
      </trkpt>
      <trkpt lat="43.4833" lon="5.82005">
        <ele>328.20001220703</ele>
        <time>2021-01-31T08:23:05.000Z</time>
      </trkpt>
      <trkpt lat="43.48332" lon="5.81994">
        <ele>329.20001220703</ele>
        <time>2021-01-31T08:23:09.000Z</time>
      </trkpt>
      <trkpt lat="43.48333" lon="5.81992">
        <ele>329.39999389648</ele>
        <time>2021-01-31T08:23:10.000Z</time>
      </trkpt>
      <trkpt lat="43.48336" lon="5.81979">
        <ele>330.39999389648</ele>
        <time>2021-01-31T08:23:14.000Z</time>
      </trkpt>
      <trkpt lat="43.48336" lon="5.81971">
        <ele>331.20001220703</ele>
        <time>2021-01-31T08:23:16.000Z</time>
      </trkpt>
      <trkpt lat="43.48336" lon="5.81968">
        <ele>331.20001220703</ele>
        <time>2021-01-31T08:23:17.000Z</time>
      </trkpt>
      <trkpt lat="43.48337" lon="5.81961">
        <ele>331.79998779297</ele>
        <time>2021-01-31T08:23:19.000Z</time>
      </trkpt>
      <trkpt lat="43.48339" lon="5.81947">
        <ele>332.79998779297</ele>
        <time>2021-01-31T08:23:22.000Z</time>
      </trkpt>
      <trkpt lat="43.4834" lon="5.81939">
        <ele>332.79998779297</ele>
        <time>2021-01-31T08:23:25.000Z</time>
      </trkpt>
      <trkpt lat="43.48343" lon="5.81922">
        <ele>332.79998779297</ele>
        <time>2021-01-31T08:23:29.000Z</time>
      </trkpt>
      <trkpt lat="43.48347" lon="5.81911">
        <ele>332.79998779297</ele>
        <time>2021-01-31T08:23:32.000Z</time>
      </trkpt>
      <trkpt lat="43.4835" lon="5.81899">
        <ele>332.79998779297</ele>
        <time>2021-01-31T08:23:35.000Z</time>
      </trkpt>
      <trkpt lat="43.48353" lon="5.81888">
        <ele>332.60000610352</ele>
        <time>2021-01-31T08:23:38.000Z</time>
      </trkpt>
      <trkpt lat="43.48358" lon="5.81856">
        <ele>332.20001220703</ele>
        <time>2021-01-31T08:23:46.000Z</time>
      </trkpt>
      <trkpt lat="43.48363" lon="5.81834">
        <ele>332.20001220703</ele>
        <time>2021-01-31T08:23:51.000Z</time>
      </trkpt>
      <trkpt lat="43.48366" lon="5.81821">
        <ele>332.20001220703</ele>
        <time>2021-01-31T08:23:54.000Z</time>
      </trkpt>
      <trkpt lat="43.4837" lon="5.8179">
        <ele>332.39999389648</ele>
        <time>2021-01-31T08:24:02.000Z</time>
      </trkpt>
      <trkpt lat="43.4837" lon="5.81786">
        <ele>332.60000610352</ele>
        <time>2021-01-31T08:24:03.000Z</time>
      </trkpt>
      <trkpt lat="43.48371" lon="5.81779">
        <ele>332.79998779297</ele>
        <time>2021-01-31T08:24:05.000Z</time>
      </trkpt>
      <trkpt lat="43.48374" lon="5.8176">
        <ele>333.39999389648</ele>
        <time>2021-01-31T08:24:10.000Z</time>
      </trkpt>
      <trkpt lat="43.48374" lon="5.81752">
        <ele>333.79998779297</ele>
        <time>2021-01-31T08:24:12.000Z</time>
      </trkpt>
      <trkpt lat="43.48375" lon="5.81734">
        <ele>334.20001220703</ele>
        <time>2021-01-31T08:24:16.000Z</time>
      </trkpt>
      <trkpt lat="43.48377" lon="5.81727">
        <ele>334.79998779297</ele>
        <time>2021-01-31T08:24:18.000Z</time>
      </trkpt>
      <trkpt lat="43.4838" lon="5.8172">
        <ele>335.39999389648</ele>
        <time>2021-01-31T08:24:21.000Z</time>
      </trkpt>
      <trkpt lat="43.48381" lon="5.81717">
        <ele>336</ele>
        <time>2021-01-31T08:24:25.000Z</time>
      </trkpt>
      <trkpt lat="43.48381" lon="5.81714">
        <ele>336.60000610352</ele>
        <time>2021-01-31T08:24:30.000Z</time>
      </trkpt>
      <trkpt lat="43.4838" lon="5.81714">
        <ele>336.79998779297</ele>
        <time>2021-01-31T08:24:31.000Z</time>
      </trkpt>
      <trkpt lat="43.48379" lon="5.81712">
        <ele>336.60000610352</ele>
        <time>2021-01-31T08:24:37.000Z</time>
      </trkpt>
      <trkpt lat="43.4838" lon="5.8171">
        <ele>336.20001220703</ele>
        <time>2021-01-31T08:24:40.000Z</time>
      </trkpt>
      <trkpt lat="43.48381" lon="5.81707">
        <ele>336</ele>
        <time>2021-01-31T08:24:42.000Z</time>
      </trkpt>
      <trkpt lat="43.48382" lon="5.81689">
        <ele>335.60000610352</ele>
        <time>2021-01-31T08:24:48.000Z</time>
      </trkpt>
      <trkpt lat="43.48387" lon="5.81671">
        <ele>335.39999389648</ele>
        <time>2021-01-31T08:24:53.000Z</time>
      </trkpt>
      <trkpt lat="43.48387" lon="5.81666">
        <ele>335.20001220703</ele>
        <time>2021-01-31T08:24:54.000Z</time>
      </trkpt>
      <trkpt lat="43.48388" lon="5.81662">
        <ele>335</ele>
        <time>2021-01-31T08:24:55.000Z</time>
      </trkpt>
      <trkpt lat="43.48395" lon="5.81634">
        <ele>334.39999389648</ele>
        <time>2021-01-31T08:25:01.000Z</time>
      </trkpt>
      <trkpt lat="43.48401" lon="5.81601">
        <ele>334.79998779297</ele>
        <time>2021-01-31T08:25:08.000Z</time>
      </trkpt>
      <trkpt lat="43.48406" lon="5.81573">
        <ele>335.79998779297</ele>
        <time>2021-01-31T08:25:14.000Z</time>
      </trkpt>
      <trkpt lat="43.48408" lon="5.81565">
        <ele>335.60000610352</ele>
        <time>2021-01-31T08:25:16.000Z</time>
      </trkpt>
      <trkpt lat="43.48412" lon="5.81544">
        <ele>335.60000610352</ele>
        <time>2021-01-31T08:25:21.000Z</time>
      </trkpt>
      <trkpt lat="43.48414" lon="5.81526">
        <ele>335.60000610352</ele>
        <time>2021-01-31T08:25:25.000Z</time>
      </trkpt>
      <trkpt lat="43.48416" lon="5.81516">
        <ele>336</ele>
        <time>2021-01-31T08:25:27.000Z</time>
      </trkpt>
      <trkpt lat="43.4842" lon="5.81499">
        <ele>337.20001220703</ele>
        <time>2021-01-31T08:25:33.000Z</time>
      </trkpt>
      <trkpt lat="43.48428" lon="5.8148">
        <ele>337.60000610352</ele>
        <time>2021-01-31T08:25:40.000Z</time>
      </trkpt>
      <trkpt lat="43.48432" lon="5.81472">
        <ele>338.20001220703</ele>
        <time>2021-01-31T08:25:43.000Z</time>
      </trkpt>
      <trkpt lat="43.48435" lon="5.8146">
        <ele>338.79998779297</ele>
        <time>2021-01-31T08:25:46.000Z</time>
      </trkpt>
      <trkpt lat="43.48448" lon="5.81432">
        <ele>338.79998779297</ele>
        <time>2021-01-31T08:25:54.000Z</time>
      </trkpt>
      <trkpt lat="43.48458" lon="5.81412">
        <ele>337.60000610352</ele>
        <time>2021-01-31T08:26:00.000Z</time>
      </trkpt>
      <trkpt lat="43.48464" lon="5.81402">
        <ele>337.39999389648</ele>
        <time>2021-01-31T08:26:03.000Z</time>
      </trkpt>
      <trkpt lat="43.48471" lon="5.81387">
        <ele>337.79998779297</ele>
        <time>2021-01-31T08:26:07.000Z</time>
      </trkpt>
      <trkpt lat="43.48475" lon="5.81375">
        <ele>338</ele>
        <time>2021-01-31T08:26:10.000Z</time>
      </trkpt>
      <trkpt lat="43.4848" lon="5.81364">
        <ele>338</ele>
        <time>2021-01-31T08:26:13.000Z</time>
      </trkpt>
      <trkpt lat="43.48485" lon="5.81352">
        <ele>338.39999389648</ele>
        <time>2021-01-31T08:26:16.000Z</time>
      </trkpt>
      <trkpt lat="43.48487" lon="5.81348">
        <ele>338.60000610352</ele>
        <time>2021-01-31T08:26:17.000Z</time>
      </trkpt>
      <trkpt lat="43.48488" lon="5.81345">
        <ele>338.79998779297</ele>
        <time>2021-01-31T08:26:18.000Z</time>
      </trkpt>
      <trkpt lat="43.48496" lon="5.81324">
        <ele>339.39999389648</ele>
        <time>2021-01-31T08:26:24.000Z</time>
      </trkpt>
      <trkpt lat="43.48499" lon="5.81316">
        <ele>339.60000610352</ele>
        <time>2021-01-31T08:26:26.000Z</time>
      </trkpt>
      <trkpt lat="43.48504" lon="5.81298">
        <ele>340.39999389648</ele>
        <time>2021-01-31T08:26:31.000Z</time>
      </trkpt>
      <trkpt lat="43.48505" lon="5.81285">
        <ele>340.79998779297</ele>
        <time>2021-01-31T08:26:34.000Z</time>
      </trkpt>
      <trkpt lat="43.48509" lon="5.81257">
        <ele>341.60000610352</ele>
        <time>2021-01-31T08:26:41.000Z</time>
      </trkpt>
      <trkpt lat="43.4851" lon="5.81253">
        <ele>341.39999389648</ele>
        <time>2021-01-31T08:26:42.000Z</time>
      </trkpt>
      <trkpt lat="43.48514" lon="5.81221">
        <ele>342.39999389648</ele>
        <time>2021-01-31T08:26:50.000Z</time>
      </trkpt>
      <trkpt lat="43.48515" lon="5.81216">
        <ele>342.39999389648</ele>
        <time>2021-01-31T08:26:51.000Z</time>
      </trkpt>
      <trkpt lat="43.48515" lon="5.81213">
        <ele>342.60000610352</ele>
        <time>2021-01-31T08:26:52.000Z</time>
      </trkpt>
      <trkpt lat="43.48516" lon="5.81209">
        <ele>342.60000610352</ele>
        <time>2021-01-31T08:26:53.000Z</time>
      </trkpt>
      <trkpt lat="43.48517" lon="5.81192">
        <ele>342.79998779297</ele>
        <time>2021-01-31T08:26:57.000Z</time>
      </trkpt>
      <trkpt lat="43.48518" lon="5.81188">
        <ele>342.79998779297</ele>
        <time>2021-01-31T08:26:58.000Z</time>
      </trkpt>
      <trkpt lat="43.48518" lon="5.81161">
        <ele>343.60000610352</ele>
        <time>2021-01-31T08:27:04.000Z</time>
      </trkpt>
      <trkpt lat="43.48519" lon="5.81148">
        <ele>344.20001220703</ele>
        <time>2021-01-31T08:27:07.000Z</time>
      </trkpt>
      <trkpt lat="43.48519" lon="5.81129">
        <ele>344.79998779297</ele>
        <time>2021-01-31T08:27:12.000Z</time>
      </trkpt>
      <trkpt lat="43.48519" lon="5.81122">
        <ele>345.20001220703</ele>
        <time>2021-01-31T08:27:14.000Z</time>
      </trkpt>
      <trkpt lat="43.48518" lon="5.81101">
        <ele>345.79998779297</ele>
        <time>2021-01-31T08:27:20.000Z</time>
      </trkpt>
      <trkpt lat="43.48519" lon="5.81094">
        <ele>346.39999389648</ele>
        <time>2021-01-31T08:27:22.000Z</time>
      </trkpt>
      <trkpt lat="43.4852" lon="5.81084">
        <ele>346.60000610352</ele>
        <time>2021-01-31T08:27:25.000Z</time>
      </trkpt>
      <trkpt lat="43.48519" lon="5.8107">
        <ele>346.20001220703</ele>
        <time>2021-01-31T08:27:29.000Z</time>
      </trkpt>
      <trkpt lat="43.4852" lon="5.8105">
        <ele>346.39999389648</ele>
        <time>2021-01-31T08:27:35.000Z</time>
      </trkpt>
      <trkpt lat="43.48523" lon="5.81045">
        <ele>346.39999389648</ele>
        <time>2021-01-31T08:27:37.000Z</time>
      </trkpt>
      <trkpt lat="43.48526" lon="5.8102">
        <ele>347</ele>
        <time>2021-01-31T08:27:45.000Z</time>
      </trkpt>
      <trkpt lat="43.48527" lon="5.81009">
        <ele>348.20001220703</ele>
        <time>2021-01-31T08:27:48.000Z</time>
      </trkpt>
      <trkpt lat="43.48527" lon="5.80993">
        <ele>348.79998779297</ele>
        <time>2021-01-31T08:27:53.000Z</time>
      </trkpt>
      <trkpt lat="43.48527" lon="5.80989">
        <ele>349.20001220703</ele>
        <time>2021-01-31T08:27:54.000Z</time>
      </trkpt>
      <trkpt lat="43.48527" lon="5.80976">
        <ele>350.39999389648</ele>
        <time>2021-01-31T08:27:59.000Z</time>
      </trkpt>
      <trkpt lat="43.48526" lon="5.80953">
        <ele>351.20001220703</ele>
        <time>2021-01-31T08:28:07.000Z</time>
      </trkpt>
      <trkpt lat="43.48526" lon="5.8095">
        <ele>351.39999389648</ele>
        <time>2021-01-31T08:28:08.000Z</time>
      </trkpt>
      <trkpt lat="43.48526" lon="5.80931">
        <ele>352.39999389648</ele>
        <time>2021-01-31T08:28:15.000Z</time>
      </trkpt>
      <trkpt lat="43.48527" lon="5.80925">
        <ele>352.60000610352</ele>
        <time>2021-01-31T08:28:18.000Z</time>
      </trkpt>
      <trkpt lat="43.48529" lon="5.80915">
        <ele>353.20001220703</ele>
        <time>2021-01-31T08:28:22.000Z</time>
      </trkpt>
      <trkpt lat="43.4853" lon="5.8091">
        <ele>353.60000610352</ele>
        <time>2021-01-31T08:28:24.000Z</time>
      </trkpt>
      <trkpt lat="43.48534" lon="5.80896">
        <ele>354.20001220703</ele>
        <time>2021-01-31T08:28:30.000Z</time>
      </trkpt>
      <trkpt lat="43.48539" lon="5.80887">
        <ele>354.79998779297</ele>
        <time>2021-01-31T08:28:34.000Z</time>
      </trkpt>
      <trkpt lat="43.48542" lon="5.80881">
        <ele>355.20001220703</ele>
        <time>2021-01-31T08:28:37.000Z</time>
      </trkpt>
      <trkpt lat="43.48552" lon="5.80867">
        <ele>355.39999389648</ele>
        <time>2021-01-31T08:28:44.000Z</time>
      </trkpt>
      <trkpt lat="43.48555" lon="5.80864">
        <ele>355.79998779297</ele>
        <time>2021-01-31T08:28:46.000Z</time>
      </trkpt>
      <trkpt lat="43.48558" lon="5.8086">
        <ele>356.39999389648</ele>
        <time>2021-01-31T08:28:48.000Z</time>
      </trkpt>
      <trkpt lat="43.48564" lon="5.80855">
        <ele>357</ele>
        <time>2021-01-31T08:28:51.000Z</time>
      </trkpt>
      <trkpt lat="43.48568" lon="5.80853">
        <ele>357</ele>
        <time>2021-01-31T08:28:53.000Z</time>
      </trkpt>
      <trkpt lat="43.48578" lon="5.80844">
        <ele>357.20001220703</ele>
        <time>2021-01-31T08:29:00.000Z</time>
      </trkpt>
      <trkpt lat="43.48579" lon="5.80833">
        <ele>358.20001220703</ele>
        <time>2021-01-31T08:29:05.000Z</time>
      </trkpt>
      <trkpt lat="43.48578" lon="5.8083">
        <ele>358.39999389648</ele>
        <time>2021-01-31T08:29:06.000Z</time>
      </trkpt>
      <trkpt lat="43.48578" lon="5.80826">
        <ele>359.39999389648</ele>
        <time>2021-01-31T08:29:08.000Z</time>
      </trkpt>
      <trkpt lat="43.4858" lon="5.80823">
        <ele>360.20001220703</ele>
        <time>2021-01-31T08:29:10.000Z</time>
      </trkpt>
      <trkpt lat="43.48581" lon="5.80822">
        <ele>360.60000610352</ele>
        <time>2021-01-31T08:29:11.000Z</time>
      </trkpt>
      <trkpt lat="43.48591" lon="5.80817">
        <ele>361.20001220703</ele>
        <time>2021-01-31T08:29:16.000Z</time>
      </trkpt>
      <trkpt lat="43.48593" lon="5.80815">
        <ele>361.60000610352</ele>
        <time>2021-01-31T08:29:18.000Z</time>
      </trkpt>
      <trkpt lat="43.486" lon="5.80808">
        <ele>362.79998779297</ele>
        <time>2021-01-31T08:29:25.000Z</time>
      </trkpt>
      <trkpt lat="43.48604" lon="5.80807">
        <ele>363</ele>
        <time>2021-01-31T08:29:27.000Z</time>
      </trkpt>
      <trkpt lat="43.48609" lon="5.80804">
        <ele>363.79998779297</ele>
        <time>2021-01-31T08:29:31.000Z</time>
      </trkpt>
      <trkpt lat="43.4861" lon="5.80803">
        <ele>364</ele>
        <time>2021-01-31T08:29:32.000Z</time>
      </trkpt>
      <trkpt lat="43.48618" lon="5.80797">
        <ele>364.39999389648</ele>
        <time>2021-01-31T08:29:39.000Z</time>
      </trkpt>
      <trkpt lat="43.48626" lon="5.80793">
        <ele>364.79998779297</ele>
        <time>2021-01-31T08:29:44.000Z</time>
      </trkpt>
      <trkpt lat="43.48627" lon="5.80792">
        <ele>365</ele>
        <time>2021-01-31T08:29:45.000Z</time>
      </trkpt>
      <trkpt lat="43.48629" lon="5.80792">
        <ele>365.20001220703</ele>
        <time>2021-01-31T08:29:46.000Z</time>
      </trkpt>
      <trkpt lat="43.48637" lon="5.80787">
        <ele>366</ele>
        <time>2021-01-31T08:29:50.000Z</time>
      </trkpt>
      <trkpt lat="43.48639" lon="5.80787">
        <ele>366.20001220703</ele>
        <time>2021-01-31T08:29:51.000Z</time>
      </trkpt>
      <trkpt lat="43.48641" lon="5.80786">
        <ele>366.20001220703</ele>
        <time>2021-01-31T08:29:52.000Z</time>
      </trkpt>
      <trkpt lat="43.48652" lon="5.80778">
        <ele>367.20001220703</ele>
        <time>2021-01-31T08:30:00.000Z</time>
      </trkpt>
      <trkpt lat="43.48655" lon="5.80776">
        <ele>367.39999389648</ele>
        <time>2021-01-31T08:30:02.000Z</time>
      </trkpt>
      <trkpt lat="43.48657" lon="5.80774">
        <ele>367.60000610352</ele>
        <time>2021-01-31T08:30:03.000Z</time>
      </trkpt>
      <trkpt lat="43.48662" lon="5.80771">
        <ele>368.20001220703</ele>
        <time>2021-01-31T08:30:07.000Z</time>
      </trkpt>
      <trkpt lat="43.48663" lon="5.80769">
        <ele>368.39999389648</ele>
        <time>2021-01-31T08:30:08.000Z</time>
      </trkpt>
      <trkpt lat="43.48669" lon="5.8076">
        <ele>368.79998779297</ele>
        <time>2021-01-31T08:30:13.000Z</time>
      </trkpt>
      <trkpt lat="43.48673" lon="5.80753">
        <ele>369.20001220703</ele>
        <time>2021-01-31T08:30:17.000Z</time>
      </trkpt>
      <trkpt lat="43.48676" lon="5.80749">
        <ele>369.39999389648</ele>
        <time>2021-01-31T08:30:19.000Z</time>
      </trkpt>
      <trkpt lat="43.48679" lon="5.80744">
        <ele>369.39999389648</ele>
        <time>2021-01-31T08:30:22.000Z</time>
      </trkpt>
      <trkpt lat="43.48681" lon="5.80741">
        <ele>369.39999389648</ele>
        <time>2021-01-31T08:30:24.000Z</time>
      </trkpt>
      <trkpt lat="43.48685" lon="5.80733">
        <ele>370.60000610352</ele>
        <time>2021-01-31T08:30:29.000Z</time>
      </trkpt>
      <trkpt lat="43.48685" lon="5.80731">
        <ele>370.60000610352</ele>
        <time>2021-01-31T08:30:30.000Z</time>
      </trkpt>
      <trkpt lat="43.48686" lon="5.80729">
        <ele>370.60000610352</ele>
        <time>2021-01-31T08:30:31.000Z</time>
      </trkpt>
      <trkpt lat="43.48686" lon="5.80719">
        <ele>371</ele>
        <time>2021-01-31T08:30:36.000Z</time>
      </trkpt>
      <trkpt lat="43.48685" lon="5.80714">
        <ele>371.39999389648</ele>
        <time>2021-01-31T08:30:38.000Z</time>
      </trkpt>
      <trkpt lat="43.48685" lon="5.80712">
        <ele>371.60000610352</ele>
        <time>2021-01-31T08:30:39.000Z</time>
      </trkpt>
      <trkpt lat="43.48687" lon="5.80698">
        <ele>372.60000610352</ele>
        <time>2021-01-31T08:30:46.000Z</time>
      </trkpt>
      <trkpt lat="43.48688" lon="5.80695">
        <ele>372.60000610352</ele>
        <time>2021-01-31T08:30:47.000Z</time>
      </trkpt>
      <trkpt lat="43.4869" lon="5.80681">
        <ele>373.60000610352</ele>
        <time>2021-01-31T08:30:54.000Z</time>
      </trkpt>
      <trkpt lat="43.48693" lon="5.80661">
        <ele>373.39999389648</ele>
        <time>2021-01-31T08:31:02.000Z</time>
      </trkpt>
      <trkpt lat="43.48693" lon="5.80653">
        <ele>373.79998779297</ele>
        <time>2021-01-31T08:31:05.000Z</time>
      </trkpt>
      <trkpt lat="43.48693" lon="5.80644">
        <ele>374.60000610352</ele>
        <time>2021-01-31T08:31:09.000Z</time>
      </trkpt>
      <trkpt lat="43.48693" lon="5.80639">
        <ele>374.79998779297</ele>
        <time>2021-01-31T08:31:11.000Z</time>
      </trkpt>
      <trkpt lat="43.48697" lon="5.80628">
        <ele>375.20001220703</ele>
        <time>2021-01-31T08:31:16.000Z</time>
      </trkpt>
      <trkpt lat="43.487" lon="5.80612">
        <ele>375.79998779297</ele>
        <time>2021-01-31T08:31:23.000Z</time>
      </trkpt>
      <trkpt lat="43.487" lon="5.8061">
        <ele>376</ele>
        <time>2021-01-31T08:31:24.000Z</time>
      </trkpt>
      <trkpt lat="43.487" lon="5.80596">
        <ele>376.60000610352</ele>
        <time>2021-01-31T08:31:30.000Z</time>
      </trkpt>
      <trkpt lat="43.48699" lon="5.80591">
        <ele>376.79998779297</ele>
        <time>2021-01-31T08:31:32.000Z</time>
      </trkpt>
      <trkpt lat="43.48699" lon="5.80586">
        <ele>377</ele>
        <time>2021-01-31T08:31:34.000Z</time>
      </trkpt>
      <trkpt lat="43.48702" lon="5.80574">
        <ele>377.60000610352</ele>
        <time>2021-01-31T08:31:39.000Z</time>
      </trkpt>
      <trkpt lat="43.48705" lon="5.80569">
        <ele>377.60000610352</ele>
        <time>2021-01-31T08:31:40.000Z</time>
      </trkpt>
      <trkpt lat="43.48708" lon="5.80562">
        <ele>378.20001220703</ele>
        <time>2021-01-31T08:31:44.000Z</time>
      </trkpt>
      <trkpt lat="43.48708" lon="5.8056">
        <ele>378.39999389648</ele>
        <time>2021-01-31T08:31:45.000Z</time>
      </trkpt>
      <trkpt lat="43.4871" lon="5.80551">
        <ele>379.20001220703</ele>
        <time>2021-01-31T08:31:49.000Z</time>
      </trkpt>
      <trkpt lat="43.4871" lon="5.80544">
        <ele>379.60000610352</ele>
        <time>2021-01-31T08:31:52.000Z</time>
      </trkpt>
      <trkpt lat="43.4871" lon="5.80529">
        <ele>380.20001220703</ele>
        <time>2021-01-31T08:31:59.000Z</time>
      </trkpt>
      <trkpt lat="43.4871" lon="5.80526">
        <ele>380.39999389648</ele>
        <time>2021-01-31T08:32:00.000Z</time>
      </trkpt>
      <trkpt lat="43.48713" lon="5.80511">
        <ele>381</ele>
        <time>2021-01-31T08:32:06.000Z</time>
      </trkpt>
      <trkpt lat="43.48714" lon="5.80495">
        <ele>381.39999389648</ele>
        <time>2021-01-31T08:32:12.000Z</time>
      </trkpt>
      <trkpt lat="43.48715" lon="5.80493">
        <ele>381.39999389648</ele>
        <time>2021-01-31T08:32:13.000Z</time>
      </trkpt>
      <trkpt lat="43.4872" lon="5.80476">
        <ele>382.60000610352</ele>
        <time>2021-01-31T08:32:20.000Z</time>
      </trkpt>
      <trkpt lat="43.48721" lon="5.80469">
        <ele>383</ele>
        <time>2021-01-31T08:32:23.000Z</time>
      </trkpt>
      <trkpt lat="43.48725" lon="5.80452">
        <ele>383.60000610352</ele>
        <time>2021-01-31T08:32:30.000Z</time>
      </trkpt>
      <trkpt lat="43.48726" lon="5.80447">
        <ele>383.79998779297</ele>
        <time>2021-01-31T08:32:32.000Z</time>
      </trkpt>
      <trkpt lat="43.48734" lon="5.80428">
        <ele>384.79998779297</ele>
        <time>2021-01-31T08:32:40.000Z</time>
      </trkpt>
      <trkpt lat="43.4874" lon="5.80409">
        <ele>385.79998779297</ele>
        <time>2021-01-31T08:32:47.000Z</time>
      </trkpt>
      <trkpt lat="43.48746" lon="5.80391">
        <ele>386.39999389648</ele>
        <time>2021-01-31T08:32:54.000Z</time>
      </trkpt>
      <trkpt lat="43.48748" lon="5.80386">
        <ele>386.60000610352</ele>
        <time>2021-01-31T08:32:59.000Z</time>
      </trkpt>
      <trkpt lat="43.48747" lon="5.80388">
        <ele>386</ele>
        <time>2021-01-31T08:33:07.000Z</time>
      </trkpt>
      <trkpt lat="43.48747" lon="5.80388">
        <ele>385.39999389648</ele>
        <time>2021-01-31T08:33:12.000Z</time>
      </trkpt>
      <trkpt lat="43.48747" lon="5.80387">
        <ele>385.20001220703</ele>
        <time>2021-01-31T08:33:18.000Z</time>
      </trkpt>
      <trkpt lat="43.48746" lon="5.80385">
        <ele>384.79998779297</ele>
        <time>2021-01-31T08:33:26.000Z</time>
      </trkpt>
      <trkpt lat="43.48746" lon="5.80385">
        <ele>384.60000610352</ele>
        <time>2021-01-31T08:33:27.000Z</time>
      </trkpt>
      <trkpt lat="43.48745" lon="5.80385">
        <ele>384</ele>
        <time>2021-01-31T08:33:31.000Z</time>
      </trkpt>
      <trkpt lat="43.48745" lon="5.80385">
        <ele>384</ele>
        <time>2021-01-31T08:33:33.000Z</time>
      </trkpt>
      <trkpt lat="43.48745" lon="5.80385">
        <ele>383.60000610352</ele>
        <time>2021-01-31T08:33:38.000Z</time>
      </trkpt>
      <trkpt lat="43.48745" lon="5.80385">
        <ele>383.60000610352</ele>
        <time>2021-01-31T08:33:39.000Z</time>
      </trkpt>
      <trkpt lat="43.48745" lon="5.80385">
        <ele>383.60000610352</ele>
        <time>2021-01-31T08:33:40.000Z</time>
      </trkpt>
      <trkpt lat="43.48744" lon="5.80384">
        <ele>384</ele>
        <time>2021-01-31T08:33:47.000Z</time>
      </trkpt>
      <trkpt lat="43.48744" lon="5.80384">
        <ele>384</ele>
        <time>2021-01-31T08:33:48.000Z</time>
      </trkpt>
      <trkpt lat="43.48744" lon="5.80383">
        <ele>384.20001220703</ele>
        <time>2021-01-31T08:33:50.000Z</time>
      </trkpt>
      <trkpt lat="43.48743" lon="5.80383">
        <ele>384.39999389648</ele>
        <time>2021-01-31T08:33:52.000Z</time>
      </trkpt>
      <trkpt lat="43.48743" lon="5.80383">
        <ele>384.60000610352</ele>
        <time>2021-01-31T08:33:54.000Z</time>
      </trkpt>
      <trkpt lat="43.48743" lon="5.80383">
        <ele>384.60000610352</ele>
        <time>2021-01-31T08:33:58.000Z</time>
      </trkpt>
      <trkpt lat="43.48743" lon="5.80383">
        <ele>383.79998779297</ele>
        <time>2021-01-31T08:34:10.000Z</time>
      </trkpt>
      <trkpt lat="43.48743" lon="5.80383">
        <ele>383.79998779297</ele>
        <time>2021-01-31T08:34:13.000Z</time>
      </trkpt>
      <trkpt lat="43.48742" lon="5.80383">
        <ele>383.60000610352</ele>
        <time>2021-01-31T08:34:20.000Z</time>
      </trkpt>
      <trkpt lat="43.48742" lon="5.80383">
        <ele>383.60000610352</ele>
        <time>2021-01-31T08:34:22.000Z</time>
      </trkpt>
      <trkpt lat="43.48743" lon="5.80383">
        <ele>383</ele>
        <time>2021-01-31T08:34:30.000Z</time>
      </trkpt>
      <trkpt lat="43.48743" lon="5.80382">
        <ele>382.79998779297</ele>
        <time>2021-01-31T08:34:39.000Z</time>
      </trkpt>
      <trkpt lat="43.48746" lon="5.80376">
        <ele>382.60000610352</ele>
        <time>2021-01-31T08:34:42.000Z</time>
      </trkpt>
      <trkpt lat="43.48749" lon="5.80371">
        <ele>382.60000610352</ele>
        <time>2021-01-31T08:34:44.000Z</time>
      </trkpt>
      <trkpt lat="43.48756" lon="5.80359">
        <ele>382</ele>
        <time>2021-01-31T08:34:48.000Z</time>
      </trkpt>
      <trkpt lat="43.48761" lon="5.80346">
        <ele>381.60000610352</ele>
        <time>2021-01-31T08:34:51.000Z</time>
      </trkpt>
      <trkpt lat="43.48767" lon="5.80324">
        <ele>381.20001220703</ele>
        <time>2021-01-31T08:34:57.000Z</time>
      </trkpt>
      <trkpt lat="43.48771" lon="5.80314">
        <ele>381.60000610352</ele>
        <time>2021-01-31T08:35:00.000Z</time>
      </trkpt>
      <trkpt lat="43.48775" lon="5.80298">
        <ele>382</ele>
        <time>2021-01-31T08:35:04.000Z</time>
      </trkpt>
      <trkpt lat="43.48783" lon="5.80272">
        <ele>382</ele>
        <time>2021-01-31T08:35:10.000Z</time>
      </trkpt>
      <trkpt lat="43.48785" lon="5.80262">
        <ele>382</ele>
        <time>2021-01-31T08:35:12.000Z</time>
      </trkpt>
      <trkpt lat="43.48789" lon="5.80252">
        <ele>381.79998779297</ele>
        <time>2021-01-31T08:35:14.000Z</time>
      </trkpt>
      <trkpt lat="43.48799" lon="5.80226">
        <ele>380.39999389648</ele>
        <time>2021-01-31T08:35:19.000Z</time>
      </trkpt>
      <trkpt lat="43.48804" lon="5.80207">
        <ele>379.20001220703</ele>
        <time>2021-01-31T08:35:22.000Z</time>
      </trkpt>
      <trkpt lat="43.48805" lon="5.80201">
        <ele>379</ele>
        <time>2021-01-31T08:35:23.000Z</time>
      </trkpt>
      <trkpt lat="43.48808" lon="5.80187">
        <ele>378.39999389648</ele>
        <time>2021-01-31T08:35:25.000Z</time>
      </trkpt>
      <trkpt lat="43.4881" lon="5.8018">
        <ele>378.20001220703</ele>
        <time>2021-01-31T08:35:26.000Z</time>
      </trkpt>
      <trkpt lat="43.48815" lon="5.80162">
        <ele>376.79998779297</ele>
        <time>2021-01-31T08:35:29.000Z</time>
      </trkpt>
      <trkpt lat="43.48818" lon="5.80152">
        <ele>376.20001220703</ele>
        <time>2021-01-31T08:35:31.000Z</time>
      </trkpt>
      <trkpt lat="43.48819" lon="5.80146">
        <ele>376</ele>
        <time>2021-01-31T08:35:32.000Z</time>
      </trkpt>
      <trkpt lat="43.48825" lon="5.80128">
        <ele>376</ele>
        <time>2021-01-31T08:35:36.000Z</time>
      </trkpt>
      <trkpt lat="43.48838" lon="5.80093">
        <ele>377.39999389648</ele>
        <time>2021-01-31T08:35:44.000Z</time>
      </trkpt>
      <trkpt lat="43.48841" lon="5.80085">
        <ele>377.60000610352</ele>
        <time>2021-01-31T08:35:46.000Z</time>
      </trkpt>
      <trkpt lat="43.48844" lon="5.80076">
        <ele>377.79998779297</ele>
        <time>2021-01-31T08:35:48.000Z</time>
      </trkpt>
      <trkpt lat="43.48845" lon="5.80071">
        <ele>377.79998779297</ele>
        <time>2021-01-31T08:35:49.000Z</time>
      </trkpt>
      <trkpt lat="43.48848" lon="5.80053">
        <ele>378.60000610352</ele>
        <time>2021-01-31T08:35:53.000Z</time>
      </trkpt>
      <trkpt lat="43.48861" lon="5.8002">
        <ele>378.79998779297</ele>
        <time>2021-01-31T08:36:01.000Z</time>
      </trkpt>
      <trkpt lat="43.48866" lon="5.80002">
        <ele>379</ele>
        <time>2021-01-31T08:36:05.000Z</time>
      </trkpt>
      <trkpt lat="43.48868" lon="5.79993">
        <ele>379</ele>
        <time>2021-01-31T08:36:07.000Z</time>
      </trkpt>
      <trkpt lat="43.48876" lon="5.79976">
        <ele>379</ele>
        <time>2021-01-31T08:36:12.000Z</time>
      </trkpt>
      <trkpt lat="43.48878" lon="5.79969">
        <ele>380</ele>
        <time>2021-01-31T08:36:14.000Z</time>
      </trkpt>
      <trkpt lat="43.48879" lon="5.79966">
        <ele>380.39999389648</ele>
        <time>2021-01-31T08:36:15.000Z</time>
      </trkpt>
      <trkpt lat="43.48881" lon="5.79959">
        <ele>381</ele>
        <time>2021-01-31T08:36:17.000Z</time>
      </trkpt>
      <trkpt lat="43.48883" lon="5.79952">
        <ele>381.39999389648</ele>
        <time>2021-01-31T08:36:19.000Z</time>
      </trkpt>
      <trkpt lat="43.48884" lon="5.79944">
        <ele>382</ele>
        <time>2021-01-31T08:36:21.000Z</time>
      </trkpt>
      <trkpt lat="43.48888" lon="5.79926">
        <ele>382.39999389648</ele>
        <time>2021-01-31T08:36:26.000Z</time>
      </trkpt>
      <trkpt lat="43.48891" lon="5.79916">
        <ele>382.20001220703</ele>
        <time>2021-01-31T08:36:29.000Z</time>
      </trkpt>
      <trkpt lat="43.48895" lon="5.799">
        <ele>382.20001220703</ele>
        <time>2021-01-31T08:36:33.000Z</time>
      </trkpt>
      <trkpt lat="43.48897" lon="5.79893">
        <ele>382.60000610352</ele>
        <time>2021-01-31T08:36:35.000Z</time>
      </trkpt>
      <trkpt lat="43.48899" lon="5.7989">
        <ele>382.79998779297</ele>
        <time>2021-01-31T08:36:36.000Z</time>
      </trkpt>
      <trkpt lat="43.489" lon="5.79886">
        <ele>383.20001220703</ele>
        <time>2021-01-31T08:36:37.000Z</time>
      </trkpt>
      <trkpt lat="43.48901" lon="5.79882">
        <ele>383.20001220703</ele>
        <time>2021-01-31T08:36:38.000Z</time>
      </trkpt>
      <trkpt lat="43.48906" lon="5.79858">
        <ele>383</ele>
        <time>2021-01-31T08:36:44.000Z</time>
      </trkpt>
      <trkpt lat="43.48914" lon="5.7983">
        <ele>383.39999389648</ele>
        <time>2021-01-31T08:36:51.000Z</time>
      </trkpt>
      <trkpt lat="43.4892" lon="5.79806">
        <ele>382.79998779297</ele>
        <time>2021-01-31T08:36:57.000Z</time>
      </trkpt>
      <trkpt lat="43.4892" lon="5.79798">
        <ele>382.79998779297</ele>
        <time>2021-01-31T08:36:59.000Z</time>
      </trkpt>
      <trkpt lat="43.4892" lon="5.79795">
        <ele>382.60000610352</ele>
        <time>2021-01-31T08:37:00.000Z</time>
      </trkpt>
      <trkpt lat="43.48916" lon="5.79791">
        <ele>382.39999389648</ele>
        <time>2021-01-31T08:37:02.000Z</time>
      </trkpt>
      <trkpt lat="43.48905" lon="5.79787">
        <ele>382.20001220703</ele>
        <time>2021-01-31T08:37:06.000Z</time>
      </trkpt>
      <trkpt lat="43.489" lon="5.79788">
        <ele>382.20001220703</ele>
        <time>2021-01-31T08:37:08.000Z</time>
      </trkpt>
      <trkpt lat="43.48883" lon="5.79799">
        <ele>381.60000610352</ele>
        <time>2021-01-31T08:37:14.000Z</time>
      </trkpt>
      <trkpt lat="43.4888" lon="5.79802">
        <ele>381.39999389648</ele>
        <time>2021-01-31T08:37:15.000Z</time>
      </trkpt>
      <trkpt lat="43.48863" lon="5.79811">
        <ele>381.39999389648</ele>
        <time>2021-01-31T08:37:21.000Z</time>
      </trkpt>
      <trkpt lat="43.4886" lon="5.79812">
        <ele>381.39999389648</ele>
        <time>2021-01-31T08:37:22.000Z</time>
      </trkpt>
      <trkpt lat="43.48839" lon="5.79815">
        <ele>382</ele>
        <time>2021-01-31T08:37:30.000Z</time>
      </trkpt>
      <trkpt lat="43.48832" lon="5.79814">
        <ele>382.60000610352</ele>
        <time>2021-01-31T08:37:33.000Z</time>
      </trkpt>
      <trkpt lat="43.4882" lon="5.79813">
        <ele>383.39999389648</ele>
        <time>2021-01-31T08:37:38.000Z</time>
      </trkpt>
      <trkpt lat="43.48817" lon="5.79813">
        <ele>383.60000610352</ele>
        <time>2021-01-31T08:37:39.000Z</time>
      </trkpt>
      <trkpt lat="43.48814" lon="5.79813">
        <ele>383.79998779297</ele>
        <time>2021-01-31T08:37:40.000Z</time>
      </trkpt>
      <trkpt lat="43.48797" lon="5.79808">
        <ele>384</ele>
        <time>2021-01-31T08:37:47.000Z</time>
      </trkpt>
      <trkpt lat="43.48779" lon="5.79805">
        <ele>384.60000610352</ele>
        <time>2021-01-31T08:37:54.000Z</time>
      </trkpt>
      <trkpt lat="43.48763" lon="5.79811">
        <ele>384.39999389648</ele>
        <time>2021-01-31T08:38:00.000Z</time>
      </trkpt>
      <trkpt lat="43.4876" lon="5.79812">
        <ele>384.39999389648</ele>
        <time>2021-01-31T08:38:01.000Z</time>
      </trkpt>
      <trkpt lat="43.48746" lon="5.79807">
        <ele>383.79998779297</ele>
        <time>2021-01-31T08:38:05.000Z</time>
      </trkpt>
      <trkpt lat="43.48739" lon="5.79799">
        <ele>383.39999389648</ele>
        <time>2021-01-31T08:38:07.000Z</time>
      </trkpt>
      <trkpt lat="43.48728" lon="5.7978">
        <ele>382.79998779297</ele>
        <time>2021-01-31T08:38:11.000Z</time>
      </trkpt>
      <trkpt lat="43.48724" lon="5.79776">
        <ele>382.60000610352</ele>
        <time>2021-01-31T08:38:12.000Z</time>
      </trkpt>
      <trkpt lat="43.48721" lon="5.79771">
        <ele>382.39999389648</ele>
        <time>2021-01-31T08:38:13.000Z</time>
      </trkpt>
      <trkpt lat="43.48708" lon="5.79749">
        <ele>382</ele>
        <time>2021-01-31T08:38:17.000Z</time>
      </trkpt>
      <trkpt lat="43.48705" lon="5.79744">
        <ele>381.79998779297</ele>
        <time>2021-01-31T08:38:18.000Z</time>
      </trkpt>
      <trkpt lat="43.48702" lon="5.79739">
        <ele>381.60000610352</ele>
        <time>2021-01-31T08:38:19.000Z</time>
      </trkpt>
      <trkpt lat="43.48698" lon="5.79734">
        <ele>381.60000610352</ele>
        <time>2021-01-31T08:38:20.000Z</time>
      </trkpt>
      <trkpt lat="43.48695" lon="5.79729">
        <ele>381.39999389648</ele>
        <time>2021-01-31T08:38:21.000Z</time>
      </trkpt>
      <trkpt lat="43.48688" lon="5.79718">
        <ele>380.79998779297</ele>
        <time>2021-01-31T08:38:23.000Z</time>
      </trkpt>
      <trkpt lat="43.48681" lon="5.79708">
        <ele>380.60000610352</ele>
        <time>2021-01-31T08:38:25.000Z</time>
      </trkpt>
      <trkpt lat="43.48678" lon="5.79702">
        <ele>380.39999389648</ele>
        <time>2021-01-31T08:38:26.000Z</time>
      </trkpt>
      <trkpt lat="43.48665" lon="5.7968">
        <ele>379</ele>
        <time>2021-01-31T08:38:30.000Z</time>
      </trkpt>
      <trkpt lat="43.48653" lon="5.79663">
        <ele>378.20001220703</ele>
        <time>2021-01-31T08:38:33.000Z</time>
      </trkpt>
      <trkpt lat="43.48644" lon="5.79651">
        <ele>377.79998779297</ele>
        <time>2021-01-31T08:38:35.000Z</time>
      </trkpt>
      <trkpt lat="43.48633" lon="5.79635">
        <ele>376.39999389648</ele>
        <time>2021-01-31T08:38:38.000Z</time>
      </trkpt>
      <trkpt lat="43.48627" lon="5.79625">
        <ele>375.79998779297</ele>
        <time>2021-01-31T08:38:40.000Z</time>
      </trkpt>
      <trkpt lat="43.48622" lon="5.79616">
        <ele>375.39999389648</ele>
        <time>2021-01-31T08:38:42.000Z</time>
      </trkpt>
      <trkpt lat="43.48607" lon="5.79593">
        <ele>375</ele>
        <time>2021-01-31T08:38:47.000Z</time>
      </trkpt>
      <trkpt lat="43.48596" lon="5.79575">
        <ele>374.20001220703</ele>
        <time>2021-01-31T08:38:51.000Z</time>
      </trkpt>
      <trkpt lat="43.48591" lon="5.79566">
        <ele>373.39999389648</ele>
        <time>2021-01-31T08:38:53.000Z</time>
      </trkpt>
      <trkpt lat="43.48588" lon="5.79562">
        <ele>373.20001220703</ele>
        <time>2021-01-31T08:38:54.000Z</time>
      </trkpt>
      <trkpt lat="43.48586" lon="5.79557">
        <ele>373</ele>
        <time>2021-01-31T08:38:55.000Z</time>
      </trkpt>
      <trkpt lat="43.48582" lon="5.79549">
        <ele>372.79998779297</ele>
        <time>2021-01-31T08:38:57.000Z</time>
      </trkpt>
      <trkpt lat="43.48576" lon="5.79536">
        <ele>372.60000610352</ele>
        <time>2021-01-31T08:39:00.000Z</time>
      </trkpt>
      <trkpt lat="43.48575" lon="5.79532">
        <ele>372.60000610352</ele>
        <time>2021-01-31T08:39:01.000Z</time>
      </trkpt>
      <trkpt lat="43.48574" lon="5.79528">
        <ele>372.60000610352</ele>
        <time>2021-01-31T08:39:02.000Z</time>
      </trkpt>
      <trkpt lat="43.48571" lon="5.79514">
        <ele>372.79998779297</ele>
        <time>2021-01-31T08:39:07.000Z</time>
      </trkpt>
      <trkpt lat="43.4857" lon="5.79512">
        <ele>372.79998779297</ele>
        <time>2021-01-31T08:39:09.000Z</time>
      </trkpt>
      <trkpt lat="43.48567" lon="5.79511">
        <ele>372.79998779297</ele>
        <time>2021-01-31T08:39:11.000Z</time>
      </trkpt>
      <trkpt lat="43.48565" lon="5.79513">
        <ele>372.79998779297</ele>
        <time>2021-01-31T08:39:12.000Z</time>
      </trkpt>
      <trkpt lat="43.48557" lon="5.79526">
        <ele>373.20001220703</ele>
        <time>2021-01-31T08:39:17.000Z</time>
      </trkpt>
      <trkpt lat="43.48556" lon="5.79529">
        <ele>373.20001220703</ele>
        <time>2021-01-31T08:39:18.000Z</time>
      </trkpt>
      <trkpt lat="43.48551" lon="5.79535">
        <ele>373.39999389648</ele>
        <time>2021-01-31T08:39:21.000Z</time>
      </trkpt>
      <trkpt lat="43.48545" lon="5.79539">
        <ele>373.79998779297</ele>
        <time>2021-01-31T08:39:24.000Z</time>
      </trkpt>
      <trkpt lat="43.48541" lon="5.7954">
        <ele>374</ele>
        <time>2021-01-31T08:39:26.000Z</time>
      </trkpt>
      <trkpt lat="43.48531" lon="5.79537">
        <ele>374.79998779297</ele>
        <time>2021-01-31T08:39:30.000Z</time>
      </trkpt>
      <trkpt lat="43.48517" lon="5.79527">
        <ele>374.79998779297</ele>
        <time>2021-01-31T08:39:36.000Z</time>
      </trkpt>
      <trkpt lat="43.485" lon="5.79509">
        <ele>374.39999389648</ele>
        <time>2021-01-31T08:39:43.000Z</time>
      </trkpt>
      <trkpt lat="43.48485" lon="5.79495">
        <ele>373.60000610352</ele>
        <time>2021-01-31T08:39:48.000Z</time>
      </trkpt>
      <trkpt lat="43.48477" lon="5.79494">
        <ele>373.20001220703</ele>
        <time>2021-01-31T08:39:50.000Z</time>
      </trkpt>
      <trkpt lat="43.48464" lon="5.79491">
        <ele>373</ele>
        <time>2021-01-31T08:39:53.000Z</time>
      </trkpt>
      <trkpt lat="43.48455" lon="5.79485">
        <ele>372.79998779297</ele>
        <time>2021-01-31T08:39:55.000Z</time>
      </trkpt>
      <trkpt lat="43.48438" lon="5.79472">
        <ele>371.79998779297</ele>
        <time>2021-01-31T08:39:58.000Z</time>
      </trkpt>
      <trkpt lat="43.48434" lon="5.79468">
        <ele>371.60000610352</ele>
        <time>2021-01-31T08:40:00.000Z</time>
      </trkpt>
      <trkpt lat="43.4843" lon="5.79463">
        <ele>371.20001220703</ele>
        <time>2021-01-31T08:40:01.000Z</time>
      </trkpt>
      <trkpt lat="43.48427" lon="5.79457">
        <ele>370.79998779297</ele>
        <time>2021-01-31T08:40:02.000Z</time>
      </trkpt>
      <trkpt lat="43.48425" lon="5.79451">
        <ele>370.39999389648</ele>
        <time>2021-01-31T08:40:03.000Z</time>
      </trkpt>
      <trkpt lat="43.48425" lon="5.79444">
        <ele>369.79998779297</ele>
        <time>2021-01-31T08:40:04.000Z</time>
      </trkpt>
      <trkpt lat="43.48425" lon="5.79438">
        <ele>369.39999389648</ele>
        <time>2021-01-31T08:40:05.000Z</time>
      </trkpt>
      <trkpt lat="43.48425" lon="5.79422">
        <ele>368.39999389648</ele>
        <time>2021-01-31T08:40:08.000Z</time>
      </trkpt>
      <trkpt lat="43.48425" lon="5.79415">
        <ele>368.20001220703</ele>
        <time>2021-01-31T08:40:09.000Z</time>
      </trkpt>
      <trkpt lat="43.48423" lon="5.79376">
        <ele>367.20001220703</ele>
        <time>2021-01-31T08:40:15.000Z</time>
      </trkpt>
      <trkpt lat="43.4842" lon="5.79364">
        <ele>366.39999389648</ele>
        <time>2021-01-31T08:40:17.000Z</time>
      </trkpt>
      <trkpt lat="43.48417" lon="5.79359">
        <ele>366.20001220703</ele>
        <time>2021-01-31T08:40:18.000Z</time>
      </trkpt>
      <trkpt lat="43.48413" lon="5.79354">
        <ele>365.79998779297</ele>
        <time>2021-01-31T08:40:19.000Z</time>
      </trkpt>
      <trkpt lat="43.48403" lon="5.79346">
        <ele>365</ele>
        <time>2021-01-31T08:40:21.000Z</time>
      </trkpt>
      <trkpt lat="43.48392" lon="5.7934">
        <ele>363</ele>
        <time>2021-01-31T08:40:23.000Z</time>
      </trkpt>
      <trkpt lat="43.48387" lon="5.79336">
        <ele>362</ele>
        <time>2021-01-31T08:40:24.000Z</time>
      </trkpt>
      <trkpt lat="43.48382" lon="5.79332">
        <ele>361.20001220703</ele>
        <time>2021-01-31T08:40:25.000Z</time>
      </trkpt>
      <trkpt lat="43.48378" lon="5.79327">
        <ele>360.60000610352</ele>
        <time>2021-01-31T08:40:26.000Z</time>
      </trkpt>
      <trkpt lat="43.48369" lon="5.79319">
        <ele>358.79998779297</ele>
        <time>2021-01-31T08:40:28.000Z</time>
      </trkpt>
      <trkpt lat="43.48365" lon="5.79316">
        <ele>357.79998779297</ele>
        <time>2021-01-31T08:40:29.000Z</time>
      </trkpt>
      <trkpt lat="43.48354" lon="5.79311">
        <ele>356.39999389648</ele>
        <time>2021-01-31T08:40:31.000Z</time>
      </trkpt>
      <trkpt lat="43.48343" lon="5.79308">
        <ele>355</ele>
        <time>2021-01-31T08:40:33.000Z</time>
      </trkpt>
      <trkpt lat="43.48338" lon="5.79307">
        <ele>354.60000610352</ele>
        <time>2021-01-31T08:40:34.000Z</time>
      </trkpt>
      <trkpt lat="43.48327" lon="5.79304">
        <ele>353.60000610352</ele>
        <time>2021-01-31T08:40:36.000Z</time>
      </trkpt>
      <trkpt lat="43.4832" lon="5.79299">
        <ele>352.60000610352</ele>
        <time>2021-01-31T08:40:38.000Z</time>
      </trkpt>
      <trkpt lat="43.48317" lon="5.79296">
        <ele>352.20001220703</ele>
        <time>2021-01-31T08:40:39.000Z</time>
      </trkpt>
      <trkpt lat="43.4831" lon="5.79292">
        <ele>350.60000610352</ele>
        <time>2021-01-31T08:40:41.000Z</time>
      </trkpt>
      <trkpt lat="43.48302" lon="5.79294">
        <ele>349</ele>
        <time>2021-01-31T08:40:43.000Z</time>
      </trkpt>
      <trkpt lat="43.48284" lon="5.79301">
        <ele>347.79998779297</ele>
        <time>2021-01-31T08:40:47.000Z</time>
      </trkpt>
      <trkpt lat="43.48278" lon="5.79302">
        <ele>347.39999389648</ele>
        <time>2021-01-31T08:40:48.000Z</time>
      </trkpt>
      <trkpt lat="43.48266" lon="5.79303">
        <ele>346.20001220703</ele>
        <time>2021-01-31T08:40:50.000Z</time>
      </trkpt>
      <trkpt lat="43.48255" lon="5.79302">
        <ele>344.79998779297</ele>
        <time>2021-01-31T08:40:52.000Z</time>
      </trkpt>
      <trkpt lat="43.48242" lon="5.79302">
        <ele>343.20001220703</ele>
        <time>2021-01-31T08:40:54.000Z</time>
      </trkpt>
      <trkpt lat="43.4823" lon="5.79303">
        <ele>342</ele>
        <time>2021-01-31T08:40:56.000Z</time>
      </trkpt>
      <trkpt lat="43.48217" lon="5.79304">
        <ele>340.79998779297</ele>
        <time>2021-01-31T08:40:58.000Z</time>
      </trkpt>
      <trkpt lat="43.48205" lon="5.79305">
        <ele>339.60000610352</ele>
        <time>2021-01-31T08:41:00.000Z</time>
      </trkpt>
      <trkpt lat="43.48199" lon="5.79307">
        <ele>339.20001220703</ele>
        <time>2021-01-31T08:41:01.000Z</time>
      </trkpt>
      <trkpt lat="43.48188" lon="5.79312">
        <ele>338.20001220703</ele>
        <time>2021-01-31T08:41:03.000Z</time>
      </trkpt>
      <trkpt lat="43.48182" lon="5.79315">
        <ele>337.60000610352</ele>
        <time>2021-01-31T08:41:04.000Z</time>
      </trkpt>
      <trkpt lat="43.48177" lon="5.79319">
        <ele>337</ele>
        <time>2021-01-31T08:41:05.000Z</time>
      </trkpt>
      <trkpt lat="43.48159" lon="5.79327">
        <ele>335.39999389648</ele>
        <time>2021-01-31T08:41:08.000Z</time>
      </trkpt>
      <trkpt lat="43.48151" lon="5.79333">
        <ele>334.60000610352</ele>
        <time>2021-01-31T08:41:10.000Z</time>
      </trkpt>
      <trkpt lat="43.48147" lon="5.79337">
        <ele>334.39999389648</ele>
        <time>2021-01-31T08:41:11.000Z</time>
      </trkpt>
      <trkpt lat="43.48143" lon="5.79341">
        <ele>334</ele>
        <time>2021-01-31T08:41:12.000Z</time>
      </trkpt>
      <trkpt lat="43.48135" lon="5.79348">
        <ele>333.39999389648</ele>
        <time>2021-01-31T08:41:14.000Z</time>
      </trkpt>
      <trkpt lat="43.48127" lon="5.79357">
        <ele>332.60000610352</ele>
        <time>2021-01-31T08:41:16.000Z</time>
      </trkpt>
      <trkpt lat="43.48115" lon="5.79368">
        <ele>331.79998779297</ele>
        <time>2021-01-31T08:41:19.000Z</time>
      </trkpt>
      <trkpt lat="43.48111" lon="5.7937">
        <ele>331.60000610352</ele>
        <time>2021-01-31T08:41:20.000Z</time>
      </trkpt>
      <trkpt lat="43.48107" lon="5.79372">
        <ele>331.39999389648</ele>
        <time>2021-01-31T08:41:21.000Z</time>
      </trkpt>
      <trkpt lat="43.48094" lon="5.79376">
        <ele>331</ele>
        <time>2021-01-31T08:41:24.000Z</time>
      </trkpt>
      <trkpt lat="43.48084" lon="5.79376">
        <ele>330.79998779297</ele>
        <time>2021-01-31T08:41:26.000Z</time>
      </trkpt>
      <trkpt lat="43.48079" lon="5.79377">
        <ele>330.60000610352</ele>
        <time>2021-01-31T08:41:27.000Z</time>
      </trkpt>
      <trkpt lat="43.48074" lon="5.79379">
        <ele>330.39999389648</ele>
        <time>2021-01-31T08:41:28.000Z</time>
      </trkpt>
      <trkpt lat="43.4807" lon="5.79382">
        <ele>330.20001220703</ele>
        <time>2021-01-31T08:41:29.000Z</time>
      </trkpt>
      <trkpt lat="43.48066" lon="5.79386">
        <ele>330</ele>
        <time>2021-01-31T08:41:30.000Z</time>
      </trkpt>
      <trkpt lat="43.48063" lon="5.7939">
        <ele>329.79998779297</ele>
        <time>2021-01-31T08:41:31.000Z</time>
      </trkpt>
      <trkpt lat="43.48056" lon="5.79401">
        <ele>329.60000610352</ele>
        <time>2021-01-31T08:41:33.000Z</time>
      </trkpt>
      <trkpt lat="43.48053" lon="5.79406">
        <ele>329.60000610352</ele>
        <time>2021-01-31T08:41:34.000Z</time>
      </trkpt>
      <trkpt lat="43.48042" lon="5.79417">
        <ele>330</ele>
        <time>2021-01-31T08:41:38.000Z</time>
      </trkpt>
      <trkpt lat="43.4803" lon="5.79424">
        <ele>330.20001220703</ele>
        <time>2021-01-31T08:41:42.000Z</time>
      </trkpt>
      <trkpt lat="43.48025" lon="5.79427">
        <ele>330.20001220703</ele>
        <time>2021-01-31T08:41:44.000Z</time>
      </trkpt>
      <trkpt lat="43.48003" lon="5.79436">
        <ele>329.39999389648</ele>
        <time>2021-01-31T08:41:50.000Z</time>
      </trkpt>
      <trkpt lat="43.47996" lon="5.79433">
        <ele>328.79998779297</ele>
        <time>2021-01-31T08:41:52.000Z</time>
      </trkpt>
      <trkpt lat="43.47991" lon="5.79427">
        <ele>328.39999389648</ele>
        <time>2021-01-31T08:41:54.000Z</time>
      </trkpt>
      <trkpt lat="43.47986" lon="5.79423">
        <ele>327.79998779297</ele>
        <time>2021-01-31T08:41:56.000Z</time>
      </trkpt>
      <trkpt lat="43.4798" lon="5.79422">
        <ele>327.20001220703</ele>
        <time>2021-01-31T08:41:58.000Z</time>
      </trkpt>
      <trkpt lat="43.47972" lon="5.79422">
        <ele>326.79998779297</ele>
        <time>2021-01-31T08:42:01.000Z</time>
      </trkpt>
      <trkpt lat="43.47964" lon="5.79425">
        <ele>326.79998779297</ele>
        <time>2021-01-31T08:42:05.000Z</time>
      </trkpt>
      <trkpt lat="43.47941" lon="5.79432">
        <ele>326.20001220703</ele>
        <time>2021-01-31T08:42:11.000Z</time>
      </trkpt>
      <trkpt lat="43.47938" lon="5.79433">
        <ele>326</ele>
        <time>2021-01-31T08:42:12.000Z</time>
      </trkpt>
      <trkpt lat="43.47916" lon="5.79444">
        <ele>325.39999389648</ele>
        <time>2021-01-31T08:42:18.000Z</time>
      </trkpt>
      <trkpt lat="43.47908" lon="5.79449">
        <ele>325</ele>
        <time>2021-01-31T08:42:20.000Z</time>
      </trkpt>
      <trkpt lat="43.47892" lon="5.79459">
        <ele>324.39999389648</ele>
        <time>2021-01-31T08:42:24.000Z</time>
      </trkpt>
      <trkpt lat="43.47879" lon="5.79473">
        <ele>324</ele>
        <time>2021-01-31T08:42:28.000Z</time>
      </trkpt>
      <trkpt lat="43.47875" lon="5.79482">
        <ele>324</ele>
        <time>2021-01-31T08:42:30.000Z</time>
      </trkpt>
      <trkpt lat="43.47873" lon="5.7949">
        <ele>324</ele>
        <time>2021-01-31T08:42:32.000Z</time>
      </trkpt>
      <trkpt lat="43.47875" lon="5.79496">
        <ele>324</ele>
        <time>2021-01-31T08:42:34.000Z</time>
      </trkpt>
      <trkpt lat="43.47883" lon="5.79507">
        <ele>325.20001220703</ele>
        <time>2021-01-31T08:42:39.000Z</time>
      </trkpt>
      <trkpt lat="43.47885" lon="5.79508">
        <ele>325.39999389648</ele>
        <time>2021-01-31T08:42:40.000Z</time>
      </trkpt>
      <trkpt lat="43.47895" lon="5.79512">
        <ele>326.39999389648</ele>
        <time>2021-01-31T08:42:44.000Z</time>
      </trkpt>
      <trkpt lat="43.47899" lon="5.79518">
        <ele>327</ele>
        <time>2021-01-31T08:42:47.000Z</time>
      </trkpt>
      <trkpt lat="43.47901" lon="5.79523">
        <ele>327.60000610352</ele>
        <time>2021-01-31T08:42:49.000Z</time>
      </trkpt>
      <trkpt lat="43.479" lon="5.79531">
        <ele>328.39999389648</ele>
        <time>2021-01-31T08:42:52.000Z</time>
      </trkpt>
      <trkpt lat="43.47898" lon="5.79536">
        <ele>328.79998779297</ele>
        <time>2021-01-31T08:42:54.000Z</time>
      </trkpt>
      <trkpt lat="43.47898" lon="5.79542">
        <ele>329</ele>
        <time>2021-01-31T08:42:56.000Z</time>
      </trkpt>
      <trkpt lat="43.47899" lon="5.79551">
        <ele>329.20001220703</ele>
        <time>2021-01-31T08:42:59.000Z</time>
      </trkpt>
      <trkpt lat="43.47897" lon="5.79559">
        <ele>329.20001220703</ele>
        <time>2021-01-31T08:43:02.000Z</time>
      </trkpt>
      <trkpt lat="43.47893" lon="5.79563">
        <ele>329</ele>
        <time>2021-01-31T08:43:04.000Z</time>
      </trkpt>
      <trkpt lat="43.47878" lon="5.79579">
        <ele>328.79998779297</ele>
        <time>2021-01-31T08:43:11.000Z</time>
      </trkpt>
      <trkpt lat="43.47866" lon="5.79596">
        <ele>328.20001220703</ele>
        <time>2021-01-31T08:43:17.000Z</time>
      </trkpt>
      <trkpt lat="43.47864" lon="5.79598">
        <ele>328</ele>
        <time>2021-01-31T08:43:18.000Z</time>
      </trkpt>
      <trkpt lat="43.47859" lon="5.79604">
        <ele>327.60000610352</ele>
        <time>2021-01-31T08:43:20.000Z</time>
      </trkpt>
      <trkpt lat="43.4785" lon="5.79613">
        <ele>327.39999389648</ele>
        <time>2021-01-31T08:43:23.000Z</time>
      </trkpt>
      <trkpt lat="43.47844" lon="5.7962">
        <ele>327</ele>
        <time>2021-01-31T08:43:25.000Z</time>
      </trkpt>
      <trkpt lat="43.47838" lon="5.79625">
        <ele>326.20001220703</ele>
        <time>2021-01-31T08:43:27.000Z</time>
      </trkpt>
      <trkpt lat="43.47834" lon="5.79627">
        <ele>325.79998779297</ele>
        <time>2021-01-31T08:43:29.000Z</time>
      </trkpt>
      <trkpt lat="43.47833" lon="5.79628">
        <ele>325.79998779297</ele>
        <time>2021-01-31T08:43:30.000Z</time>
      </trkpt>
      <trkpt lat="43.47831" lon="5.79632">
        <ele>325.60000610352</ele>
        <time>2021-01-31T08:43:32.000Z</time>
      </trkpt>
      <trkpt lat="43.47829" lon="5.79632">
        <ele>325.39999389648</ele>
        <time>2021-01-31T08:43:33.000Z</time>
      </trkpt>
      <trkpt lat="43.47827" lon="5.79631">
        <ele>325.20001220703</ele>
        <time>2021-01-31T08:43:34.000Z</time>
      </trkpt>
      <trkpt lat="43.47818" lon="5.79629">
        <ele>324.79998779297</ele>
        <time>2021-01-31T08:43:38.000Z</time>
      </trkpt>
      <trkpt lat="43.47816" lon="5.79629">
        <ele>324.79998779297</ele>
        <time>2021-01-31T08:43:39.000Z</time>
      </trkpt>
      <trkpt lat="43.47809" lon="5.7963">
        <ele>324.60000610352</ele>
        <time>2021-01-31T08:43:42.000Z</time>
      </trkpt>
      <trkpt lat="43.47806" lon="5.7963">
        <ele>324.79998779297</ele>
        <time>2021-01-31T08:43:43.000Z</time>
      </trkpt>
      <trkpt lat="43.47801" lon="5.79631">
        <ele>324.60000610352</ele>
        <time>2021-01-31T08:43:45.000Z</time>
      </trkpt>
      <trkpt lat="43.47799" lon="5.79632">
        <ele>324.60000610352</ele>
        <time>2021-01-31T08:43:46.000Z</time>
      </trkpt>
      <trkpt lat="43.47784" lon="5.7964">
        <ele>325</ele>
        <time>2021-01-31T08:43:52.000Z</time>
      </trkpt>
      <trkpt lat="43.47767" lon="5.79653">
        <ele>325.39999389648</ele>
        <time>2021-01-31T08:43:58.000Z</time>
      </trkpt>
      <trkpt lat="43.47767" lon="5.79653">
        <ele>325.39999389648</ele>
        <time>2021-01-31T08:43:59.000Z</time>
      </trkpt>
      <trkpt lat="43.47758" lon="5.7966">
        <ele>326</ele>
        <time>2021-01-31T08:44:03.000Z</time>
      </trkpt>
      <trkpt lat="43.47755" lon="5.79662">
        <ele>326.20001220703</ele>
        <time>2021-01-31T08:44:04.000Z</time>
      </trkpt>
      <trkpt lat="43.4775" lon="5.79666">
        <ele>326.39999389648</ele>
        <time>2021-01-31T08:44:06.000Z</time>
      </trkpt>
      <trkpt lat="43.47744" lon="5.7967">
        <ele>326.60000610352</ele>
        <time>2021-01-31T08:44:08.000Z</time>
      </trkpt>
      <trkpt lat="43.47727" lon="5.79682">
        <ele>327</ele>
        <time>2021-01-31T08:44:15.000Z</time>
      </trkpt>
      <trkpt lat="43.47707" lon="5.7969">
        <ele>327</ele>
        <time>2021-01-31T08:44:22.000Z</time>
      </trkpt>
      <trkpt lat="43.47688" lon="5.79707">
        <ele>326.79998779297</ele>
        <time>2021-01-31T08:44:29.000Z</time>
      </trkpt>
      <trkpt lat="43.4767" lon="5.79718">
        <ele>326.79998779297</ele>
        <time>2021-01-31T08:44:35.000Z</time>
      </trkpt>
      <trkpt lat="43.4765" lon="5.79719">
        <ele>326.39999389648</ele>
        <time>2021-01-31T08:44:41.000Z</time>
      </trkpt>
      <trkpt lat="43.47626" lon="5.79712">
        <ele>325.60000610352</ele>
        <time>2021-01-31T08:44:48.000Z</time>
      </trkpt>
      <trkpt lat="43.47618" lon="5.79712">
        <ele>325</ele>
        <time>2021-01-31T08:44:50.000Z</time>
      </trkpt>
      <trkpt lat="43.47607" lon="5.79712">
        <ele>325</ele>
        <time>2021-01-31T08:44:53.000Z</time>
      </trkpt>
      <trkpt lat="43.476" lon="5.79713">
        <ele>325.60000610352</ele>
        <time>2021-01-31T08:44:55.000Z</time>
      </trkpt>
      <trkpt lat="43.47594" lon="5.79713">
        <ele>326.39999389648</ele>
        <time>2021-01-31T08:44:57.000Z</time>
      </trkpt>
      <trkpt lat="43.47585" lon="5.79713">
        <ele>326.79998779297</ele>
        <time>2021-01-31T08:45:01.000Z</time>
      </trkpt>
      <trkpt lat="43.47574" lon="5.79713">
        <ele>326.79998779297</ele>
        <time>2021-01-31T08:45:05.000Z</time>
      </trkpt>
      <trkpt lat="43.47568" lon="5.79716">
        <ele>327</ele>
        <time>2021-01-31T08:45:07.000Z</time>
      </trkpt>
      <trkpt lat="43.47564" lon="5.79721">
        <ele>327.60000610352</ele>
        <time>2021-01-31T08:45:09.000Z</time>
      </trkpt>
      <trkpt lat="43.47561" lon="5.79728">
        <ele>327.79998779297</ele>
        <time>2021-01-31T08:45:11.000Z</time>
      </trkpt>
      <trkpt lat="43.47551" lon="5.7975">
        <ele>328</ele>
        <time>2021-01-31T08:45:18.000Z</time>
      </trkpt>
      <trkpt lat="43.4755" lon="5.79753">
        <ele>328</ele>
        <time>2021-01-31T08:45:19.000Z</time>
      </trkpt>
      <trkpt lat="43.47545" lon="5.79767">
        <ele>327.79998779297</ele>
        <time>2021-01-31T08:45:25.000Z</time>
      </trkpt>
      <trkpt lat="43.47541" lon="5.79791">
        <ele>327.79998779297</ele>
        <time>2021-01-31T08:45:32.000Z</time>
      </trkpt>
      <trkpt lat="43.47542" lon="5.79806">
        <ele>328.39999389648</ele>
        <time>2021-01-31T08:45:36.000Z</time>
      </trkpt>
      <trkpt lat="43.47542" lon="5.79809">
        <ele>328.39999389648</ele>
        <time>2021-01-31T08:45:37.000Z</time>
      </trkpt>
      <trkpt lat="43.47543" lon="5.79813">
        <ele>328.39999389648</ele>
        <time>2021-01-31T08:45:38.000Z</time>
      </trkpt>
      <trkpt lat="43.47545" lon="5.79827">
        <ele>328.60000610352</ele>
        <time>2021-01-31T08:45:42.000Z</time>
      </trkpt>
      <trkpt lat="43.47543" lon="5.79838">
        <ele>328.60000610352</ele>
        <time>2021-01-31T08:45:45.000Z</time>
      </trkpt>
      <trkpt lat="43.47528" lon="5.79859">
        <ele>328.20001220703</ele>
        <time>2021-01-31T08:45:52.000Z</time>
      </trkpt>
      <trkpt lat="43.47524" lon="5.79874">
        <ele>327.39999389648</ele>
        <time>2021-01-31T08:45:56.000Z</time>
      </trkpt>
      <trkpt lat="43.47523" lon="5.79878">
        <ele>327.39999389648</ele>
        <time>2021-01-31T08:45:57.000Z</time>
      </trkpt>
      <trkpt lat="43.47512" lon="5.79904">
        <ele>327.20001220703</ele>
        <time>2021-01-31T08:46:04.000Z</time>
      </trkpt>
      <trkpt lat="43.47495" lon="5.79922">
        <ele>327.20001220703</ele>
        <time>2021-01-31T08:46:11.000Z</time>
      </trkpt>
      <trkpt lat="43.47479" lon="5.79944">
        <ele>326.79998779297</ele>
        <time>2021-01-31T08:46:18.000Z</time>
      </trkpt>
      <trkpt lat="43.47476" lon="5.79947">
        <ele>326.79998779297</ele>
        <time>2021-01-31T08:46:19.000Z</time>
      </trkpt>
      <trkpt lat="43.47459" lon="5.7997">
        <ele>326.39999389648</ele>
        <time>2021-01-31T08:46:26.000Z</time>
      </trkpt>
      <trkpt lat="43.47456" lon="5.79974">
        <ele>326.39999389648</ele>
        <time>2021-01-31T08:46:27.000Z</time>
      </trkpt>
      <trkpt lat="43.47439" lon="5.79999">
        <ele>326</ele>
        <time>2021-01-31T08:46:34.000Z</time>
      </trkpt>
      <trkpt lat="43.47426" lon="5.80018">
        <ele>325.79998779297</ele>
        <time>2021-01-31T08:46:40.000Z</time>
      </trkpt>
      <trkpt lat="43.4742" lon="5.80022">
        <ele>325.39999389648</ele>
        <time>2021-01-31T08:46:42.000Z</time>
      </trkpt>
      <trkpt lat="43.47417" lon="5.80023">
        <ele>325.20001220703</ele>
        <time>2021-01-31T08:46:43.000Z</time>
      </trkpt>
      <trkpt lat="43.47407" lon="5.80026">
        <ele>324.79998779297</ele>
        <time>2021-01-31T08:46:46.000Z</time>
      </trkpt>
      <trkpt lat="43.47385" lon="5.80025">
        <ele>324.79998779297</ele>
        <time>2021-01-31T08:46:52.000Z</time>
      </trkpt>
      <trkpt lat="43.47372" lon="5.80019">
        <ele>324.39999389648</ele>
        <time>2021-01-31T08:46:56.000Z</time>
      </trkpt>
      <trkpt lat="43.47365" lon="5.80015">
        <ele>324.20001220703</ele>
        <time>2021-01-31T08:46:58.000Z</time>
      </trkpt>
      <trkpt lat="43.47337" lon="5.8">
        <ele>324.79998779297</ele>
        <time>2021-01-31T08:47:06.000Z</time>
      </trkpt>
      <trkpt lat="43.4732" lon="5.7999">
        <ele>323.60000610352</ele>
        <time>2021-01-31T08:47:11.000Z</time>
      </trkpt>
      <trkpt lat="43.47309" lon="5.79983">
        <ele>323.20001220703</ele>
        <time>2021-01-31T08:47:14.000Z</time>
      </trkpt>
      <trkpt lat="43.47296" lon="5.79977">
        <ele>322.39999389648</ele>
        <time>2021-01-31T08:47:18.000Z</time>
      </trkpt>
      <trkpt lat="43.47289" lon="5.79975">
        <ele>322.39999389648</ele>
        <time>2021-01-31T08:47:23.000Z</time>
      </trkpt>
      <trkpt lat="43.47288" lon="5.79976">
        <ele>322.39999389648</ele>
        <time>2021-01-31T08:47:26.000Z</time>
      </trkpt>
      <trkpt lat="43.47288" lon="5.79977">
        <ele>322.20001220703</ele>
        <time>2021-01-31T08:47:31.000Z</time>
      </trkpt>
      <trkpt lat="43.47288" lon="5.79977">
        <ele>322.20001220703</ele>
        <time>2021-01-31T08:47:32.000Z</time>
      </trkpt>
      <trkpt lat="43.47287" lon="5.79978">
        <ele>321.60000610352</ele>
        <time>2021-01-31T08:47:40.000Z</time>
      </trkpt>
      <trkpt lat="43.47287" lon="5.79978">
        <ele>321.39999389648</ele>
        <time>2021-01-31T08:47:43.000Z</time>
      </trkpt>
      <trkpt lat="43.47287" lon="5.7998">
        <ele>321.20001220703</ele>
        <time>2021-01-31T08:47:46.000Z</time>
      </trkpt>
      <trkpt lat="43.47287" lon="5.7998">
        <ele>321</ele>
        <time>2021-01-31T08:47:48.000Z</time>
      </trkpt>
      <trkpt lat="43.47287" lon="5.79979">
        <ele>320.39999389648</ele>
        <time>2021-01-31T08:47:55.000Z</time>
      </trkpt>
      <trkpt lat="43.47287" lon="5.7998">
        <ele>320</ele>
        <time>2021-01-31T08:48:01.000Z</time>
      </trkpt>
      <trkpt lat="43.47287" lon="5.79979">
        <ele>320</ele>
        <time>2021-01-31T08:48:05.000Z</time>
      </trkpt>
      <trkpt lat="43.47287" lon="5.7998">
        <ele>320</ele>
        <time>2021-01-31T08:48:07.000Z</time>
      </trkpt>
      <trkpt lat="43.47286" lon="5.7998">
        <ele>320</ele>
        <time>2021-01-31T08:48:09.000Z</time>
      </trkpt>
      <trkpt lat="43.47282" lon="5.79985">
        <ele>319.79998779297</ele>
        <time>2021-01-31T08:48:13.000Z</time>
      </trkpt>
      <trkpt lat="43.47276" lon="5.79998">
        <ele>319.60000610352</ele>
        <time>2021-01-31T08:48:18.000Z</time>
      </trkpt>
      <trkpt lat="43.47273" lon="5.80002">
        <ele>319.79998779297</ele>
        <time>2021-01-31T08:48:20.000Z</time>
      </trkpt>
      <trkpt lat="43.47273" lon="5.80004">
        <ele>320</ele>
        <time>2021-01-31T08:48:25.000Z</time>
      </trkpt>
      <trkpt lat="43.47274" lon="5.80005">
        <ele>320</ele>
        <time>2021-01-31T08:48:27.000Z</time>
      </trkpt>
      <trkpt lat="43.47274" lon="5.80008">
        <ele>320</ele>
        <time>2021-01-31T08:48:31.000Z</time>
      </trkpt>
      <trkpt lat="43.47274" lon="5.8001">
        <ele>320</ele>
        <time>2021-01-31T08:48:33.000Z</time>
      </trkpt>
      <trkpt lat="43.47276" lon="5.80012">
        <ele>319.79998779297</ele>
        <time>2021-01-31T08:48:38.000Z</time>
      </trkpt>
      <trkpt lat="43.47274" lon="5.80016">
        <ele>320.20001220703</ele>
        <time>2021-01-31T08:48:43.000Z</time>
      </trkpt>
      <trkpt lat="43.47274" lon="5.80016">
        <ele>320.20001220703</ele>
        <time>2021-01-31T08:48:44.000Z</time>
      </trkpt>
      <trkpt lat="43.47273" lon="5.80017">
        <ele>320</ele>
        <time>2021-01-31T08:48:45.000Z</time>
      </trkpt>
      <trkpt lat="43.4727" lon="5.80018">
        <ele>319.60000610352</ele>
        <time>2021-01-31T08:48:48.000Z</time>
      </trkpt>
      <trkpt lat="43.47269" lon="5.80021">
        <ele>319.60000610352</ele>
        <time>2021-01-31T08:48:50.000Z</time>
      </trkpt>
      <trkpt lat="43.47268" lon="5.80023">
        <ele>319.60000610352</ele>
        <time>2021-01-31T08:48:51.000Z</time>
      </trkpt>
      <trkpt lat="43.47264" lon="5.80035">
        <ele>319.79998779297</ele>
        <time>2021-01-31T08:48:56.000Z</time>
      </trkpt>
      <trkpt lat="43.47255" lon="5.80054">
        <ele>320.20001220703</ele>
        <time>2021-01-31T08:49:04.000Z</time>
      </trkpt>
      <trkpt lat="43.47247" lon="5.80071">
        <ele>320.79998779297</ele>
        <time>2021-01-31T08:49:11.000Z</time>
      </trkpt>
      <trkpt lat="43.47246" lon="5.80073">
        <ele>321.20001220703</ele>
        <time>2021-01-31T08:49:12.000Z</time>
      </trkpt>
      <trkpt lat="43.4724" lon="5.80096">
        <ele>322</ele>
        <time>2021-01-31T08:49:20.000Z</time>
      </trkpt>
      <trkpt lat="43.47239" lon="5.80098">
        <ele>322.39999389648</ele>
        <time>2021-01-31T08:49:21.000Z</time>
      </trkpt>
      <trkpt lat="43.47234" lon="5.80117">
        <ele>323</ele>
        <time>2021-01-31T08:49:28.000Z</time>
      </trkpt>
      <trkpt lat="43.47232" lon="5.80124">
        <ele>323.39999389648</ele>
        <time>2021-01-31T08:49:31.000Z</time>
      </trkpt>
      <trkpt lat="43.47231" lon="5.80133">
        <ele>324.39999389648</ele>
        <time>2021-01-31T08:49:35.000Z</time>
      </trkpt>
      <trkpt lat="43.4723" lon="5.8014">
        <ele>325.20001220703</ele>
        <time>2021-01-31T08:49:38.000Z</time>
      </trkpt>
      <trkpt lat="43.47229" lon="5.80146">
        <ele>325.60000610352</ele>
        <time>2021-01-31T08:49:40.000Z</time>
      </trkpt>
      <trkpt lat="43.47229" lon="5.80157">
        <ele>326.60000610352</ele>
        <time>2021-01-31T08:49:44.000Z</time>
      </trkpt>
      <trkpt lat="43.47229" lon="5.80159">
        <ele>326.60000610352</ele>
        <time>2021-01-31T08:49:45.000Z</time>
      </trkpt>
      <trkpt lat="43.47229" lon="5.80174">
        <ele>327.79998779297</ele>
        <time>2021-01-31T08:49:51.000Z</time>
      </trkpt>
      <trkpt lat="43.47231" lon="5.8019">
        <ele>328.79998779297</ele>
        <time>2021-01-31T08:49:57.000Z</time>
      </trkpt>
      <trkpt lat="43.47233" lon="5.80201">
        <ele>328.79998779297</ele>
        <time>2021-01-31T08:50:02.000Z</time>
      </trkpt>
      <trkpt lat="43.47237" lon="5.80211">
        <ele>329.20001220703</ele>
        <time>2021-01-31T08:50:06.000Z</time>
      </trkpt>
      <trkpt lat="43.47241" lon="5.80223">
        <ele>330</ele>
        <time>2021-01-31T08:50:10.000Z</time>
      </trkpt>
      <trkpt lat="43.47248" lon="5.80238">
        <ele>331</ele>
        <time>2021-01-31T08:50:16.000Z</time>
      </trkpt>
      <trkpt lat="43.47251" lon="5.80244">
        <ele>331.20001220703</ele>
        <time>2021-01-31T08:50:18.000Z</time>
      </trkpt>
      <trkpt lat="43.47267" lon="5.80269">
        <ele>331.79998779297</ele>
        <time>2021-01-31T08:50:27.000Z</time>
      </trkpt>
      <trkpt lat="43.47281" lon="5.8028">
        <ele>332.20001220703</ele>
        <time>2021-01-31T08:50:34.000Z</time>
      </trkpt>
      <trkpt lat="43.47283" lon="5.80281">
        <ele>332.39999389648</ele>
        <time>2021-01-31T08:50:35.000Z</time>
      </trkpt>
      <trkpt lat="43.47289" lon="5.80283">
        <ele>333.20001220703</ele>
        <time>2021-01-31T08:50:38.000Z</time>
      </trkpt>
      <trkpt lat="43.47299" lon="5.80286">
        <ele>334</ele>
        <time>2021-01-31T08:50:43.000Z</time>
      </trkpt>
      <trkpt lat="43.47303" lon="5.80288">
        <ele>334.39999389648</ele>
        <time>2021-01-31T08:50:45.000Z</time>
      </trkpt>
      <trkpt lat="43.47311" lon="5.8029">
        <ele>335.39999389648</ele>
        <time>2021-01-31T08:50:49.000Z</time>
      </trkpt>
      <trkpt lat="43.47314" lon="5.80292">
        <ele>335.79998779297</ele>
        <time>2021-01-31T08:50:51.000Z</time>
      </trkpt>
      <trkpt lat="43.47329" lon="5.80295">
        <ele>336.60000610352</ele>
        <time>2021-01-31T08:50:58.000Z</time>
      </trkpt>
      <trkpt lat="43.47331" lon="5.80296">
        <ele>336.60000610352</ele>
        <time>2021-01-31T08:50:59.000Z</time>
      </trkpt>
      <trkpt lat="43.47338" lon="5.80301">
        <ele>337.60000610352</ele>
        <time>2021-01-31T08:51:04.000Z</time>
      </trkpt>
      <trkpt lat="43.47344" lon="5.80303">
        <ele>338.39999389648</ele>
        <time>2021-01-31T08:51:07.000Z</time>
      </trkpt>
      <trkpt lat="43.47348" lon="5.80305">
        <ele>338.79998779297</ele>
        <time>2021-01-31T08:51:09.000Z</time>
      </trkpt>
      <trkpt lat="43.47353" lon="5.80308">
        <ele>339.79998779297</ele>
        <time>2021-01-31T08:51:13.000Z</time>
      </trkpt>
      <trkpt lat="43.4736" lon="5.80313">
        <ele>340.79998779297</ele>
        <time>2021-01-31T08:51:17.000Z</time>
      </trkpt>
      <trkpt lat="43.47365" lon="5.80315">
        <ele>341</ele>
        <time>2021-01-31T08:51:19.000Z</time>
      </trkpt>
      <trkpt lat="43.47373" lon="5.8032">
        <ele>341.39999389648</ele>
        <time>2021-01-31T08:51:23.000Z</time>
      </trkpt>
      <trkpt lat="43.47377" lon="5.80324">
        <ele>342.20001220703</ele>
        <time>2021-01-31T08:51:26.000Z</time>
      </trkpt>
      <trkpt lat="43.47382" lon="5.8033">
        <ele>343.39999389648</ele>
        <time>2021-01-31T08:51:30.000Z</time>
      </trkpt>
      <trkpt lat="43.47383" lon="5.80331">
        <ele>343.60000610352</ele>
        <time>2021-01-31T08:51:31.000Z</time>
      </trkpt>
      <trkpt lat="43.47386" lon="5.80334">
        <ele>344</ele>
        <time>2021-01-31T08:51:33.000Z</time>
      </trkpt>
      <trkpt lat="43.47389" lon="5.80339">
        <ele>344.60000610352</ele>
        <time>2021-01-31T08:51:36.000Z</time>
      </trkpt>
      <trkpt lat="43.47392" lon="5.80346">
        <ele>345.39999389648</ele>
        <time>2021-01-31T08:51:40.000Z</time>
      </trkpt>
      <trkpt lat="43.47395" lon="5.80351">
        <ele>345.60000610352</ele>
        <time>2021-01-31T08:51:43.000Z</time>
      </trkpt>
      <trkpt lat="43.47399" lon="5.80358">
        <ele>346.39999389648</ele>
        <time>2021-01-31T08:51:47.000Z</time>
      </trkpt>
      <trkpt lat="43.47401" lon="5.8036">
        <ele>346.79998779297</ele>
        <time>2021-01-31T08:51:48.000Z</time>
      </trkpt>
      <trkpt lat="43.47406" lon="5.8037">
        <ele>347.79998779297</ele>
        <time>2021-01-31T08:51:53.000Z</time>
      </trkpt>
      <trkpt lat="43.47408" lon="5.80381">
        <ele>348.60000610352</ele>
        <time>2021-01-31T08:51:58.000Z</time>
      </trkpt>
      <trkpt lat="43.47408" lon="5.80385">
        <ele>348.79998779297</ele>
        <time>2021-01-31T08:51:59.000Z</time>
      </trkpt>
      <trkpt lat="43.47409" lon="5.80396">
        <ele>349.79998779297</ele>
        <time>2021-01-31T08:52:06.000Z</time>
      </trkpt>
      <trkpt lat="43.47408" lon="5.80409">
        <ele>350.60000610352</ele>
        <time>2021-01-31T08:52:12.000Z</time>
      </trkpt>
      <trkpt lat="43.47406" lon="5.80418">
        <ele>351</ele>
        <time>2021-01-31T08:52:16.000Z</time>
      </trkpt>
      <trkpt lat="43.47406" lon="5.80423">
        <ele>351.20001220703</ele>
        <time>2021-01-31T08:52:18.000Z</time>
      </trkpt>
      <trkpt lat="43.47403" lon="5.80443">
        <ele>351.60000610352</ele>
        <time>2021-01-31T08:52:26.000Z</time>
      </trkpt>
      <trkpt lat="43.47403" lon="5.80447">
        <ele>352</ele>
        <time>2021-01-31T08:52:28.000Z</time>
      </trkpt>
      <trkpt lat="43.47403" lon="5.80459">
        <ele>352.79998779297</ele>
        <time>2021-01-31T08:52:33.000Z</time>
      </trkpt>
      <trkpt lat="43.47401" lon="5.80475">
        <ele>353.20001220703</ele>
        <time>2021-01-31T08:52:40.000Z</time>
      </trkpt>
      <trkpt lat="43.474" lon="5.80477">
        <ele>353.20001220703</ele>
        <time>2021-01-31T08:52:41.000Z</time>
      </trkpt>
      <trkpt lat="43.47393" lon="5.80495">
        <ele>353.20001220703</ele>
        <time>2021-01-31T08:52:49.000Z</time>
      </trkpt>
      <trkpt lat="43.47387" lon="5.80512">
        <ele>353.20001220703</ele>
        <time>2021-01-31T08:52:56.000Z</time>
      </trkpt>
      <trkpt lat="43.47381" lon="5.80532">
        <ele>353.79998779297</ele>
        <time>2021-01-31T08:53:03.000Z</time>
      </trkpt>
      <trkpt lat="43.47379" lon="5.8054">
        <ele>354.20001220703</ele>
        <time>2021-01-31T08:53:06.000Z</time>
      </trkpt>
      <trkpt lat="43.47376" lon="5.80557">
        <ele>354.79998779297</ele>
        <time>2021-01-31T08:53:12.000Z</time>
      </trkpt>
      <trkpt lat="43.47373" lon="5.80573">
        <ele>355.20001220703</ele>
        <time>2021-01-31T08:53:18.000Z</time>
      </trkpt>
      <trkpt lat="43.47373" lon="5.80576">
        <ele>355.20001220703</ele>
        <time>2021-01-31T08:53:19.000Z</time>
      </trkpt>
      <trkpt lat="43.4737" lon="5.80597">
        <ele>355.60000610352</ele>
        <time>2021-01-31T08:53:27.000Z</time>
      </trkpt>
      <trkpt lat="43.47369" lon="5.80607">
        <ele>356.39999389648</ele>
        <time>2021-01-31T08:53:31.000Z</time>
      </trkpt>
      <trkpt lat="43.47366" lon="5.80616">
        <ele>357.39999389648</ele>
        <time>2021-01-31T08:53:35.000Z</time>
      </trkpt>
      <trkpt lat="43.47366" lon="5.80617">
        <ele>357.39999389648</ele>
        <time>2021-01-31T08:53:36.000Z</time>
      </trkpt>
      <trkpt lat="43.47364" lon="5.80629">
        <ele>358.60000610352</ele>
        <time>2021-01-31T08:53:41.000Z</time>
      </trkpt>
      <trkpt lat="43.47363" lon="5.80634">
        <ele>359.20001220703</ele>
        <time>2021-01-31T08:53:43.000Z</time>
      </trkpt>
      <trkpt lat="43.4736" lon="5.8064">
        <ele>359.79998779297</ele>
        <time>2021-01-31T08:53:46.000Z</time>
      </trkpt>
      <trkpt lat="43.47359" lon="5.80646">
        <ele>360.79998779297</ele>
        <time>2021-01-31T08:53:49.000Z</time>
      </trkpt>
      <trkpt lat="43.47359" lon="5.80649">
        <ele>361</ele>
        <time>2021-01-31T08:53:50.000Z</time>
      </trkpt>
      <trkpt lat="43.47356" lon="5.80662">
        <ele>361.20001220703</ele>
        <time>2021-01-31T08:53:56.000Z</time>
      </trkpt>
      <trkpt lat="43.47352" lon="5.80678">
        <ele>362</ele>
        <time>2021-01-31T08:54:03.000Z</time>
      </trkpt>
      <trkpt lat="43.47347" lon="5.80694">
        <ele>363</ele>
        <time>2021-01-31T08:54:10.000Z</time>
      </trkpt>
      <trkpt lat="43.47346" lon="5.80696">
        <ele>363.39999389648</ele>
        <time>2021-01-31T08:54:11.000Z</time>
      </trkpt>
      <trkpt lat="43.47342" lon="5.80714">
        <ele>364.20001220703</ele>
        <time>2021-01-31T08:54:19.000Z</time>
      </trkpt>
      <trkpt lat="43.47337" lon="5.80737">
        <ele>364.79998779297</ele>
        <time>2021-01-31T08:54:29.000Z</time>
      </trkpt>
      <trkpt lat="43.47333" lon="5.80752">
        <ele>365.20001220703</ele>
        <time>2021-01-31T08:54:35.000Z</time>
      </trkpt>
      <trkpt lat="43.47333" lon="5.80758">
        <ele>365.60000610352</ele>
        <time>2021-01-31T08:54:37.000Z</time>
      </trkpt>
      <trkpt lat="43.47331" lon="5.80769">
        <ele>366.39999389648</ele>
        <time>2021-01-31T08:54:41.000Z</time>
      </trkpt>
      <trkpt lat="43.47327" lon="5.80782">
        <ele>366.60000610352</ele>
        <time>2021-01-31T08:54:46.000Z</time>
      </trkpt>
      <trkpt lat="43.47325" lon="5.80794">
        <ele>366.79998779297</ele>
        <time>2021-01-31T08:54:50.000Z</time>
      </trkpt>
      <trkpt lat="43.47322" lon="5.80806">
        <ele>367.60000610352</ele>
        <time>2021-01-31T08:54:54.000Z</time>
      </trkpt>
      <trkpt lat="43.47322" lon="5.80809">
        <ele>367.79998779297</ele>
        <time>2021-01-31T08:54:55.000Z</time>
      </trkpt>
      <trkpt lat="43.47319" lon="5.80828">
        <ele>368.20001220703</ele>
        <time>2021-01-31T08:55:02.000Z</time>
      </trkpt>
      <trkpt lat="43.47318" lon="5.80836">
        <ele>368.79998779297</ele>
        <time>2021-01-31T08:55:05.000Z</time>
      </trkpt>
      <trkpt lat="43.47318" lon="5.80847">
        <ele>369</ele>
        <time>2021-01-31T08:55:09.000Z</time>
      </trkpt>
      <trkpt lat="43.47316" lon="5.80873">
        <ele>369.79998779297</ele>
        <time>2021-01-31T08:55:18.000Z</time>
      </trkpt>
      <trkpt lat="43.47316" lon="5.80874">
        <ele>369.79998779297</ele>
        <time>2021-01-31T08:55:19.000Z</time>
      </trkpt>
      <trkpt lat="43.47315" lon="5.80874">
        <ele>369.79998779297</ele>
        <time>2021-01-31T08:55:24.000Z</time>
      </trkpt>
      <trkpt lat="43.47315" lon="5.80874">
        <ele>369.79998779297</ele>
        <time>2021-01-31T08:55:28.000Z</time>
      </trkpt>
      <trkpt lat="43.47315" lon="5.80874">
        <ele>369.60000610352</ele>
        <time>2021-01-31T08:55:32.000Z</time>
      </trkpt>
      <trkpt lat="43.47315" lon="5.80874">
        <ele>369.79998779297</ele>
        <time>2021-01-31T08:55:34.000Z</time>
      </trkpt>
      <trkpt lat="43.47315" lon="5.80874">
        <ele>369.79998779297</ele>
        <time>2021-01-31T08:55:44.000Z</time>
      </trkpt>
      <trkpt lat="43.47315" lon="5.80874">
        <ele>369.79998779297</ele>
        <time>2021-01-31T08:55:45.000Z</time>
      </trkpt>
      <trkpt lat="43.47315" lon="5.80874">
        <ele>369.39999389648</ele>
        <time>2021-01-31T08:55:54.000Z</time>
      </trkpt>
      <trkpt lat="43.47315" lon="5.80873">
        <ele>369</ele>
        <time>2021-01-31T08:56:05.000Z</time>
      </trkpt>
      <trkpt lat="43.47316" lon="5.80874">
        <ele>369.79998779297</ele>
        <time>2021-01-31T08:56:15.000Z</time>
      </trkpt>
      <trkpt lat="43.47316" lon="5.80873">
        <ele>368.79998779297</ele>
        <time>2021-01-31T08:56:23.000Z</time>
      </trkpt>
      <trkpt lat="43.47316" lon="5.80873">
        <ele>368.60000610352</ele>
        <time>2021-01-31T08:56:25.000Z</time>
      </trkpt>
      <trkpt lat="43.47316" lon="5.80873">
        <ele>368.60000610352</ele>
        <time>2021-01-31T08:56:30.000Z</time>
      </trkpt>
      <trkpt lat="43.47316" lon="5.80873">
        <ele>368.79998779297</ele>
        <time>2021-01-31T08:56:36.000Z</time>
      </trkpt>
      <trkpt lat="43.47316" lon="5.80872">
        <ele>369.79998779297</ele>
        <time>2021-01-31T08:56:45.000Z</time>
      </trkpt>
      <trkpt lat="43.47316" lon="5.80872">
        <ele>370.20001220703</ele>
        <time>2021-01-31T08:56:46.000Z</time>
      </trkpt>
      <trkpt lat="43.47317" lon="5.80872">
        <ele>370.79998779297</ele>
        <time>2021-01-31T08:56:51.000Z</time>
      </trkpt>
      <trkpt lat="43.47317" lon="5.80872">
        <ele>371.39999389648</ele>
        <time>2021-01-31T08:56:54.000Z</time>
      </trkpt>
      <trkpt lat="43.47319" lon="5.80873">
        <ele>371.60000610352</ele>
        <time>2021-01-31T08:57:02.000Z</time>
      </trkpt>
      <trkpt lat="43.47318" lon="5.80871">
        <ele>371.39999389648</ele>
        <time>2021-01-31T08:57:10.000Z</time>
      </trkpt>
      <trkpt lat="43.47318" lon="5.80871">
        <ele>371.39999389648</ele>
        <time>2021-01-31T08:57:11.000Z</time>
      </trkpt>
      <trkpt lat="43.47318" lon="5.80871">
        <ele>371.20001220703</ele>
        <time>2021-01-31T08:57:14.000Z</time>
      </trkpt>
      <trkpt lat="43.47318" lon="5.80873">
        <ele>371.20001220703</ele>
        <time>2021-01-31T08:57:15.000Z</time>
      </trkpt>
      <trkpt lat="43.47317" lon="5.80879">
        <ele>370.39999389648</ele>
        <time>2021-01-31T08:57:18.000Z</time>
      </trkpt>
      <trkpt lat="43.47315" lon="5.80891">
        <ele>369.79998779297</ele>
        <time>2021-01-31T08:57:22.000Z</time>
      </trkpt>
      <trkpt lat="43.47314" lon="5.80902">
        <ele>369.39999389648</ele>
        <time>2021-01-31T08:57:25.000Z</time>
      </trkpt>
      <trkpt lat="43.47315" lon="5.80919">
        <ele>368.79998779297</ele>
        <time>2021-01-31T08:57:31.000Z</time>
      </trkpt>
      <trkpt lat="43.47315" lon="5.8092">
        <ele>368.79998779297</ele>
        <time>2021-01-31T08:57:32.000Z</time>
      </trkpt>
      <trkpt lat="43.47317" lon="5.80923">
        <ele>369</ele>
        <time>2021-01-31T08:57:35.000Z</time>
      </trkpt>
      <trkpt lat="43.47319" lon="5.80924">
        <ele>369</ele>
        <time>2021-01-31T08:57:36.000Z</time>
      </trkpt>
      <trkpt lat="43.4732" lon="5.80926">
        <ele>368.79998779297</ele>
        <time>2021-01-31T08:57:37.000Z</time>
      </trkpt>
      <trkpt lat="43.4732" lon="5.80935">
        <ele>369.20001220703</ele>
        <time>2021-01-31T08:57:40.000Z</time>
      </trkpt>
      <trkpt lat="43.47324" lon="5.80961">
        <ele>369</ele>
        <time>2021-01-31T08:57:46.000Z</time>
      </trkpt>
      <trkpt lat="43.47334" lon="5.81001">
        <ele>368.20001220703</ele>
        <time>2021-01-31T08:57:54.000Z</time>
      </trkpt>
      <trkpt lat="43.47346" lon="5.81034">
        <ele>367.79998779297</ele>
        <time>2021-01-31T08:58:00.000Z</time>
      </trkpt>
      <trkpt lat="43.47353" lon="5.81053">
        <ele>367.79998779297</ele>
        <time>2021-01-31T08:58:02.000Z</time>
      </trkpt>
      <trkpt lat="43.47359" lon="5.81066">
        <ele>367.60000610352</ele>
        <time>2021-01-31T08:58:05.000Z</time>
      </trkpt>
      <trkpt lat="43.47361" lon="5.81074">
        <ele>367.60000610352</ele>
        <time>2021-01-31T08:58:06.000Z</time>
      </trkpt>
      <trkpt lat="43.47368" lon="5.81103">
        <ele>366.60000610352</ele>
        <time>2021-01-31T08:58:10.000Z</time>
      </trkpt>
      <trkpt lat="43.47371" lon="5.8111">
        <ele>366.39999389648</ele>
        <time>2021-01-31T08:58:11.000Z</time>
      </trkpt>
      <trkpt lat="43.47374" lon="5.81118">
        <ele>366.20001220703</ele>
        <time>2021-01-31T08:58:12.000Z</time>
      </trkpt>
      <trkpt lat="43.47384" lon="5.8113">
        <ele>366</ele>
        <time>2021-01-31T08:58:14.000Z</time>
      </trkpt>
      <trkpt lat="43.4739" lon="5.81135">
        <ele>365.60000610352</ele>
        <time>2021-01-31T08:58:15.000Z</time>
      </trkpt>
      <trkpt lat="43.47396" lon="5.8114">
        <ele>365</ele>
        <time>2021-01-31T08:58:16.000Z</time>
      </trkpt>
      <trkpt lat="43.4741" lon="5.8115">
        <ele>363.39999389648</ele>
        <time>2021-01-31T08:58:18.000Z</time>
      </trkpt>
      <trkpt lat="43.47425" lon="5.8116">
        <ele>362</ele>
        <time>2021-01-31T08:58:20.000Z</time>
      </trkpt>
      <trkpt lat="43.47432" lon="5.81167">
        <ele>361.20001220703</ele>
        <time>2021-01-31T08:58:21.000Z</time>
      </trkpt>
      <trkpt lat="43.47437" lon="5.81175">
        <ele>360.39999389648</ele>
        <time>2021-01-31T08:58:22.000Z</time>
      </trkpt>
      <trkpt lat="43.47442" lon="5.81184">
        <ele>359.39999389648</ele>
        <time>2021-01-31T08:58:23.000Z</time>
      </trkpt>
      <trkpt lat="43.47445" lon="5.81195">
        <ele>358.39999389648</ele>
        <time>2021-01-31T08:58:24.000Z</time>
      </trkpt>
      <trkpt lat="43.47447" lon="5.81219">
        <ele>357.20001220703</ele>
        <time>2021-01-31T08:58:26.000Z</time>
      </trkpt>
      <trkpt lat="43.47445" lon="5.81231">
        <ele>356.79998779297</ele>
        <time>2021-01-31T08:58:27.000Z</time>
      </trkpt>
      <trkpt lat="43.47439" lon="5.81256">
        <ele>356.20001220703</ele>
        <time>2021-01-31T08:58:29.000Z</time>
      </trkpt>
      <trkpt lat="43.47436" lon="5.81266">
        <ele>355.79998779297</ele>
        <time>2021-01-31T08:58:30.000Z</time>
      </trkpt>
      <trkpt lat="43.47433" lon="5.81274">
        <ele>355.39999389648</ele>
        <time>2021-01-31T08:58:31.000Z</time>
      </trkpt>
      <trkpt lat="43.47431" lon="5.81281">
        <ele>355</ele>
        <time>2021-01-31T08:58:32.000Z</time>
      </trkpt>
      <trkpt lat="43.47422" lon="5.81296">
        <ele>354.20001220703</ele>
        <time>2021-01-31T08:58:35.000Z</time>
      </trkpt>
      <trkpt lat="43.47418" lon="5.813">
        <ele>354</ele>
        <time>2021-01-31T08:58:37.000Z</time>
      </trkpt>
      <trkpt lat="43.47415" lon="5.813">
        <ele>353.79998779297</ele>
        <time>2021-01-31T08:58:39.000Z</time>
      </trkpt>
      <trkpt lat="43.47412" lon="5.81298">
        <ele>354</ele>
        <time>2021-01-31T08:58:45.000Z</time>
      </trkpt>
      <trkpt lat="43.47411" lon="5.81298">
        <ele>353.79998779297</ele>
        <time>2021-01-31T08:58:48.000Z</time>
      </trkpt>
      <trkpt lat="43.47408" lon="5.81299">
        <ele>353.79998779297</ele>
        <time>2021-01-31T08:58:50.000Z</time>
      </trkpt>
      <trkpt lat="43.474" lon="5.81298">
        <ele>353.79998779297</ele>
        <time>2021-01-31T08:58:54.000Z</time>
      </trkpt>
      <trkpt lat="43.47398" lon="5.81296">
        <ele>354</ele>
        <time>2021-01-31T08:58:55.000Z</time>
      </trkpt>
      <trkpt lat="43.47397" lon="5.81294">
        <ele>354.20001220703</ele>
        <time>2021-01-31T08:58:56.000Z</time>
      </trkpt>
      <trkpt lat="43.47395" lon="5.81291">
        <ele>354.39999389648</ele>
        <time>2021-01-31T08:58:57.000Z</time>
      </trkpt>
      <trkpt lat="43.47391" lon="5.81282">
        <ele>355.20001220703</ele>
        <time>2021-01-31T08:59:00.000Z</time>
      </trkpt>
      <trkpt lat="43.47389" lon="5.81275">
        <ele>355.60000610352</ele>
        <time>2021-01-31T08:59:02.000Z</time>
      </trkpt>
      <trkpt lat="43.47385" lon="5.81265">
        <ele>356</ele>
        <time>2021-01-31T08:59:05.000Z</time>
      </trkpt>
      <trkpt lat="43.47382" lon="5.81259">
        <ele>356.20001220703</ele>
        <time>2021-01-31T08:59:07.000Z</time>
      </trkpt>
      <trkpt lat="43.4738" lon="5.81256">
        <ele>356.20001220703</ele>
        <time>2021-01-31T08:59:08.000Z</time>
      </trkpt>
      <trkpt lat="43.47377" lon="5.8125">
        <ele>356.60000610352</ele>
        <time>2021-01-31T08:59:10.000Z</time>
      </trkpt>
      <trkpt lat="43.47363" lon="5.81233">
        <ele>357.39999389648</ele>
        <time>2021-01-31T08:59:16.000Z</time>
      </trkpt>
      <trkpt lat="43.47356" lon="5.81225">
        <ele>357.79998779297</ele>
        <time>2021-01-31T08:59:19.000Z</time>
      </trkpt>
      <trkpt lat="43.47351" lon="5.81221">
        <ele>358.39999389648</ele>
        <time>2021-01-31T08:59:21.000Z</time>
      </trkpt>
      <trkpt lat="43.47337" lon="5.81208">
        <ele>359.39999389648</ele>
        <time>2021-01-31T08:59:27.000Z</time>
      </trkpt>
      <trkpt lat="43.47335" lon="5.81207">
        <ele>359.60000610352</ele>
        <time>2021-01-31T08:59:28.000Z</time>
      </trkpt>
      <trkpt lat="43.47316" lon="5.81195">
        <ele>360.60000610352</ele>
        <time>2021-01-31T08:59:35.000Z</time>
      </trkpt>
      <trkpt lat="43.473" lon="5.8119">
        <ele>361.79998779297</ele>
        <time>2021-01-31T08:59:41.000Z</time>
      </trkpt>
      <trkpt lat="43.47296" lon="5.8119">
        <ele>362</ele>
        <time>2021-01-31T08:59:42.000Z</time>
      </trkpt>
      <trkpt lat="43.47278" lon="5.8119">
        <ele>362.39999389648</ele>
        <time>2021-01-31T08:59:48.000Z</time>
      </trkpt>
      <trkpt lat="43.47274" lon="5.8119">
        <ele>362.60000610352</ele>
        <time>2021-01-31T08:59:49.000Z</time>
      </trkpt>
      <trkpt lat="43.47256" lon="5.81193">
        <ele>363</ele>
        <time>2021-01-31T08:59:55.000Z</time>
      </trkpt>
      <trkpt lat="43.47247" lon="5.81194">
        <ele>364.20001220703</ele>
        <time>2021-01-31T08:59:58.000Z</time>
      </trkpt>
      <trkpt lat="43.47218" lon="5.81195">
        <ele>364.79998779297</ele>
        <time>2021-01-31T09:00:07.000Z</time>
      </trkpt>
      <trkpt lat="43.47201" lon="5.81193">
        <ele>364.60000610352</ele>
        <time>2021-01-31T09:00:13.000Z</time>
      </trkpt>
      <trkpt lat="43.47193" lon="5.81193">
        <ele>364.79998779297</ele>
        <time>2021-01-31T09:00:16.000Z</time>
      </trkpt>
      <trkpt lat="43.47181" lon="5.81195">
        <ele>364.79998779297</ele>
        <time>2021-01-31T09:00:20.000Z</time>
      </trkpt>
      <trkpt lat="43.47178" lon="5.81196">
        <ele>365</ele>
        <time>2021-01-31T09:00:21.000Z</time>
      </trkpt>
      <trkpt lat="43.47151" lon="5.81204">
        <ele>365</ele>
        <time>2021-01-31T09:00:30.000Z</time>
      </trkpt>
      <trkpt lat="43.47143" lon="5.81208">
        <ele>365.20001220703</ele>
        <time>2021-01-31T09:00:33.000Z</time>
      </trkpt>
      <trkpt lat="43.47131" lon="5.81214">
        <ele>365.79998779297</ele>
        <time>2021-01-31T09:00:37.000Z</time>
      </trkpt>
      <trkpt lat="43.47113" lon="5.81225">
        <ele>366.39999389648</ele>
        <time>2021-01-31T09:00:43.000Z</time>
      </trkpt>
      <trkpt lat="43.47107" lon="5.81228">
        <ele>366.79998779297</ele>
        <time>2021-01-31T09:00:45.000Z</time>
      </trkpt>
      <trkpt lat="43.47098" lon="5.81235">
        <ele>367.39999389648</ele>
        <time>2021-01-31T09:00:48.000Z</time>
      </trkpt>
      <trkpt lat="43.47079" lon="5.81247">
        <ele>368.20001220703</ele>
        <time>2021-01-31T09:00:54.000Z</time>
      </trkpt>
      <trkpt lat="43.47072" lon="5.81251">
        <ele>368.60000610352</ele>
        <time>2021-01-31T09:00:56.000Z</time>
      </trkpt>
      <trkpt lat="43.47055" lon="5.81261">
        <ele>369</ele>
        <time>2021-01-31T09:01:01.000Z</time>
      </trkpt>
      <trkpt lat="43.47032" lon="5.81277">
        <ele>369.60000610352</ele>
        <time>2021-01-31T09:01:08.000Z</time>
      </trkpt>
      <trkpt lat="43.47025" lon="5.81282">
        <ele>369.79998779297</ele>
        <time>2021-01-31T09:01:10.000Z</time>
      </trkpt>
      <trkpt lat="43.46997" lon="5.81302">
        <ele>370.60000610352</ele>
        <time>2021-01-31T09:01:18.000Z</time>
      </trkpt>
      <trkpt lat="43.46994" lon="5.81303">
        <ele>370.79998779297</ele>
        <time>2021-01-31T09:01:19.000Z</time>
      </trkpt>
      <trkpt lat="43.46968" lon="5.81312">
        <ele>371.20001220703</ele>
        <time>2021-01-31T09:01:26.000Z</time>
      </trkpt>
      <trkpt lat="43.46942" lon="5.81316">
        <ele>371</ele>
        <time>2021-01-31T09:01:34.000Z</time>
      </trkpt>
      <trkpt lat="43.46914" lon="5.81319">
        <ele>371.60000610352</ele>
        <time>2021-01-31T09:01:42.000Z</time>
      </trkpt>
      <trkpt lat="43.46906" lon="5.81319">
        <ele>371.60000610352</ele>
        <time>2021-01-31T09:01:44.000Z</time>
      </trkpt>
      <trkpt lat="43.46875" lon="5.8132">
        <ele>372.60000610352</ele>
        <time>2021-01-31T09:01:52.000Z</time>
      </trkpt>
      <trkpt lat="43.46871" lon="5.8132">
        <ele>372.79998779297</ele>
        <time>2021-01-31T09:01:53.000Z</time>
      </trkpt>
      <trkpt lat="43.46848" lon="5.81323">
        <ele>374</ele>
        <time>2021-01-31T09:01:59.000Z</time>
      </trkpt>
      <trkpt lat="43.46844" lon="5.81323">
        <ele>374.20001220703</ele>
        <time>2021-01-31T09:02:00.000Z</time>
      </trkpt>
      <trkpt lat="43.46807" lon="5.81328">
        <ele>374.79998779297</ele>
        <time>2021-01-31T09:02:09.000Z</time>
      </trkpt>
      <trkpt lat="43.46799" lon="5.8133">
        <ele>375</ele>
        <time>2021-01-31T09:02:11.000Z</time>
      </trkpt>
      <trkpt lat="43.46778" lon="5.81333">
        <ele>375.20001220703</ele>
        <time>2021-01-31T09:02:16.000Z</time>
      </trkpt>
      <trkpt lat="43.46749" lon="5.81337">
        <ele>375.39999389648</ele>
        <time>2021-01-31T09:02:23.000Z</time>
      </trkpt>
      <trkpt lat="43.46734" lon="5.81338">
        <ele>376</ele>
        <time>2021-01-31T09:02:27.000Z</time>
      </trkpt>
      <trkpt lat="43.46721" lon="5.81338">
        <ele>376.39999389648</ele>
        <time>2021-01-31T09:02:30.000Z</time>
      </trkpt>
      <trkpt lat="43.46684" lon="5.8134">
        <ele>376.39999389648</ele>
        <time>2021-01-31T09:02:39.000Z</time>
      </trkpt>
      <trkpt lat="43.4665" lon="5.81344">
        <ele>376.79998779297</ele>
        <time>2021-01-31T09:02:46.000Z</time>
      </trkpt>
      <trkpt lat="43.46641" lon="5.81348">
        <ele>377</ele>
        <time>2021-01-31T09:02:48.000Z</time>
      </trkpt>
      <trkpt lat="43.46629" lon="5.81357">
        <ele>377</ele>
        <time>2021-01-31T09:02:51.000Z</time>
      </trkpt>
      <trkpt lat="43.46625" lon="5.8136">
        <ele>377</ele>
        <time>2021-01-31T09:02:52.000Z</time>
      </trkpt>
      <trkpt lat="43.46621" lon="5.81363">
        <ele>377.20001220703</ele>
        <time>2021-01-31T09:02:53.000Z</time>
      </trkpt>
      <trkpt lat="43.46608" lon="5.81377">
        <ele>377.39999389648</ele>
        <time>2021-01-31T09:02:57.000Z</time>
      </trkpt>
      <trkpt lat="43.46586" lon="5.81396">
        <ele>378.20001220703</ele>
        <time>2021-01-31T09:03:04.000Z</time>
      </trkpt>
      <trkpt lat="43.46584" lon="5.81398">
        <ele>378.20001220703</ele>
        <time>2021-01-31T09:03:05.000Z</time>
      </trkpt>
      <trkpt lat="43.46582" lon="5.81399">
        <ele>378.20001220703</ele>
        <time>2021-01-31T09:03:06.000Z</time>
      </trkpt>
      <trkpt lat="43.46574" lon="5.81394">
        <ele>378.20001220703</ele>
        <time>2021-01-31T09:03:09.000Z</time>
      </trkpt>
      <trkpt lat="43.46555" lon="5.81364">
        <ele>378.20001220703</ele>
        <time>2021-01-31T09:03:16.000Z</time>
      </trkpt>
      <trkpt lat="43.46538" lon="5.81335">
        <ele>377</ele>
        <time>2021-01-31T09:03:22.000Z</time>
      </trkpt>
      <trkpt lat="43.46533" lon="5.81325">
        <ele>377</ele>
        <time>2021-01-31T09:03:24.000Z</time>
      </trkpt>
      <trkpt lat="43.46512" lon="5.81286">
        <ele>376.39999389648</ele>
        <time>2021-01-31T09:03:32.000Z</time>
      </trkpt>
      <trkpt lat="43.46501" lon="5.81267">
        <ele>376</ele>
        <time>2021-01-31T09:03:36.000Z</time>
      </trkpt>
      <trkpt lat="43.46494" lon="5.81259">
        <ele>375.39999389648</ele>
        <time>2021-01-31T09:03:38.000Z</time>
      </trkpt>
      <trkpt lat="43.46482" lon="5.81245">
        <ele>374.60000610352</ele>
        <time>2021-01-31T09:03:41.000Z</time>
      </trkpt>
      <trkpt lat="43.46474" lon="5.81234">
        <ele>373.20001220703</ele>
        <time>2021-01-31T09:03:43.000Z</time>
      </trkpt>
      <trkpt lat="43.4647" lon="5.81229">
        <ele>373</ele>
        <time>2021-01-31T09:03:44.000Z</time>
      </trkpt>
      <trkpt lat="43.46458" lon="5.81211">
        <ele>372</ele>
        <time>2021-01-31T09:03:47.000Z</time>
      </trkpt>
      <trkpt lat="43.46449" lon="5.81206">
        <ele>371.39999389648</ele>
        <time>2021-01-31T09:03:49.000Z</time>
      </trkpt>
      <trkpt lat="43.46443" lon="5.81213">
        <ele>371</ele>
        <time>2021-01-31T09:03:51.000Z</time>
      </trkpt>
      <trkpt lat="43.46442" lon="5.81219">
        <ele>370.60000610352</ele>
        <time>2021-01-31T09:03:52.000Z</time>
      </trkpt>
      <trkpt lat="43.46442" lon="5.81232">
        <ele>369.79998779297</ele>
        <time>2021-01-31T09:03:55.000Z</time>
      </trkpt>
      <trkpt lat="43.46442" lon="5.81235">
        <ele>369.60000610352</ele>
        <time>2021-01-31T09:03:56.000Z</time>
      </trkpt>
      <trkpt lat="43.46443" lon="5.81239">
        <ele>369.60000610352</ele>
        <time>2021-01-31T09:03:59.000Z</time>
      </trkpt>
      <trkpt lat="43.46442" lon="5.8124">
        <ele>369.60000610352</ele>
        <time>2021-01-31T09:04:00.000Z</time>
      </trkpt>
      <trkpt lat="43.46443" lon="5.81243">
        <ele>369.39999389648</ele>
        <time>2021-01-31T09:04:05.000Z</time>
      </trkpt>
      <trkpt lat="43.46443" lon="5.81243">
        <ele>369.39999389648</ele>
        <time>2021-01-31T09:04:06.000Z</time>
      </trkpt>
      <trkpt lat="43.46444" lon="5.81247">
        <ele>369.39999389648</ele>
        <time>2021-01-31T09:04:10.000Z</time>
      </trkpt>
      <trkpt lat="43.46445" lon="5.81249">
        <ele>369.39999389648</ele>
        <time>2021-01-31T09:04:11.000Z</time>
      </trkpt>
      <trkpt lat="43.4645" lon="5.81263">
        <ele>369.39999389648</ele>
        <time>2021-01-31T09:04:16.000Z</time>
      </trkpt>
      <trkpt lat="43.4646" lon="5.81289">
        <ele>369.79998779297</ele>
        <time>2021-01-31T09:04:24.000Z</time>
      </trkpt>
      <trkpt lat="43.46465" lon="5.81297">
        <ele>370.39999389648</ele>
        <time>2021-01-31T09:04:27.000Z</time>
      </trkpt>
      <trkpt lat="43.46468" lon="5.81302">
        <ele>370.60000610352</ele>
        <time>2021-01-31T09:04:29.000Z</time>
      </trkpt>
      <trkpt lat="43.46471" lon="5.81306">
        <ele>370.79998779297</ele>
        <time>2021-01-31T09:04:31.000Z</time>
      </trkpt>
      <trkpt lat="43.46476" lon="5.81323">
        <ele>371.39999389648</ele>
        <time>2021-01-31T09:04:37.000Z</time>
      </trkpt>
      <trkpt lat="43.46477" lon="5.81327">
        <ele>371.79998779297</ele>
        <time>2021-01-31T09:04:38.000Z</time>
      </trkpt>
      <trkpt lat="43.46481" lon="5.81338">
        <ele>372.79998779297</ele>
        <time>2021-01-31T09:04:41.000Z</time>
      </trkpt>
      <trkpt lat="43.46486" lon="5.81348">
        <ele>373</ele>
        <time>2021-01-31T09:04:44.000Z</time>
      </trkpt>
      <trkpt lat="43.46497" lon="5.81382">
        <ele>372.79998779297</ele>
        <time>2021-01-31T09:04:53.000Z</time>
      </trkpt>
      <trkpt lat="43.46508" lon="5.81412">
        <ele>373.60000610352</ele>
        <time>2021-01-31T09:05:00.000Z</time>
      </trkpt>
      <trkpt lat="43.46514" lon="5.81432">
        <ele>374</ele>
        <time>2021-01-31T09:05:04.000Z</time>
      </trkpt>
      <trkpt lat="43.4652" lon="5.81453">
        <ele>374.39999389648</ele>
        <time>2021-01-31T09:05:08.000Z</time>
      </trkpt>
      <trkpt lat="43.46535" lon="5.81501">
        <ele>374</ele>
        <time>2021-01-31T09:05:16.000Z</time>
      </trkpt>
      <trkpt lat="43.4654" lon="5.81519">
        <ele>373.39999389648</ele>
        <time>2021-01-31T09:05:19.000Z</time>
      </trkpt>
      <trkpt lat="43.4654" lon="5.81529">
        <ele>373</ele>
        <time>2021-01-31T09:05:21.000Z</time>
      </trkpt>
      <trkpt lat="43.46538" lon="5.81533">
        <ele>372.60000610352</ele>
        <time>2021-01-31T09:05:22.000Z</time>
      </trkpt>
      <trkpt lat="43.46532" lon="5.81544">
        <ele>371.79998779297</ele>
        <time>2021-01-31T09:05:26.000Z</time>
      </trkpt>
      <trkpt lat="43.46529" lon="5.81553">
        <ele>371.60000610352</ele>
        <time>2021-01-31T09:05:29.000Z</time>
      </trkpt>
      <trkpt lat="43.46525" lon="5.81567">
        <ele>372.20001220703</ele>
        <time>2021-01-31T09:05:33.000Z</time>
      </trkpt>
      <trkpt lat="43.46522" lon="5.81575">
        <ele>372.60000610352</ele>
        <time>2021-01-31T09:05:36.000Z</time>
      </trkpt>
      <trkpt lat="43.46514" lon="5.81586">
        <ele>373.20001220703</ele>
        <time>2021-01-31T09:05:40.000Z</time>
      </trkpt>
      <trkpt lat="43.46506" lon="5.81593">
        <ele>373.60000610352</ele>
        <time>2021-01-31T09:05:44.000Z</time>
      </trkpt>
      <trkpt lat="43.46501" lon="5.81597">
        <ele>373.79998779297</ele>
        <time>2021-01-31T09:05:46.000Z</time>
      </trkpt>
      <trkpt lat="43.46484" lon="5.8161">
        <ele>373.79998779297</ele>
        <time>2021-01-31T09:05:53.000Z</time>
      </trkpt>
      <trkpt lat="43.46466" lon="5.81621">
        <ele>373.60000610352</ele>
        <time>2021-01-31T09:06:00.000Z</time>
      </trkpt>
      <trkpt lat="43.46448" lon="5.81635">
        <ele>374.39999389648</ele>
        <time>2021-01-31T09:06:07.000Z</time>
      </trkpt>
      <trkpt lat="43.4644" lon="5.81641">
        <ele>374.79998779297</ele>
        <time>2021-01-31T09:06:10.000Z</time>
      </trkpt>
      <trkpt lat="43.46429" lon="5.81648">
        <ele>375.60000610352</ele>
        <time>2021-01-31T09:06:14.000Z</time>
      </trkpt>
      <trkpt lat="43.46407" lon="5.81665">
        <ele>375.79998779297</ele>
        <time>2021-01-31T09:06:22.000Z</time>
      </trkpt>
      <trkpt lat="43.46401" lon="5.81673">
        <ele>375.79998779297</ele>
        <time>2021-01-31T09:06:25.000Z</time>
      </trkpt>
      <trkpt lat="43.46388" lon="5.81684">
        <ele>375.79998779297</ele>
        <time>2021-01-31T09:06:30.000Z</time>
      </trkpt>
      <trkpt lat="43.46378" lon="5.81697">
        <ele>375.79998779297</ele>
        <time>2021-01-31T09:06:36.000Z</time>
      </trkpt>
      <trkpt lat="43.46379" lon="5.81699">
        <ele>375.79998779297</ele>
        <time>2021-01-31T09:06:41.000Z</time>
      </trkpt>
      <trkpt lat="43.46379" lon="5.817">
        <ele>374.79998779297</ele>
        <time>2021-01-31T09:06:47.000Z</time>
      </trkpt>
      <trkpt lat="43.46379" lon="5.817">
        <ele>374.20001220703</ele>
        <time>2021-01-31T09:06:50.000Z</time>
      </trkpt>
      <trkpt lat="43.46379" lon="5.81701">
        <ele>374</ele>
        <time>2021-01-31T09:06:51.000Z</time>
      </trkpt>
      <trkpt lat="43.46377" lon="5.81704">
        <ele>373.60000610352</ele>
        <time>2021-01-31T09:06:53.000Z</time>
      </trkpt>
      <trkpt lat="43.46376" lon="5.81705">
        <ele>373.39999389648</ele>
        <time>2021-01-31T09:06:55.000Z</time>
      </trkpt>
      <trkpt lat="43.46375" lon="5.81704">
        <ele>372.79998779297</ele>
        <time>2021-01-31T09:07:02.000Z</time>
      </trkpt>
      <trkpt lat="43.46375" lon="5.81701">
        <ele>372.60000610352</ele>
        <time>2021-01-31T09:07:04.000Z</time>
      </trkpt>
      <trkpt lat="43.46375" lon="5.817">
        <ele>372.60000610352</ele>
        <time>2021-01-31T09:07:05.000Z</time>
      </trkpt>
      <trkpt lat="43.46374" lon="5.81695">
        <ele>372.79998779297</ele>
        <time>2021-01-31T09:07:09.000Z</time>
      </trkpt>
      <trkpt lat="43.46374" lon="5.81691">
        <ele>373.20001220703</ele>
        <time>2021-01-31T09:07:14.000Z</time>
      </trkpt>
      <trkpt lat="43.46373" lon="5.81691">
        <ele>373.20001220703</ele>
        <time>2021-01-31T09:07:16.000Z</time>
      </trkpt>
      <trkpt lat="43.46372" lon="5.81689">
        <ele>372.39999389648</ele>
        <time>2021-01-31T09:07:23.000Z</time>
      </trkpt>
      <trkpt lat="43.46371" lon="5.81689">
        <ele>373.39999389648</ele>
        <time>2021-01-31T09:07:28.000Z</time>
      </trkpt>
      <trkpt lat="43.46371" lon="5.81689">
        <ele>373.39999389648</ele>
        <time>2021-01-31T09:07:29.000Z</time>
      </trkpt>
      <trkpt lat="43.46369" lon="5.81692">
        <ele>372.60000610352</ele>
        <time>2021-01-31T09:07:35.000Z</time>
      </trkpt>
      <trkpt lat="43.46369" lon="5.81693">
        <ele>372.39999389648</ele>
        <time>2021-01-31T09:07:36.000Z</time>
      </trkpt>
      <trkpt lat="43.46369" lon="5.81694">
        <ele>372.39999389648</ele>
        <time>2021-01-31T09:07:38.000Z</time>
      </trkpt>
      <trkpt lat="43.46369" lon="5.81697">
        <ele>372.39999389648</ele>
        <time>2021-01-31T09:07:41.000Z</time>
      </trkpt>
      <trkpt lat="43.46368" lon="5.81698">
        <ele>372.39999389648</ele>
        <time>2021-01-31T09:07:42.000Z</time>
      </trkpt>
      <trkpt lat="43.46367" lon="5.81699">
        <ele>372.39999389648</ele>
        <time>2021-01-31T09:07:43.000Z</time>
      </trkpt>
      <trkpt lat="43.46363" lon="5.81701">
        <ele>372.20001220703</ele>
        <time>2021-01-31T09:07:49.000Z</time>
      </trkpt>
      <trkpt lat="43.46363" lon="5.81698">
        <ele>373</ele>
        <time>2021-01-31T09:07:58.000Z</time>
      </trkpt>
      <trkpt lat="43.46363" lon="5.81698">
        <ele>373.39999389648</ele>
        <time>2021-01-31T09:08:01.000Z</time>
      </trkpt>
      <trkpt lat="43.46363" lon="5.81698">
        <ele>373.39999389648</ele>
        <time>2021-01-31T09:08:02.000Z</time>
      </trkpt>
      <trkpt lat="43.46363" lon="5.81698">
        <ele>373.60000610352</ele>
        <time>2021-01-31T09:08:03.000Z</time>
      </trkpt>
      <trkpt lat="43.46363" lon="5.81698">
        <ele>373.60000610352</ele>
        <time>2021-01-31T09:08:04.000Z</time>
      </trkpt>
      <trkpt lat="43.46363" lon="5.81698">
        <ele>373.60000610352</ele>
        <time>2021-01-31T09:08:05.000Z</time>
      </trkpt>
      <trkpt lat="43.46364" lon="5.81699">
        <ele>373.20001220703</ele>
        <time>2021-01-31T09:08:09.000Z</time>
      </trkpt>
      <trkpt lat="43.46365" lon="5.817">
        <ele>372.39999389648</ele>
        <time>2021-01-31T09:08:12.000Z</time>
      </trkpt>
      <trkpt lat="43.46364" lon="5.817">
        <ele>372</ele>
        <time>2021-01-31T09:08:20.000Z</time>
      </trkpt>
      <trkpt lat="43.46366" lon="5.81701">
        <ele>372.39999389648</ele>
        <time>2021-01-31T09:08:23.000Z</time>
      </trkpt>
      <trkpt lat="43.46368" lon="5.81703">
        <ele>373</ele>
        <time>2021-01-31T09:08:27.000Z</time>
      </trkpt>
      <trkpt lat="43.46372" lon="5.81708">
        <ele>372.20001220703</ele>
        <time>2021-01-31T09:08:33.000Z</time>
      </trkpt>
      <trkpt lat="43.46376" lon="5.81707">
        <ele>372.39999389648</ele>
        <time>2021-01-31T09:08:40.000Z</time>
      </trkpt>
      <trkpt lat="43.46375" lon="5.81703">
        <ele>372</ele>
        <time>2021-01-31T09:08:46.000Z</time>
      </trkpt>
      <trkpt lat="43.46375" lon="5.81703">
        <ele>372</ele>
        <time>2021-01-31T09:08:47.000Z</time>
      </trkpt>
      <trkpt lat="43.46373" lon="5.81701">
        <ele>372</ele>
        <time>2021-01-31T09:08:55.000Z</time>
      </trkpt>
      <trkpt lat="43.46375" lon="5.81703">
        <ele>372</ele>
        <time>2021-01-31T09:08:57.000Z</time>
      </trkpt>
      <trkpt lat="43.46376" lon="5.81704">
        <ele>372</ele>
        <time>2021-01-31T09:09:05.000Z</time>
      </trkpt>
      <trkpt lat="43.46376" lon="5.81704">
        <ele>372</ele>
        <time>2021-01-31T09:09:07.000Z</time>
      </trkpt>
      <trkpt lat="43.46374" lon="5.81703">
        <ele>372</ele>
        <time>2021-01-31T09:09:16.000Z</time>
      </trkpt>
      <trkpt lat="43.46374" lon="5.81704">
        <ele>372</ele>
        <time>2021-01-31T09:09:20.000Z</time>
      </trkpt>
      <trkpt lat="43.46373" lon="5.81706">
        <ele>372</ele>
        <time>2021-01-31T09:09:21.000Z</time>
      </trkpt>
      <trkpt lat="43.46364" lon="5.8172">
        <ele>371.79998779297</ele>
        <time>2021-01-31T09:09:27.000Z</time>
      </trkpt>
      <trkpt lat="43.46351" lon="5.81722">
        <ele>371.60000610352</ele>
        <time>2021-01-31T09:09:32.000Z</time>
      </trkpt>
      <trkpt lat="43.46348" lon="5.81722">
        <ele>371.60000610352</ele>
        <time>2021-01-31T09:09:33.000Z</time>
      </trkpt>
      <trkpt lat="43.46339" lon="5.81721">
        <ele>371.60000610352</ele>
        <time>2021-01-31T09:09:36.000Z</time>
      </trkpt>
      <trkpt lat="43.46334" lon="5.81719">
        <ele>371.60000610352</ele>
        <time>2021-01-31T09:09:38.000Z</time>
      </trkpt>
      <trkpt lat="43.46318" lon="5.81718">
        <ele>372.39999389648</ele>
        <time>2021-01-31T09:09:45.000Z</time>
      </trkpt>
      <trkpt lat="43.46308" lon="5.81722">
        <ele>372.60000610352</ele>
        <time>2021-01-31T09:09:49.000Z</time>
      </trkpt>
      <trkpt lat="43.46299" lon="5.81726">
        <ele>373.20001220703</ele>
        <time>2021-01-31T09:09:53.000Z</time>
      </trkpt>
      <trkpt lat="43.46286" lon="5.81734">
        <ele>373.20001220703</ele>
        <time>2021-01-31T09:09:58.000Z</time>
      </trkpt>
      <trkpt lat="43.46283" lon="5.81736">
        <ele>373</ele>
        <time>2021-01-31T09:09:59.000Z</time>
      </trkpt>
      <trkpt lat="43.46265" lon="5.81739">
        <ele>372</ele>
        <time>2021-01-31T09:10:04.000Z</time>
      </trkpt>
      <trkpt lat="43.46257" lon="5.81738">
        <ele>371.39999389648</ele>
        <time>2021-01-31T09:10:06.000Z</time>
      </trkpt>
      <trkpt lat="43.4624" lon="5.81737">
        <ele>370.60000610352</ele>
        <time>2021-01-31T09:10:10.000Z</time>
      </trkpt>
      <trkpt lat="43.46236" lon="5.81736">
        <ele>370.20001220703</ele>
        <time>2021-01-31T09:10:12.000Z</time>
      </trkpt>
      <trkpt lat="43.46235" lon="5.81736">
        <ele>370</ele>
        <time>2021-01-31T09:10:14.000Z</time>
      </trkpt>
      <trkpt lat="43.46233" lon="5.81735">
        <ele>370.39999389648</ele>
        <time>2021-01-31T09:10:20.000Z</time>
      </trkpt>
      <trkpt lat="43.46231" lon="5.81738">
        <ele>370.39999389648</ele>
        <time>2021-01-31T09:10:26.000Z</time>
      </trkpt>
      <trkpt lat="43.4623" lon="5.81737">
        <ele>370</ele>
        <time>2021-01-31T09:10:28.000Z</time>
      </trkpt>
      <trkpt lat="43.46229" lon="5.81736">
        <ele>369.79998779297</ele>
        <time>2021-01-31T09:10:29.000Z</time>
      </trkpt>
      <trkpt lat="43.46225" lon="5.81732">
        <ele>369.60000610352</ele>
        <time>2021-01-31T09:10:32.000Z</time>
      </trkpt>
      <trkpt lat="43.46218" lon="5.81718">
        <ele>370.20001220703</ele>
        <time>2021-01-31T09:10:38.000Z</time>
      </trkpt>
      <trkpt lat="43.4621" lon="5.81709">
        <ele>370.39999389648</ele>
        <time>2021-01-31T09:10:43.000Z</time>
      </trkpt>
      <trkpt lat="43.46207" lon="5.8171">
        <ele>370.60000610352</ele>
        <time>2021-01-31T09:10:45.000Z</time>
      </trkpt>
      <trkpt lat="43.46204" lon="5.81723">
        <ele>370.60000610352</ele>
        <time>2021-01-31T09:10:49.000Z</time>
      </trkpt>
      <trkpt lat="43.46204" lon="5.81751">
        <ele>369.39999389648</ele>
        <time>2021-01-31T09:10:57.000Z</time>
      </trkpt>
      <trkpt lat="43.46205" lon="5.81754">
        <ele>369.20001220703</ele>
        <time>2021-01-31T09:10:58.000Z</time>
      </trkpt>
      <trkpt lat="43.46204" lon="5.81761">
        <ele>369</ele>
        <time>2021-01-31T09:11:00.000Z</time>
      </trkpt>
      <trkpt lat="43.46205" lon="5.81776">
        <ele>368.60000610352</ele>
        <time>2021-01-31T09:11:04.000Z</time>
      </trkpt>
      <trkpt lat="43.46204" lon="5.81805">
        <ele>368.39999389648</ele>
        <time>2021-01-31T09:11:10.000Z</time>
      </trkpt>
      <trkpt lat="43.46203" lon="5.81817">
        <ele>368.39999389648</ele>
        <time>2021-01-31T09:11:12.000Z</time>
      </trkpt>
      <trkpt lat="43.46202" lon="5.81835">
        <ele>368.39999389648</ele>
        <time>2021-01-31T09:11:15.000Z</time>
      </trkpt>
      <trkpt lat="43.46201" lon="5.81846">
        <ele>368.39999389648</ele>
        <time>2021-01-31T09:11:17.000Z</time>
      </trkpt>
      <trkpt lat="43.46192" lon="5.81899">
        <ele>368.79998779297</ele>
        <time>2021-01-31T09:11:26.000Z</time>
      </trkpt>
      <trkpt lat="43.46188" lon="5.81925">
        <ele>368</ele>
        <time>2021-01-31T09:11:30.000Z</time>
      </trkpt>
      <trkpt lat="43.46186" lon="5.81945">
        <ele>367.20001220703</ele>
        <time>2021-01-31T09:11:33.000Z</time>
      </trkpt>
      <trkpt lat="43.46181" lon="5.81967">
        <ele>367</ele>
        <time>2021-01-31T09:11:36.000Z</time>
      </trkpt>
      <trkpt lat="43.46175" lon="5.81986">
        <ele>366.20001220703</ele>
        <time>2021-01-31T09:11:39.000Z</time>
      </trkpt>
      <trkpt lat="43.46173" lon="5.81993">
        <ele>365.79998779297</ele>
        <time>2021-01-31T09:11:40.000Z</time>
      </trkpt>
      <trkpt lat="43.46168" lon="5.82016">
        <ele>364.60000610352</ele>
        <time>2021-01-31T09:11:43.000Z</time>
      </trkpt>
      <trkpt lat="43.46167" lon="5.82024">
        <ele>364</ele>
        <time>2021-01-31T09:11:44.000Z</time>
      </trkpt>
      <trkpt lat="43.46167" lon="5.82033">
        <ele>363.39999389648</ele>
        <time>2021-01-31T09:11:45.000Z</time>
      </trkpt>
      <trkpt lat="43.46169" lon="5.82051">
        <ele>362.20001220703</ele>
        <time>2021-01-31T09:11:47.000Z</time>
      </trkpt>
      <trkpt lat="43.46174" lon="5.82088">
        <ele>361.20001220703</ele>
        <time>2021-01-31T09:11:51.000Z</time>
      </trkpt>
      <trkpt lat="43.46176" lon="5.82096">
        <ele>361</ele>
        <time>2021-01-31T09:11:52.000Z</time>
      </trkpt>
      <trkpt lat="43.4618" lon="5.82137">
        <ele>359.79998779297</ele>
        <time>2021-01-31T09:11:57.000Z</time>
      </trkpt>
      <trkpt lat="43.4618" lon="5.82145">
        <ele>359.20001220703</ele>
        <time>2021-01-31T09:11:58.000Z</time>
      </trkpt>
      <trkpt lat="43.46181" lon="5.8216">
        <ele>358.79998779297</ele>
        <time>2021-01-31T09:12:00.000Z</time>
      </trkpt>
      <trkpt lat="43.46185" lon="5.82191">
        <ele>358.60000610352</ele>
        <time>2021-01-31T09:12:04.000Z</time>
      </trkpt>
      <trkpt lat="43.46187" lon="5.82199">
        <ele>358.39999389648</ele>
        <time>2021-01-31T09:12:05.000Z</time>
      </trkpt>
      <trkpt lat="43.46189" lon="5.82206">
        <ele>358.39999389648</ele>
        <time>2021-01-31T09:12:06.000Z</time>
      </trkpt>
      <trkpt lat="43.46192" lon="5.82213">
        <ele>358.39999389648</ele>
        <time>2021-01-31T09:12:07.000Z</time>
      </trkpt>
      <trkpt lat="43.46207" lon="5.82237">
        <ele>357.60000610352</ele>
        <time>2021-01-31T09:12:11.000Z</time>
      </trkpt>
      <trkpt lat="43.46216" lon="5.8225">
        <ele>357.20001220703</ele>
        <time>2021-01-31T09:12:13.000Z</time>
      </trkpt>
      <trkpt lat="43.46222" lon="5.82264">
        <ele>356.39999389648</ele>
        <time>2021-01-31T09:12:15.000Z</time>
      </trkpt>
      <trkpt lat="43.46223" lon="5.82272">
        <ele>356.20001220703</ele>
        <time>2021-01-31T09:12:16.000Z</time>
      </trkpt>
      <trkpt lat="43.46222" lon="5.82281">
        <ele>356</ele>
        <time>2021-01-31T09:12:17.000Z</time>
      </trkpt>
      <trkpt lat="43.46219" lon="5.82299">
        <ele>355.39999389648</ele>
        <time>2021-01-31T09:12:19.000Z</time>
      </trkpt>
      <trkpt lat="43.46217" lon="5.82307">
        <ele>355</ele>
        <time>2021-01-31T09:12:20.000Z</time>
      </trkpt>
      <trkpt lat="43.46214" lon="5.82316">
        <ele>354.39999389648</ele>
        <time>2021-01-31T09:12:21.000Z</time>
      </trkpt>
      <trkpt lat="43.462" lon="5.82351">
        <ele>353.20001220703</ele>
        <time>2021-01-31T09:12:25.000Z</time>
      </trkpt>
      <trkpt lat="43.46183" lon="5.82391">
        <ele>352</ele>
        <time>2021-01-31T09:12:30.000Z</time>
      </trkpt>
      <trkpt lat="43.4618" lon="5.82398">
        <ele>351.60000610352</ele>
        <time>2021-01-31T09:12:31.000Z</time>
      </trkpt>
      <trkpt lat="43.46178" lon="5.82405">
        <ele>351</ele>
        <time>2021-01-31T09:12:32.000Z</time>
      </trkpt>
      <trkpt lat="43.46176" lon="5.82416">
        <ele>349.39999389648</ele>
        <time>2021-01-31T09:12:34.000Z</time>
      </trkpt>
      <trkpt lat="43.46175" lon="5.82419">
        <ele>348.79998779297</ele>
        <time>2021-01-31T09:12:35.000Z</time>
      </trkpt>
      <trkpt lat="43.46173" lon="5.82427">
        <ele>348.20001220703</ele>
        <time>2021-01-31T09:12:38.000Z</time>
      </trkpt>
      <trkpt lat="43.46176" lon="5.82436">
        <ele>347.79998779297</ele>
        <time>2021-01-31T09:12:41.000Z</time>
      </trkpt>
      <trkpt lat="43.46186" lon="5.82447">
        <ele>347.20001220703</ele>
        <time>2021-01-31T09:12:45.000Z</time>
      </trkpt>
      <trkpt lat="43.46193" lon="5.82451">
        <ele>346.79998779297</ele>
        <time>2021-01-31T09:12:47.000Z</time>
      </trkpt>
      <trkpt lat="43.46204" lon="5.82454">
        <ele>345.79998779297</ele>
        <time>2021-01-31T09:12:49.000Z</time>
      </trkpt>
      <trkpt lat="43.4621" lon="5.82457">
        <ele>345.20001220703</ele>
        <time>2021-01-31T09:12:50.000Z</time>
      </trkpt>
      <trkpt lat="43.46215" lon="5.82462">
        <ele>344.60000610352</ele>
        <time>2021-01-31T09:12:51.000Z</time>
      </trkpt>
      <trkpt lat="43.46224" lon="5.82476">
        <ele>343</ele>
        <time>2021-01-31T09:12:53.000Z</time>
      </trkpt>
      <trkpt lat="43.4623" lon="5.82497">
        <ele>341.39999389648</ele>
        <time>2021-01-31T09:12:55.000Z</time>
      </trkpt>
      <trkpt lat="43.46231" lon="5.82508">
        <ele>340.39999389648</ele>
        <time>2021-01-31T09:12:56.000Z</time>
      </trkpt>
      <trkpt lat="43.46232" lon="5.8252">
        <ele>339.60000610352</ele>
        <time>2021-01-31T09:12:57.000Z</time>
      </trkpt>
      <trkpt lat="43.46228" lon="5.82546">
        <ele>337.39999389648</ele>
        <time>2021-01-31T09:12:59.000Z</time>
      </trkpt>
      <trkpt lat="43.46224" lon="5.82558">
        <ele>336.20001220703</ele>
        <time>2021-01-31T09:13:00.000Z</time>
      </trkpt>
      <trkpt lat="43.46218" lon="5.8257">
        <ele>335.39999389648</ele>
        <time>2021-01-31T09:13:01.000Z</time>
      </trkpt>
      <trkpt lat="43.46212" lon="5.82583">
        <ele>334.39999389648</ele>
        <time>2021-01-31T09:13:02.000Z</time>
      </trkpt>
      <trkpt lat="43.46198" lon="5.82608">
        <ele>332.39999389648</ele>
        <time>2021-01-31T09:13:04.000Z</time>
      </trkpt>
      <trkpt lat="43.4619" lon="5.8262">
        <ele>331</ele>
        <time>2021-01-31T09:13:05.000Z</time>
      </trkpt>
      <trkpt lat="43.46182" lon="5.82631">
        <ele>329.39999389648</ele>
        <time>2021-01-31T09:13:06.000Z</time>
      </trkpt>
      <trkpt lat="43.46174" lon="5.82643">
        <ele>327.79998779297</ele>
        <time>2021-01-31T09:13:07.000Z</time>
      </trkpt>
      <trkpt lat="43.46166" lon="5.82654">
        <ele>326.39999389648</ele>
        <time>2021-01-31T09:13:08.000Z</time>
      </trkpt>
      <trkpt lat="43.4616" lon="5.82665">
        <ele>325.20001220703</ele>
        <time>2021-01-31T09:13:09.000Z</time>
      </trkpt>
      <trkpt lat="43.46154" lon="5.82675">
        <ele>324.39999389648</ele>
        <time>2021-01-31T09:13:10.000Z</time>
      </trkpt>
      <trkpt lat="43.46148" lon="5.82684">
        <ele>323.39999389648</ele>
        <time>2021-01-31T09:13:11.000Z</time>
      </trkpt>
      <trkpt lat="43.46142" lon="5.82693">
        <ele>321.20001220703</ele>
        <time>2021-01-31T09:13:12.000Z</time>
      </trkpt>
      <trkpt lat="43.46131" lon="5.82708">
        <ele>320</ele>
        <time>2021-01-31T09:13:14.000Z</time>
      </trkpt>
      <trkpt lat="43.46123" lon="5.82713">
        <ele>318.60000610352</ele>
        <time>2021-01-31T09:13:15.000Z</time>
      </trkpt>
      <trkpt lat="43.46116" lon="5.82718">
        <ele>317.39999389648</ele>
        <time>2021-01-31T09:13:16.000Z</time>
      </trkpt>
      <trkpt lat="43.4611" lon="5.82724">
        <ele>316.20001220703</ele>
        <time>2021-01-31T09:13:17.000Z</time>
      </trkpt>
      <trkpt lat="43.46104" lon="5.82731">
        <ele>315</ele>
        <time>2021-01-31T09:13:18.000Z</time>
      </trkpt>
      <trkpt lat="43.461" lon="5.82739">
        <ele>313.79998779297</ele>
        <time>2021-01-31T09:13:19.000Z</time>
      </trkpt>
      <trkpt lat="43.46096" lon="5.82747">
        <ele>312.60000610352</ele>
        <time>2021-01-31T09:13:20.000Z</time>
      </trkpt>
      <trkpt lat="43.46093" lon="5.82756">
        <ele>311.60000610352</ele>
        <time>2021-01-31T09:13:21.000Z</time>
      </trkpt>
      <trkpt lat="43.46093" lon="5.82774">
        <ele>310</ele>
        <time>2021-01-31T09:13:23.000Z</time>
      </trkpt>
      <trkpt lat="43.46097" lon="5.82788">
        <ele>308.79998779297</ele>
        <time>2021-01-31T09:13:25.000Z</time>
      </trkpt>
      <trkpt lat="43.461" lon="5.82794">
        <ele>308.39999389648</ele>
        <time>2021-01-31T09:13:26.000Z</time>
      </trkpt>
      <trkpt lat="43.46104" lon="5.82804">
        <ele>307.60000610352</ele>
        <time>2021-01-31T09:13:28.000Z</time>
      </trkpt>
      <trkpt lat="43.46106" lon="5.82809">
        <ele>307</ele>
        <time>2021-01-31T09:13:30.000Z</time>
      </trkpt>
      <trkpt lat="43.46105" lon="5.82817">
        <ele>306.39999389648</ele>
        <time>2021-01-31T09:13:32.000Z</time>
      </trkpt>
      <trkpt lat="43.46104" lon="5.82822">
        <ele>306</ele>
        <time>2021-01-31T09:13:33.000Z</time>
      </trkpt>
      <trkpt lat="43.46097" lon="5.82831">
        <ele>305</ele>
        <time>2021-01-31T09:13:35.000Z</time>
      </trkpt>
      <trkpt lat="43.4609" lon="5.82841">
        <ele>304.39999389648</ele>
        <time>2021-01-31T09:13:37.000Z</time>
      </trkpt>
      <trkpt lat="43.46081" lon="5.82853">
        <ele>303.79998779297</ele>
        <time>2021-01-31T09:13:39.000Z</time>
      </trkpt>
      <trkpt lat="43.46067" lon="5.82873">
        <ele>303</ele>
        <time>2021-01-31T09:13:42.000Z</time>
      </trkpt>
      <trkpt lat="43.46062" lon="5.82881">
        <ele>302.39999389648</ele>
        <time>2021-01-31T09:13:43.000Z</time>
      </trkpt>
      <trkpt lat="43.46046" lon="5.82905">
        <ele>301.39999389648</ele>
        <time>2021-01-31T09:13:46.000Z</time>
      </trkpt>
      <trkpt lat="43.4604" lon="5.82914">
        <ele>301.20001220703</ele>
        <time>2021-01-31T09:13:47.000Z</time>
      </trkpt>
      <trkpt lat="43.46024" lon="5.82942">
        <ele>300</ele>
        <time>2021-01-31T09:13:50.000Z</time>
      </trkpt>
      <trkpt lat="43.46006" lon="5.82979">
        <ele>299</ele>
        <time>2021-01-31T09:13:54.000Z</time>
      </trkpt>
      <trkpt lat="43.46001" lon="5.82988">
        <ele>298.79998779297</ele>
        <time>2021-01-31T09:13:55.000Z</time>
      </trkpt>
      <trkpt lat="43.45982" lon="5.83032">
        <ele>298.20001220703</ele>
        <time>2021-01-31T09:14:00.000Z</time>
      </trkpt>
      <trkpt lat="43.45978" lon="5.8304">
        <ele>297.79998779297</ele>
        <time>2021-01-31T09:14:01.000Z</time>
      </trkpt>
      <trkpt lat="43.45959" lon="5.83087">
        <ele>297</ele>
        <time>2021-01-31T09:14:07.000Z</time>
      </trkpt>
      <trkpt lat="43.45954" lon="5.83098">
        <ele>297</ele>
        <time>2021-01-31T09:14:10.000Z</time>
      </trkpt>
      <trkpt lat="43.45951" lon="5.831">
        <ele>296.79998779297</ele>
        <time>2021-01-31T09:14:12.000Z</time>
      </trkpt>
      <trkpt lat="43.4595" lon="5.83102">
        <ele>296.79998779297</ele>
        <time>2021-01-31T09:14:13.000Z</time>
      </trkpt>
      <trkpt lat="43.45947" lon="5.83105">
        <ele>296.79998779297</ele>
        <time>2021-01-31T09:14:15.000Z</time>
      </trkpt>
      <trkpt lat="43.45946" lon="5.83108">
        <ele>296.79998779297</ele>
        <time>2021-01-31T09:14:16.000Z</time>
      </trkpt>
      <trkpt lat="43.45942" lon="5.83112">
        <ele>297</ele>
        <time>2021-01-31T09:14:18.000Z</time>
      </trkpt>
      <trkpt lat="43.45934" lon="5.83114">
        <ele>297</ele>
        <time>2021-01-31T09:14:21.000Z</time>
      </trkpt>
      <trkpt lat="43.45915" lon="5.83103">
        <ele>297.20001220703</ele>
        <time>2021-01-31T09:14:28.000Z</time>
      </trkpt>
      <trkpt lat="43.45906" lon="5.83095">
        <ele>297.39999389648</ele>
        <time>2021-01-31T09:14:32.000Z</time>
      </trkpt>
      <trkpt lat="43.45901" lon="5.83092">
        <ele>297.79998779297</ele>
        <time>2021-01-31T09:14:34.000Z</time>
      </trkpt>
      <trkpt lat="43.45898" lon="5.8309">
        <ele>298</ele>
        <time>2021-01-31T09:14:35.000Z</time>
      </trkpt>
      <trkpt lat="43.4589" lon="5.83082">
        <ele>298.79998779297</ele>
        <time>2021-01-31T09:14:39.000Z</time>
      </trkpt>
      <trkpt lat="43.45887" lon="5.83081">
        <ele>299</ele>
        <time>2021-01-31T09:14:40.000Z</time>
      </trkpt>
      <trkpt lat="43.45885" lon="5.83081">
        <ele>299</ele>
        <time>2021-01-31T09:14:41.000Z</time>
      </trkpt>
      <trkpt lat="43.4587" lon="5.83071">
        <ele>300</ele>
        <time>2021-01-31T09:14:47.000Z</time>
      </trkpt>
      <trkpt lat="43.45868" lon="5.8307">
        <ele>300.39999389648</ele>
        <time>2021-01-31T09:14:48.000Z</time>
      </trkpt>
      <trkpt lat="43.45861" lon="5.83064">
        <ele>301.39999389648</ele>
        <time>2021-01-31T09:14:52.000Z</time>
      </trkpt>
      <trkpt lat="43.45856" lon="5.83062">
        <ele>302</ele>
        <time>2021-01-31T09:14:55.000Z</time>
      </trkpt>
      <trkpt lat="43.45854" lon="5.83062">
        <ele>302.60000610352</ele>
        <time>2021-01-31T09:14:56.000Z</time>
      </trkpt>
      <trkpt lat="43.45849" lon="5.83061">
        <ele>303.79998779297</ele>
        <time>2021-01-31T09:14:59.000Z</time>
      </trkpt>
      <trkpt lat="43.45845" lon="5.83057">
        <ele>304.20001220703</ele>
        <time>2021-01-31T09:15:02.000Z</time>
      </trkpt>
      <trkpt lat="43.45843" lon="5.83056">
        <ele>304.39999389648</ele>
        <time>2021-01-31T09:15:03.000Z</time>
      </trkpt>
      <trkpt lat="43.45843" lon="5.83054">
        <ele>304.39999389648</ele>
        <time>2021-01-31T09:15:04.000Z</time>
      </trkpt>
      <trkpt lat="43.45842" lon="5.83052">
        <ele>304.60000610352</ele>
        <time>2021-01-31T09:15:05.000Z</time>
      </trkpt>
      <trkpt lat="43.45843" lon="5.83048">
        <ele>305</ele>
        <time>2021-01-31T09:15:07.000Z</time>
      </trkpt>
      <trkpt lat="43.45843" lon="5.83046">
        <ele>305.60000610352</ele>
        <time>2021-01-31T09:15:08.000Z</time>
      </trkpt>
      <trkpt lat="43.45843" lon="5.83043">
        <ele>306.20001220703</ele>
        <time>2021-01-31T09:15:10.000Z</time>
      </trkpt>
      <trkpt lat="43.45842" lon="5.83042">
        <ele>306.60000610352</ele>
        <time>2021-01-31T09:15:12.000Z</time>
      </trkpt>
      <trkpt lat="43.45842" lon="5.8304">
        <ele>306.60000610352</ele>
        <time>2021-01-31T09:15:15.000Z</time>
      </trkpt>
      <trkpt lat="43.4584" lon="5.8304">
        <ele>306.79998779297</ele>
        <time>2021-01-31T09:15:17.000Z</time>
      </trkpt>
      <trkpt lat="43.4584" lon="5.8304">
        <ele>306.79998779297</ele>
        <time>2021-01-31T09:15:18.000Z</time>
      </trkpt>
      <trkpt lat="43.45839" lon="5.8304">
        <ele>307</ele>
        <time>2021-01-31T09:15:19.000Z</time>
      </trkpt>
      <trkpt lat="43.45838" lon="5.8304">
        <ele>307.20001220703</ele>
        <time>2021-01-31T09:15:21.000Z</time>
      </trkpt>
      <trkpt lat="43.45839" lon="5.8304">
        <ele>307.20001220703</ele>
        <time>2021-01-31T09:15:24.000Z</time>
      </trkpt>
      <trkpt lat="43.45838" lon="5.83037">
        <ele>306.39999389648</ele>
        <time>2021-01-31T09:15:32.000Z</time>
      </trkpt>
      <trkpt lat="43.45838" lon="5.83037">
        <ele>306.20001220703</ele>
        <time>2021-01-31T09:15:34.000Z</time>
      </trkpt>
      <trkpt lat="43.45838" lon="5.83037">
        <ele>305.79998779297</ele>
        <time>2021-01-31T09:15:41.000Z</time>
      </trkpt>
      <trkpt lat="43.45836" lon="5.83035">
        <ele>305.60000610352</ele>
        <time>2021-01-31T09:15:48.000Z</time>
      </trkpt>
      <trkpt lat="43.45837" lon="5.83034">
        <ele>305</ele>
        <time>2021-01-31T09:15:52.000Z</time>
      </trkpt>
      <trkpt lat="43.45837" lon="5.83035">
        <ele>304.79998779297</ele>
        <time>2021-01-31T09:15:54.000Z</time>
      </trkpt>
      <trkpt lat="43.45838" lon="5.83036">
        <ele>304</ele>
        <time>2021-01-31T09:16:01.000Z</time>
      </trkpt>
      <trkpt lat="43.45837" lon="5.83036">
        <ele>303.79998779297</ele>
        <time>2021-01-31T09:16:02.000Z</time>
      </trkpt>
      <trkpt lat="43.45837" lon="5.83037">
        <ele>303.60000610352</ele>
        <time>2021-01-31T09:16:11.000Z</time>
      </trkpt>
      <trkpt lat="43.45837" lon="5.83037">
        <ele>303.39999389648</ele>
        <time>2021-01-31T09:16:13.000Z</time>
      </trkpt>
      <trkpt lat="43.45837" lon="5.83037">
        <ele>303.39999389648</ele>
        <time>2021-01-31T09:16:14.000Z</time>
      </trkpt>
      <trkpt lat="43.45838" lon="5.83037">
        <ele>303.39999389648</ele>
        <time>2021-01-31T09:16:15.000Z</time>
      </trkpt>
      <trkpt lat="43.45838" lon="5.83037">
        <ele>303.60000610352</ele>
        <time>2021-01-31T09:16:17.000Z</time>
      </trkpt>
      <trkpt lat="43.45838" lon="5.83038">
        <ele>303.60000610352</ele>
        <time>2021-01-31T09:16:20.000Z</time>
      </trkpt>
      <trkpt lat="43.45839" lon="5.83039">
        <ele>302.79998779297</ele>
        <time>2021-01-31T09:16:29.000Z</time>
      </trkpt>
      <trkpt lat="43.45838" lon="5.83038">
        <ele>302.20001220703</ele>
        <time>2021-01-31T09:16:31.000Z</time>
      </trkpt>
      <trkpt lat="43.45838" lon="5.83038">
        <ele>302.20001220703</ele>
        <time>2021-01-31T09:16:32.000Z</time>
      </trkpt>
      <trkpt lat="43.45838" lon="5.83038">
        <ele>302</ele>
        <time>2021-01-31T09:16:33.000Z</time>
      </trkpt>
      <trkpt lat="43.45838" lon="5.83038">
        <ele>302.20001220703</ele>
        <time>2021-01-31T09:16:34.000Z</time>
      </trkpt>
      <trkpt lat="43.45838" lon="5.83038">
        <ele>302.39999389648</ele>
        <time>2021-01-31T09:16:35.000Z</time>
      </trkpt>
      <trkpt lat="43.45838" lon="5.83038">
        <ele>302.39999389648</ele>
        <time>2021-01-31T09:16:36.000Z</time>
      </trkpt>
      <trkpt lat="43.45836" lon="5.83037">
        <ele>303.20001220703</ele>
        <time>2021-01-31T09:16:42.000Z</time>
      </trkpt>
      <trkpt lat="43.45835" lon="5.83039">
        <ele>303.20001220703</ele>
        <time>2021-01-31T09:16:45.000Z</time>
      </trkpt>
      <trkpt lat="43.45833" lon="5.83042">
        <ele>302.79998779297</ele>
        <time>2021-01-31T09:16:48.000Z</time>
      </trkpt>
      <trkpt lat="43.45831" lon="5.83048">
        <ele>302.60000610352</ele>
        <time>2021-01-31T09:16:54.000Z</time>
      </trkpt>
      <trkpt lat="43.45831" lon="5.83049">
        <ele>302.60000610352</ele>
        <time>2021-01-31T09:16:55.000Z</time>
      </trkpt>
      <trkpt lat="43.45831" lon="5.83051">
        <ele>303</ele>
        <time>2021-01-31T09:16:57.000Z</time>
      </trkpt>
      <trkpt lat="43.4583" lon="5.83054">
        <ele>303.79998779297</ele>
        <time>2021-01-31T09:17:00.000Z</time>
      </trkpt>
      <trkpt lat="43.45827" lon="5.83056">
        <ele>304.60000610352</ele>
        <time>2021-01-31T09:17:05.000Z</time>
      </trkpt>
      <trkpt lat="43.45825" lon="5.83058">
        <ele>305</ele>
        <time>2021-01-31T09:17:08.000Z</time>
      </trkpt>
      <trkpt lat="43.45822" lon="5.83063">
        <ele>306.20001220703</ele>
        <time>2021-01-31T09:17:12.000Z</time>
      </trkpt>
      <trkpt lat="43.45822" lon="5.83066">
        <ele>306.39999389648</ele>
        <time>2021-01-31T09:17:14.000Z</time>
      </trkpt>
      <trkpt lat="43.45821" lon="5.83068">
        <ele>306.60000610352</ele>
        <time>2021-01-31T09:17:16.000Z</time>
      </trkpt>
      <trkpt lat="43.45819" lon="5.8307">
        <ele>307.39999389648</ele>
        <time>2021-01-31T09:17:19.000Z</time>
      </trkpt>
      <trkpt lat="43.45817" lon="5.83072">
        <ele>307.79998779297</ele>
        <time>2021-01-31T09:17:21.000Z</time>
      </trkpt>
      <trkpt lat="43.45814" lon="5.83079">
        <ele>308.20001220703</ele>
        <time>2021-01-31T09:17:28.000Z</time>
      </trkpt>
      <trkpt lat="43.45814" lon="5.83078">
        <ele>307.79998779297</ele>
        <time>2021-01-31T09:17:37.000Z</time>
      </trkpt>
      <trkpt lat="43.45814" lon="5.83079">
        <ele>307.79998779297</ele>
        <time>2021-01-31T09:17:39.000Z</time>
      </trkpt>
      <trkpt lat="43.45812" lon="5.83086">
        <ele>307.39999389648</ele>
        <time>2021-01-31T09:17:42.000Z</time>
      </trkpt>
      <trkpt lat="43.45804" lon="5.83104">
        <ele>307</ele>
        <time>2021-01-31T09:17:48.000Z</time>
      </trkpt>
      <trkpt lat="43.45798" lon="5.83125">
        <ele>306.79998779297</ele>
        <time>2021-01-31T09:17:53.000Z</time>
      </trkpt>
      <trkpt lat="43.45787" lon="5.83149">
        <ele>307.39999389648</ele>
        <time>2021-01-31T09:17:59.000Z</time>
      </trkpt>
      <trkpt lat="43.45783" lon="5.83158">
        <ele>308</ele>
        <time>2021-01-31T09:18:03.000Z</time>
      </trkpt>
      <trkpt lat="43.45773" lon="5.83179">
        <ele>306.79998779297</ele>
        <time>2021-01-31T09:18:09.000Z</time>
      </trkpt>
      <trkpt lat="43.45772" lon="5.83188">
        <ele>306</ele>
        <time>2021-01-31T09:18:11.000Z</time>
      </trkpt>
      <trkpt lat="43.45769" lon="5.83205">
        <ele>305.60000610352</ele>
        <time>2021-01-31T09:18:14.000Z</time>
      </trkpt>
      <trkpt lat="43.45763" lon="5.83236">
        <ele>304.79998779297</ele>
        <time>2021-01-31T09:18:19.000Z</time>
      </trkpt>
      <trkpt lat="43.45751" lon="5.8327">
        <ele>304</ele>
        <time>2021-01-31T09:18:25.000Z</time>
      </trkpt>
      <trkpt lat="43.4575" lon="5.83277">
        <ele>304</ele>
        <time>2021-01-31T09:18:26.000Z</time>
      </trkpt>
      <trkpt lat="43.45748" lon="5.83283">
        <ele>304</ele>
        <time>2021-01-31T09:18:27.000Z</time>
      </trkpt>
      <trkpt lat="43.45744" lon="5.83303">
        <ele>303.79998779297</ele>
        <time>2021-01-31T09:18:30.000Z</time>
      </trkpt>
      <trkpt lat="43.45742" lon="5.83309">
        <ele>303.79998779297</ele>
        <time>2021-01-31T09:18:31.000Z</time>
      </trkpt>
      <trkpt lat="43.4574" lon="5.83315">
        <ele>303.79998779297</ele>
        <time>2021-01-31T09:18:32.000Z</time>
      </trkpt>
      <trkpt lat="43.45734" lon="5.83333">
        <ele>303.60000610352</ele>
        <time>2021-01-31T09:18:35.000Z</time>
      </trkpt>
      <trkpt lat="43.45729" lon="5.83343">
        <ele>303.60000610352</ele>
        <time>2021-01-31T09:18:37.000Z</time>
      </trkpt>
      <trkpt lat="43.45717" lon="5.83362">
        <ele>303.39999389648</ele>
        <time>2021-01-31T09:18:42.000Z</time>
      </trkpt>
      <trkpt lat="43.457" lon="5.8338">
        <ele>303.39999389648</ele>
        <time>2021-01-31T09:18:49.000Z</time>
      </trkpt>
      <trkpt lat="43.45695" lon="5.83386">
        <ele>303.20001220703</ele>
        <time>2021-01-31T09:18:54.000Z</time>
      </trkpt>
      <trkpt lat="43.45695" lon="5.83387">
        <ele>303.20001220703</ele>
        <time>2021-01-31T09:19:03.000Z</time>
      </trkpt>
      <trkpt lat="43.45695" lon="5.83384">
        <ele>303</ele>
        <time>2021-01-31T09:19:12.000Z</time>
      </trkpt>
      <trkpt lat="43.45696" lon="5.83381">
        <ele>303</ele>
        <time>2021-01-31T09:19:21.000Z</time>
      </trkpt>
      <trkpt lat="43.45697" lon="5.83379">
        <ele>303</ele>
        <time>2021-01-31T09:19:29.000Z</time>
      </trkpt>
      <trkpt lat="43.45696" lon="5.83384">
        <ele>302.79998779297</ele>
        <time>2021-01-31T09:19:37.000Z</time>
      </trkpt>
      <trkpt lat="43.45691" lon="5.83381">
        <ele>302.79998779297</ele>
        <time>2021-01-31T09:19:44.000Z</time>
      </trkpt>
      <trkpt lat="43.45691" lon="5.8338">
        <ele>302.79998779297</ele>
        <time>2021-01-31T09:19:48.000Z</time>
      </trkpt>
      <trkpt lat="43.45689" lon="5.83379">
        <ele>302.79998779297</ele>
        <time>2021-01-31T09:19:54.000Z</time>
      </trkpt>
      <trkpt lat="43.45689" lon="5.83379">
        <ele>302.79998779297</ele>
        <time>2021-01-31T09:19:57.000Z</time>
      </trkpt>
      <trkpt lat="43.45689" lon="5.83379">
        <ele>302.79998779297</ele>
        <time>2021-01-31T09:20:00.000Z</time>
      </trkpt>
      <trkpt lat="43.45691" lon="5.83383">
        <ele>302.60000610352</ele>
        <time>2021-01-31T09:20:09.000Z</time>
      </trkpt>
      <trkpt lat="43.45691" lon="5.83384">
        <ele>302.60000610352</ele>
        <time>2021-01-31T09:20:11.000Z</time>
      </trkpt>
      <trkpt lat="43.45687" lon="5.83388">
        <ele>302.60000610352</ele>
        <time>2021-01-31T09:20:14.000Z</time>
      </trkpt>
      <trkpt lat="43.45684" lon="5.83392">
        <ele>302.60000610352</ele>
        <time>2021-01-31T09:20:16.000Z</time>
      </trkpt>
      <trkpt lat="43.45682" lon="5.83403">
        <ele>302.60000610352</ele>
        <time>2021-01-31T09:20:19.000Z</time>
      </trkpt>
      <trkpt lat="43.45678" lon="5.83424">
        <ele>302.60000610352</ele>
        <time>2021-01-31T09:20:25.000Z</time>
      </trkpt>
      <trkpt lat="43.45676" lon="5.83443">
        <ele>302.60000610352</ele>
        <time>2021-01-31T09:20:31.000Z</time>
      </trkpt>
      <trkpt lat="43.45673" lon="5.83473">
        <ele>302.60000610352</ele>
        <time>2021-01-31T09:20:37.000Z</time>
      </trkpt>
      <trkpt lat="43.45674" lon="5.83507">
        <ele>302.60000610352</ele>
        <time>2021-01-31T09:20:42.000Z</time>
      </trkpt>
      <trkpt lat="43.45674" lon="5.83515">
        <ele>302.60000610352</ele>
        <time>2021-01-31T09:20:43.000Z</time>
      </trkpt>
      <trkpt lat="43.45674" lon="5.83524">
        <ele>302.60000610352</ele>
        <time>2021-01-31T09:20:44.000Z</time>
      </trkpt>
      <trkpt lat="43.45673" lon="5.83552">
        <ele>302.39999389648</ele>
        <time>2021-01-31T09:20:47.000Z</time>
      </trkpt>
      <trkpt lat="43.45668" lon="5.83578">
        <ele>302.39999389648</ele>
        <time>2021-01-31T09:20:50.000Z</time>
      </trkpt>
      <trkpt lat="43.45664" lon="5.83595">
        <ele>302.20001220703</ele>
        <time>2021-01-31T09:20:52.000Z</time>
      </trkpt>
      <trkpt lat="43.45662" lon="5.83603">
        <ele>302.20001220703</ele>
        <time>2021-01-31T09:20:53.000Z</time>
      </trkpt>
      <trkpt lat="43.45659" lon="5.8362">
        <ele>302</ele>
        <time>2021-01-31T09:20:55.000Z</time>
      </trkpt>
      <trkpt lat="43.45659" lon="5.83629">
        <ele>302</ele>
        <time>2021-01-31T09:20:56.000Z</time>
      </trkpt>
      <trkpt lat="43.45659" lon="5.83658">
        <ele>301.79998779297</ele>
        <time>2021-01-31T09:20:59.000Z</time>
      </trkpt>
      <trkpt lat="43.45658" lon="5.83687">
        <ele>301.60000610352</ele>
        <time>2021-01-31T09:21:02.000Z</time>
      </trkpt>
      <trkpt lat="43.45657" lon="5.83712">
        <ele>301.20001220703</ele>
        <time>2021-01-31T09:21:05.000Z</time>
      </trkpt>
      <trkpt lat="43.45653" lon="5.83728">
        <ele>300.79998779297</ele>
        <time>2021-01-31T09:21:07.000Z</time>
      </trkpt>
      <trkpt lat="43.45648" lon="5.83745">
        <ele>300.60000610352</ele>
        <time>2021-01-31T09:21:09.000Z</time>
      </trkpt>
      <trkpt lat="43.45639" lon="5.83771">
        <ele>300.20001220703</ele>
        <time>2021-01-31T09:21:12.000Z</time>
      </trkpt>
      <trkpt lat="43.45628" lon="5.83805">
        <ele>299.60000610352</ele>
        <time>2021-01-31T09:21:16.000Z</time>
      </trkpt>
      <trkpt lat="43.45625" lon="5.83813">
        <ele>299.39999389648</ele>
        <time>2021-01-31T09:21:17.000Z</time>
      </trkpt>
      <trkpt lat="43.45618" lon="5.83832">
        <ele>299</ele>
        <time>2021-01-31T09:21:20.000Z</time>
      </trkpt>
      <trkpt lat="43.45616" lon="5.83844">
        <ele>298.60000610352</ele>
        <time>2021-01-31T09:21:22.000Z</time>
      </trkpt>
      <trkpt lat="43.45614" lon="5.8385">
        <ele>298.39999389648</ele>
        <time>2021-01-31T09:21:23.000Z</time>
      </trkpt>
      <trkpt lat="43.45605" lon="5.83882">
        <ele>297.39999389648</ele>
        <time>2021-01-31T09:21:28.000Z</time>
      </trkpt>
      <trkpt lat="43.45603" lon="5.83889">
        <ele>297.20001220703</ele>
        <time>2021-01-31T09:21:29.000Z</time>
      </trkpt>
      <trkpt lat="43.45593" lon="5.83927">
        <ele>296.20001220703</ele>
        <time>2021-01-31T09:21:34.000Z</time>
      </trkpt>
      <trkpt lat="43.45592" lon="5.83935">
        <ele>296</ele>
        <time>2021-01-31T09:21:35.000Z</time>
      </trkpt>
      <trkpt lat="43.45589" lon="5.83969">
        <ele>295.20001220703</ele>
        <time>2021-01-31T09:21:39.000Z</time>
      </trkpt>
      <trkpt lat="43.45588" lon="5.83987">
        <ele>294.79998779297</ele>
        <time>2021-01-31T09:21:41.000Z</time>
      </trkpt>
      <trkpt lat="43.45586" lon="5.84004">
        <ele>294.39999389648</ele>
        <time>2021-01-31T09:21:43.000Z</time>
      </trkpt>
      <trkpt lat="43.45585" lon="5.84012">
        <ele>294.20001220703</ele>
        <time>2021-01-31T09:21:44.000Z</time>
      </trkpt>
      <trkpt lat="43.45583" lon="5.84027">
        <ele>293.79998779297</ele>
        <time>2021-01-31T09:21:46.000Z</time>
      </trkpt>
      <trkpt lat="43.45575" lon="5.84054">
        <ele>293</ele>
        <time>2021-01-31T09:21:50.000Z</time>
      </trkpt>
      <trkpt lat="43.4557" lon="5.84064">
        <ele>292.60000610352</ele>
        <time>2021-01-31T09:21:52.000Z</time>
      </trkpt>
      <trkpt lat="43.45568" lon="5.84068">
        <ele>292.39999389648</ele>
        <time>2021-01-31T09:21:53.000Z</time>
      </trkpt>
      <trkpt lat="43.45563" lon="5.84076">
        <ele>292</ele>
        <time>2021-01-31T09:21:56.000Z</time>
      </trkpt>
      <trkpt lat="43.45562" lon="5.84079">
        <ele>291.79998779297</ele>
        <time>2021-01-31T09:21:57.000Z</time>
      </trkpt>
      <trkpt lat="43.45555" lon="5.84093">
        <ele>290.79998779297</ele>
        <time>2021-01-31T09:22:02.000Z</time>
      </trkpt>
      <trkpt lat="43.45551" lon="5.84098">
        <ele>290.60000610352</ele>
        <time>2021-01-31T09:22:04.000Z</time>
      </trkpt>
      <trkpt lat="43.45543" lon="5.84108">
        <ele>290</ele>
        <time>2021-01-31T09:22:08.000Z</time>
      </trkpt>
      <trkpt lat="43.45541" lon="5.84111">
        <ele>289.79998779297</ele>
        <time>2021-01-31T09:22:09.000Z</time>
      </trkpt>
      <trkpt lat="43.45537" lon="5.84117">
        <ele>289.39999389648</ele>
        <time>2021-01-31T09:22:11.000Z</time>
      </trkpt>
      <trkpt lat="43.4553" lon="5.84134">
        <ele>288.60000610352</ele>
        <time>2021-01-31T09:22:16.000Z</time>
      </trkpt>
      <trkpt lat="43.45528" lon="5.84141">
        <ele>288.39999389648</ele>
        <time>2021-01-31T09:22:18.000Z</time>
      </trkpt>
      <trkpt lat="43.4552" lon="5.84158">
        <ele>287.60000610352</ele>
        <time>2021-01-31T09:22:23.000Z</time>
      </trkpt>
      <trkpt lat="43.45517" lon="5.84164">
        <ele>287.39999389648</ele>
        <time>2021-01-31T09:22:25.000Z</time>
      </trkpt>
      <trkpt lat="43.4551" lon="5.84176">
        <ele>286.79998779297</ele>
        <time>2021-01-31T09:22:29.000Z</time>
      </trkpt>
      <trkpt lat="43.45508" lon="5.84179">
        <ele>286.60000610352</ele>
        <time>2021-01-31T09:22:30.000Z</time>
      </trkpt>
      <trkpt lat="43.45499" lon="5.84194">
        <ele>286</ele>
        <time>2021-01-31T09:22:35.000Z</time>
      </trkpt>
      <trkpt lat="43.45493" lon="5.84204">
        <ele>285.60000610352</ele>
        <time>2021-01-31T09:22:38.000Z</time>
      </trkpt>
      <trkpt lat="43.45488" lon="5.84215">
        <ele>285.20001220703</ele>
        <time>2021-01-31T09:22:41.000Z</time>
      </trkpt>
      <trkpt lat="43.45486" lon="5.84219">
        <ele>285</ele>
        <time>2021-01-31T09:22:42.000Z</time>
      </trkpt>
      <trkpt lat="43.45479" lon="5.84242">
        <ele>284.39999389648</ele>
        <time>2021-01-31T09:22:47.000Z</time>
      </trkpt>
      <trkpt lat="43.45476" lon="5.84247">
        <ele>284.39999389648</ele>
        <time>2021-01-31T09:22:48.000Z</time>
      </trkpt>
      <trkpt lat="43.45462" lon="5.84282">
        <ele>283.60000610352</ele>
        <time>2021-01-31T09:22:55.000Z</time>
      </trkpt>
      <trkpt lat="43.45461" lon="5.84288">
        <ele>283.39999389648</ele>
        <time>2021-01-31T09:22:56.000Z</time>
      </trkpt>
      <trkpt lat="43.45456" lon="5.84313">
        <ele>282.79998779297</ele>
        <time>2021-01-31T09:23:01.000Z</time>
      </trkpt>
      <trkpt lat="43.45454" lon="5.84323">
        <ele>282.60000610352</ele>
        <time>2021-01-31T09:23:03.000Z</time>
      </trkpt>
      <trkpt lat="43.45454" lon="5.84333">
        <ele>282.39999389648</ele>
        <time>2021-01-31T09:23:05.000Z</time>
      </trkpt>
      <trkpt lat="43.45452" lon="5.84369">
        <ele>281.79998779297</ele>
        <time>2021-01-31T09:23:11.000Z</time>
      </trkpt>
      <trkpt lat="43.45447" lon="5.8439">
        <ele>281.20001220703</ele>
        <time>2021-01-31T09:23:15.000Z</time>
      </trkpt>
      <trkpt lat="43.45446" lon="5.84395">
        <ele>281.20001220703</ele>
        <time>2021-01-31T09:23:16.000Z</time>
      </trkpt>
      <trkpt lat="43.45439" lon="5.84419">
        <ele>280.60000610352</ele>
        <time>2021-01-31T09:23:22.000Z</time>
      </trkpt>
      <trkpt lat="43.45437" lon="5.84422">
        <ele>280.39999389648</ele>
        <time>2021-01-31T09:23:23.000Z</time>
      </trkpt>
      <trkpt lat="43.45435" lon="5.84427">
        <ele>280.20001220703</ele>
        <time>2021-01-31T09:23:25.000Z</time>
      </trkpt>
      <trkpt lat="43.4543" lon="5.8444">
        <ele>279.79998779297</ele>
        <time>2021-01-31T09:23:29.000Z</time>
      </trkpt>
      <trkpt lat="43.45423" lon="5.84451">
        <ele>279.39999389648</ele>
        <time>2021-01-31T09:23:33.000Z</time>
      </trkpt>
      <trkpt lat="43.45418" lon="5.8446">
        <ele>279.20001220703</ele>
        <time>2021-01-31T09:23:36.000Z</time>
      </trkpt>
      <trkpt lat="43.4541" lon="5.84492">
        <ele>278.39999389648</ele>
        <time>2021-01-31T09:23:44.000Z</time>
      </trkpt>
      <trkpt lat="43.45404" lon="5.84509">
        <ele>278.20001220703</ele>
        <time>2021-01-31T09:23:48.000Z</time>
      </trkpt>
      <trkpt lat="43.454" lon="5.84522">
        <ele>277.79998779297</ele>
        <time>2021-01-31T09:23:51.000Z</time>
      </trkpt>
      <trkpt lat="43.45389" lon="5.84551">
        <ele>277.39999389648</ele>
        <time>2021-01-31T09:23:59.000Z</time>
      </trkpt>
      <trkpt lat="43.45387" lon="5.84566">
        <ele>277</ele>
        <time>2021-01-31T09:24:03.000Z</time>
      </trkpt>
      <trkpt lat="43.45385" lon="5.84575">
        <ele>277</ele>
        <time>2021-01-31T09:24:05.000Z</time>
      </trkpt>
      <trkpt lat="43.45378" lon="5.84606">
        <ele>276.79998779297</ele>
        <time>2021-01-31T09:24:12.000Z</time>
      </trkpt>
      <trkpt lat="43.45373" lon="5.8463">
        <ele>276.39999389648</ele>
        <time>2021-01-31T09:24:17.000Z</time>
      </trkpt>
      <trkpt lat="43.45371" lon="5.84639">
        <ele>276.39999389648</ele>
        <time>2021-01-31T09:24:19.000Z</time>
      </trkpt>
      <trkpt lat="43.45363" lon="5.8467">
        <ele>276.20001220703</ele>
        <time>2021-01-31T09:24:26.000Z</time>
      </trkpt>
      <trkpt lat="43.45359" lon="5.84682">
        <ele>276</ele>
        <time>2021-01-31T09:24:28.000Z</time>
      </trkpt>
      <trkpt lat="43.45354" lon="5.84706">
        <ele>276</ele>
        <time>2021-01-31T09:24:31.000Z</time>
      </trkpt>
      <trkpt lat="43.4535" lon="5.84722">
        <ele>275.79998779297</ele>
        <time>2021-01-31T09:24:33.000Z</time>
      </trkpt>
      <trkpt lat="43.45345" lon="5.84756">
        <ele>275.60000610352</ele>
        <time>2021-01-31T09:24:37.000Z</time>
      </trkpt>
      <trkpt lat="43.45338" lon="5.84821">
        <ele>275.20001220703</ele>
        <time>2021-01-31T09:24:45.000Z</time>
      </trkpt>
      <trkpt lat="43.45339" lon="5.84836">
        <ele>275.20001220703</ele>
        <time>2021-01-31T09:24:47.000Z</time>
      </trkpt>
      <trkpt lat="43.4534" lon="5.84843">
        <ele>275</ele>
        <time>2021-01-31T09:24:48.000Z</time>
      </trkpt>
      <trkpt lat="43.45341" lon="5.8485">
        <ele>275</ele>
        <time>2021-01-31T09:24:49.000Z</time>
      </trkpt>
      <trkpt lat="43.45342" lon="5.84901">
        <ele>274.60000610352</ele>
        <time>2021-01-31T09:24:56.000Z</time>
      </trkpt>
      <trkpt lat="43.4534" lon="5.84952">
        <ele>274.20001220703</ele>
        <time>2021-01-31T09:25:03.000Z</time>
      </trkpt>
      <trkpt lat="43.45337" lon="5.84973">
        <ele>274</ele>
        <time>2021-01-31T09:25:06.000Z</time>
      </trkpt>
      <trkpt lat="43.45334" lon="5.84999">
        <ele>273.79998779297</ele>
        <time>2021-01-31T09:25:10.000Z</time>
      </trkpt>
      <trkpt lat="43.45333" lon="5.85009">
        <ele>273.79998779297</ele>
        <time>2021-01-31T09:25:12.000Z</time>
      </trkpt>
      <trkpt lat="43.45331" lon="5.85016">
        <ele>273.60000610352</ele>
        <time>2021-01-31T09:25:14.000Z</time>
      </trkpt>
      <trkpt lat="43.4533" lon="5.85022">
        <ele>273.60000610352</ele>
        <time>2021-01-31T09:25:16.000Z</time>
      </trkpt>
      <trkpt lat="43.45329" lon="5.85024">
        <ele>273.39999389648</ele>
        <time>2021-01-31T09:25:19.000Z</time>
      </trkpt>
      <trkpt lat="43.45331" lon="5.85025">
        <ele>273.20001220703</ele>
        <time>2021-01-31T09:25:26.000Z</time>
      </trkpt>
      <trkpt lat="43.45332" lon="5.85027">
        <ele>273</ele>
        <time>2021-01-31T09:25:31.000Z</time>
      </trkpt>
      <trkpt lat="43.45331" lon="5.85028">
        <ele>272.79998779297</ele>
        <time>2021-01-31T09:25:35.000Z</time>
      </trkpt>
      <trkpt lat="43.45329" lon="5.8504">
        <ele>272.79998779297</ele>
        <time>2021-01-31T09:25:39.000Z</time>
      </trkpt>
      <trkpt lat="43.45327" lon="5.85054">
        <ele>272.60000610352</ele>
        <time>2021-01-31T09:25:42.000Z</time>
      </trkpt>
      <trkpt lat="43.45324" lon="5.85068">
        <ele>272.39999389648</ele>
        <time>2021-01-31T09:25:45.000Z</time>
      </trkpt>
      <trkpt lat="43.45321" lon="5.85091">
        <ele>272.39999389648</ele>
        <time>2021-01-31T09:25:49.000Z</time>
      </trkpt>
      <trkpt lat="43.45321" lon="5.85103">
        <ele>272.20001220703</ele>
        <time>2021-01-31T09:25:51.000Z</time>
      </trkpt>
      <trkpt lat="43.45322" lon="5.85125">
        <ele>272</ele>
        <time>2021-01-31T09:25:55.000Z</time>
      </trkpt>
      <trkpt lat="43.45322" lon="5.8513">
        <ele>272</ele>
        <time>2021-01-31T09:25:56.000Z</time>
      </trkpt>
      <trkpt lat="43.45323" lon="5.85141">
        <ele>271.79998779297</ele>
        <time>2021-01-31T09:25:58.000Z</time>
      </trkpt>
      <trkpt lat="43.45321" lon="5.85172">
        <ele>271.60000610352</ele>
        <time>2021-01-31T09:26:04.000Z</time>
      </trkpt>
      <trkpt lat="43.45316" lon="5.85213">
        <ele>271.39999389648</ele>
        <time>2021-01-31T09:26:11.000Z</time>
      </trkpt>
      <trkpt lat="43.4531" lon="5.85243">
        <ele>271.20001220703</ele>
        <time>2021-01-31T09:26:16.000Z</time>
      </trkpt>
      <trkpt lat="43.45306" lon="5.85254">
        <ele>271.20001220703</ele>
        <time>2021-01-31T09:26:18.000Z</time>
      </trkpt>
      <trkpt lat="43.45305" lon="5.8526">
        <ele>271.20001220703</ele>
        <time>2021-01-31T09:26:19.000Z</time>
      </trkpt>
      <trkpt lat="43.45297" lon="5.85293">
        <ele>271</ele>
        <time>2021-01-31T09:26:25.000Z</time>
      </trkpt>
      <trkpt lat="43.45296" lon="5.85299">
        <ele>271</ele>
        <time>2021-01-31T09:26:26.000Z</time>
      </trkpt>
      <trkpt lat="43.45297" lon="5.8532">
        <ele>271</ele>
        <time>2021-01-31T09:26:30.000Z</time>
      </trkpt>
      <trkpt lat="43.45298" lon="5.85343">
        <ele>271</ele>
        <time>2021-01-31T09:26:35.000Z</time>
      </trkpt>
      <trkpt lat="43.45299" lon="5.85352">
        <ele>271</ele>
        <time>2021-01-31T09:26:37.000Z</time>
      </trkpt>
      <trkpt lat="43.45299" lon="5.85357">
        <ele>271</ele>
        <time>2021-01-31T09:26:38.000Z</time>
      </trkpt>
      <trkpt lat="43.45302" lon="5.85394">
        <ele>271</ele>
        <time>2021-01-31T09:26:46.000Z</time>
      </trkpt>
      <trkpt lat="43.45301" lon="5.85435">
        <ele>271</ele>
        <time>2021-01-31T09:26:54.000Z</time>
      </trkpt>
      <trkpt lat="43.45299" lon="5.85464">
        <ele>271</ele>
        <time>2021-01-31T09:26:59.000Z</time>
      </trkpt>
      <trkpt lat="43.453" lon="5.85476">
        <ele>271</ele>
        <time>2021-01-31T09:27:01.000Z</time>
      </trkpt>
      <trkpt lat="43.45301" lon="5.85482">
        <ele>271</ele>
        <time>2021-01-31T09:27:02.000Z</time>
      </trkpt>
      <trkpt lat="43.45304" lon="5.85523">
        <ele>271</ele>
        <time>2021-01-31T09:27:08.000Z</time>
      </trkpt>
      <trkpt lat="43.4531" lon="5.85572">
        <ele>271</ele>
        <time>2021-01-31T09:27:16.000Z</time>
      </trkpt>
      <trkpt lat="43.45313" lon="5.85615">
        <ele>271</ele>
        <time>2021-01-31T09:27:24.000Z</time>
      </trkpt>
      <trkpt lat="43.45317" lon="5.85653">
        <ele>271</ele>
        <time>2021-01-31T09:27:31.000Z</time>
      </trkpt>
      <trkpt lat="43.45318" lon="5.85659">
        <ele>271</ele>
        <time>2021-01-31T09:27:32.000Z</time>
      </trkpt>
      <trkpt lat="43.45322" lon="5.85696">
        <ele>271</ele>
        <time>2021-01-31T09:27:39.000Z</time>
      </trkpt>
      <trkpt lat="43.45325" lon="5.85729">
        <ele>271</ele>
        <time>2021-01-31T09:27:45.000Z</time>
      </trkpt>
      <trkpt lat="43.45326" lon="5.85735">
        <ele>271</ele>
        <time>2021-01-31T09:27:46.000Z</time>
      </trkpt>
      <trkpt lat="43.45332" lon="5.85776">
        <ele>271</ele>
        <time>2021-01-31T09:27:54.000Z</time>
      </trkpt>
      <trkpt lat="43.45338" lon="5.85811">
        <ele>271</ele>
        <time>2021-01-31T09:28:01.000Z</time>
      </trkpt>
      <trkpt lat="43.45343" lon="5.85844">
        <ele>271</ele>
        <time>2021-01-31T09:28:09.000Z</time>
      </trkpt>
      <trkpt lat="43.45347" lon="5.85862">
        <ele>271</ele>
        <time>2021-01-31T09:28:15.000Z</time>
      </trkpt>
      <trkpt lat="43.45347" lon="5.85871">
        <ele>271</ele>
        <time>2021-01-31T09:28:21.000Z</time>
      </trkpt>
      <trkpt lat="43.45347" lon="5.85872">
        <ele>271</ele>
        <time>2021-01-31T09:28:23.000Z</time>
      </trkpt>
      <trkpt lat="43.45344" lon="5.85877">
        <ele>271</ele>
        <time>2021-01-31T09:28:25.000Z</time>
      </trkpt>
      <trkpt lat="43.45338" lon="5.85899">
        <ele>271</ele>
        <time>2021-01-31T09:28:30.000Z</time>
      </trkpt>
      <trkpt lat="43.4533" lon="5.85939">
        <ele>271</ele>
        <time>2021-01-31T09:28:38.000Z</time>
      </trkpt>
      <trkpt lat="43.45322" lon="5.85966">
        <ele>271</ele>
        <time>2021-01-31T09:28:44.000Z</time>
      </trkpt>
      <trkpt lat="43.45321" lon="5.85986">
        <ele>271</ele>
        <time>2021-01-31T09:28:48.000Z</time>
      </trkpt>
      <trkpt lat="43.45316" lon="5.86012">
        <ele>271</ele>
        <time>2021-01-31T09:28:53.000Z</time>
      </trkpt>
      <trkpt lat="43.45309" lon="5.86037">
        <ele>271</ele>
        <time>2021-01-31T09:28:59.000Z</time>
      </trkpt>
      <trkpt lat="43.45304" lon="5.86055">
        <ele>271</ele>
        <time>2021-01-31T09:29:02.000Z</time>
      </trkpt>
      <trkpt lat="43.45302" lon="5.86059">
        <ele>271</ele>
        <time>2021-01-31T09:29:04.000Z</time>
      </trkpt>
      <trkpt lat="43.45282" lon="5.86081">
        <ele>271</ele>
        <time>2021-01-31T09:29:11.000Z</time>
      </trkpt>
      <trkpt lat="43.45277" lon="5.86088">
        <ele>271</ele>
        <time>2021-01-31T09:29:13.000Z</time>
      </trkpt>
      <trkpt lat="43.45271" lon="5.86101">
        <ele>271</ele>
        <time>2021-01-31T09:29:16.000Z</time>
      </trkpt>
      <trkpt lat="43.45265" lon="5.86125">
        <ele>271</ele>
        <time>2021-01-31T09:29:21.000Z</time>
      </trkpt>
      <trkpt lat="43.45265" lon="5.8613">
        <ele>271</ele>
        <time>2021-01-31T09:29:22.000Z</time>
      </trkpt>
      <trkpt lat="43.45265" lon="5.86154">
        <ele>271</ele>
        <time>2021-01-31T09:29:27.000Z</time>
      </trkpt>
      <trkpt lat="43.45263" lon="5.86171">
        <ele>271</ele>
        <time>2021-01-31T09:29:32.000Z</time>
      </trkpt>
      <trkpt lat="43.4525" lon="5.86186">
        <ele>271.20001220703</ele>
        <time>2021-01-31T09:29:37.000Z</time>
      </trkpt>
      <trkpt lat="43.45236" lon="5.86209">
        <ele>271.20001220703</ele>
        <time>2021-01-31T09:29:43.000Z</time>
      </trkpt>
      <trkpt lat="43.45223" lon="5.86233">
        <ele>271.20001220703</ele>
        <time>2021-01-31T09:29:50.000Z</time>
      </trkpt>
      <trkpt lat="43.45212" lon="5.86252">
        <ele>271.39999389648</ele>
        <time>2021-01-31T09:29:56.000Z</time>
      </trkpt>
      <trkpt lat="43.45208" lon="5.86255">
        <ele>271.39999389648</ele>
        <time>2021-01-31T09:29:57.000Z</time>
      </trkpt>
      <trkpt lat="43.45194" lon="5.86273">
        <ele>271.60000610352</ele>
        <time>2021-01-31T09:30:03.000Z</time>
      </trkpt>
      <trkpt lat="43.45185" lon="5.86279">
        <ele>271.60000610352</ele>
        <time>2021-01-31T09:30:07.000Z</time>
      </trkpt>
      <trkpt lat="43.45182" lon="5.86278">
        <ele>271.60000610352</ele>
        <time>2021-01-31T09:30:08.000Z</time>
      </trkpt>
      <trkpt lat="43.45171" lon="5.86292">
        <ele>271.60000610352</ele>
        <time>2021-01-31T09:30:13.000Z</time>
      </trkpt>
      <trkpt lat="43.45158" lon="5.86317">
        <ele>271.79998779297</ele>
        <time>2021-01-31T09:30:19.000Z</time>
      </trkpt>
      <trkpt lat="43.45137" lon="5.86347">
        <ele>271.79998779297</ele>
        <time>2021-01-31T09:30:26.000Z</time>
      </trkpt>
      <trkpt lat="43.45134" lon="5.8635">
        <ele>271.79998779297</ele>
        <time>2021-01-31T09:30:27.000Z</time>
      </trkpt>
      <trkpt lat="43.45126" lon="5.86371">
        <ele>272</ele>
        <time>2021-01-31T09:30:31.000Z</time>
      </trkpt>
      <trkpt lat="43.45116" lon="5.86397">
        <ele>272</ele>
        <time>2021-01-31T09:30:37.000Z</time>
      </trkpt>
      <trkpt lat="43.45118" lon="5.86407">
        <ele>272</ele>
        <time>2021-01-31T09:30:41.000Z</time>
      </trkpt>
      <trkpt lat="43.4513" lon="5.86415">
        <ele>272</ele>
        <time>2021-01-31T09:30:45.000Z</time>
      </trkpt>
      <trkpt lat="43.45148" lon="5.86421">
        <ele>272</ele>
        <time>2021-01-31T09:30:50.000Z</time>
      </trkpt>
      <trkpt lat="43.45156" lon="5.86425">
        <ele>272</ele>
        <time>2021-01-31T09:30:52.000Z</time>
      </trkpt>
      <trkpt lat="43.45167" lon="5.8643">
        <ele>272</ele>
        <time>2021-01-31T09:30:55.000Z</time>
      </trkpt>
      <trkpt lat="43.4517" lon="5.86436">
        <ele>272</ele>
        <time>2021-01-31T09:30:57.000Z</time>
      </trkpt>
      <trkpt lat="43.4517" lon="5.86441">
        <ele>272</ele>
        <time>2021-01-31T09:30:58.000Z</time>
      </trkpt>
      <trkpt lat="43.45165" lon="5.86465">
        <ele>272</ele>
        <time>2021-01-31T09:31:03.000Z</time>
      </trkpt>
      <trkpt lat="43.4516" lon="5.86489">
        <ele>272</ele>
        <time>2021-01-31T09:31:08.000Z</time>
      </trkpt>
      <trkpt lat="43.4516" lon="5.86523">
        <ele>272</ele>
        <time>2021-01-31T09:31:14.000Z</time>
      </trkpt>
      <trkpt lat="43.45157" lon="5.86561">
        <ele>272</ele>
        <time>2021-01-31T09:31:21.000Z</time>
      </trkpt>
      <trkpt lat="43.45152" lon="5.8658">
        <ele>272</ele>
        <time>2021-01-31T09:31:26.000Z</time>
      </trkpt>
      <trkpt lat="43.45142" lon="5.86583">
        <ele>272</ele>
        <time>2021-01-31T09:31:30.000Z</time>
      </trkpt>
      <trkpt lat="43.45127" lon="5.86588">
        <ele>272</ele>
        <time>2021-01-31T09:31:35.000Z</time>
      </trkpt>
      <trkpt lat="43.45126" lon="5.86592">
        <ele>272</ele>
        <time>2021-01-31T09:31:36.000Z</time>
      </trkpt>
      <trkpt lat="43.45127" lon="5.86604">
        <ele>272.20001220703</ele>
        <time>2021-01-31T09:31:38.000Z</time>
      </trkpt>
      <trkpt lat="43.45129" lon="5.86621">
        <ele>272.20001220703</ele>
        <time>2021-01-31T09:31:41.000Z</time>
      </trkpt>
      <trkpt lat="43.45128" lon="5.86633">
        <ele>272.20001220703</ele>
        <time>2021-01-31T09:31:43.000Z</time>
      </trkpt>
      <trkpt lat="43.45126" lon="5.86644">
        <ele>272.20001220703</ele>
        <time>2021-01-31T09:31:45.000Z</time>
      </trkpt>
      <trkpt lat="43.45122" lon="5.86653">
        <ele>272.20001220703</ele>
        <time>2021-01-31T09:31:47.000Z</time>
      </trkpt>
      <trkpt lat="43.45119" lon="5.86658">
        <ele>272.20001220703</ele>
        <time>2021-01-31T09:31:48.000Z</time>
      </trkpt>
      <trkpt lat="43.45117" lon="5.86662">
        <ele>272.20001220703</ele>
        <time>2021-01-31T09:31:49.000Z</time>
      </trkpt>
      <trkpt lat="43.451" lon="5.86688">
        <ele>272.20001220703</ele>
        <time>2021-01-31T09:31:55.000Z</time>
      </trkpt>
      <trkpt lat="43.45075" lon="5.86721">
        <ele>272.20001220703</ele>
        <time>2021-01-31T09:32:03.000Z</time>
      </trkpt>
      <trkpt lat="43.45047" lon="5.86758">
        <ele>272.20001220703</ele>
        <time>2021-01-31T09:32:12.000Z</time>
      </trkpt>
      <trkpt lat="43.45024" lon="5.86784">
        <ele>272.20001220703</ele>
        <time>2021-01-31T09:32:19.000Z</time>
      </trkpt>
      <trkpt lat="43.45" lon="5.86812">
        <ele>272.20001220703</ele>
        <time>2021-01-31T09:32:27.000Z</time>
      </trkpt>
      <trkpt lat="43.44983" lon="5.86835">
        <ele>272.20001220703</ele>
        <time>2021-01-31T09:32:34.000Z</time>
      </trkpt>
      <trkpt lat="43.44975" lon="5.86863">
        <ele>272.20001220703</ele>
        <time>2021-01-31T09:32:40.000Z</time>
      </trkpt>
      <trkpt lat="43.44968" lon="5.86899">
        <ele>272.20001220703</ele>
        <time>2021-01-31T09:32:46.000Z</time>
      </trkpt>
      <trkpt lat="43.44965" lon="5.8692">
        <ele>272.20001220703</ele>
        <time>2021-01-31T09:32:49.000Z</time>
      </trkpt>
      <trkpt lat="43.44962" lon="5.86934">
        <ele>272.20001220703</ele>
        <time>2021-01-31T09:32:51.000Z</time>
      </trkpt>
      <trkpt lat="43.44962" lon="5.8694">
        <ele>272.20001220703</ele>
        <time>2021-01-31T09:32:52.000Z</time>
      </trkpt>
      <trkpt lat="43.44963" lon="5.86953">
        <ele>272.20001220703</ele>
        <time>2021-01-31T09:32:56.000Z</time>
      </trkpt>
      <trkpt lat="43.44962" lon="5.86952">
        <ele>272.20001220703</ele>
        <time>2021-01-31T09:32:59.000Z</time>
      </trkpt>
    </trkseg>
  </trk>
</gpx>